<?xml version="1.0" encoding="UTF-8" standalone="no" ?>
<gpx xmlns="http://www.topografix.com/GPX/1/1" xmlns:xsi="http://www.w3.org/2001/XMLSchema-instance" xsi:schemaLocation="http://www.topografix.com/GPX/1/1 http://www.topografix.com/GPX/1/1/gpx.xsd" version="1.1" creator="VisuGPX - https://www.visugpx.com">
  <metadata>
    <name>Madone d\'Utelle : Tour anti-horaire par la chapelle St Antoine</name>
    <desc><![CDATA[Ce topo est fantastique de par les panoramas qu\'il offre. Cependant la montée sur le GR 5 entre le Cros d\'Utelle et Utelle est très exigeante. Une fois à Utelle, le parcours suit celui des transvésubiennes 2009-2010 et 2011 jusqu\'au Cros d\'Utelle. Une véritable régalade, mais qui se mérite.]]></desc>
  </metadata>
  <trk>
    <name><![CDATA[15/09/2012 13:52]]></name>
    <desc><![CDATA[]]></desc>
    <trkseg>
      <trkpt lat="43.88334" lon="7.23673">
        <ele>405.6</ele>
        <time>2012-09-15T11:52:34.000Z</time>
      </trkpt>
      <trkpt lat="43.88334" lon="7.23667">
        <ele>415.4</ele>
        <time>2012-09-15T11:52:36.000Z</time>
      </trkpt>
      <trkpt lat="43.88334" lon="7.23656">
        <ele>389.3</ele>
        <time>2012-09-15T11:52:37.000Z</time>
      </trkpt>
      <trkpt lat="43.88342" lon="7.23664">
        <ele>407.6</ele>
        <time>2012-09-15T11:52:38.000Z</time>
      </trkpt>
      <trkpt lat="43.88336" lon="7.23669">
        <ele>406.5</ele>
        <time>2012-09-15T11:52:39.000Z</time>
      </trkpt>
      <trkpt lat="43.88338" lon="7.23677">
        <ele>407.1</ele>
        <time>2012-09-15T11:52:42.000Z</time>
      </trkpt>
      <trkpt lat="43.88339" lon="7.23683">
        <ele>411.3</ele>
        <time>2012-09-15T11:52:45.000Z</time>
      </trkpt>
      <trkpt lat="43.88344" lon="7.23681">
        <ele>407</ele>
        <time>2012-09-15T11:53:28.000Z</time>
      </trkpt>
      <trkpt lat="43.8834" lon="7.23685">
        <ele>403.3</ele>
        <time>2012-09-15T11:53:34.000Z</time>
      </trkpt>
      <trkpt lat="43.88344" lon="7.2369">
        <ele>401.1</ele>
        <time>2012-09-15T11:56:03.000Z</time>
      </trkpt>
      <trkpt lat="43.88347" lon="7.23699">
        <ele>401.6</ele>
        <time>2012-09-15T11:56:05.000Z</time>
      </trkpt>
      <trkpt lat="43.88349" lon="7.23708">
        <ele>400.6</ele>
        <time>2012-09-15T11:56:07.000Z</time>
      </trkpt>
      <trkpt lat="43.88354" lon="7.23712">
        <ele>399.7</ele>
        <time>2012-09-15T11:56:09.000Z</time>
      </trkpt>
      <trkpt lat="43.8836" lon="7.23716">
        <ele>399.4</ele>
        <time>2012-09-15T11:56:12.000Z</time>
      </trkpt>
      <trkpt lat="43.88361" lon="7.23723">
        <ele>400</ele>
        <time>2012-09-15T11:56:16.000Z</time>
      </trkpt>
      <trkpt lat="43.88359" lon="7.23716">
        <ele>400</ele>
        <time>2012-09-15T11:56:20.000Z</time>
      </trkpt>
      <trkpt lat="43.88356" lon="7.23712">
        <ele>402.8</ele>
        <time>2012-09-15T11:56:24.000Z</time>
      </trkpt>
      <trkpt lat="43.88354" lon="7.23702">
        <ele>402.8</ele>
        <time>2012-09-15T11:56:30.000Z</time>
      </trkpt>
      <trkpt lat="43.88353" lon="7.23694">
        <ele>403.9</ele>
        <time>2012-09-15T11:56:34.000Z</time>
      </trkpt>
      <trkpt lat="43.8835" lon="7.23689">
        <ele>402.8</ele>
        <time>2012-09-15T11:56:37.000Z</time>
      </trkpt>
      <trkpt lat="43.88349" lon="7.23682">
        <ele>404.4</ele>
        <time>2012-09-15T11:56:40.000Z</time>
      </trkpt>
      <trkpt lat="43.88346" lon="7.23676">
        <ele>399.9</ele>
        <time>2012-09-15T11:56:43.000Z</time>
      </trkpt>
      <trkpt lat="43.88346" lon="7.23668">
        <ele>396.5</ele>
        <time>2012-09-15T11:56:46.000Z</time>
      </trkpt>
      <trkpt lat="43.88344" lon="7.2366">
        <ele>400.3</ele>
        <time>2012-09-15T11:56:50.000Z</time>
      </trkpt>
      <trkpt lat="43.88343" lon="7.23653">
        <ele>398.1</ele>
        <time>2012-09-15T11:56:53.000Z</time>
      </trkpt>
      <trkpt lat="43.88343" lon="7.23645">
        <ele>400.5</ele>
        <time>2012-09-15T11:56:57.000Z</time>
      </trkpt>
      <trkpt lat="43.88344" lon="7.23638">
        <ele>395.7</ele>
        <time>2012-09-15T11:57:01.000Z</time>
      </trkpt>
      <trkpt lat="43.88345" lon="7.2363">
        <ele>395.4</ele>
        <time>2012-09-15T11:57:05.000Z</time>
      </trkpt>
      <trkpt lat="43.88347" lon="7.23623">
        <ele>394.7</ele>
        <time>2012-09-15T11:57:08.000Z</time>
      </trkpt>
      <trkpt lat="43.88348" lon="7.23616">
        <ele>393.5</ele>
        <time>2012-09-15T11:57:11.000Z</time>
      </trkpt>
      <trkpt lat="43.88348" lon="7.2361">
        <ele>396.1</ele>
        <time>2012-09-15T11:57:14.000Z</time>
      </trkpt>
      <trkpt lat="43.88349" lon="7.23603">
        <ele>400.1</ele>
        <time>2012-09-15T11:57:17.000Z</time>
      </trkpt>
      <trkpt lat="43.88349" lon="7.23594">
        <ele>402.3</ele>
        <time>2012-09-15T11:57:21.000Z</time>
      </trkpt>
      <trkpt lat="43.88349" lon="7.23588">
        <ele>403.3</ele>
        <time>2012-09-15T11:57:24.000Z</time>
      </trkpt>
      <trkpt lat="43.88351" lon="7.23581">
        <ele>405.1</ele>
        <time>2012-09-15T11:57:27.000Z</time>
      </trkpt>
      <trkpt lat="43.88354" lon="7.23575">
        <ele>404.9</ele>
        <time>2012-09-15T11:57:31.000Z</time>
      </trkpt>
      <trkpt lat="43.88356" lon="7.23569">
        <ele>406.3</ele>
        <time>2012-09-15T11:57:34.000Z</time>
      </trkpt>
      <trkpt lat="43.8836" lon="7.23564">
        <ele>407.3</ele>
        <time>2012-09-15T11:57:37.000Z</time>
      </trkpt>
      <trkpt lat="43.88363" lon="7.23559">
        <ele>407.2</ele>
        <time>2012-09-15T11:57:40.000Z</time>
      </trkpt>
      <trkpt lat="43.88367" lon="7.23555">
        <ele>408.2</ele>
        <time>2012-09-15T11:57:43.000Z</time>
      </trkpt>
      <trkpt lat="43.8837" lon="7.23551">
        <ele>408.9</ele>
        <time>2012-09-15T11:57:46.000Z</time>
      </trkpt>
      <trkpt lat="43.88374" lon="7.23546">
        <ele>404.9</ele>
        <time>2012-09-15T11:57:49.000Z</time>
      </trkpt>
      <trkpt lat="43.88378" lon="7.23542">
        <ele>404.6</ele>
        <time>2012-09-15T11:57:52.000Z</time>
      </trkpt>
      <trkpt lat="43.88382" lon="7.23538">
        <ele>403.8</ele>
        <time>2012-09-15T11:57:55.000Z</time>
      </trkpt>
      <trkpt lat="43.88387" lon="7.23534">
        <ele>401.6</ele>
        <time>2012-09-15T11:57:58.000Z</time>
      </trkpt>
      <trkpt lat="43.88393" lon="7.23531">
        <ele>401.2</ele>
        <time>2012-09-15T11:58:01.000Z</time>
      </trkpt>
      <trkpt lat="43.88398" lon="7.23529">
        <ele>403.1</ele>
        <time>2012-09-15T11:58:02.000Z</time>
      </trkpt>
      <trkpt lat="43.88404" lon="7.23527">
        <ele>403.5</ele>
        <time>2012-09-15T11:58:04.000Z</time>
      </trkpt>
      <trkpt lat="43.8841" lon="7.23526">
        <ele>404.2</ele>
        <time>2012-09-15T11:58:07.000Z</time>
      </trkpt>
      <trkpt lat="43.88417" lon="7.23524">
        <ele>404</ele>
        <time>2012-09-15T11:58:10.000Z</time>
      </trkpt>
      <trkpt lat="43.88423" lon="7.23523">
        <ele>405.6</ele>
        <time>2012-09-15T11:58:14.000Z</time>
      </trkpt>
      <trkpt lat="43.88428" lon="7.23521">
        <ele>407.5</ele>
        <time>2012-09-15T11:58:17.000Z</time>
      </trkpt>
      <trkpt lat="43.88433" lon="7.23522">
        <ele>411.8</ele>
        <time>2012-09-15T11:58:20.000Z</time>
      </trkpt>
      <trkpt lat="43.8844" lon="7.23522">
        <ele>413</ele>
        <time>2012-09-15T11:58:23.000Z</time>
      </trkpt>
      <trkpt lat="43.88446" lon="7.2352">
        <ele>415.5</ele>
        <time>2012-09-15T11:58:27.000Z</time>
      </trkpt>
      <trkpt lat="43.88452" lon="7.2352">
        <ele>414.7</ele>
        <time>2012-09-15T11:58:30.000Z</time>
      </trkpt>
      <trkpt lat="43.88457" lon="7.23519">
        <ele>415.4</ele>
        <time>2012-09-15T11:58:33.000Z</time>
      </trkpt>
      <trkpt lat="43.88463" lon="7.23518">
        <ele>419.7</ele>
        <time>2012-09-15T11:58:37.000Z</time>
      </trkpt>
      <trkpt lat="43.88468" lon="7.23516">
        <ele>420.6</ele>
        <time>2012-09-15T11:58:40.000Z</time>
      </trkpt>
      <trkpt lat="43.88473" lon="7.23515">
        <ele>423.4</ele>
        <time>2012-09-15T11:58:44.000Z</time>
      </trkpt>
      <trkpt lat="43.88478" lon="7.23514">
        <ele>423.3</ele>
        <time>2012-09-15T11:58:47.000Z</time>
      </trkpt>
      <trkpt lat="43.88483" lon="7.23513">
        <ele>424.4</ele>
        <time>2012-09-15T11:58:50.000Z</time>
      </trkpt>
      <trkpt lat="43.88488" lon="7.23512">
        <ele>426.1</ele>
        <time>2012-09-15T11:58:53.000Z</time>
      </trkpt>
      <trkpt lat="43.88493" lon="7.23513">
        <ele>426</ele>
        <time>2012-09-15T11:58:56.000Z</time>
      </trkpt>
      <trkpt lat="43.88499" lon="7.23512">
        <ele>425.8</ele>
        <time>2012-09-15T11:59:00.000Z</time>
      </trkpt>
      <trkpt lat="43.88504" lon="7.23511">
        <ele>424.5</ele>
        <time>2012-09-15T11:59:03.000Z</time>
      </trkpt>
      <trkpt lat="43.88509" lon="7.23508">
        <ele>425.8</ele>
        <time>2012-09-15T11:59:08.000Z</time>
      </trkpt>
      <trkpt lat="43.88514" lon="7.23507">
        <ele>427.3</ele>
        <time>2012-09-15T11:59:12.000Z</time>
      </trkpt>
      <trkpt lat="43.88519" lon="7.23506">
        <ele>427.4</ele>
        <time>2012-09-15T11:59:15.000Z</time>
      </trkpt>
      <trkpt lat="43.88523" lon="7.23504">
        <ele>427.5</ele>
        <time>2012-09-15T11:59:18.000Z</time>
      </trkpt>
      <trkpt lat="43.88528" lon="7.23502">
        <ele>428.6</ele>
        <time>2012-09-15T11:59:22.000Z</time>
      </trkpt>
      <trkpt lat="43.88533" lon="7.23499">
        <ele>428.3</ele>
        <time>2012-09-15T11:59:25.000Z</time>
      </trkpt>
      <trkpt lat="43.88537" lon="7.23494">
        <ele>428.3</ele>
        <time>2012-09-15T11:59:29.000Z</time>
      </trkpt>
      <trkpt lat="43.88541" lon="7.23489">
        <ele>427.8</ele>
        <time>2012-09-15T11:59:33.000Z</time>
      </trkpt>
      <trkpt lat="43.88546" lon="7.23486">
        <ele>427.2</ele>
        <time>2012-09-15T11:59:37.000Z</time>
      </trkpt>
      <trkpt lat="43.8855" lon="7.23489">
        <ele>426.7</ele>
        <time>2012-09-15T11:59:41.000Z</time>
      </trkpt>
      <trkpt lat="43.88549" lon="7.23496">
        <ele>427.1</ele>
        <time>2012-09-15T11:59:44.000Z</time>
      </trkpt>
      <trkpt lat="43.88544" lon="7.23499">
        <ele>427.3</ele>
        <time>2012-09-15T11:59:47.000Z</time>
      </trkpt>
      <trkpt lat="43.88539" lon="7.23502">
        <ele>429.3</ele>
        <time>2012-09-15T11:59:52.000Z</time>
      </trkpt>
      <trkpt lat="43.88535" lon="7.23507">
        <ele>428</ele>
        <time>2012-09-15T11:59:57.000Z</time>
      </trkpt>
      <trkpt lat="43.8853" lon="7.23511">
        <ele>428.5</ele>
        <time>2012-09-15T12:00:01.000Z</time>
      </trkpt>
      <trkpt lat="43.88527" lon="7.23516">
        <ele>434.4</ele>
        <time>2012-09-15T12:00:06.000Z</time>
      </trkpt>
      <trkpt lat="43.88521" lon="7.2352">
        <ele>434</ele>
        <time>2012-09-15T12:00:09.000Z</time>
      </trkpt>
      <trkpt lat="43.8852" lon="7.23513">
        <ele>429.7</ele>
        <time>2012-09-15T12:00:11.000Z</time>
      </trkpt>
      <trkpt lat="43.88516" lon="7.2352">
        <ele>431.6</ele>
        <time>2012-09-15T12:00:14.000Z</time>
      </trkpt>
      <trkpt lat="43.8851" lon="7.23524">
        <ele>433</ele>
        <time>2012-09-15T12:00:17.000Z</time>
      </trkpt>
      <trkpt lat="43.88506" lon="7.23528">
        <ele>433</ele>
        <time>2012-09-15T12:00:21.000Z</time>
      </trkpt>
      <trkpt lat="43.88501" lon="7.23529">
        <ele>434.1</ele>
        <time>2012-09-15T12:00:24.000Z</time>
      </trkpt>
      <trkpt lat="43.88498" lon="7.23534">
        <ele>434.1</ele>
        <time>2012-09-15T12:00:27.000Z</time>
      </trkpt>
      <trkpt lat="43.88496" lon="7.2354">
        <ele>434.3</ele>
        <time>2012-09-15T12:00:31.000Z</time>
      </trkpt>
      <trkpt lat="43.88491" lon="7.23544">
        <ele>435.2</ele>
        <time>2012-09-15T12:00:35.000Z</time>
      </trkpt>
      <trkpt lat="43.88487" lon="7.23548">
        <ele>438.6</ele>
        <time>2012-09-15T12:00:39.000Z</time>
      </trkpt>
      <trkpt lat="43.88483" lon="7.23552">
        <ele>438.9</ele>
        <time>2012-09-15T12:00:43.000Z</time>
      </trkpt>
      <trkpt lat="43.88478" lon="7.23557">
        <ele>439.5</ele>
        <time>2012-09-15T12:00:47.000Z</time>
      </trkpt>
      <trkpt lat="43.88474" lon="7.23561">
        <ele>441.6</ele>
        <time>2012-09-15T12:00:51.000Z</time>
      </trkpt>
      <trkpt lat="43.88471" lon="7.23566">
        <ele>443.1</ele>
        <time>2012-09-15T12:00:55.000Z</time>
      </trkpt>
      <trkpt lat="43.88468" lon="7.23571">
        <ele>444.1</ele>
        <time>2012-09-15T12:00:59.000Z</time>
      </trkpt>
      <trkpt lat="43.88466" lon="7.23578">
        <ele>445.3</ele>
        <time>2012-09-15T12:01:04.000Z</time>
      </trkpt>
      <trkpt lat="43.88463" lon="7.23585">
        <ele>447.7</ele>
        <time>2012-09-15T12:01:09.000Z</time>
      </trkpt>
      <trkpt lat="43.88461" lon="7.23591">
        <ele>450</ele>
        <time>2012-09-15T12:01:14.000Z</time>
      </trkpt>
      <trkpt lat="43.88461" lon="7.23599">
        <ele>450.5</ele>
        <time>2012-09-15T12:01:18.000Z</time>
      </trkpt>
      <trkpt lat="43.88462" lon="7.23607">
        <ele>450.5</ele>
        <time>2012-09-15T12:01:23.000Z</time>
      </trkpt>
      <trkpt lat="43.88462" lon="7.23614">
        <ele>450.9</ele>
        <time>2012-09-15T12:01:27.000Z</time>
      </trkpt>
      <trkpt lat="43.88462" lon="7.23622">
        <ele>452</ele>
        <time>2012-09-15T12:01:31.000Z</time>
      </trkpt>
      <trkpt lat="43.8846" lon="7.23628">
        <ele>451.8</ele>
        <time>2012-09-15T12:01:35.000Z</time>
      </trkpt>
      <trkpt lat="43.88459" lon="7.23636">
        <ele>452.5</ele>
        <time>2012-09-15T12:01:40.000Z</time>
      </trkpt>
      <trkpt lat="43.88459" lon="7.23642">
        <ele>454.5</ele>
        <time>2012-09-15T12:01:45.000Z</time>
      </trkpt>
      <trkpt lat="43.88464" lon="7.2364">
        <ele>456.6</ele>
        <time>2012-09-15T12:02:06.000Z</time>
      </trkpt>
      <trkpt lat="43.88463" lon="7.23647">
        <ele>455.6</ele>
        <time>2012-09-15T12:02:14.000Z</time>
      </trkpt>
      <trkpt lat="43.88465" lon="7.23653">
        <ele>456</ele>
        <time>2012-09-15T12:02:24.000Z</time>
      </trkpt>
      <trkpt lat="43.88465" lon="7.23646">
        <ele>458.2</ele>
        <time>2012-09-15T12:02:35.000Z</time>
      </trkpt>
      <trkpt lat="43.88467" lon="7.23641">
        <ele>456.8</ele>
        <time>2012-09-15T12:02:50.000Z</time>
      </trkpt>
      <trkpt lat="43.88466" lon="7.23647">
        <ele>458.3</ele>
        <time>2012-09-15T12:03:48.000Z</time>
      </trkpt>
      <trkpt lat="43.88467" lon="7.23654">
        <ele>456.7</ele>
        <time>2012-09-15T12:03:54.000Z</time>
      </trkpt>
      <trkpt lat="43.88468" lon="7.23661">
        <ele>453.9</ele>
        <time>2012-09-15T12:03:58.000Z</time>
      </trkpt>
      <trkpt lat="43.88469" lon="7.2367">
        <ele>451.4</ele>
        <time>2012-09-15T12:04:02.000Z</time>
      </trkpt>
      <trkpt lat="43.88468" lon="7.23677">
        <ele>451.3</ele>
        <time>2012-09-15T12:04:06.000Z</time>
      </trkpt>
      <trkpt lat="43.88472" lon="7.23684">
        <ele>451.5</ele>
        <time>2012-09-15T12:04:11.000Z</time>
      </trkpt>
      <trkpt lat="43.88474" lon="7.23693">
        <ele>450.8</ele>
        <time>2012-09-15T12:04:15.000Z</time>
      </trkpt>
      <trkpt lat="43.88476" lon="7.23699">
        <ele>452.1</ele>
        <time>2012-09-15T12:04:17.000Z</time>
      </trkpt>
      <trkpt lat="43.88478" lon="7.23707">
        <ele>452.2</ele>
        <time>2012-09-15T12:04:20.000Z</time>
      </trkpt>
      <trkpt lat="43.88478" lon="7.23716">
        <ele>452.5</ele>
        <time>2012-09-15T12:04:23.000Z</time>
      </trkpt>
      <trkpt lat="43.88483" lon="7.23724">
        <ele>452</ele>
        <time>2012-09-15T12:04:26.000Z</time>
      </trkpt>
      <trkpt lat="43.88488" lon="7.23728">
        <ele>453.3</ele>
        <time>2012-09-15T12:04:28.000Z</time>
      </trkpt>
      <trkpt lat="43.88488" lon="7.23735">
        <ele>453.3</ele>
        <time>2012-09-15T12:04:39.000Z</time>
      </trkpt>
      <trkpt lat="43.88487" lon="7.23742">
        <ele>457.3</ele>
        <time>2012-09-15T12:04:46.000Z</time>
      </trkpt>
      <trkpt lat="43.88488" lon="7.23749">
        <ele>460.7</ele>
        <time>2012-09-15T12:04:56.000Z</time>
      </trkpt>
      <trkpt lat="43.88487" lon="7.23756">
        <ele>461.5</ele>
        <time>2012-09-15T12:05:00.000Z</time>
      </trkpt>
      <trkpt lat="43.88485" lon="7.23762">
        <ele>463.6</ele>
        <time>2012-09-15T12:05:03.000Z</time>
      </trkpt>
      <trkpt lat="43.88488" lon="7.23768">
        <ele>464</ele>
        <time>2012-09-15T12:05:06.000Z</time>
      </trkpt>
      <trkpt lat="43.88488" lon="7.23775">
        <ele>466.9</ele>
        <time>2012-09-15T12:05:10.000Z</time>
      </trkpt>
      <trkpt lat="43.88486" lon="7.23783">
        <ele>467.4</ele>
        <time>2012-09-15T12:05:13.000Z</time>
      </trkpt>
      <trkpt lat="43.88483" lon="7.2379">
        <ele>465.1</ele>
        <time>2012-09-15T12:05:15.000Z</time>
      </trkpt>
      <trkpt lat="43.88481" lon="7.23798">
        <ele>464.5</ele>
        <time>2012-09-15T12:05:18.000Z</time>
      </trkpt>
      <trkpt lat="43.88478" lon="7.23806">
        <ele>462.7</ele>
        <time>2012-09-15T12:05:21.000Z</time>
      </trkpt>
      <trkpt lat="43.88476" lon="7.23812">
        <ele>463.7</ele>
        <time>2012-09-15T12:05:24.000Z</time>
      </trkpt>
      <trkpt lat="43.88479" lon="7.23818">
        <ele>465.3</ele>
        <time>2012-09-15T12:05:34.000Z</time>
      </trkpt>
      <trkpt lat="43.8848" lon="7.23824">
        <ele>464.6</ele>
        <time>2012-09-15T12:05:42.000Z</time>
      </trkpt>
      <trkpt lat="43.8848" lon="7.23831">
        <ele>465.9</ele>
        <time>2012-09-15T12:05:50.000Z</time>
      </trkpt>
      <trkpt lat="43.88479" lon="7.23838">
        <ele>465.4</ele>
        <time>2012-09-15T12:05:55.000Z</time>
      </trkpt>
      <trkpt lat="43.88479" lon="7.23844">
        <ele>466.2</ele>
        <time>2012-09-15T12:06:00.000Z</time>
      </trkpt>
      <trkpt lat="43.8848" lon="7.23853">
        <ele>467.1</ele>
        <time>2012-09-15T12:06:14.000Z</time>
      </trkpt>
      <trkpt lat="43.8848" lon="7.23862">
        <ele>466.1</ele>
        <time>2012-09-15T12:06:17.000Z</time>
      </trkpt>
      <trkpt lat="43.8848" lon="7.2387">
        <ele>466.4</ele>
        <time>2012-09-15T12:06:20.000Z</time>
      </trkpt>
      <trkpt lat="43.88481" lon="7.23877">
        <ele>465.5</ele>
        <time>2012-09-15T12:06:22.000Z</time>
      </trkpt>
      <trkpt lat="43.8848" lon="7.23886">
        <ele>464.6</ele>
        <time>2012-09-15T12:06:25.000Z</time>
      </trkpt>
      <trkpt lat="43.8848" lon="7.23893">
        <ele>464.4</ele>
        <time>2012-09-15T12:06:27.000Z</time>
      </trkpt>
      <trkpt lat="43.8848" lon="7.23902">
        <ele>464.3</ele>
        <time>2012-09-15T12:06:30.000Z</time>
      </trkpt>
      <trkpt lat="43.8848" lon="7.2391">
        <ele>466.4</ele>
        <time>2012-09-15T12:06:33.000Z</time>
      </trkpt>
      <trkpt lat="43.88481" lon="7.23917">
        <ele>465.8</ele>
        <time>2012-09-15T12:06:36.000Z</time>
      </trkpt>
      <trkpt lat="43.8848" lon="7.23925">
        <ele>465.8</ele>
        <time>2012-09-15T12:06:39.000Z</time>
      </trkpt>
      <trkpt lat="43.88479" lon="7.23934">
        <ele>464.5</ele>
        <time>2012-09-15T12:06:41.000Z</time>
      </trkpt>
      <trkpt lat="43.88479" lon="7.23943">
        <ele>464.2</ele>
        <time>2012-09-15T12:06:43.000Z</time>
      </trkpt>
      <trkpt lat="43.8848" lon="7.23951">
        <ele>464.4</ele>
        <time>2012-09-15T12:06:45.000Z</time>
      </trkpt>
      <trkpt lat="43.8848" lon="7.23962">
        <ele>463.9</ele>
        <time>2012-09-15T12:06:47.000Z</time>
      </trkpt>
      <trkpt lat="43.88481" lon="7.23968">
        <ele>464</ele>
        <time>2012-09-15T12:06:50.000Z</time>
      </trkpt>
      <trkpt lat="43.88481" lon="7.23975">
        <ele>462.2</ele>
        <time>2012-09-15T12:06:54.000Z</time>
      </trkpt>
      <trkpt lat="43.88483" lon="7.23982">
        <ele>461.4</ele>
        <time>2012-09-15T12:06:56.000Z</time>
      </trkpt>
      <trkpt lat="43.88485" lon="7.23987">
        <ele>460.6</ele>
        <time>2012-09-15T12:06:58.000Z</time>
      </trkpt>
      <trkpt lat="43.88485" lon="7.23993">
        <ele>460</ele>
        <time>2012-09-15T12:07:00.000Z</time>
      </trkpt>
      <trkpt lat="43.88484" lon="7.24001">
        <ele>459.9</ele>
        <time>2012-09-15T12:07:03.000Z</time>
      </trkpt>
      <trkpt lat="43.88483" lon="7.24007">
        <ele>458.5</ele>
        <time>2012-09-15T12:07:06.000Z</time>
      </trkpt>
      <trkpt lat="43.88487" lon="7.24013">
        <ele>455.3</ele>
        <time>2012-09-15T12:07:09.000Z</time>
      </trkpt>
      <trkpt lat="43.8849" lon="7.24018">
        <ele>453.9</ele>
        <time>2012-09-15T12:07:12.000Z</time>
      </trkpt>
      <trkpt lat="43.88494" lon="7.24024">
        <ele>454.5</ele>
        <time>2012-09-15T12:07:15.000Z</time>
      </trkpt>
      <trkpt lat="43.88496" lon="7.24029">
        <ele>454.3</ele>
        <time>2012-09-15T12:07:17.000Z</time>
      </trkpt>
      <trkpt lat="43.88499" lon="7.24035">
        <ele>454.1</ele>
        <time>2012-09-15T12:07:19.000Z</time>
      </trkpt>
      <trkpt lat="43.88504" lon="7.24037">
        <ele>455.1</ele>
        <time>2012-09-15T12:07:21.000Z</time>
      </trkpt>
      <trkpt lat="43.88507" lon="7.24042">
        <ele>454.3</ele>
        <time>2012-09-15T12:07:24.000Z</time>
      </trkpt>
      <trkpt lat="43.88512" lon="7.24044">
        <ele>455.1</ele>
        <time>2012-09-15T12:07:28.000Z</time>
      </trkpt>
      <trkpt lat="43.88518" lon="7.24047">
        <ele>454.3</ele>
        <time>2012-09-15T12:07:31.000Z</time>
      </trkpt>
      <trkpt lat="43.88521" lon="7.24054">
        <ele>453.4</ele>
        <time>2012-09-15T12:07:56.000Z</time>
      </trkpt>
      <trkpt lat="43.88526" lon="7.24059">
        <ele>452.9</ele>
        <time>2012-09-15T12:07:59.000Z</time>
      </trkpt>
      <trkpt lat="43.88531" lon="7.24064">
        <ele>452.9</ele>
        <time>2012-09-15T12:08:01.000Z</time>
      </trkpt>
      <trkpt lat="43.88536" lon="7.24068">
        <ele>451</ele>
        <time>2012-09-15T12:08:03.000Z</time>
      </trkpt>
      <trkpt lat="43.88539" lon="7.24074">
        <ele>451.7</ele>
        <time>2012-09-15T12:08:05.000Z</time>
      </trkpt>
      <trkpt lat="43.88543" lon="7.24079">
        <ele>451.8</ele>
        <time>2012-09-15T12:08:08.000Z</time>
      </trkpt>
      <trkpt lat="43.88545" lon="7.24084">
        <ele>454</ele>
        <time>2012-09-15T12:08:56.000Z</time>
      </trkpt>
      <trkpt lat="43.8855" lon="7.24085">
        <ele>456.4</ele>
        <time>2012-09-15T12:09:03.000Z</time>
      </trkpt>
      <trkpt lat="43.88554" lon="7.2409">
        <ele>458.1</ele>
        <time>2012-09-15T12:09:17.000Z</time>
      </trkpt>
      <trkpt lat="43.88559" lon="7.24096">
        <ele>459.7</ele>
        <time>2012-09-15T12:09:20.000Z</time>
      </trkpt>
      <trkpt lat="43.88563" lon="7.24101">
        <ele>459.3</ele>
        <time>2012-09-15T12:09:25.000Z</time>
      </trkpt>
      <trkpt lat="43.88568" lon="7.24099">
        <ele>458.1</ele>
        <time>2012-09-15T12:09:27.000Z</time>
      </trkpt>
      <trkpt lat="43.88571" lon="7.24105">
        <ele>460.3</ele>
        <time>2012-09-15T12:09:38.000Z</time>
      </trkpt>
      <trkpt lat="43.88575" lon="7.2411">
        <ele>460.2</ele>
        <time>2012-09-15T12:09:44.000Z</time>
      </trkpt>
      <trkpt lat="43.88576" lon="7.24117">
        <ele>463.7</ele>
        <time>2012-09-15T12:09:50.000Z</time>
      </trkpt>
      <trkpt lat="43.88579" lon="7.24124">
        <ele>465.1</ele>
        <time>2012-09-15T12:09:56.000Z</time>
      </trkpt>
      <trkpt lat="43.8858" lon="7.24131">
        <ele>464.8</ele>
        <time>2012-09-15T12:10:03.000Z</time>
      </trkpt>
      <trkpt lat="43.88581" lon="7.24137">
        <ele>467.7</ele>
        <time>2012-09-15T12:10:09.000Z</time>
      </trkpt>
      <trkpt lat="43.88583" lon="7.24143">
        <ele>471.1</ele>
        <time>2012-09-15T12:10:16.000Z</time>
      </trkpt>
      <trkpt lat="43.88583" lon="7.2415">
        <ele>471.3</ele>
        <time>2012-09-15T12:10:25.000Z</time>
      </trkpt>
      <trkpt lat="43.88586" lon="7.24157">
        <ele>473.4</ele>
        <time>2012-09-15T12:10:33.000Z</time>
      </trkpt>
      <trkpt lat="43.88587" lon="7.24164">
        <ele>473.1</ele>
        <time>2012-09-15T12:10:38.000Z</time>
      </trkpt>
      <trkpt lat="43.88589" lon="7.24169">
        <ele>471.4</ele>
        <time>2012-09-15T12:10:49.000Z</time>
      </trkpt>
      <trkpt lat="43.8859" lon="7.24175">
        <ele>472</ele>
        <time>2012-09-15T12:10:56.000Z</time>
      </trkpt>
      <trkpt lat="43.88589" lon="7.24182">
        <ele>474.6</ele>
        <time>2012-09-15T12:11:04.000Z</time>
      </trkpt>
      <trkpt lat="43.8859" lon="7.24188">
        <ele>475.1</ele>
        <time>2012-09-15T12:11:12.000Z</time>
      </trkpt>
      <trkpt lat="43.8859" lon="7.24194">
        <ele>476.6</ele>
        <time>2012-09-15T12:11:19.000Z</time>
      </trkpt>
      <trkpt lat="43.88591" lon="7.24201">
        <ele>477.5</ele>
        <time>2012-09-15T12:11:36.000Z</time>
      </trkpt>
      <trkpt lat="43.8859" lon="7.24207">
        <ele>480.6</ele>
        <time>2012-09-15T12:11:45.000Z</time>
      </trkpt>
      <trkpt lat="43.88591" lon="7.24214">
        <ele>483.7</ele>
        <time>2012-09-15T12:11:51.000Z</time>
      </trkpt>
      <trkpt lat="43.88592" lon="7.24221">
        <ele>485.8</ele>
        <time>2012-09-15T12:11:59.000Z</time>
      </trkpt>
      <trkpt lat="43.88593" lon="7.24228">
        <ele>485.3</ele>
        <time>2012-09-15T12:12:05.000Z</time>
      </trkpt>
      <trkpt lat="43.88595" lon="7.24234">
        <ele>486.2</ele>
        <time>2012-09-15T12:12:12.000Z</time>
      </trkpt>
      <trkpt lat="43.88596" lon="7.2424">
        <ele>487.8</ele>
        <time>2012-09-15T12:12:18.000Z</time>
      </trkpt>
      <trkpt lat="43.88597" lon="7.24246">
        <ele>489.8</ele>
        <time>2012-09-15T12:12:29.000Z</time>
      </trkpt>
      <trkpt lat="43.88597" lon="7.24253">
        <ele>492.4</ele>
        <time>2012-09-15T12:12:36.000Z</time>
      </trkpt>
      <trkpt lat="43.88596" lon="7.2426">
        <ele>491</ele>
        <time>2012-09-15T12:12:43.000Z</time>
      </trkpt>
      <trkpt lat="43.88598" lon="7.24266">
        <ele>490.7</ele>
        <time>2012-09-15T12:12:48.000Z</time>
      </trkpt>
      <trkpt lat="43.88602" lon="7.24263">
        <ele>491.4</ele>
        <time>2012-09-15T12:12:54.000Z</time>
      </trkpt>
      <trkpt lat="43.88604" lon="7.24257">
        <ele>494.1</ele>
        <time>2012-09-15T12:13:02.000Z</time>
      </trkpt>
      <trkpt lat="43.88607" lon="7.24251">
        <ele>501.1</ele>
        <time>2012-09-15T12:13:12.000Z</time>
      </trkpt>
      <trkpt lat="43.88607" lon="7.24244">
        <ele>503.1</ele>
        <time>2012-09-15T12:13:19.000Z</time>
      </trkpt>
      <trkpt lat="43.8861" lon="7.24238">
        <ele>501.5</ele>
        <time>2012-09-15T12:13:26.000Z</time>
      </trkpt>
      <trkpt lat="43.88611" lon="7.24232">
        <ele>501.1</ele>
        <time>2012-09-15T12:13:33.000Z</time>
      </trkpt>
      <trkpt lat="43.88612" lon="7.24225">
        <ele>501.7</ele>
        <time>2012-09-15T12:13:41.000Z</time>
      </trkpt>
      <trkpt lat="43.88613" lon="7.24218">
        <ele>501.6</ele>
        <time>2012-09-15T12:13:52.000Z</time>
      </trkpt>
      <trkpt lat="43.88614" lon="7.24211">
        <ele>505.9</ele>
        <time>2012-09-15T12:14:00.000Z</time>
      </trkpt>
      <trkpt lat="43.88615" lon="7.24205">
        <ele>504.9</ele>
        <time>2012-09-15T12:14:07.000Z</time>
      </trkpt>
      <trkpt lat="43.88618" lon="7.242">
        <ele>505.5</ele>
        <time>2012-09-15T12:14:12.000Z</time>
      </trkpt>
      <trkpt lat="43.88618" lon="7.24192">
        <ele>505.8</ele>
        <time>2012-09-15T12:14:22.000Z</time>
      </trkpt>
      <trkpt lat="43.88621" lon="7.24187">
        <ele>505.9</ele>
        <time>2012-09-15T12:14:29.000Z</time>
      </trkpt>
      <trkpt lat="43.88621" lon="7.2418">
        <ele>512.6</ele>
        <time>2012-09-15T12:14:36.000Z</time>
      </trkpt>
      <trkpt lat="43.88622" lon="7.24174">
        <ele>513.5</ele>
        <time>2012-09-15T12:14:43.000Z</time>
      </trkpt>
      <trkpt lat="43.88626" lon="7.24169">
        <ele>515</ele>
        <time>2012-09-15T12:14:50.000Z</time>
      </trkpt>
      <trkpt lat="43.88629" lon="7.24164">
        <ele>514.5</ele>
        <time>2012-09-15T12:14:56.000Z</time>
      </trkpt>
      <trkpt lat="43.88629" lon="7.24158">
        <ele>515.8</ele>
        <time>2012-09-15T12:15:04.000Z</time>
      </trkpt>
      <trkpt lat="43.88632" lon="7.24152">
        <ele>513.3</ele>
        <time>2012-09-15T12:15:12.000Z</time>
      </trkpt>
      <trkpt lat="43.88634" lon="7.24146">
        <ele>512.5</ele>
        <time>2012-09-15T12:15:19.000Z</time>
      </trkpt>
      <trkpt lat="43.88638" lon="7.24143">
        <ele>514.3</ele>
        <time>2012-09-15T12:15:27.000Z</time>
      </trkpt>
      <trkpt lat="43.88642" lon="7.2414">
        <ele>515.2</ele>
        <time>2012-09-15T12:15:34.000Z</time>
      </trkpt>
      <trkpt lat="43.88646" lon="7.24137">
        <ele>515.2</ele>
        <time>2012-09-15T12:15:41.000Z</time>
      </trkpt>
      <trkpt lat="43.8865" lon="7.24132">
        <ele>514.7</ele>
        <time>2012-09-15T12:15:48.000Z</time>
      </trkpt>
      <trkpt lat="43.88648" lon="7.24138">
        <ele>519.1</ele>
        <time>2012-09-15T12:15:57.000Z</time>
      </trkpt>
      <trkpt lat="43.88646" lon="7.24144">
        <ele>520.8</ele>
        <time>2012-09-15T12:16:06.000Z</time>
      </trkpt>
      <trkpt lat="43.88643" lon="7.2415">
        <ele>521.2</ele>
        <time>2012-09-15T12:16:14.000Z</time>
      </trkpt>
      <trkpt lat="43.88648" lon="7.24147">
        <ele>522</ele>
        <time>2012-09-15T12:16:22.000Z</time>
      </trkpt>
      <trkpt lat="43.8865" lon="7.24152">
        <ele>523.3</ele>
        <time>2012-09-15T12:18:06.000Z</time>
      </trkpt>
      <trkpt lat="43.88654" lon="7.24147">
        <ele>523</ele>
        <time>2012-09-15T12:18:26.000Z</time>
      </trkpt>
      <trkpt lat="43.88657" lon="7.24142">
        <ele>521.6</ele>
        <time>2012-09-15T12:18:36.000Z</time>
      </trkpt>
      <trkpt lat="43.8866" lon="7.24138">
        <ele>523.6</ele>
        <time>2012-09-15T12:18:43.000Z</time>
      </trkpt>
      <trkpt lat="43.88665" lon="7.24136">
        <ele>522.4</ele>
        <time>2012-09-15T12:18:53.000Z</time>
      </trkpt>
      <trkpt lat="43.88668" lon="7.24131">
        <ele>524.6</ele>
        <time>2012-09-15T12:19:00.000Z</time>
      </trkpt>
      <trkpt lat="43.88669" lon="7.24125">
        <ele>527.5</ele>
        <time>2012-09-15T12:19:09.000Z</time>
      </trkpt>
      <trkpt lat="43.88673" lon="7.24122">
        <ele>528.5</ele>
        <time>2012-09-15T12:19:22.000Z</time>
      </trkpt>
      <trkpt lat="43.88677" lon="7.24125">
        <ele>529.7</ele>
        <time>2012-09-15T12:19:39.000Z</time>
      </trkpt>
      <trkpt lat="43.88676" lon="7.24132">
        <ele>530.8</ele>
        <time>2012-09-15T12:19:46.000Z</time>
      </trkpt>
      <trkpt lat="43.88673" lon="7.24136">
        <ele>529.9</ele>
        <time>2012-09-15T12:19:56.000Z</time>
      </trkpt>
      <trkpt lat="43.88673" lon="7.24142">
        <ele>530.1</ele>
        <time>2012-09-15T12:20:03.000Z</time>
      </trkpt>
      <trkpt lat="43.88671" lon="7.2415">
        <ele>530.6</ele>
        <time>2012-09-15T12:20:12.000Z</time>
      </trkpt>
      <trkpt lat="43.88672" lon="7.24156">
        <ele>532.5</ele>
        <time>2012-09-15T12:20:19.000Z</time>
      </trkpt>
      <trkpt lat="43.88669" lon="7.24163">
        <ele>537</ele>
        <time>2012-09-15T12:20:27.000Z</time>
      </trkpt>
      <trkpt lat="43.88669" lon="7.2417">
        <ele>539.5</ele>
        <time>2012-09-15T12:20:32.000Z</time>
      </trkpt>
      <trkpt lat="43.8867" lon="7.24177">
        <ele>538.8</ele>
        <time>2012-09-15T12:20:38.000Z</time>
      </trkpt>
      <trkpt lat="43.88672" lon="7.24183">
        <ele>540.5</ele>
        <time>2012-09-15T12:20:44.000Z</time>
      </trkpt>
      <trkpt lat="43.88672" lon="7.24189">
        <ele>541.9</ele>
        <time>2012-09-15T12:20:52.000Z</time>
      </trkpt>
      <trkpt lat="43.88675" lon="7.24194">
        <ele>541.5</ele>
        <time>2012-09-15T12:21:07.000Z</time>
      </trkpt>
      <trkpt lat="43.88677" lon="7.24199">
        <ele>542.8</ele>
        <time>2012-09-15T12:21:18.000Z</time>
      </trkpt>
      <trkpt lat="43.8868" lon="7.24204">
        <ele>541</ele>
        <time>2012-09-15T12:21:30.000Z</time>
      </trkpt>
      <trkpt lat="43.88683" lon="7.242">
        <ele>538.7</ele>
        <time>2012-09-15T12:21:36.000Z</time>
      </trkpt>
      <trkpt lat="43.88684" lon="7.24207">
        <ele>541.9</ele>
        <time>2012-09-15T12:21:55.000Z</time>
      </trkpt>
      <trkpt lat="43.88688" lon="7.24212">
        <ele>542.3</ele>
        <time>2012-09-15T12:22:06.000Z</time>
      </trkpt>
      <trkpt lat="43.88688" lon="7.24218">
        <ele>542.8</ele>
        <time>2012-09-15T12:22:14.000Z</time>
      </trkpt>
      <trkpt lat="43.88686" lon="7.24224">
        <ele>543.9</ele>
        <time>2012-09-15T12:22:23.000Z</time>
      </trkpt>
      <trkpt lat="43.8869" lon="7.24227">
        <ele>547.2</ele>
        <time>2012-09-15T12:22:34.000Z</time>
      </trkpt>
      <trkpt lat="43.88693" lon="7.24223">
        <ele>548.7</ele>
        <time>2012-09-15T12:22:41.000Z</time>
      </trkpt>
      <trkpt lat="43.88696" lon="7.24218">
        <ele>550</ele>
        <time>2012-09-15T12:22:51.000Z</time>
      </trkpt>
      <trkpt lat="43.88698" lon="7.24212">
        <ele>548.9</ele>
        <time>2012-09-15T12:23:01.000Z</time>
      </trkpt>
      <trkpt lat="43.887" lon="7.24218">
        <ele>551.3</ele>
        <time>2012-09-15T12:23:09.000Z</time>
      </trkpt>
      <trkpt lat="43.88702" lon="7.24224">
        <ele>553.2</ele>
        <time>2012-09-15T12:23:17.000Z</time>
      </trkpt>
      <trkpt lat="43.88701" lon="7.2423">
        <ele>554.2</ele>
        <time>2012-09-15T12:23:25.000Z</time>
      </trkpt>
      <trkpt lat="43.88703" lon="7.24237">
        <ele>556.8</ele>
        <time>2012-09-15T12:23:46.000Z</time>
      </trkpt>
      <trkpt lat="43.88704" lon="7.24243">
        <ele>557.8</ele>
        <time>2012-09-15T12:23:54.000Z</time>
      </trkpt>
      <trkpt lat="43.88708" lon="7.24242">
        <ele>560.5</ele>
        <time>2012-09-15T12:24:10.000Z</time>
      </trkpt>
      <trkpt lat="43.88713" lon="7.24239">
        <ele>566</ele>
        <time>2012-09-15T12:25:56.000Z</time>
      </trkpt>
      <trkpt lat="43.88714" lon="7.24247">
        <ele>563.9</ele>
        <time>2012-09-15T12:26:12.000Z</time>
      </trkpt>
      <trkpt lat="43.88712" lon="7.24253">
        <ele>565.2</ele>
        <time>2012-09-15T12:26:21.000Z</time>
      </trkpt>
      <trkpt lat="43.88715" lon="7.24259">
        <ele>566.7</ele>
        <time>2012-09-15T12:26:27.000Z</time>
      </trkpt>
      <trkpt lat="43.88717" lon="7.24253">
        <ele>567.4</ele>
        <time>2012-09-15T12:26:35.000Z</time>
      </trkpt>
      <trkpt lat="43.8872" lon="7.24259">
        <ele>569.5</ele>
        <time>2012-09-15T12:26:54.000Z</time>
      </trkpt>
      <trkpt lat="43.88723" lon="7.24263">
        <ele>568.4</ele>
        <time>2012-09-15T12:27:00.000Z</time>
      </trkpt>
      <trkpt lat="43.88725" lon="7.24269">
        <ele>572.1</ele>
        <time>2012-09-15T12:27:10.000Z</time>
      </trkpt>
      <trkpt lat="43.88724" lon="7.24277">
        <ele>573.1</ele>
        <time>2012-09-15T12:27:18.000Z</time>
      </trkpt>
      <trkpt lat="43.88724" lon="7.24283">
        <ele>574.9</ele>
        <time>2012-09-15T12:27:27.000Z</time>
      </trkpt>
      <trkpt lat="43.88726" lon="7.2429">
        <ele>575.2</ele>
        <time>2012-09-15T12:27:35.000Z</time>
      </trkpt>
      <trkpt lat="43.88727" lon="7.24297">
        <ele>577.7</ele>
        <time>2012-09-15T12:27:44.000Z</time>
      </trkpt>
      <trkpt lat="43.88728" lon="7.24304">
        <ele>580.3</ele>
        <time>2012-09-15T12:27:56.000Z</time>
      </trkpt>
      <trkpt lat="43.88729" lon="7.2431">
        <ele>580.2</ele>
        <time>2012-09-15T12:28:05.000Z</time>
      </trkpt>
      <trkpt lat="43.88734" lon="7.24309">
        <ele>580.6</ele>
        <time>2012-09-15T12:28:14.000Z</time>
      </trkpt>
      <trkpt lat="43.88736" lon="7.24302">
        <ele>581.6</ele>
        <time>2012-09-15T12:28:22.000Z</time>
      </trkpt>
      <trkpt lat="43.88739" lon="7.24297">
        <ele>585.1</ele>
        <time>2012-09-15T12:28:30.000Z</time>
      </trkpt>
      <trkpt lat="43.88742" lon="7.24291">
        <ele>586.6</ele>
        <time>2012-09-15T12:28:37.000Z</time>
      </trkpt>
      <trkpt lat="43.88744" lon="7.24285">
        <ele>587.3</ele>
        <time>2012-09-15T12:28:42.000Z</time>
      </trkpt>
      <trkpt lat="43.88746" lon="7.24279">
        <ele>587.1</ele>
        <time>2012-09-15T12:28:50.000Z</time>
      </trkpt>
      <trkpt lat="43.88747" lon="7.24272">
        <ele>588.6</ele>
        <time>2012-09-15T12:28:58.000Z</time>
      </trkpt>
      <trkpt lat="43.88748" lon="7.24266">
        <ele>589.5</ele>
        <time>2012-09-15T12:29:04.000Z</time>
      </trkpt>
      <trkpt lat="43.8875" lon="7.24259">
        <ele>591.6</ele>
        <time>2012-09-15T12:29:14.000Z</time>
      </trkpt>
      <trkpt lat="43.88751" lon="7.24253">
        <ele>593.3</ele>
        <time>2012-09-15T12:29:20.000Z</time>
      </trkpt>
      <trkpt lat="43.88753" lon="7.24246">
        <ele>592.8</ele>
        <time>2012-09-15T12:29:29.000Z</time>
      </trkpt>
      <trkpt lat="43.88754" lon="7.24239">
        <ele>592.4</ele>
        <time>2012-09-15T12:29:38.000Z</time>
      </trkpt>
      <trkpt lat="43.88757" lon="7.24233">
        <ele>591.1</ele>
        <time>2012-09-15T12:29:49.000Z</time>
      </trkpt>
      <trkpt lat="43.88757" lon="7.24226">
        <ele>591.3</ele>
        <time>2012-09-15T12:29:56.000Z</time>
      </trkpt>
      <trkpt lat="43.88759" lon="7.24233">
        <ele>592.7</ele>
        <time>2012-09-15T12:30:11.000Z</time>
      </trkpt>
      <trkpt lat="43.88758" lon="7.2424">
        <ele>596.8</ele>
        <time>2012-09-15T12:30:19.000Z</time>
      </trkpt>
      <trkpt lat="43.88758" lon="7.24246">
        <ele>599.7</ele>
        <time>2012-09-15T12:30:25.000Z</time>
      </trkpt>
      <trkpt lat="43.88759" lon="7.24252">
        <ele>601.1</ele>
        <time>2012-09-15T12:30:32.000Z</time>
      </trkpt>
      <trkpt lat="43.88761" lon="7.24259">
        <ele>600</ele>
        <time>2012-09-15T12:30:39.000Z</time>
      </trkpt>
      <trkpt lat="43.88761" lon="7.24266">
        <ele>602.3</ele>
        <time>2012-09-15T12:30:48.000Z</time>
      </trkpt>
      <trkpt lat="43.88762" lon="7.24273">
        <ele>605.7</ele>
        <time>2012-09-15T12:30:54.000Z</time>
      </trkpt>
      <trkpt lat="43.88764" lon="7.24279">
        <ele>605.7</ele>
        <time>2012-09-15T12:30:59.000Z</time>
      </trkpt>
      <trkpt lat="43.88769" lon="7.24282">
        <ele>607</ele>
        <time>2012-09-15T12:31:04.000Z</time>
      </trkpt>
      <trkpt lat="43.88773" lon="7.24279">
        <ele>609.2</ele>
        <time>2012-09-15T12:31:09.000Z</time>
      </trkpt>
      <trkpt lat="43.88777" lon="7.24276">
        <ele>610.1</ele>
        <time>2012-09-15T12:31:17.000Z</time>
      </trkpt>
      <trkpt lat="43.88781" lon="7.24272">
        <ele>609.3</ele>
        <time>2012-09-15T12:31:26.000Z</time>
      </trkpt>
      <trkpt lat="43.88785" lon="7.24269">
        <ele>609.5</ele>
        <time>2012-09-15T12:31:33.000Z</time>
      </trkpt>
      <trkpt lat="43.8879" lon="7.24268">
        <ele>609.3</ele>
        <time>2012-09-15T12:31:40.000Z</time>
      </trkpt>
      <trkpt lat="43.88795" lon="7.24265">
        <ele>608.9</ele>
        <time>2012-09-15T12:31:48.000Z</time>
      </trkpt>
      <trkpt lat="43.88799" lon="7.24264">
        <ele>609.9</ele>
        <time>2012-09-15T12:31:53.000Z</time>
      </trkpt>
      <trkpt lat="43.88803" lon="7.24261">
        <ele>610</ele>
        <time>2012-09-15T12:31:58.000Z</time>
      </trkpt>
      <trkpt lat="43.88807" lon="7.24256">
        <ele>611.4</ele>
        <time>2012-09-15T12:32:05.000Z</time>
      </trkpt>
      <trkpt lat="43.8881" lon="7.24252">
        <ele>611.8</ele>
        <time>2012-09-15T12:32:12.000Z</time>
      </trkpt>
      <trkpt lat="43.88815" lon="7.2425">
        <ele>613.2</ele>
        <time>2012-09-15T12:32:17.000Z</time>
      </trkpt>
      <trkpt lat="43.88819" lon="7.24248">
        <ele>612.9</ele>
        <time>2012-09-15T12:32:22.000Z</time>
      </trkpt>
      <trkpt lat="43.88824" lon="7.24249">
        <ele>614.7</ele>
        <time>2012-09-15T12:32:30.000Z</time>
      </trkpt>
      <trkpt lat="43.88829" lon="7.2425">
        <ele>619.5</ele>
        <time>2012-09-15T12:32:38.000Z</time>
      </trkpt>
      <trkpt lat="43.88834" lon="7.24247">
        <ele>619.4</ele>
        <time>2012-09-15T12:32:44.000Z</time>
      </trkpt>
      <trkpt lat="43.88838" lon="7.24242">
        <ele>618.6</ele>
        <time>2012-09-15T12:32:52.000Z</time>
      </trkpt>
      <trkpt lat="43.88842" lon="7.24239">
        <ele>621.1</ele>
        <time>2012-09-15T12:33:07.000Z</time>
      </trkpt>
      <trkpt lat="43.88847" lon="7.24237">
        <ele>622.9</ele>
        <time>2012-09-15T12:33:13.000Z</time>
      </trkpt>
      <trkpt lat="43.88852" lon="7.24239">
        <ele>624.1</ele>
        <time>2012-09-15T12:33:26.000Z</time>
      </trkpt>
      <trkpt lat="43.88856" lon="7.24237">
        <ele>624.6</ele>
        <time>2012-09-15T12:33:31.000Z</time>
      </trkpt>
      <trkpt lat="43.88857" lon="7.2423">
        <ele>624.9</ele>
        <time>2012-09-15T12:33:37.000Z</time>
      </trkpt>
      <trkpt lat="43.88859" lon="7.24224">
        <ele>626.2</ele>
        <time>2012-09-15T12:33:52.000Z</time>
      </trkpt>
      <trkpt lat="43.88861" lon="7.24218">
        <ele>626.9</ele>
        <time>2012-09-15T12:34:09.000Z</time>
      </trkpt>
      <trkpt lat="43.88859" lon="7.24211">
        <ele>628.4</ele>
        <time>2012-09-15T12:34:14.000Z</time>
      </trkpt>
      <trkpt lat="43.88858" lon="7.24204">
        <ele>630.8</ele>
        <time>2012-09-15T12:34:19.000Z</time>
      </trkpt>
      <trkpt lat="43.88862" lon="7.24201">
        <ele>631.8</ele>
        <time>2012-09-15T12:34:25.000Z</time>
      </trkpt>
      <trkpt lat="43.88866" lon="7.24198">
        <ele>633.8</ele>
        <time>2012-09-15T12:34:34.000Z</time>
      </trkpt>
      <trkpt lat="43.8887" lon="7.24193">
        <ele>634.5</ele>
        <time>2012-09-15T12:34:41.000Z</time>
      </trkpt>
      <trkpt lat="43.88864" lon="7.24195">
        <ele>636.5</ele>
        <time>2012-09-15T12:34:57.000Z</time>
      </trkpt>
      <trkpt lat="43.88859" lon="7.24193">
        <ele>635.6</ele>
        <time>2012-09-15T12:35:07.000Z</time>
      </trkpt>
      <trkpt lat="43.88864" lon="7.2419">
        <ele>636.8</ele>
        <time>2012-09-15T12:35:12.000Z</time>
      </trkpt>
      <trkpt lat="43.88868" lon="7.24184">
        <ele>638.9</ele>
        <time>2012-09-15T12:35:20.000Z</time>
      </trkpt>
      <trkpt lat="43.88868" lon="7.24176">
        <ele>639.9</ele>
        <time>2012-09-15T12:35:26.000Z</time>
      </trkpt>
      <trkpt lat="43.88868" lon="7.24169">
        <ele>640.7</ele>
        <time>2012-09-15T12:35:29.000Z</time>
      </trkpt>
      <trkpt lat="43.88872" lon="7.24163">
        <ele>641.9</ele>
        <time>2012-09-15T12:35:35.000Z</time>
      </trkpt>
      <trkpt lat="43.88871" lon="7.24157">
        <ele>643.3</ele>
        <time>2012-09-15T12:35:43.000Z</time>
      </trkpt>
      <trkpt lat="43.88874" lon="7.24152">
        <ele>645.2</ele>
        <time>2012-09-15T12:35:48.000Z</time>
      </trkpt>
      <trkpt lat="43.88868" lon="7.24148">
        <ele>645.1</ele>
        <time>2012-09-15T12:35:50.000Z</time>
      </trkpt>
      <trkpt lat="43.88873" lon="7.2415">
        <ele>645.5</ele>
        <time>2012-09-15T12:35:55.000Z</time>
      </trkpt>
      <trkpt lat="43.88878" lon="7.24151">
        <ele>646.1</ele>
        <time>2012-09-15T12:35:56.000Z</time>
      </trkpt>
      <trkpt lat="43.88879" lon="7.2416">
        <ele>645.5</ele>
        <time>2012-09-15T12:36:01.000Z</time>
      </trkpt>
      <trkpt lat="43.88883" lon="7.2416">
        <ele>646.6</ele>
        <time>2012-09-15T12:36:09.000Z</time>
      </trkpt>
      <trkpt lat="43.88888" lon="7.24158">
        <ele>648.5</ele>
        <time>2012-09-15T12:36:13.000Z</time>
      </trkpt>
      <trkpt lat="43.88893" lon="7.24156">
        <ele>648.2</ele>
        <time>2012-09-15T12:36:21.000Z</time>
      </trkpt>
      <trkpt lat="43.88897" lon="7.24159">
        <ele>650.9</ele>
        <time>2012-09-15T12:36:32.000Z</time>
      </trkpt>
      <trkpt lat="43.88902" lon="7.24162">
        <ele>653.1</ele>
        <time>2012-09-15T12:36:43.000Z</time>
      </trkpt>
      <trkpt lat="43.88906" lon="7.24159">
        <ele>652.9</ele>
        <time>2012-09-15T12:36:48.000Z</time>
      </trkpt>
      <trkpt lat="43.8891" lon="7.24156">
        <ele>650.2</ele>
        <time>2012-09-15T12:36:51.000Z</time>
      </trkpt>
      <trkpt lat="43.88915" lon="7.24156">
        <ele>654.6</ele>
        <time>2012-09-15T12:37:02.000Z</time>
      </trkpt>
      <trkpt lat="43.88919" lon="7.24156">
        <ele>654.4</ele>
        <time>2012-09-15T12:37:17.000Z</time>
      </trkpt>
      <trkpt lat="43.88924" lon="7.24155">
        <ele>653.7</ele>
        <time>2012-09-15T12:37:19.000Z</time>
      </trkpt>
      <trkpt lat="43.88929" lon="7.24155">
        <ele>655.5</ele>
        <time>2012-09-15T12:37:21.000Z</time>
      </trkpt>
      <trkpt lat="43.88934" lon="7.24158">
        <ele>656</ele>
        <time>2012-09-15T12:37:23.000Z</time>
      </trkpt>
      <trkpt lat="43.88939" lon="7.2416">
        <ele>656.3</ele>
        <time>2012-09-15T12:37:25.000Z</time>
      </trkpt>
      <trkpt lat="43.88943" lon="7.24166">
        <ele>650</ele>
        <time>2012-09-15T12:37:28.000Z</time>
      </trkpt>
      <trkpt lat="43.88942" lon="7.24172">
        <ele>648.3</ele>
        <time>2012-09-15T12:37:30.000Z</time>
      </trkpt>
      <trkpt lat="43.88939" lon="7.2418">
        <ele>648.8</ele>
        <time>2012-09-15T12:37:32.000Z</time>
      </trkpt>
      <trkpt lat="43.88943" lon="7.24188">
        <ele>649.2</ele>
        <time>2012-09-15T12:37:34.000Z</time>
      </trkpt>
      <trkpt lat="43.88948" lon="7.24196">
        <ele>648.9</ele>
        <time>2012-09-15T12:37:37.000Z</time>
      </trkpt>
      <trkpt lat="43.88951" lon="7.24202">
        <ele>648.5</ele>
        <time>2012-09-15T12:37:40.000Z</time>
      </trkpt>
      <trkpt lat="43.88955" lon="7.24206">
        <ele>647.8</ele>
        <time>2012-09-15T12:37:42.000Z</time>
      </trkpt>
      <trkpt lat="43.88959" lon="7.24202">
        <ele>649.9</ele>
        <time>2012-09-15T12:38:51.000Z</time>
      </trkpt>
      <trkpt lat="43.88964" lon="7.242">
        <ele>650.3</ele>
        <time>2012-09-15T12:38:53.000Z</time>
      </trkpt>
      <trkpt lat="43.88969" lon="7.24198">
        <ele>652.1</ele>
        <time>2012-09-15T12:38:55.000Z</time>
      </trkpt>
      <trkpt lat="43.88975" lon="7.24197">
        <ele>651.9</ele>
        <time>2012-09-15T12:38:57.000Z</time>
      </trkpt>
      <trkpt lat="43.88979" lon="7.24199">
        <ele>651.8</ele>
        <time>2012-09-15T12:38:59.000Z</time>
      </trkpt>
      <trkpt lat="43.88984" lon="7.24202">
        <ele>652.4</ele>
        <time>2012-09-15T12:39:15.000Z</time>
      </trkpt>
      <trkpt lat="43.8899" lon="7.24202">
        <ele>653</ele>
        <time>2012-09-15T12:39:17.000Z</time>
      </trkpt>
      <trkpt lat="43.88993" lon="7.2421">
        <ele>656.4</ele>
        <time>2012-09-15T12:39:21.000Z</time>
      </trkpt>
      <trkpt lat="43.88994" lon="7.24216">
        <ele>656.4</ele>
        <time>2012-09-15T12:39:22.000Z</time>
      </trkpt>
      <trkpt lat="43.88996" lon="7.24224">
        <ele>655.1</ele>
        <time>2012-09-15T12:39:24.000Z</time>
      </trkpt>
      <trkpt lat="43.88995" lon="7.2423">
        <ele>653.6</ele>
        <time>2012-09-15T12:39:25.000Z</time>
      </trkpt>
      <trkpt lat="43.88995" lon="7.24238">
        <ele>652.7</ele>
        <time>2012-09-15T12:39:26.000Z</time>
      </trkpt>
      <trkpt lat="43.88992" lon="7.24248">
        <ele>652.7</ele>
        <time>2012-09-15T12:39:28.000Z</time>
      </trkpt>
      <trkpt lat="43.88988" lon="7.24259">
        <ele>652.6</ele>
        <time>2012-09-15T12:39:30.000Z</time>
      </trkpt>
      <trkpt lat="43.88984" lon="7.24268">
        <ele>652.3</ele>
        <time>2012-09-15T12:39:32.000Z</time>
      </trkpt>
      <trkpt lat="43.8898" lon="7.24278">
        <ele>651.9</ele>
        <time>2012-09-15T12:39:34.000Z</time>
      </trkpt>
      <trkpt lat="43.88974" lon="7.24281">
        <ele>651.1</ele>
        <time>2012-09-15T12:39:37.000Z</time>
      </trkpt>
      <trkpt lat="43.88971" lon="7.24288">
        <ele>651.2</ele>
        <time>2012-09-15T12:39:39.000Z</time>
      </trkpt>
      <trkpt lat="43.88974" lon="7.24293">
        <ele>648.7</ele>
        <time>2012-09-15T12:39:42.000Z</time>
      </trkpt>
      <trkpt lat="43.88979" lon="7.243">
        <ele>650.2</ele>
        <time>2012-09-15T12:39:45.000Z</time>
      </trkpt>
      <trkpt lat="43.88984" lon="7.24299">
        <ele>649.7</ele>
        <time>2012-09-15T12:39:47.000Z</time>
      </trkpt>
      <trkpt lat="43.8899" lon="7.24301">
        <ele>649.2</ele>
        <time>2012-09-15T12:39:49.000Z</time>
      </trkpt>
      <trkpt lat="43.88995" lon="7.24306">
        <ele>650.1</ele>
        <time>2012-09-15T12:39:52.000Z</time>
      </trkpt>
      <trkpt lat="43.88999" lon="7.24311">
        <ele>649.9</ele>
        <time>2012-09-15T12:39:55.000Z</time>
      </trkpt>
      <trkpt lat="43.89002" lon="7.24317">
        <ele>650.9</ele>
        <time>2012-09-15T12:39:58.000Z</time>
      </trkpt>
      <trkpt lat="43.89004" lon="7.24322">
        <ele>651.6</ele>
        <time>2012-09-15T12:40:01.000Z</time>
      </trkpt>
      <trkpt lat="43.89008" lon="7.24326">
        <ele>650.5</ele>
        <time>2012-09-15T12:40:03.000Z</time>
      </trkpt>
      <trkpt lat="43.89012" lon="7.24331">
        <ele>652.7</ele>
        <time>2012-09-15T12:40:07.000Z</time>
      </trkpt>
      <trkpt lat="43.89014" lon="7.24336">
        <ele>652.4</ele>
        <time>2012-09-15T12:40:17.000Z</time>
      </trkpt>
      <trkpt lat="43.89013" lon="7.24342">
        <ele>652.6</ele>
        <time>2012-09-15T12:40:27.000Z</time>
      </trkpt>
      <trkpt lat="43.89012" lon="7.24348">
        <ele>653.4</ele>
        <time>2012-09-15T12:40:30.000Z</time>
      </trkpt>
      <trkpt lat="43.89014" lon="7.24356">
        <ele>651.5</ele>
        <time>2012-09-15T12:40:32.000Z</time>
      </trkpt>
      <trkpt lat="43.89016" lon="7.24366">
        <ele>651.5</ele>
        <time>2012-09-15T12:40:35.000Z</time>
      </trkpt>
      <trkpt lat="43.89016" lon="7.24374">
        <ele>651.3</ele>
        <time>2012-09-15T12:40:37.000Z</time>
      </trkpt>
      <trkpt lat="43.89015" lon="7.24382">
        <ele>650.8</ele>
        <time>2012-09-15T12:40:39.000Z</time>
      </trkpt>
      <trkpt lat="43.89015" lon="7.24391">
        <ele>651</ele>
        <time>2012-09-15T12:40:41.000Z</time>
      </trkpt>
      <trkpt lat="43.89015" lon="7.244">
        <ele>650.6</ele>
        <time>2012-09-15T12:40:43.000Z</time>
      </trkpt>
      <trkpt lat="43.89018" lon="7.24409">
        <ele>649.7</ele>
        <time>2012-09-15T12:40:45.000Z</time>
      </trkpt>
      <trkpt lat="43.89021" lon="7.24416">
        <ele>649</ele>
        <time>2012-09-15T12:40:47.000Z</time>
      </trkpt>
      <trkpt lat="43.89024" lon="7.24424">
        <ele>648.6</ele>
        <time>2012-09-15T12:40:49.000Z</time>
      </trkpt>
      <trkpt lat="43.89025" lon="7.24431">
        <ele>648.6</ele>
        <time>2012-09-15T12:40:51.000Z</time>
      </trkpt>
      <trkpt lat="43.89027" lon="7.24437">
        <ele>647.9</ele>
        <time>2012-09-15T12:40:53.000Z</time>
      </trkpt>
      <trkpt lat="43.89028" lon="7.24445">
        <ele>647.6</ele>
        <time>2012-09-15T12:40:56.000Z</time>
      </trkpt>
      <trkpt lat="43.8903" lon="7.24451">
        <ele>648.9</ele>
        <time>2012-09-15T12:40:59.000Z</time>
      </trkpt>
      <trkpt lat="43.89032" lon="7.24457">
        <ele>648.7</ele>
        <time>2012-09-15T12:41:01.000Z</time>
      </trkpt>
      <trkpt lat="43.89036" lon="7.24462">
        <ele>648.2</ele>
        <time>2012-09-15T12:41:03.000Z</time>
      </trkpt>
      <trkpt lat="43.8904" lon="7.24467">
        <ele>646.7</ele>
        <time>2012-09-15T12:41:06.000Z</time>
      </trkpt>
      <trkpt lat="43.89045" lon="7.24471">
        <ele>647.4</ele>
        <time>2012-09-15T12:41:31.000Z</time>
      </trkpt>
      <trkpt lat="43.89052" lon="7.24472">
        <ele>647.3</ele>
        <time>2012-09-15T12:41:33.000Z</time>
      </trkpt>
      <trkpt lat="43.89059" lon="7.24474">
        <ele>647.1</ele>
        <time>2012-09-15T12:41:35.000Z</time>
      </trkpt>
      <trkpt lat="43.89065" lon="7.24474">
        <ele>646.8</ele>
        <time>2012-09-15T12:41:37.000Z</time>
      </trkpt>
      <trkpt lat="43.89069" lon="7.24479">
        <ele>647.4</ele>
        <time>2012-09-15T12:41:39.000Z</time>
      </trkpt>
      <trkpt lat="43.89074" lon="7.24486">
        <ele>649.5</ele>
        <time>2012-09-15T12:41:41.000Z</time>
      </trkpt>
      <trkpt lat="43.89079" lon="7.2449">
        <ele>650.4</ele>
        <time>2012-09-15T12:41:43.000Z</time>
      </trkpt>
      <trkpt lat="43.89081" lon="7.24498">
        <ele>649.7</ele>
        <time>2012-09-15T12:41:46.000Z</time>
      </trkpt>
      <trkpt lat="43.89083" lon="7.24503">
        <ele>648.2</ele>
        <time>2012-09-15T12:41:47.000Z</time>
      </trkpt>
      <trkpt lat="43.89084" lon="7.24512">
        <ele>647</ele>
        <time>2012-09-15T12:41:49.000Z</time>
      </trkpt>
      <trkpt lat="43.89083" lon="7.2452">
        <ele>645.2</ele>
        <time>2012-09-15T12:41:51.000Z</time>
      </trkpt>
      <trkpt lat="43.89088" lon="7.24526">
        <ele>643.2</ele>
        <time>2012-09-15T12:41:53.000Z</time>
      </trkpt>
      <trkpt lat="43.89088" lon="7.24533">
        <ele>642.8</ele>
        <time>2012-09-15T12:41:55.000Z</time>
      </trkpt>
      <trkpt lat="43.89091" lon="7.24539">
        <ele>642.8</ele>
        <time>2012-09-15T12:41:57.000Z</time>
      </trkpt>
      <trkpt lat="43.89092" lon="7.24549">
        <ele>641.9</ele>
        <time>2012-09-15T12:41:59.000Z</time>
      </trkpt>
      <trkpt lat="43.89094" lon="7.24558">
        <ele>642.3</ele>
        <time>2012-09-15T12:42:02.000Z</time>
      </trkpt>
      <trkpt lat="43.89092" lon="7.24567">
        <ele>643.2</ele>
        <time>2012-09-15T12:42:03.000Z</time>
      </trkpt>
      <trkpt lat="43.89097" lon="7.24567">
        <ele>643.2</ele>
        <time>2012-09-15T12:42:04.000Z</time>
      </trkpt>
      <trkpt lat="43.891" lon="7.24574">
        <ele>642.2</ele>
        <time>2012-09-15T12:42:06.000Z</time>
      </trkpt>
      <trkpt lat="43.89106" lon="7.24581">
        <ele>641.6</ele>
        <time>2012-09-15T12:42:08.000Z</time>
      </trkpt>
      <trkpt lat="43.8911" lon="7.24585">
        <ele>641.9</ele>
        <time>2012-09-15T12:42:09.000Z</time>
      </trkpt>
      <trkpt lat="43.89115" lon="7.24588">
        <ele>642.1</ele>
        <time>2012-09-15T12:42:11.000Z</time>
      </trkpt>
      <trkpt lat="43.89121" lon="7.24587">
        <ele>643.1</ele>
        <time>2012-09-15T12:42:14.000Z</time>
      </trkpt>
      <trkpt lat="43.89126" lon="7.24586">
        <ele>643.2</ele>
        <time>2012-09-15T12:42:15.000Z</time>
      </trkpt>
      <trkpt lat="43.89134" lon="7.24585">
        <ele>642.6</ele>
        <time>2012-09-15T12:42:17.000Z</time>
      </trkpt>
      <trkpt lat="43.89142" lon="7.24583">
        <ele>642.1</ele>
        <time>2012-09-15T12:42:19.000Z</time>
      </trkpt>
      <trkpt lat="43.89149" lon="7.24579">
        <ele>642.5</ele>
        <time>2012-09-15T12:42:21.000Z</time>
      </trkpt>
      <trkpt lat="43.89155" lon="7.24577">
        <ele>641.3</ele>
        <time>2012-09-15T12:42:23.000Z</time>
      </trkpt>
      <trkpt lat="43.89162" lon="7.24578">
        <ele>639.9</ele>
        <time>2012-09-15T12:42:25.000Z</time>
      </trkpt>
      <trkpt lat="43.89166" lon="7.24578">
        <ele>640</ele>
        <time>2012-09-15T12:42:26.000Z</time>
      </trkpt>
      <trkpt lat="43.89172" lon="7.24581">
        <ele>639.4</ele>
        <time>2012-09-15T12:42:27.000Z</time>
      </trkpt>
      <trkpt lat="43.89177" lon="7.24582">
        <ele>639.5</ele>
        <time>2012-09-15T12:42:28.000Z</time>
      </trkpt>
      <trkpt lat="43.89181" lon="7.24587">
        <ele>638.8</ele>
        <time>2012-09-15T12:42:30.000Z</time>
      </trkpt>
      <trkpt lat="43.89181" lon="7.246">
        <ele>640.3</ele>
        <time>2012-09-15T12:42:31.000Z</time>
      </trkpt>
      <trkpt lat="43.89184" lon="7.24613">
        <ele>641.3</ele>
        <time>2012-09-15T12:42:33.000Z</time>
      </trkpt>
      <trkpt lat="43.89185" lon="7.24621">
        <ele>641.4</ele>
        <time>2012-09-15T12:42:34.000Z</time>
      </trkpt>
      <trkpt lat="43.89186" lon="7.24628">
        <ele>642.3</ele>
        <time>2012-09-15T12:42:35.000Z</time>
      </trkpt>
      <trkpt lat="43.89188" lon="7.24635">
        <ele>641.3</ele>
        <time>2012-09-15T12:42:38.000Z</time>
      </trkpt>
      <trkpt lat="43.8919" lon="7.2464">
        <ele>638.4</ele>
        <time>2012-09-15T12:42:53.000Z</time>
      </trkpt>
      <trkpt lat="43.89189" lon="7.24647">
        <ele>641.6</ele>
        <time>2012-09-15T12:43:12.000Z</time>
      </trkpt>
      <trkpt lat="43.89193" lon="7.24653">
        <ele>642.7</ele>
        <time>2012-09-15T12:43:19.000Z</time>
      </trkpt>
      <trkpt lat="43.89195" lon="7.24659">
        <ele>646.2</ele>
        <time>2012-09-15T12:43:26.000Z</time>
      </trkpt>
      <trkpt lat="43.89196" lon="7.24665">
        <ele>647.8</ele>
        <time>2012-09-15T12:43:42.000Z</time>
      </trkpt>
      <trkpt lat="43.892" lon="7.24673">
        <ele>646.4</ele>
        <time>2012-09-15T12:43:46.000Z</time>
      </trkpt>
      <trkpt lat="43.89202" lon="7.24679">
        <ele>646</ele>
        <time>2012-09-15T12:43:49.000Z</time>
      </trkpt>
      <trkpt lat="43.89204" lon="7.24685">
        <ele>647.1</ele>
        <time>2012-09-15T12:43:51.000Z</time>
      </trkpt>
      <trkpt lat="43.89206" lon="7.24692">
        <ele>648</ele>
        <time>2012-09-15T12:43:53.000Z</time>
      </trkpt>
      <trkpt lat="43.8921" lon="7.247">
        <ele>647.7</ele>
        <time>2012-09-15T12:43:55.000Z</time>
      </trkpt>
      <trkpt lat="43.89215" lon="7.24699">
        <ele>646.6</ele>
        <time>2012-09-15T12:43:58.000Z</time>
      </trkpt>
      <trkpt lat="43.8922" lon="7.24697">
        <ele>642.7</ele>
        <time>2012-09-15T12:44:00.000Z</time>
      </trkpt>
      <trkpt lat="43.89225" lon="7.247">
        <ele>641.5</ele>
        <time>2012-09-15T12:44:02.000Z</time>
      </trkpt>
      <trkpt lat="43.89228" lon="7.24704">
        <ele>641.7</ele>
        <time>2012-09-15T12:44:04.000Z</time>
      </trkpt>
      <trkpt lat="43.89232" lon="7.24708">
        <ele>641.2</ele>
        <time>2012-09-15T12:44:09.000Z</time>
      </trkpt>
      <trkpt lat="43.89238" lon="7.24707">
        <ele>641.2</ele>
        <time>2012-09-15T12:44:14.000Z</time>
      </trkpt>
      <trkpt lat="43.89242" lon="7.24706">
        <ele>642</ele>
        <time>2012-09-15T12:44:16.000Z</time>
      </trkpt>
      <trkpt lat="43.89248" lon="7.24703">
        <ele>641</ele>
        <time>2012-09-15T12:44:18.000Z</time>
      </trkpt>
      <trkpt lat="43.89253" lon="7.24705">
        <ele>642</ele>
        <time>2012-09-15T12:44:20.000Z</time>
      </trkpt>
      <trkpt lat="43.89258" lon="7.24706">
        <ele>642.6</ele>
        <time>2012-09-15T12:44:22.000Z</time>
      </trkpt>
      <trkpt lat="43.89263" lon="7.24707">
        <ele>641.1</ele>
        <time>2012-09-15T12:44:24.000Z</time>
      </trkpt>
      <trkpt lat="43.89267" lon="7.24713">
        <ele>640.9</ele>
        <time>2012-09-15T12:44:27.000Z</time>
      </trkpt>
      <trkpt lat="43.89267" lon="7.2472">
        <ele>642.9</ele>
        <time>2012-09-15T12:44:30.000Z</time>
      </trkpt>
      <trkpt lat="43.89268" lon="7.24726">
        <ele>644.1</ele>
        <time>2012-09-15T12:44:38.000Z</time>
      </trkpt>
      <trkpt lat="43.89268" lon="7.24733">
        <ele>644.4</ele>
        <time>2012-09-15T12:44:43.000Z</time>
      </trkpt>
      <trkpt lat="43.89271" lon="7.24738">
        <ele>645.2</ele>
        <time>2012-09-15T12:44:50.000Z</time>
      </trkpt>
      <trkpt lat="43.8927" lon="7.24744">
        <ele>645.9</ele>
        <time>2012-09-15T12:44:54.000Z</time>
      </trkpt>
      <trkpt lat="43.89274" lon="7.24748">
        <ele>647.4</ele>
        <time>2012-09-15T12:45:02.000Z</time>
      </trkpt>
      <trkpt lat="43.89278" lon="7.24754">
        <ele>650.4</ele>
        <time>2012-09-15T12:45:07.000Z</time>
      </trkpt>
      <trkpt lat="43.8928" lon="7.24759">
        <ele>652.3</ele>
        <time>2012-09-15T12:45:14.000Z</time>
      </trkpt>
      <trkpt lat="43.89283" lon="7.24765">
        <ele>655.9</ele>
        <time>2012-09-15T12:45:21.000Z</time>
      </trkpt>
      <trkpt lat="43.89288" lon="7.24768">
        <ele>653.7</ele>
        <time>2012-09-15T12:45:31.000Z</time>
      </trkpt>
      <trkpt lat="43.89294" lon="7.24769">
        <ele>655.8</ele>
        <time>2012-09-15T12:45:39.000Z</time>
      </trkpt>
      <trkpt lat="43.89298" lon="7.24768">
        <ele>657.3</ele>
        <time>2012-09-15T12:45:43.000Z</time>
      </trkpt>
      <trkpt lat="43.89303" lon="7.24766">
        <ele>658.2</ele>
        <time>2012-09-15T12:45:49.000Z</time>
      </trkpt>
      <trkpt lat="43.89308" lon="7.24764">
        <ele>659.9</ele>
        <time>2012-09-15T12:45:54.000Z</time>
      </trkpt>
      <trkpt lat="43.89312" lon="7.24766">
        <ele>663.5</ele>
        <time>2012-09-15T12:46:01.000Z</time>
      </trkpt>
      <trkpt lat="43.89307" lon="7.24764">
        <ele>666.7</ele>
        <time>2012-09-15T12:46:17.000Z</time>
      </trkpt>
      <trkpt lat="43.89312" lon="7.24762">
        <ele>667.5</ele>
        <time>2012-09-15T12:46:28.000Z</time>
      </trkpt>
      <trkpt lat="43.89316" lon="7.24761">
        <ele>668.6</ele>
        <time>2012-09-15T12:46:35.000Z</time>
      </trkpt>
      <trkpt lat="43.8932" lon="7.24764">
        <ele>670.2</ele>
        <time>2012-09-15T12:46:43.000Z</time>
      </trkpt>
      <trkpt lat="43.89325" lon="7.24762">
        <ele>669.4</ele>
        <time>2012-09-15T12:46:47.000Z</time>
      </trkpt>
      <trkpt lat="43.8933" lon="7.24762">
        <ele>670.7</ele>
        <time>2012-09-15T12:46:57.000Z</time>
      </trkpt>
      <trkpt lat="43.89334" lon="7.24764">
        <ele>670.8</ele>
        <time>2012-09-15T12:47:04.000Z</time>
      </trkpt>
      <trkpt lat="43.89339" lon="7.24767">
        <ele>670.3</ele>
        <time>2012-09-15T12:47:08.000Z</time>
      </trkpt>
      <trkpt lat="43.89345" lon="7.24769">
        <ele>670.5</ele>
        <time>2012-09-15T12:47:17.000Z</time>
      </trkpt>
      <trkpt lat="43.8935" lon="7.24766">
        <ele>670.4</ele>
        <time>2012-09-15T12:47:20.000Z</time>
      </trkpt>
      <trkpt lat="43.89356" lon="7.24759">
        <ele>671.3</ele>
        <time>2012-09-15T12:47:22.000Z</time>
      </trkpt>
      <trkpt lat="43.89361" lon="7.24753">
        <ele>671.9</ele>
        <time>2012-09-15T12:47:24.000Z</time>
      </trkpt>
      <trkpt lat="43.89364" lon="7.24745">
        <ele>671.3</ele>
        <time>2012-09-15T12:47:26.000Z</time>
      </trkpt>
      <trkpt lat="43.89367" lon="7.24738">
        <ele>671.2</ele>
        <time>2012-09-15T12:47:28.000Z</time>
      </trkpt>
      <trkpt lat="43.8937" lon="7.24731">
        <ele>671.6</ele>
        <time>2012-09-15T12:47:30.000Z</time>
      </trkpt>
      <trkpt lat="43.89372" lon="7.24723">
        <ele>671.3</ele>
        <time>2012-09-15T12:47:32.000Z</time>
      </trkpt>
      <trkpt lat="43.89374" lon="7.24718">
        <ele>669.9</ele>
        <time>2012-09-15T12:47:34.000Z</time>
      </trkpt>
      <trkpt lat="43.8938" lon="7.24718">
        <ele>671.3</ele>
        <time>2012-09-15T12:47:35.000Z</time>
      </trkpt>
      <trkpt lat="43.89386" lon="7.24712">
        <ele>671.3</ele>
        <time>2012-09-15T12:47:37.000Z</time>
      </trkpt>
      <trkpt lat="43.89391" lon="7.24714">
        <ele>670.6</ele>
        <time>2012-09-15T12:47:39.000Z</time>
      </trkpt>
      <trkpt lat="43.89396" lon="7.24716">
        <ele>670.2</ele>
        <time>2012-09-15T12:47:41.000Z</time>
      </trkpt>
      <trkpt lat="43.89401" lon="7.24709">
        <ele>669</ele>
        <time>2012-09-15T12:47:44.000Z</time>
      </trkpt>
      <trkpt lat="43.89404" lon="7.24702">
        <ele>669.3</ele>
        <time>2012-09-15T12:47:46.000Z</time>
      </trkpt>
      <trkpt lat="43.89411" lon="7.24697">
        <ele>669.2</ele>
        <time>2012-09-15T12:47:48.000Z</time>
      </trkpt>
      <trkpt lat="43.89419" lon="7.2469">
        <ele>669.3</ele>
        <time>2012-09-15T12:47:50.000Z</time>
      </trkpt>
      <trkpt lat="43.89423" lon="7.24687">
        <ele>669.1</ele>
        <time>2012-09-15T12:47:52.000Z</time>
      </trkpt>
      <trkpt lat="43.89427" lon="7.24683">
        <ele>669.3</ele>
        <time>2012-09-15T12:47:54.000Z</time>
      </trkpt>
      <trkpt lat="43.89432" lon="7.24677">
        <ele>669.5</ele>
        <time>2012-09-15T12:47:56.000Z</time>
      </trkpt>
      <trkpt lat="43.89439" lon="7.2467">
        <ele>669</ele>
        <time>2012-09-15T12:47:58.000Z</time>
      </trkpt>
      <trkpt lat="43.89444" lon="7.24664">
        <ele>669</ele>
        <time>2012-09-15T12:48:00.000Z</time>
      </trkpt>
      <trkpt lat="43.8945" lon="7.2466">
        <ele>669</ele>
        <time>2012-09-15T12:48:02.000Z</time>
      </trkpt>
      <trkpt lat="43.89453" lon="7.24651">
        <ele>668.6</ele>
        <time>2012-09-15T12:48:04.000Z</time>
      </trkpt>
      <trkpt lat="43.89457" lon="7.24643">
        <ele>668.1</ele>
        <time>2012-09-15T12:48:06.000Z</time>
      </trkpt>
      <trkpt lat="43.89459" lon="7.24633">
        <ele>668.5</ele>
        <time>2012-09-15T12:48:08.000Z</time>
      </trkpt>
      <trkpt lat="43.89462" lon="7.24627">
        <ele>668.2</ele>
        <time>2012-09-15T12:48:10.000Z</time>
      </trkpt>
      <trkpt lat="43.89467" lon="7.2463">
        <ele>667.9</ele>
        <time>2012-09-15T12:48:11.000Z</time>
      </trkpt>
      <trkpt lat="43.89472" lon="7.2463">
        <ele>666.5</ele>
        <time>2012-09-15T12:48:13.000Z</time>
      </trkpt>
      <trkpt lat="43.89478" lon="7.2463">
        <ele>666.5</ele>
        <time>2012-09-15T12:48:15.000Z</time>
      </trkpt>
      <trkpt lat="43.89484" lon="7.24628">
        <ele>665.6</ele>
        <time>2012-09-15T12:48:17.000Z</time>
      </trkpt>
      <trkpt lat="43.8949" lon="7.24627">
        <ele>664.5</ele>
        <time>2012-09-15T12:48:19.000Z</time>
      </trkpt>
      <trkpt lat="43.89498" lon="7.24627">
        <ele>663.6</ele>
        <time>2012-09-15T12:48:21.000Z</time>
      </trkpt>
      <trkpt lat="43.89503" lon="7.24626">
        <ele>663.5</ele>
        <time>2012-09-15T12:48:22.000Z</time>
      </trkpt>
      <trkpt lat="43.8951" lon="7.2462">
        <ele>663.6</ele>
        <time>2012-09-15T12:48:24.000Z</time>
      </trkpt>
      <trkpt lat="43.89516" lon="7.24616">
        <ele>663.5</ele>
        <time>2012-09-15T12:48:26.000Z</time>
      </trkpt>
      <trkpt lat="43.89517" lon="7.2461">
        <ele>667.2</ele>
        <time>2012-09-15T12:48:28.000Z</time>
      </trkpt>
      <trkpt lat="43.89522" lon="7.24606">
        <ele>667.9</ele>
        <time>2012-09-15T12:48:31.000Z</time>
      </trkpt>
      <trkpt lat="43.89527" lon="7.24605">
        <ele>668.8</ele>
        <time>2012-09-15T12:48:35.000Z</time>
      </trkpt>
      <trkpt lat="43.89533" lon="7.24604">
        <ele>668.4</ele>
        <time>2012-09-15T12:48:38.000Z</time>
      </trkpt>
      <trkpt lat="43.89539" lon="7.24602">
        <ele>667.3</ele>
        <time>2012-09-15T12:48:41.000Z</time>
      </trkpt>
      <trkpt lat="43.89545" lon="7.24601">
        <ele>668.8</ele>
        <time>2012-09-15T12:48:45.000Z</time>
      </trkpt>
      <trkpt lat="43.8955" lon="7.24598">
        <ele>668.6</ele>
        <time>2012-09-15T12:48:49.000Z</time>
      </trkpt>
      <trkpt lat="43.89555" lon="7.24598">
        <ele>668.4</ele>
        <time>2012-09-15T12:48:51.000Z</time>
      </trkpt>
      <trkpt lat="43.89559" lon="7.24593">
        <ele>668.5</ele>
        <time>2012-09-15T12:48:54.000Z</time>
      </trkpt>
      <trkpt lat="43.89562" lon="7.24588">
        <ele>670.2</ele>
        <time>2012-09-15T12:48:57.000Z</time>
      </trkpt>
      <trkpt lat="43.89567" lon="7.24586">
        <ele>669.8</ele>
        <time>2012-09-15T12:49:00.000Z</time>
      </trkpt>
      <trkpt lat="43.89571" lon="7.24582">
        <ele>670.6</ele>
        <time>2012-09-15T12:49:03.000Z</time>
      </trkpt>
      <trkpt lat="43.89575" lon="7.24578">
        <ele>670.4</ele>
        <time>2012-09-15T12:49:06.000Z</time>
      </trkpt>
      <trkpt lat="43.8958" lon="7.24574">
        <ele>668.9</ele>
        <time>2012-09-15T12:49:10.000Z</time>
      </trkpt>
      <trkpt lat="43.89584" lon="7.24571">
        <ele>668.3</ele>
        <time>2012-09-15T12:49:13.000Z</time>
      </trkpt>
      <trkpt lat="43.89588" lon="7.24569">
        <ele>669.3</ele>
        <time>2012-09-15T12:49:16.000Z</time>
      </trkpt>
      <trkpt lat="43.89592" lon="7.24564">
        <ele>668.2</ele>
        <time>2012-09-15T12:49:19.000Z</time>
      </trkpt>
      <trkpt lat="43.89596" lon="7.2456">
        <ele>666.7</ele>
        <time>2012-09-15T12:49:27.000Z</time>
      </trkpt>
      <trkpt lat="43.89599" lon="7.24555">
        <ele>666.6</ele>
        <time>2012-09-15T12:49:32.000Z</time>
      </trkpt>
      <trkpt lat="43.89603" lon="7.24549">
        <ele>666.5</ele>
        <time>2012-09-15T12:49:37.000Z</time>
      </trkpt>
      <trkpt lat="43.89606" lon="7.24543">
        <ele>667.4</ele>
        <time>2012-09-15T12:49:43.000Z</time>
      </trkpt>
      <trkpt lat="43.89612" lon="7.24539">
        <ele>667.2</ele>
        <time>2012-09-15T12:49:46.000Z</time>
      </trkpt>
      <trkpt lat="43.89618" lon="7.24536">
        <ele>666.5</ele>
        <time>2012-09-15T12:49:48.000Z</time>
      </trkpt>
      <trkpt lat="43.89622" lon="7.24533">
        <ele>666.9</ele>
        <time>2012-09-15T12:49:50.000Z</time>
      </trkpt>
      <trkpt lat="43.89627" lon="7.24531">
        <ele>667.2</ele>
        <time>2012-09-15T12:49:52.000Z</time>
      </trkpt>
      <trkpt lat="43.89631" lon="7.24528">
        <ele>668.2</ele>
        <time>2012-09-15T12:49:54.000Z</time>
      </trkpt>
      <trkpt lat="43.89636" lon="7.24526">
        <ele>669.1</ele>
        <time>2012-09-15T12:49:56.000Z</time>
      </trkpt>
      <trkpt lat="43.8964" lon="7.24519">
        <ele>669.9</ele>
        <time>2012-09-15T12:49:59.000Z</time>
      </trkpt>
      <trkpt lat="43.89644" lon="7.24511">
        <ele>669.7</ele>
        <time>2012-09-15T12:50:01.000Z</time>
      </trkpt>
      <trkpt lat="43.89646" lon="7.24504">
        <ele>669.6</ele>
        <time>2012-09-15T12:50:03.000Z</time>
      </trkpt>
      <trkpt lat="43.89648" lon="7.24496">
        <ele>672</ele>
        <time>2012-09-15T12:50:05.000Z</time>
      </trkpt>
      <trkpt lat="43.89651" lon="7.24488">
        <ele>671.6</ele>
        <time>2012-09-15T12:50:08.000Z</time>
      </trkpt>
      <trkpt lat="43.89652" lon="7.24482">
        <ele>673</ele>
        <time>2012-09-15T12:50:10.000Z</time>
      </trkpt>
      <trkpt lat="43.89656" lon="7.24475">
        <ele>672.3</ele>
        <time>2012-09-15T12:50:13.000Z</time>
      </trkpt>
      <trkpt lat="43.89658" lon="7.24469">
        <ele>671.9</ele>
        <time>2012-09-15T12:50:15.000Z</time>
      </trkpt>
      <trkpt lat="43.89663" lon="7.24464">
        <ele>674.8</ele>
        <time>2012-09-15T12:50:19.000Z</time>
      </trkpt>
      <trkpt lat="43.89666" lon="7.2447">
        <ele>667.9</ele>
        <time>2012-09-15T12:50:23.000Z</time>
      </trkpt>
      <trkpt lat="43.8967" lon="7.24475">
        <ele>667.3</ele>
        <time>2012-09-15T12:50:25.000Z</time>
      </trkpt>
      <trkpt lat="43.89672" lon="7.24482">
        <ele>667.9</ele>
        <time>2012-09-15T12:50:27.000Z</time>
      </trkpt>
      <trkpt lat="43.89673" lon="7.24488">
        <ele>668.7</ele>
        <time>2012-09-15T12:50:29.000Z</time>
      </trkpt>
      <trkpt lat="43.89674" lon="7.24494">
        <ele>671.1</ele>
        <time>2012-09-15T12:50:33.000Z</time>
      </trkpt>
      <trkpt lat="43.89678" lon="7.245">
        <ele>672.4</ele>
        <time>2012-09-15T12:50:41.000Z</time>
      </trkpt>
      <trkpt lat="43.89681" lon="7.24505">
        <ele>671.1</ele>
        <time>2012-09-15T12:50:45.000Z</time>
      </trkpt>
      <trkpt lat="43.89684" lon="7.24512">
        <ele>671</ele>
        <time>2012-09-15T12:50:53.000Z</time>
      </trkpt>
      <trkpt lat="43.89684" lon="7.24519">
        <ele>671.7</ele>
        <time>2012-09-15T12:51:03.000Z</time>
      </trkpt>
      <trkpt lat="43.89685" lon="7.24525">
        <ele>672.6</ele>
        <time>2012-09-15T12:51:06.000Z</time>
      </trkpt>
      <trkpt lat="43.89686" lon="7.24534">
        <ele>673.8</ele>
        <time>2012-09-15T12:51:09.000Z</time>
      </trkpt>
      <trkpt lat="43.89686" lon="7.24542">
        <ele>674.5</ele>
        <time>2012-09-15T12:51:12.000Z</time>
      </trkpt>
      <trkpt lat="43.89687" lon="7.24548">
        <ele>674.1</ele>
        <time>2012-09-15T12:51:14.000Z</time>
      </trkpt>
      <trkpt lat="43.89688" lon="7.24555">
        <ele>674</ele>
        <time>2012-09-15T12:51:17.000Z</time>
      </trkpt>
      <trkpt lat="43.89688" lon="7.24563">
        <ele>674.4</ele>
        <time>2012-09-15T12:51:21.000Z</time>
      </trkpt>
      <trkpt lat="43.89685" lon="7.24568">
        <ele>674.3</ele>
        <time>2012-09-15T12:51:24.000Z</time>
      </trkpt>
      <trkpt lat="43.89681" lon="7.24574">
        <ele>676.9</ele>
        <time>2012-09-15T12:51:27.000Z</time>
      </trkpt>
      <trkpt lat="43.89677" lon="7.2458">
        <ele>678.1</ele>
        <time>2012-09-15T12:51:35.000Z</time>
      </trkpt>
      <trkpt lat="43.89674" lon="7.24586">
        <ele>679.9</ele>
        <time>2012-09-15T12:51:48.000Z</time>
      </trkpt>
      <trkpt lat="43.89672" lon="7.24592">
        <ele>680.4</ele>
        <time>2012-09-15T12:51:54.000Z</time>
      </trkpt>
      <trkpt lat="43.89671" lon="7.24599">
        <ele>680.2</ele>
        <time>2012-09-15T12:52:01.000Z</time>
      </trkpt>
      <trkpt lat="43.89672" lon="7.24605">
        <ele>678.7</ele>
        <time>2012-09-15T12:52:06.000Z</time>
      </trkpt>
      <trkpt lat="43.89675" lon="7.2461">
        <ele>680.5</ele>
        <time>2012-09-15T12:52:13.000Z</time>
      </trkpt>
      <trkpt lat="43.89673" lon="7.24616">
        <ele>681.8</ele>
        <time>2012-09-15T12:52:17.000Z</time>
      </trkpt>
      <trkpt lat="43.89672" lon="7.24622">
        <ele>680.9</ele>
        <time>2012-09-15T12:52:23.000Z</time>
      </trkpt>
      <trkpt lat="43.8967" lon="7.2463">
        <ele>682.6</ele>
        <time>2012-09-15T12:52:32.000Z</time>
      </trkpt>
      <trkpt lat="43.89668" lon="7.24637">
        <ele>683.4</ele>
        <time>2012-09-15T12:52:40.000Z</time>
      </trkpt>
      <trkpt lat="43.89666" lon="7.24643">
        <ele>684.9</ele>
        <time>2012-09-15T12:52:47.000Z</time>
      </trkpt>
      <trkpt lat="43.89666" lon="7.2465">
        <ele>686.9</ele>
        <time>2012-09-15T12:52:52.000Z</time>
      </trkpt>
      <trkpt lat="43.89665" lon="7.24656">
        <ele>687.2</ele>
        <time>2012-09-15T12:52:57.000Z</time>
      </trkpt>
      <trkpt lat="43.89665" lon="7.24663">
        <ele>689.5</ele>
        <time>2012-09-15T12:53:04.000Z</time>
      </trkpt>
      <trkpt lat="43.89664" lon="7.24669">
        <ele>686.1</ele>
        <time>2012-09-15T12:53:10.000Z</time>
      </trkpt>
      <trkpt lat="43.89663" lon="7.24676">
        <ele>684.3</ele>
        <time>2012-09-15T12:53:15.000Z</time>
      </trkpt>
      <trkpt lat="43.89663" lon="7.24683">
        <ele>685.2</ele>
        <time>2012-09-15T12:53:21.000Z</time>
      </trkpt>
      <trkpt lat="43.89662" lon="7.2469">
        <ele>685.1</ele>
        <time>2012-09-15T12:53:26.000Z</time>
      </trkpt>
      <trkpt lat="43.89662" lon="7.24696">
        <ele>686.9</ele>
        <time>2012-09-15T12:53:36.000Z</time>
      </trkpt>
      <trkpt lat="43.89661" lon="7.24703">
        <ele>689.5</ele>
        <time>2012-09-15T12:53:43.000Z</time>
      </trkpt>
      <trkpt lat="43.89659" lon="7.2471">
        <ele>688.6</ele>
        <time>2012-09-15T12:53:50.000Z</time>
      </trkpt>
      <trkpt lat="43.89656" lon="7.24716">
        <ele>689.5</ele>
        <time>2012-09-15T12:53:55.000Z</time>
      </trkpt>
      <trkpt lat="43.89656" lon="7.24722">
        <ele>690.3</ele>
        <time>2012-09-15T12:54:03.000Z</time>
      </trkpt>
      <trkpt lat="43.89656" lon="7.24729">
        <ele>691.5</ele>
        <time>2012-09-15T12:54:10.000Z</time>
      </trkpt>
      <trkpt lat="43.89656" lon="7.24736">
        <ele>692.7</ele>
        <time>2012-09-15T12:54:16.000Z</time>
      </trkpt>
      <trkpt lat="43.89656" lon="7.24743">
        <ele>694.3</ele>
        <time>2012-09-15T12:54:24.000Z</time>
      </trkpt>
      <trkpt lat="43.89655" lon="7.24749">
        <ele>695.1</ele>
        <time>2012-09-15T12:54:30.000Z</time>
      </trkpt>
      <trkpt lat="43.89655" lon="7.24756">
        <ele>694.6</ele>
        <time>2012-09-15T12:54:36.000Z</time>
      </trkpt>
      <trkpt lat="43.8966" lon="7.24753">
        <ele>697.8</ele>
        <time>2012-09-15T12:54:50.000Z</time>
      </trkpt>
      <trkpt lat="43.89662" lon="7.24747">
        <ele>699</ele>
        <time>2012-09-15T12:54:55.000Z</time>
      </trkpt>
      <trkpt lat="43.89664" lon="7.24741">
        <ele>700.4</ele>
        <time>2012-09-15T12:55:01.000Z</time>
      </trkpt>
      <trkpt lat="43.89668" lon="7.24737">
        <ele>701.2</ele>
        <time>2012-09-15T12:55:06.000Z</time>
      </trkpt>
      <trkpt lat="43.89671" lon="7.24741">
        <ele>703.2</ele>
        <time>2012-09-15T12:55:13.000Z</time>
      </trkpt>
      <trkpt lat="43.89676" lon="7.24744">
        <ele>704.7</ele>
        <time>2012-09-15T12:55:20.000Z</time>
      </trkpt>
      <trkpt lat="43.8968" lon="7.24741">
        <ele>705.5</ele>
        <time>2012-09-15T12:55:25.000Z</time>
      </trkpt>
      <trkpt lat="43.89685" lon="7.24739">
        <ele>706.3</ele>
        <time>2012-09-15T12:55:31.000Z</time>
      </trkpt>
      <trkpt lat="43.89686" lon="7.24732">
        <ele>707.7</ele>
        <time>2012-09-15T12:55:37.000Z</time>
      </trkpt>
      <trkpt lat="43.89691" lon="7.24731">
        <ele>708.4</ele>
        <time>2012-09-15T12:55:43.000Z</time>
      </trkpt>
      <trkpt lat="43.89695" lon="7.24728">
        <ele>709.2</ele>
        <time>2012-09-15T12:55:48.000Z</time>
      </trkpt>
      <trkpt lat="43.89701" lon="7.24729">
        <ele>709.8</ele>
        <time>2012-09-15T12:56:01.000Z</time>
      </trkpt>
      <trkpt lat="43.89706" lon="7.24728">
        <ele>709.7</ele>
        <time>2012-09-15T12:56:05.000Z</time>
      </trkpt>
      <trkpt lat="43.89712" lon="7.24727">
        <ele>711.6</ele>
        <time>2012-09-15T12:56:09.000Z</time>
      </trkpt>
      <trkpt lat="43.89717" lon="7.24726">
        <ele>713.5</ele>
        <time>2012-09-15T12:56:13.000Z</time>
      </trkpt>
      <trkpt lat="43.89722" lon="7.24728">
        <ele>713.9</ele>
        <time>2012-09-15T12:56:16.000Z</time>
      </trkpt>
      <trkpt lat="43.89727" lon="7.24729">
        <ele>714</ele>
        <time>2012-09-15T12:56:20.000Z</time>
      </trkpt>
      <trkpt lat="43.89733" lon="7.24728">
        <ele>714.7</ele>
        <time>2012-09-15T12:56:24.000Z</time>
      </trkpt>
      <trkpt lat="43.89739" lon="7.24729">
        <ele>714.5</ele>
        <time>2012-09-15T12:56:28.000Z</time>
      </trkpt>
      <trkpt lat="43.89744" lon="7.2473">
        <ele>714.7</ele>
        <time>2012-09-15T12:56:31.000Z</time>
      </trkpt>
      <trkpt lat="43.89751" lon="7.24732">
        <ele>715.6</ele>
        <time>2012-09-15T12:56:35.000Z</time>
      </trkpt>
      <trkpt lat="43.89757" lon="7.24734">
        <ele>716.4</ele>
        <time>2012-09-15T12:56:38.000Z</time>
      </trkpt>
      <trkpt lat="43.89762" lon="7.24734">
        <ele>716.1</ele>
        <time>2012-09-15T12:56:40.000Z</time>
      </trkpt>
      <trkpt lat="43.89768" lon="7.24733">
        <ele>716.2</ele>
        <time>2012-09-15T12:56:43.000Z</time>
      </trkpt>
      <trkpt lat="43.89774" lon="7.24733">
        <ele>716.6</ele>
        <time>2012-09-15T12:56:46.000Z</time>
      </trkpt>
      <trkpt lat="43.89779" lon="7.24733">
        <ele>716.4</ele>
        <time>2012-09-15T12:56:48.000Z</time>
      </trkpt>
      <trkpt lat="43.89784" lon="7.24733">
        <ele>716.9</ele>
        <time>2012-09-15T12:56:50.000Z</time>
      </trkpt>
      <trkpt lat="43.89788" lon="7.24732">
        <ele>717.3</ele>
        <time>2012-09-15T12:56:52.000Z</time>
      </trkpt>
      <trkpt lat="43.89794" lon="7.24731">
        <ele>717.5</ele>
        <time>2012-09-15T12:56:55.000Z</time>
      </trkpt>
      <trkpt lat="43.89799" lon="7.2473">
        <ele>716.8</ele>
        <time>2012-09-15T12:56:58.000Z</time>
      </trkpt>
      <trkpt lat="43.89805" lon="7.24729">
        <ele>716.5</ele>
        <time>2012-09-15T12:57:02.000Z</time>
      </trkpt>
      <trkpt lat="43.89812" lon="7.24728">
        <ele>716.7</ele>
        <time>2012-09-15T12:57:05.000Z</time>
      </trkpt>
      <trkpt lat="43.89817" lon="7.24728">
        <ele>717</ele>
        <time>2012-09-15T12:57:07.000Z</time>
      </trkpt>
      <trkpt lat="43.89822" lon="7.24728">
        <ele>717.4</ele>
        <time>2012-09-15T12:57:09.000Z</time>
      </trkpt>
      <trkpt lat="43.89828" lon="7.24727">
        <ele>716.8</ele>
        <time>2012-09-15T12:57:12.000Z</time>
      </trkpt>
      <trkpt lat="43.89834" lon="7.24726">
        <ele>716.2</ele>
        <time>2012-09-15T12:57:14.000Z</time>
      </trkpt>
      <trkpt lat="43.8984" lon="7.24724">
        <ele>716.8</ele>
        <time>2012-09-15T12:57:16.000Z</time>
      </trkpt>
      <trkpt lat="43.89845" lon="7.24721">
        <ele>718</ele>
        <time>2012-09-15T12:57:18.000Z</time>
      </trkpt>
      <trkpt lat="43.8985" lon="7.24718">
        <ele>719.3</ele>
        <time>2012-09-15T12:57:20.000Z</time>
      </trkpt>
      <trkpt lat="43.89855" lon="7.24713">
        <ele>719.6</ele>
        <time>2012-09-15T12:57:22.000Z</time>
      </trkpt>
      <trkpt lat="43.8986" lon="7.24707">
        <ele>720.1</ele>
        <time>2012-09-15T12:57:24.000Z</time>
      </trkpt>
      <trkpt lat="43.89867" lon="7.24704">
        <ele>720</ele>
        <time>2012-09-15T12:57:26.000Z</time>
      </trkpt>
      <trkpt lat="43.89872" lon="7.24705">
        <ele>719.9</ele>
        <time>2012-09-15T12:57:27.000Z</time>
      </trkpt>
      <trkpt lat="43.89878" lon="7.24708">
        <ele>720.4</ele>
        <time>2012-09-15T12:57:28.000Z</time>
      </trkpt>
      <trkpt lat="43.89886" lon="7.24708">
        <ele>720.3</ele>
        <time>2012-09-15T12:57:30.000Z</time>
      </trkpt>
      <trkpt lat="43.89894" lon="7.24706">
        <ele>717.5</ele>
        <time>2012-09-15T12:57:32.000Z</time>
      </trkpt>
      <trkpt lat="43.89902" lon="7.24703">
        <ele>716.6</ele>
        <time>2012-09-15T12:57:34.000Z</time>
      </trkpt>
      <trkpt lat="43.89906" lon="7.24702">
        <ele>716.4</ele>
        <time>2012-09-15T12:57:36.000Z</time>
      </trkpt>
      <trkpt lat="43.89912" lon="7.24704">
        <ele>718.3</ele>
        <time>2012-09-15T12:57:38.000Z</time>
      </trkpt>
      <trkpt lat="43.89916" lon="7.24706">
        <ele>719.4</ele>
        <time>2012-09-15T12:57:40.000Z</time>
      </trkpt>
      <trkpt lat="43.89922" lon="7.24707">
        <ele>720.4</ele>
        <time>2012-09-15T12:57:42.000Z</time>
      </trkpt>
      <trkpt lat="43.89927" lon="7.2471">
        <ele>720.6</ele>
        <time>2012-09-15T12:57:44.000Z</time>
      </trkpt>
      <trkpt lat="43.89934" lon="7.2471">
        <ele>720.7</ele>
        <time>2012-09-15T12:57:46.000Z</time>
      </trkpt>
      <trkpt lat="43.89941" lon="7.24711">
        <ele>720.4</ele>
        <time>2012-09-15T12:57:48.000Z</time>
      </trkpt>
      <trkpt lat="43.89948" lon="7.2471">
        <ele>720.2</ele>
        <time>2012-09-15T12:57:50.000Z</time>
      </trkpt>
      <trkpt lat="43.89954" lon="7.24708">
        <ele>720.2</ele>
        <time>2012-09-15T12:57:52.000Z</time>
      </trkpt>
      <trkpt lat="43.8996" lon="7.24706">
        <ele>720.3</ele>
        <time>2012-09-15T12:57:55.000Z</time>
      </trkpt>
      <trkpt lat="43.89964" lon="7.24702">
        <ele>721.5</ele>
        <time>2012-09-15T12:57:59.000Z</time>
      </trkpt>
      <trkpt lat="43.89968" lon="7.24703">
        <ele>721.1</ele>
        <time>2012-09-15T12:58:02.000Z</time>
      </trkpt>
      <trkpt lat="43.89968" lon="7.24697">
        <ele>719.7</ele>
        <time>2012-09-15T13:03:49.000Z</time>
      </trkpt>
      <trkpt lat="43.89972" lon="7.24691">
        <ele>720</ele>
        <time>2012-09-15T13:03:52.000Z</time>
      </trkpt>
      <trkpt lat="43.89976" lon="7.24687">
        <ele>721.3</ele>
        <time>2012-09-15T13:03:54.000Z</time>
      </trkpt>
      <trkpt lat="43.8998" lon="7.2468">
        <ele>721.9</ele>
        <time>2012-09-15T13:03:57.000Z</time>
      </trkpt>
      <trkpt lat="43.89986" lon="7.24674">
        <ele>722.1</ele>
        <time>2012-09-15T13:03:59.000Z</time>
      </trkpt>
      <trkpt lat="43.89989" lon="7.24669">
        <ele>722.6</ele>
        <time>2012-09-15T13:04:01.000Z</time>
      </trkpt>
      <trkpt lat="43.89992" lon="7.24664">
        <ele>723.8</ele>
        <time>2012-09-15T13:04:03.000Z</time>
      </trkpt>
      <trkpt lat="43.89995" lon="7.24656">
        <ele>722.1</ele>
        <time>2012-09-15T13:04:06.000Z</time>
      </trkpt>
      <trkpt lat="43.89996" lon="7.24648">
        <ele>722.6</ele>
        <time>2012-09-15T13:04:09.000Z</time>
      </trkpt>
      <trkpt lat="43.89999" lon="7.24641">
        <ele>724.6</ele>
        <time>2012-09-15T13:04:26.000Z</time>
      </trkpt>
      <trkpt lat="43.90001" lon="7.24633">
        <ele>725.1</ele>
        <time>2012-09-15T13:04:29.000Z</time>
      </trkpt>
      <trkpt lat="43.90002" lon="7.24626">
        <ele>727.5</ele>
        <time>2012-09-15T13:04:32.000Z</time>
      </trkpt>
      <trkpt lat="43.90002" lon="7.24618">
        <ele>729.3</ele>
        <time>2012-09-15T13:04:36.000Z</time>
      </trkpt>
      <trkpt lat="43.89998" lon="7.24613">
        <ele>730.6</ele>
        <time>2012-09-15T13:04:40.000Z</time>
      </trkpt>
      <trkpt lat="43.89995" lon="7.24607">
        <ele>729.8</ele>
        <time>2012-09-15T13:04:44.000Z</time>
      </trkpt>
      <trkpt lat="43.89996" lon="7.24601">
        <ele>729.6</ele>
        <time>2012-09-15T13:04:50.000Z</time>
      </trkpt>
      <trkpt lat="43.89993" lon="7.24596">
        <ele>727.1</ele>
        <time>2012-09-15T13:05:03.000Z</time>
      </trkpt>
      <trkpt lat="43.89999" lon="7.24596">
        <ele>728</ele>
        <time>2012-09-15T13:05:08.000Z</time>
      </trkpt>
      <trkpt lat="43.9" lon="7.24588">
        <ele>728.6</ele>
        <time>2012-09-15T13:05:11.000Z</time>
      </trkpt>
      <trkpt lat="43.89997" lon="7.24584">
        <ele>727.1</ele>
        <time>2012-09-15T13:05:14.000Z</time>
      </trkpt>
      <trkpt lat="43.89987" lon="7.24569">
        <ele>723.5</ele>
        <time>2012-09-15T13:05:17.000Z</time>
      </trkpt>
      <trkpt lat="43.89986" lon="7.24559">
        <ele>722.9</ele>
        <time>2012-09-15T13:05:20.000Z</time>
      </trkpt>
      <trkpt lat="43.8999" lon="7.24556">
        <ele>724.1</ele>
        <time>2012-09-15T13:05:28.000Z</time>
      </trkpt>
      <trkpt lat="43.89994" lon="7.24556">
        <ele>725.3</ele>
        <time>2012-09-15T13:05:32.000Z</time>
      </trkpt>
      <trkpt lat="43.9" lon="7.24551">
        <ele>727.7</ele>
        <time>2012-09-15T13:05:38.000Z</time>
      </trkpt>
      <trkpt lat="43.90003" lon="7.24546">
        <ele>730.8</ele>
        <time>2012-09-15T13:05:42.000Z</time>
      </trkpt>
      <trkpt lat="43.90008" lon="7.24548">
        <ele>732.6</ele>
        <time>2012-09-15T13:05:56.000Z</time>
      </trkpt>
      <trkpt lat="43.90013" lon="7.2455">
        <ele>735.8</ele>
        <time>2012-09-15T13:06:21.000Z</time>
      </trkpt>
      <trkpt lat="43.90018" lon="7.2455">
        <ele>736.8</ele>
        <time>2012-09-15T13:06:24.000Z</time>
      </trkpt>
      <trkpt lat="43.90024" lon="7.24552">
        <ele>740.8</ele>
        <time>2012-09-15T13:06:30.000Z</time>
      </trkpt>
      <trkpt lat="43.90029" lon="7.24554">
        <ele>739.8</ele>
        <time>2012-09-15T13:06:33.000Z</time>
      </trkpt>
      <trkpt lat="43.90034" lon="7.24557">
        <ele>739.9</ele>
        <time>2012-09-15T13:06:36.000Z</time>
      </trkpt>
      <trkpt lat="43.90039" lon="7.24559">
        <ele>741.2</ele>
        <time>2012-09-15T13:06:40.000Z</time>
      </trkpt>
      <trkpt lat="43.90044" lon="7.24556">
        <ele>743.8</ele>
        <time>2012-09-15T13:06:46.000Z</time>
      </trkpt>
      <trkpt lat="43.90048" lon="7.2456">
        <ele>743.7</ele>
        <time>2012-09-15T13:06:53.000Z</time>
      </trkpt>
      <trkpt lat="43.90052" lon="7.24563">
        <ele>743.8</ele>
        <time>2012-09-15T13:06:58.000Z</time>
      </trkpt>
      <trkpt lat="43.90056" lon="7.24566">
        <ele>747.5</ele>
        <time>2012-09-15T13:07:09.000Z</time>
      </trkpt>
      <trkpt lat="43.90062" lon="7.24567">
        <ele>747.5</ele>
        <time>2012-09-15T13:07:17.000Z</time>
      </trkpt>
      <trkpt lat="43.90066" lon="7.24569">
        <ele>747.9</ele>
        <time>2012-09-15T13:07:20.000Z</time>
      </trkpt>
      <trkpt lat="43.90072" lon="7.24572">
        <ele>747.6</ele>
        <time>2012-09-15T13:07:23.000Z</time>
      </trkpt>
      <trkpt lat="43.90077" lon="7.24569">
        <ele>748</ele>
        <time>2012-09-15T13:07:28.000Z</time>
      </trkpt>
      <trkpt lat="43.90082" lon="7.24567">
        <ele>747.6</ele>
        <time>2012-09-15T13:07:34.000Z</time>
      </trkpt>
      <trkpt lat="43.90088" lon="7.2457">
        <ele>747.5</ele>
        <time>2012-09-15T13:07:42.000Z</time>
      </trkpt>
      <trkpt lat="43.90092" lon="7.24563">
        <ele>748.2</ele>
        <time>2012-09-15T13:07:50.000Z</time>
      </trkpt>
      <trkpt lat="43.90096" lon="7.24558">
        <ele>747.1</ele>
        <time>2012-09-15T13:07:56.000Z</time>
      </trkpt>
      <trkpt lat="43.90098" lon="7.24553">
        <ele>748.7</ele>
        <time>2012-09-15T13:08:00.000Z</time>
      </trkpt>
      <trkpt lat="43.90102" lon="7.24546">
        <ele>745.9</ele>
        <time>2012-09-15T13:08:04.000Z</time>
      </trkpt>
      <trkpt lat="43.90107" lon="7.24542">
        <ele>746.2</ele>
        <time>2012-09-15T13:08:06.000Z</time>
      </trkpt>
      <trkpt lat="43.90112" lon="7.24538">
        <ele>748.6</ele>
        <time>2012-09-15T13:08:09.000Z</time>
      </trkpt>
      <trkpt lat="43.90116" lon="7.24535">
        <ele>749.6</ele>
        <time>2012-09-15T13:08:12.000Z</time>
      </trkpt>
      <trkpt lat="43.90122" lon="7.24535">
        <ele>750.4</ele>
        <time>2012-09-15T13:08:15.000Z</time>
      </trkpt>
      <trkpt lat="43.90128" lon="7.24534">
        <ele>753</ele>
        <time>2012-09-15T13:08:18.000Z</time>
      </trkpt>
      <trkpt lat="43.90134" lon="7.24532">
        <ele>754</ele>
        <time>2012-09-15T13:08:21.000Z</time>
      </trkpt>
      <trkpt lat="43.90138" lon="7.2453">
        <ele>755.5</ele>
        <time>2012-09-15T13:08:24.000Z</time>
      </trkpt>
      <trkpt lat="43.90143" lon="7.24525">
        <ele>755.5</ele>
        <time>2012-09-15T13:08:28.000Z</time>
      </trkpt>
      <trkpt lat="43.90147" lon="7.24521">
        <ele>755.9</ele>
        <time>2012-09-15T13:08:31.000Z</time>
      </trkpt>
      <trkpt lat="43.90152" lon="7.24514">
        <ele>759.7</ele>
        <time>2012-09-15T13:08:36.000Z</time>
      </trkpt>
      <trkpt lat="43.90157" lon="7.2451">
        <ele>759</ele>
        <time>2012-09-15T13:08:38.000Z</time>
      </trkpt>
      <trkpt lat="43.90159" lon="7.24501">
        <ele>756.3</ele>
        <time>2012-09-15T13:08:41.000Z</time>
      </trkpt>
      <trkpt lat="43.90163" lon="7.24495">
        <ele>754.9</ele>
        <time>2012-09-15T13:08:44.000Z</time>
      </trkpt>
      <trkpt lat="43.90165" lon="7.24486">
        <ele>754.4</ele>
        <time>2012-09-15T13:08:47.000Z</time>
      </trkpt>
      <trkpt lat="43.90166" lon="7.24479">
        <ele>754.3</ele>
        <time>2012-09-15T13:08:50.000Z</time>
      </trkpt>
      <trkpt lat="43.90167" lon="7.24472">
        <ele>754.3</ele>
        <time>2012-09-15T13:08:52.000Z</time>
      </trkpt>
      <trkpt lat="43.90168" lon="7.24466">
        <ele>756</ele>
        <time>2012-09-15T13:08:55.000Z</time>
      </trkpt>
      <trkpt lat="43.9017" lon="7.2446">
        <ele>756.5</ele>
        <time>2012-09-15T13:08:58.000Z</time>
      </trkpt>
      <trkpt lat="43.90173" lon="7.24454">
        <ele>754.8</ele>
        <time>2012-09-15T13:09:00.000Z</time>
      </trkpt>
      <trkpt lat="43.90174" lon="7.24448">
        <ele>754</ele>
        <time>2012-09-15T13:09:02.000Z</time>
      </trkpt>
      <trkpt lat="43.90178" lon="7.24443">
        <ele>752.9</ele>
        <time>2012-09-15T13:09:05.000Z</time>
      </trkpt>
      <trkpt lat="43.90175" lon="7.24436">
        <ele>755.1</ele>
        <time>2012-09-15T13:09:08.000Z</time>
      </trkpt>
      <trkpt lat="43.90179" lon="7.24432">
        <ele>755.3</ele>
        <time>2012-09-15T13:09:10.000Z</time>
      </trkpt>
      <trkpt lat="43.90182" lon="7.24427">
        <ele>756.6</ele>
        <time>2012-09-15T13:09:13.000Z</time>
      </trkpt>
      <trkpt lat="43.90184" lon="7.2442">
        <ele>755.7</ele>
        <time>2012-09-15T13:09:16.000Z</time>
      </trkpt>
      <trkpt lat="43.90186" lon="7.24414">
        <ele>756.4</ele>
        <time>2012-09-15T13:09:19.000Z</time>
      </trkpt>
      <trkpt lat="43.90186" lon="7.24407">
        <ele>756.3</ele>
        <time>2012-09-15T13:09:22.000Z</time>
      </trkpt>
      <trkpt lat="43.90189" lon="7.24402">
        <ele>758</ele>
        <time>2012-09-15T13:09:25.000Z</time>
      </trkpt>
      <trkpt lat="43.90191" lon="7.24395">
        <ele>758.9</ele>
        <time>2012-09-15T13:09:32.000Z</time>
      </trkpt>
      <trkpt lat="43.90197" lon="7.24392">
        <ele>760.1</ele>
        <time>2012-09-15T13:09:36.000Z</time>
      </trkpt>
      <trkpt lat="43.90197" lon="7.24386">
        <ele>759</ele>
        <time>2012-09-15T13:09:39.000Z</time>
      </trkpt>
      <trkpt lat="43.90201" lon="7.2438">
        <ele>757.8</ele>
        <time>2012-09-15T13:09:42.000Z</time>
      </trkpt>
      <trkpt lat="43.90202" lon="7.24373">
        <ele>759</ele>
        <time>2012-09-15T13:09:44.000Z</time>
      </trkpt>
      <trkpt lat="43.90203" lon="7.24366">
        <ele>759.7</ele>
        <time>2012-09-15T13:09:46.000Z</time>
      </trkpt>
      <trkpt lat="43.90206" lon="7.2436">
        <ele>758.8</ele>
        <time>2012-09-15T13:09:49.000Z</time>
      </trkpt>
      <trkpt lat="43.90208" lon="7.24354">
        <ele>760.9</ele>
        <time>2012-09-15T13:09:53.000Z</time>
      </trkpt>
      <trkpt lat="43.90213" lon="7.24348">
        <ele>762.6</ele>
        <time>2012-09-15T13:09:56.000Z</time>
      </trkpt>
      <trkpt lat="43.90214" lon="7.24342">
        <ele>762.8</ele>
        <time>2012-09-15T13:10:00.000Z</time>
      </trkpt>
      <trkpt lat="43.90214" lon="7.24334">
        <ele>761.7</ele>
        <time>2012-09-15T13:10:04.000Z</time>
      </trkpt>
      <trkpt lat="43.90214" lon="7.24327">
        <ele>762.6</ele>
        <time>2012-09-15T13:10:06.000Z</time>
      </trkpt>
      <trkpt lat="43.90215" lon="7.24318">
        <ele>761.8</ele>
        <time>2012-09-15T13:10:09.000Z</time>
      </trkpt>
      <trkpt lat="43.90217" lon="7.24311">
        <ele>761.3</ele>
        <time>2012-09-15T13:10:13.000Z</time>
      </trkpt>
      <trkpt lat="43.90217" lon="7.24304">
        <ele>761.9</ele>
        <time>2012-09-15T13:10:15.000Z</time>
      </trkpt>
      <trkpt lat="43.90222" lon="7.24298">
        <ele>763.5</ele>
        <time>2012-09-15T13:10:17.000Z</time>
      </trkpt>
      <trkpt lat="43.90224" lon="7.2429">
        <ele>763</ele>
        <time>2012-09-15T13:10:20.000Z</time>
      </trkpt>
      <trkpt lat="43.90225" lon="7.24281">
        <ele>763</ele>
        <time>2012-09-15T13:10:22.000Z</time>
      </trkpt>
      <trkpt lat="43.90227" lon="7.24274">
        <ele>762.9</ele>
        <time>2012-09-15T13:10:24.000Z</time>
      </trkpt>
      <trkpt lat="43.90228" lon="7.24266">
        <ele>761.7</ele>
        <time>2012-09-15T13:10:26.000Z</time>
      </trkpt>
      <trkpt lat="43.90229" lon="7.24257">
        <ele>758.1</ele>
        <time>2012-09-15T13:10:28.000Z</time>
      </trkpt>
      <trkpt lat="43.9023" lon="7.24246">
        <ele>757.7</ele>
        <time>2012-09-15T13:10:30.000Z</time>
      </trkpt>
      <trkpt lat="43.90231" lon="7.24237">
        <ele>755.9</ele>
        <time>2012-09-15T13:10:32.000Z</time>
      </trkpt>
      <trkpt lat="43.90229" lon="7.2423">
        <ele>751.4</ele>
        <time>2012-09-15T13:10:34.000Z</time>
      </trkpt>
      <trkpt lat="43.90227" lon="7.24222">
        <ele>749.4</ele>
        <time>2012-09-15T13:10:36.000Z</time>
      </trkpt>
      <trkpt lat="43.90225" lon="7.24213">
        <ele>749.1</ele>
        <time>2012-09-15T13:10:38.000Z</time>
      </trkpt>
      <trkpt lat="43.90234" lon="7.24205">
        <ele>754.3</ele>
        <time>2012-09-15T13:10:42.000Z</time>
      </trkpt>
      <trkpt lat="43.90239" lon="7.24197">
        <ele>756.5</ele>
        <time>2012-09-15T13:10:44.000Z</time>
      </trkpt>
      <trkpt lat="43.90242" lon="7.24192">
        <ele>757.6</ele>
        <time>2012-09-15T13:10:46.000Z</time>
      </trkpt>
      <trkpt lat="43.90245" lon="7.24184">
        <ele>757.9</ele>
        <time>2012-09-15T13:10:48.000Z</time>
      </trkpt>
      <trkpt lat="43.90247" lon="7.24176">
        <ele>759.3</ele>
        <time>2012-09-15T13:10:51.000Z</time>
      </trkpt>
      <trkpt lat="43.90246" lon="7.24169">
        <ele>758.9</ele>
        <time>2012-09-15T13:10:53.000Z</time>
      </trkpt>
      <trkpt lat="43.90248" lon="7.2416">
        <ele>758.9</ele>
        <time>2012-09-15T13:10:57.000Z</time>
      </trkpt>
      <trkpt lat="43.90248" lon="7.24153">
        <ele>762.1</ele>
        <time>2012-09-15T13:11:00.000Z</time>
      </trkpt>
      <trkpt lat="43.90245" lon="7.24148">
        <ele>762.2</ele>
        <time>2012-09-15T13:11:03.000Z</time>
      </trkpt>
      <trkpt lat="43.90245" lon="7.2414">
        <ele>762.8</ele>
        <time>2012-09-15T13:11:06.000Z</time>
      </trkpt>
      <trkpt lat="43.90244" lon="7.24134">
        <ele>760.6</ele>
        <time>2012-09-15T13:11:10.000Z</time>
      </trkpt>
      <trkpt lat="43.90247" lon="7.24126">
        <ele>763.6</ele>
        <time>2012-09-15T13:11:14.000Z</time>
      </trkpt>
      <trkpt lat="43.90248" lon="7.24119">
        <ele>765.1</ele>
        <time>2012-09-15T13:11:18.000Z</time>
      </trkpt>
      <trkpt lat="43.90252" lon="7.24115">
        <ele>766.6</ele>
        <time>2012-09-15T13:11:20.000Z</time>
      </trkpt>
      <trkpt lat="43.90256" lon="7.24111">
        <ele>767.4</ele>
        <time>2012-09-15T13:11:22.000Z</time>
      </trkpt>
      <trkpt lat="43.90259" lon="7.24105">
        <ele>765.6</ele>
        <time>2012-09-15T13:11:25.000Z</time>
      </trkpt>
      <trkpt lat="43.9026" lon="7.24099">
        <ele>766.4</ele>
        <time>2012-09-15T13:11:28.000Z</time>
      </trkpt>
      <trkpt lat="43.90261" lon="7.24092">
        <ele>767.9</ele>
        <time>2012-09-15T13:11:31.000Z</time>
      </trkpt>
      <trkpt lat="43.90263" lon="7.2408">
        <ele>767.7</ele>
        <time>2012-09-15T13:11:36.000Z</time>
      </trkpt>
      <trkpt lat="43.90267" lon="7.24072">
        <ele>767</ele>
        <time>2012-09-15T13:11:39.000Z</time>
      </trkpt>
      <trkpt lat="43.90269" lon="7.24064">
        <ele>765.9</ele>
        <time>2012-09-15T13:11:42.000Z</time>
      </trkpt>
      <trkpt lat="43.90266" lon="7.24056">
        <ele>766.7</ele>
        <time>2012-09-15T13:11:45.000Z</time>
      </trkpt>
      <trkpt lat="43.90265" lon="7.24047">
        <ele>766.8</ele>
        <time>2012-09-15T13:11:48.000Z</time>
      </trkpt>
      <trkpt lat="43.90265" lon="7.24039">
        <ele>767.4</ele>
        <time>2012-09-15T13:11:51.000Z</time>
      </trkpt>
      <trkpt lat="43.90264" lon="7.24032">
        <ele>767.9</ele>
        <time>2012-09-15T13:11:54.000Z</time>
      </trkpt>
      <trkpt lat="43.90263" lon="7.24025">
        <ele>766.7</ele>
        <time>2012-09-15T13:11:57.000Z</time>
      </trkpt>
      <trkpt lat="43.90263" lon="7.24018">
        <ele>767.6</ele>
        <time>2012-09-15T13:11:59.000Z</time>
      </trkpt>
      <trkpt lat="43.90259" lon="7.2401">
        <ele>765.4</ele>
        <time>2012-09-15T13:12:01.000Z</time>
      </trkpt>
      <trkpt lat="43.90255" lon="7.24002">
        <ele>764</ele>
        <time>2012-09-15T13:12:03.000Z</time>
      </trkpt>
      <trkpt lat="43.90255" lon="7.23995">
        <ele>765</ele>
        <time>2012-09-15T13:12:05.000Z</time>
      </trkpt>
      <trkpt lat="43.90253" lon="7.23989">
        <ele>765.5</ele>
        <time>2012-09-15T13:12:07.000Z</time>
      </trkpt>
      <trkpt lat="43.90252" lon="7.23983">
        <ele>765.7</ele>
        <time>2012-09-15T13:12:09.000Z</time>
      </trkpt>
      <trkpt lat="43.9025" lon="7.23977">
        <ele>764.4</ele>
        <time>2012-09-15T13:12:12.000Z</time>
      </trkpt>
      <trkpt lat="43.90248" lon="7.23968">
        <ele>763.3</ele>
        <time>2012-09-15T13:12:14.000Z</time>
      </trkpt>
      <trkpt lat="43.90253" lon="7.23963">
        <ele>764.8</ele>
        <time>2012-09-15T13:12:16.000Z</time>
      </trkpt>
      <trkpt lat="43.90251" lon="7.23956">
        <ele>759.7</ele>
        <time>2012-09-15T13:12:19.000Z</time>
      </trkpt>
      <trkpt lat="43.90254" lon="7.2395">
        <ele>760.2</ele>
        <time>2012-09-15T13:12:21.000Z</time>
      </trkpt>
      <trkpt lat="43.90261" lon="7.23953">
        <ele>761.2</ele>
        <time>2012-09-15T13:12:23.000Z</time>
      </trkpt>
      <trkpt lat="43.90268" lon="7.23956">
        <ele>762.1</ele>
        <time>2012-09-15T13:12:25.000Z</time>
      </trkpt>
      <trkpt lat="43.90273" lon="7.23959">
        <ele>762.5</ele>
        <time>2012-09-15T13:12:27.000Z</time>
      </trkpt>
      <trkpt lat="43.90279" lon="7.23961">
        <ele>762.5</ele>
        <time>2012-09-15T13:12:30.000Z</time>
      </trkpt>
      <trkpt lat="43.90284" lon="7.23962">
        <ele>764.2</ele>
        <time>2012-09-15T13:12:33.000Z</time>
      </trkpt>
      <trkpt lat="43.90288" lon="7.23964">
        <ele>765.2</ele>
        <time>2012-09-15T13:12:37.000Z</time>
      </trkpt>
      <trkpt lat="43.90293" lon="7.23966">
        <ele>766.6</ele>
        <time>2012-09-15T13:12:40.000Z</time>
      </trkpt>
      <trkpt lat="43.90298" lon="7.23967">
        <ele>766.9</ele>
        <time>2012-09-15T13:12:43.000Z</time>
      </trkpt>
      <trkpt lat="43.90304" lon="7.23969">
        <ele>766.9</ele>
        <time>2012-09-15T13:12:47.000Z</time>
      </trkpt>
      <trkpt lat="43.90308" lon="7.2397">
        <ele>768.4</ele>
        <time>2012-09-15T13:12:49.000Z</time>
      </trkpt>
      <trkpt lat="43.90314" lon="7.23971">
        <ele>769.5</ele>
        <time>2012-09-15T13:12:51.000Z</time>
      </trkpt>
      <trkpt lat="43.90319" lon="7.23972">
        <ele>770.3</ele>
        <time>2012-09-15T13:12:53.000Z</time>
      </trkpt>
      <trkpt lat="43.90324" lon="7.23972">
        <ele>770.2</ele>
        <time>2012-09-15T13:12:55.000Z</time>
      </trkpt>
      <trkpt lat="43.90329" lon="7.23972">
        <ele>770.5</ele>
        <time>2012-09-15T13:12:58.000Z</time>
      </trkpt>
      <trkpt lat="43.90335" lon="7.23973">
        <ele>771.3</ele>
        <time>2012-09-15T13:13:00.000Z</time>
      </trkpt>
      <trkpt lat="43.90341" lon="7.23972">
        <ele>772</ele>
        <time>2012-09-15T13:13:02.000Z</time>
      </trkpt>
      <trkpt lat="43.90346" lon="7.23973">
        <ele>772.8</ele>
        <time>2012-09-15T13:13:04.000Z</time>
      </trkpt>
      <trkpt lat="43.90352" lon="7.23972">
        <ele>773.2</ele>
        <time>2012-09-15T13:13:06.000Z</time>
      </trkpt>
      <trkpt lat="43.90359" lon="7.23971">
        <ele>774.6</ele>
        <time>2012-09-15T13:13:08.000Z</time>
      </trkpt>
      <trkpt lat="43.90365" lon="7.23971">
        <ele>775.3</ele>
        <time>2012-09-15T13:13:10.000Z</time>
      </trkpt>
      <trkpt lat="43.90372" lon="7.23972">
        <ele>776.6</ele>
        <time>2012-09-15T13:13:12.000Z</time>
      </trkpt>
      <trkpt lat="43.90377" lon="7.23973">
        <ele>776.6</ele>
        <time>2012-09-15T13:13:14.000Z</time>
      </trkpt>
      <trkpt lat="43.90383" lon="7.23973">
        <ele>776.6</ele>
        <time>2012-09-15T13:13:16.000Z</time>
      </trkpt>
      <trkpt lat="43.90389" lon="7.23976">
        <ele>775.6</ele>
        <time>2012-09-15T13:13:19.000Z</time>
      </trkpt>
      <trkpt lat="43.90394" lon="7.2398">
        <ele>777.3</ele>
        <time>2012-09-15T13:13:22.000Z</time>
      </trkpt>
      <trkpt lat="43.90399" lon="7.2398">
        <ele>777.5</ele>
        <time>2012-09-15T13:13:26.000Z</time>
      </trkpt>
      <trkpt lat="43.90402" lon="7.23974">
        <ele>776</ele>
        <time>2012-09-15T13:13:49.000Z</time>
      </trkpt>
      <trkpt lat="43.90402" lon="7.23967">
        <ele>774.5</ele>
        <time>2012-09-15T13:13:52.000Z</time>
      </trkpt>
      <trkpt lat="43.90406" lon="7.2396">
        <ele>774.2</ele>
        <time>2012-09-15T13:13:56.000Z</time>
      </trkpt>
      <trkpt lat="43.90407" lon="7.23948">
        <ele>774</ele>
        <time>2012-09-15T13:14:00.000Z</time>
      </trkpt>
      <trkpt lat="43.90405" lon="7.23939">
        <ele>774</ele>
        <time>2012-09-15T13:14:02.000Z</time>
      </trkpt>
      <trkpt lat="43.90411" lon="7.23929">
        <ele>774.2</ele>
        <time>2012-09-15T13:14:04.000Z</time>
      </trkpt>
      <trkpt lat="43.90416" lon="7.23923">
        <ele>776.9</ele>
        <time>2012-09-15T13:14:05.000Z</time>
      </trkpt>
      <trkpt lat="43.90418" lon="7.23914">
        <ele>778.6</ele>
        <time>2012-09-15T13:14:07.000Z</time>
      </trkpt>
      <trkpt lat="43.90418" lon="7.23907">
        <ele>778</ele>
        <time>2012-09-15T13:14:09.000Z</time>
      </trkpt>
      <trkpt lat="43.90423" lon="7.23912">
        <ele>779.8</ele>
        <time>2012-09-15T13:14:12.000Z</time>
      </trkpt>
      <trkpt lat="43.90429" lon="7.23912">
        <ele>779.4</ele>
        <time>2012-09-15T13:14:15.000Z</time>
      </trkpt>
      <trkpt lat="43.90432" lon="7.23906">
        <ele>778.2</ele>
        <time>2012-09-15T13:14:16.000Z</time>
      </trkpt>
      <trkpt lat="43.90432" lon="7.23895">
        <ele>776.9</ele>
        <time>2012-09-15T13:14:18.000Z</time>
      </trkpt>
      <trkpt lat="43.90438" lon="7.23882">
        <ele>776.4</ele>
        <time>2012-09-15T13:14:20.000Z</time>
      </trkpt>
      <trkpt lat="43.90441" lon="7.23876">
        <ele>776.3</ele>
        <time>2012-09-15T13:14:21.000Z</time>
      </trkpt>
      <trkpt lat="43.90443" lon="7.23867">
        <ele>776.6</ele>
        <time>2012-09-15T13:14:22.000Z</time>
      </trkpt>
      <trkpt lat="43.90445" lon="7.23859">
        <ele>776.9</ele>
        <time>2012-09-15T13:14:23.000Z</time>
      </trkpt>
      <trkpt lat="43.90447" lon="7.23852">
        <ele>776.3</ele>
        <time>2012-09-15T13:14:24.000Z</time>
      </trkpt>
      <trkpt lat="43.90449" lon="7.23846">
        <ele>776.5</ele>
        <time>2012-09-15T13:14:25.000Z</time>
      </trkpt>
      <trkpt lat="43.90453" lon="7.23836">
        <ele>776.5</ele>
        <time>2012-09-15T13:14:27.000Z</time>
      </trkpt>
      <trkpt lat="43.90456" lon="7.23827">
        <ele>775.5</ele>
        <time>2012-09-15T13:14:29.000Z</time>
      </trkpt>
      <trkpt lat="43.90461" lon="7.23827">
        <ele>775.6</ele>
        <time>2012-09-15T13:14:34.000Z</time>
      </trkpt>
      <trkpt lat="43.90466" lon="7.23829">
        <ele>776.3</ele>
        <time>2012-09-15T13:14:36.000Z</time>
      </trkpt>
      <trkpt lat="43.90469" lon="7.23835">
        <ele>774.4</ele>
        <time>2012-09-15T13:14:38.000Z</time>
      </trkpt>
      <trkpt lat="43.90474" lon="7.23841">
        <ele>772.9</ele>
        <time>2012-09-15T13:14:40.000Z</time>
      </trkpt>
      <trkpt lat="43.9048" lon="7.23844">
        <ele>774.5</ele>
        <time>2012-09-15T13:14:42.000Z</time>
      </trkpt>
      <trkpt lat="43.90485" lon="7.23842">
        <ele>775.3</ele>
        <time>2012-09-15T13:14:44.000Z</time>
      </trkpt>
      <trkpt lat="43.90489" lon="7.23838">
        <ele>775.6</ele>
        <time>2012-09-15T13:14:46.000Z</time>
      </trkpt>
      <trkpt lat="43.90493" lon="7.23833">
        <ele>776.6</ele>
        <time>2012-09-15T13:14:49.000Z</time>
      </trkpt>
      <trkpt lat="43.90497" lon="7.23825">
        <ele>776.5</ele>
        <time>2012-09-15T13:14:52.000Z</time>
      </trkpt>
      <trkpt lat="43.905" lon="7.23819">
        <ele>776.8</ele>
        <time>2012-09-15T13:14:55.000Z</time>
      </trkpt>
      <trkpt lat="43.90503" lon="7.23813">
        <ele>775.7</ele>
        <time>2012-09-15T13:14:58.000Z</time>
      </trkpt>
      <trkpt lat="43.90506" lon="7.23807">
        <ele>776.9</ele>
        <time>2012-09-15T13:15:01.000Z</time>
      </trkpt>
      <trkpt lat="43.90508" lon="7.23801">
        <ele>778.1</ele>
        <time>2012-09-15T13:15:04.000Z</time>
      </trkpt>
      <trkpt lat="43.9051" lon="7.23794">
        <ele>777.8</ele>
        <time>2012-09-15T13:15:07.000Z</time>
      </trkpt>
      <trkpt lat="43.90512" lon="7.23787">
        <ele>777.3</ele>
        <time>2012-09-15T13:15:10.000Z</time>
      </trkpt>
      <trkpt lat="43.90513" lon="7.23779">
        <ele>778</ele>
        <time>2012-09-15T13:15:14.000Z</time>
      </trkpt>
      <trkpt lat="43.90514" lon="7.23772">
        <ele>780.6</ele>
        <time>2012-09-15T13:15:18.000Z</time>
      </trkpt>
      <trkpt lat="43.90515" lon="7.23764">
        <ele>780</ele>
        <time>2012-09-15T13:15:22.000Z</time>
      </trkpt>
      <trkpt lat="43.90517" lon="7.23757">
        <ele>779.1</ele>
        <time>2012-09-15T13:15:25.000Z</time>
      </trkpt>
      <trkpt lat="43.90516" lon="7.23749">
        <ele>779.4</ele>
        <time>2012-09-15T13:15:28.000Z</time>
      </trkpt>
      <trkpt lat="43.90518" lon="7.23742">
        <ele>778.9</ele>
        <time>2012-09-15T13:16:01.000Z</time>
      </trkpt>
      <trkpt lat="43.90517" lon="7.23736">
        <ele>779.7</ele>
        <time>2012-09-15T13:16:04.000Z</time>
      </trkpt>
      <trkpt lat="43.90516" lon="7.2373">
        <ele>781.6</ele>
        <time>2012-09-15T13:16:07.000Z</time>
      </trkpt>
      <trkpt lat="43.90516" lon="7.23723">
        <ele>781.3</ele>
        <time>2012-09-15T13:16:10.000Z</time>
      </trkpt>
      <trkpt lat="43.90515" lon="7.23717">
        <ele>780.5</ele>
        <time>2012-09-15T13:16:13.000Z</time>
      </trkpt>
      <trkpt lat="43.90515" lon="7.2371">
        <ele>782.1</ele>
        <time>2012-09-15T13:16:16.000Z</time>
      </trkpt>
      <trkpt lat="43.90516" lon="7.23703">
        <ele>783.1</ele>
        <time>2012-09-15T13:16:19.000Z</time>
      </trkpt>
      <trkpt lat="43.90514" lon="7.23696">
        <ele>783.3</ele>
        <time>2012-09-15T13:16:22.000Z</time>
      </trkpt>
      <trkpt lat="43.90514" lon="7.23689">
        <ele>784.8</ele>
        <time>2012-09-15T13:16:25.000Z</time>
      </trkpt>
      <trkpt lat="43.90515" lon="7.23683">
        <ele>786.2</ele>
        <time>2012-09-15T13:16:29.000Z</time>
      </trkpt>
      <trkpt lat="43.90516" lon="7.23677">
        <ele>785.5</ele>
        <time>2012-09-15T13:16:33.000Z</time>
      </trkpt>
      <trkpt lat="43.9052" lon="7.2367">
        <ele>785.7</ele>
        <time>2012-09-15T13:17:11.000Z</time>
      </trkpt>
      <trkpt lat="43.90521" lon="7.23663">
        <ele>784.8</ele>
        <time>2012-09-15T13:17:13.000Z</time>
      </trkpt>
      <trkpt lat="43.90518" lon="7.23655">
        <ele>783.3</ele>
        <time>2012-09-15T13:17:15.000Z</time>
      </trkpt>
      <trkpt lat="43.90516" lon="7.23646">
        <ele>782.9</ele>
        <time>2012-09-15T13:17:17.000Z</time>
      </trkpt>
      <trkpt lat="43.90514" lon="7.23636">
        <ele>782.3</ele>
        <time>2012-09-15T13:17:19.000Z</time>
      </trkpt>
      <trkpt lat="43.90516" lon="7.23629">
        <ele>782.2</ele>
        <time>2012-09-15T13:17:21.000Z</time>
      </trkpt>
      <trkpt lat="43.9052" lon="7.23623">
        <ele>782.5</ele>
        <time>2012-09-15T13:17:24.000Z</time>
      </trkpt>
      <trkpt lat="43.90526" lon="7.23619">
        <ele>780.5</ele>
        <time>2012-09-15T13:17:26.000Z</time>
      </trkpt>
      <trkpt lat="43.90531" lon="7.2361">
        <ele>780.2</ele>
        <time>2012-09-15T13:17:28.000Z</time>
      </trkpt>
      <trkpt lat="43.90535" lon="7.23605">
        <ele>780.6</ele>
        <time>2012-09-15T13:17:29.000Z</time>
      </trkpt>
      <trkpt lat="43.90538" lon="7.236">
        <ele>781.1</ele>
        <time>2012-09-15T13:17:30.000Z</time>
      </trkpt>
      <trkpt lat="43.90554" lon="7.23599">
        <ele>781.6</ele>
        <time>2012-09-15T13:17:33.000Z</time>
      </trkpt>
      <trkpt lat="43.90559" lon="7.23596">
        <ele>780.7</ele>
        <time>2012-09-15T13:17:34.000Z</time>
      </trkpt>
      <trkpt lat="43.90559" lon="7.23589">
        <ele>779</ele>
        <time>2012-09-15T13:17:37.000Z</time>
      </trkpt>
      <trkpt lat="43.9056" lon="7.23582">
        <ele>779.2</ele>
        <time>2012-09-15T13:17:41.000Z</time>
      </trkpt>
      <trkpt lat="43.90563" lon="7.23573">
        <ele>780.1</ele>
        <time>2012-09-15T13:17:44.000Z</time>
      </trkpt>
      <trkpt lat="43.90565" lon="7.23568">
        <ele>780.6</ele>
        <time>2012-09-15T13:17:46.000Z</time>
      </trkpt>
      <trkpt lat="43.90568" lon="7.23561">
        <ele>780.6</ele>
        <time>2012-09-15T13:17:48.000Z</time>
      </trkpt>
      <trkpt lat="43.90569" lon="7.23554">
        <ele>780.4</ele>
        <time>2012-09-15T13:17:50.000Z</time>
      </trkpt>
      <trkpt lat="43.90567" lon="7.23546">
        <ele>777.8</ele>
        <time>2012-09-15T13:17:53.000Z</time>
      </trkpt>
      <trkpt lat="43.90564" lon="7.23541">
        <ele>778.3</ele>
        <time>2012-09-15T13:17:56.000Z</time>
      </trkpt>
      <trkpt lat="43.90567" lon="7.23535">
        <ele>779.9</ele>
        <time>2012-09-15T13:18:00.000Z</time>
      </trkpt>
      <trkpt lat="43.9057" lon="7.23529">
        <ele>782.2</ele>
        <time>2012-09-15T13:18:03.000Z</time>
      </trkpt>
      <trkpt lat="43.90573" lon="7.23522">
        <ele>784</ele>
        <time>2012-09-15T13:18:06.000Z</time>
      </trkpt>
      <trkpt lat="43.90577" lon="7.23517">
        <ele>785.6</ele>
        <time>2012-09-15T13:18:10.000Z</time>
      </trkpt>
      <trkpt lat="43.9058" lon="7.23509">
        <ele>787.3</ele>
        <time>2012-09-15T13:18:13.000Z</time>
      </trkpt>
      <trkpt lat="43.90582" lon="7.23502">
        <ele>786.7</ele>
        <time>2012-09-15T13:18:15.000Z</time>
      </trkpt>
      <trkpt lat="43.90586" lon="7.23496">
        <ele>787.2</ele>
        <time>2012-09-15T13:18:17.000Z</time>
      </trkpt>
      <trkpt lat="43.90589" lon="7.2349">
        <ele>787.1</ele>
        <time>2012-09-15T13:18:19.000Z</time>
      </trkpt>
      <trkpt lat="43.90592" lon="7.23485">
        <ele>786.4</ele>
        <time>2012-09-15T13:18:21.000Z</time>
      </trkpt>
      <trkpt lat="43.90594" lon="7.23476">
        <ele>786.1</ele>
        <time>2012-09-15T13:18:23.000Z</time>
      </trkpt>
      <trkpt lat="43.90595" lon="7.2347">
        <ele>785.8</ele>
        <time>2012-09-15T13:18:25.000Z</time>
      </trkpt>
      <trkpt lat="43.90595" lon="7.23464">
        <ele>784.8</ele>
        <time>2012-09-15T13:18:27.000Z</time>
      </trkpt>
      <trkpt lat="43.90596" lon="7.23454">
        <ele>784.4</ele>
        <time>2012-09-15T13:18:30.000Z</time>
      </trkpt>
      <trkpt lat="43.90598" lon="7.23447">
        <ele>785.8</ele>
        <time>2012-09-15T13:18:33.000Z</time>
      </trkpt>
      <trkpt lat="43.90599" lon="7.2344">
        <ele>786.7</ele>
        <time>2012-09-15T13:18:37.000Z</time>
      </trkpt>
      <trkpt lat="43.90601" lon="7.23434">
        <ele>786.2</ele>
        <time>2012-09-15T13:18:40.000Z</time>
      </trkpt>
      <trkpt lat="43.90603" lon="7.23426">
        <ele>785.2</ele>
        <time>2012-09-15T13:19:07.000Z</time>
      </trkpt>
      <trkpt lat="43.90605" lon="7.23419">
        <ele>786.9</ele>
        <time>2012-09-15T13:19:09.000Z</time>
      </trkpt>
      <trkpt lat="43.9061" lon="7.23414">
        <ele>787.2</ele>
        <time>2012-09-15T13:19:11.000Z</time>
      </trkpt>
      <trkpt lat="43.90617" lon="7.23412">
        <ele>787.5</ele>
        <time>2012-09-15T13:19:13.000Z</time>
      </trkpt>
      <trkpt lat="43.90619" lon="7.23417">
        <ele>790.7</ele>
        <time>2012-09-15T13:19:16.000Z</time>
      </trkpt>
      <trkpt lat="43.9062" lon="7.23425">
        <ele>789.4</ele>
        <time>2012-09-15T13:19:20.000Z</time>
      </trkpt>
      <trkpt lat="43.90616" lon="7.23428">
        <ele>789</ele>
        <time>2012-09-15T13:19:27.000Z</time>
      </trkpt>
      <trkpt lat="43.90609" lon="7.23434">
        <ele>788.6</ele>
        <time>2012-09-15T13:19:29.000Z</time>
      </trkpt>
      <trkpt lat="43.90612" lon="7.23439">
        <ele>791.1</ele>
        <time>2012-09-15T13:19:31.000Z</time>
      </trkpt>
      <trkpt lat="43.90616" lon="7.23444">
        <ele>793.6</ele>
        <time>2012-09-15T13:19:33.000Z</time>
      </trkpt>
      <trkpt lat="43.90621" lon="7.23444">
        <ele>793.1</ele>
        <time>2012-09-15T13:19:39.000Z</time>
      </trkpt>
      <trkpt lat="43.90625" lon="7.23453">
        <ele>793.2</ele>
        <time>2012-09-15T13:19:41.000Z</time>
      </trkpt>
      <trkpt lat="43.9063" lon="7.23454">
        <ele>791.2</ele>
        <time>2012-09-15T13:19:42.000Z</time>
      </trkpt>
      <trkpt lat="43.90634" lon="7.23462">
        <ele>789.2</ele>
        <time>2012-09-15T13:19:44.000Z</time>
      </trkpt>
      <trkpt lat="43.90636" lon="7.23471">
        <ele>787</ele>
        <time>2012-09-15T13:19:46.000Z</time>
      </trkpt>
      <trkpt lat="43.90638" lon="7.23477">
        <ele>787</ele>
        <time>2012-09-15T13:19:47.000Z</time>
      </trkpt>
      <trkpt lat="43.9064" lon="7.23483">
        <ele>786.3</ele>
        <time>2012-09-15T13:19:48.000Z</time>
      </trkpt>
      <trkpt lat="43.90641" lon="7.2349">
        <ele>787.8</ele>
        <time>2012-09-15T13:19:49.000Z</time>
      </trkpt>
      <trkpt lat="43.90642" lon="7.23497">
        <ele>787.4</ele>
        <time>2012-09-15T13:19:50.000Z</time>
      </trkpt>
      <trkpt lat="43.90643" lon="7.23505">
        <ele>790.1</ele>
        <time>2012-09-15T13:19:52.000Z</time>
      </trkpt>
      <trkpt lat="43.90646" lon="7.2351">
        <ele>791.3</ele>
        <time>2012-09-15T13:19:54.000Z</time>
      </trkpt>
      <trkpt lat="43.90651" lon="7.23516">
        <ele>790.6</ele>
        <time>2012-09-15T13:19:57.000Z</time>
      </trkpt>
      <trkpt lat="43.90653" lon="7.23523">
        <ele>788.5</ele>
        <time>2012-09-15T13:20:01.000Z</time>
      </trkpt>
      <trkpt lat="43.90655" lon="7.23532">
        <ele>788.5</ele>
        <time>2012-09-15T13:20:04.000Z</time>
      </trkpt>
      <trkpt lat="43.90654" lon="7.23539">
        <ele>788.1</ele>
        <time>2012-09-15T13:20:06.000Z</time>
      </trkpt>
      <trkpt lat="43.90655" lon="7.23547">
        <ele>786.7</ele>
        <time>2012-09-15T13:20:08.000Z</time>
      </trkpt>
      <trkpt lat="43.90655" lon="7.23554">
        <ele>786.6</ele>
        <time>2012-09-15T13:20:11.000Z</time>
      </trkpt>
      <trkpt lat="43.90656" lon="7.23562">
        <ele>784.9</ele>
        <time>2012-09-15T13:20:14.000Z</time>
      </trkpt>
      <trkpt lat="43.90656" lon="7.23569">
        <ele>785.2</ele>
        <time>2012-09-15T13:20:17.000Z</time>
      </trkpt>
      <trkpt lat="43.90659" lon="7.23575">
        <ele>785.3</ele>
        <time>2012-09-15T13:20:20.000Z</time>
      </trkpt>
      <trkpt lat="43.9066" lon="7.23582">
        <ele>785.3</ele>
        <time>2012-09-15T13:20:23.000Z</time>
      </trkpt>
      <trkpt lat="43.90661" lon="7.23591">
        <ele>786</ele>
        <time>2012-09-15T13:20:26.000Z</time>
      </trkpt>
      <trkpt lat="43.90662" lon="7.23599">
        <ele>786.1</ele>
        <time>2012-09-15T13:20:30.000Z</time>
      </trkpt>
      <trkpt lat="43.90663" lon="7.23605">
        <ele>787.4</ele>
        <time>2012-09-15T13:20:33.000Z</time>
      </trkpt>
      <trkpt lat="43.90668" lon="7.23612">
        <ele>788.9</ele>
        <time>2012-09-15T13:20:37.000Z</time>
      </trkpt>
      <trkpt lat="43.9067" lon="7.23618">
        <ele>789.7</ele>
        <time>2012-09-15T13:20:40.000Z</time>
      </trkpt>
      <trkpt lat="43.90672" lon="7.23624">
        <ele>789.4</ele>
        <time>2012-09-15T13:20:44.000Z</time>
      </trkpt>
      <trkpt lat="43.90675" lon="7.23628">
        <ele>790.2</ele>
        <time>2012-09-15T13:20:47.000Z</time>
      </trkpt>
      <trkpt lat="43.90679" lon="7.23636">
        <ele>789.7</ele>
        <time>2012-09-15T13:20:50.000Z</time>
      </trkpt>
      <trkpt lat="43.90682" lon="7.23641">
        <ele>790.2</ele>
        <time>2012-09-15T13:20:52.000Z</time>
      </trkpt>
      <trkpt lat="43.90684" lon="7.23647">
        <ele>790.3</ele>
        <time>2012-09-15T13:20:54.000Z</time>
      </trkpt>
      <trkpt lat="43.90688" lon="7.23654">
        <ele>791.6</ele>
        <time>2012-09-15T13:20:56.000Z</time>
      </trkpt>
      <trkpt lat="43.90691" lon="7.23661">
        <ele>793.1</ele>
        <time>2012-09-15T13:21:00.000Z</time>
      </trkpt>
      <trkpt lat="43.90695" lon="7.23667">
        <ele>793.7</ele>
        <time>2012-09-15T13:21:04.000Z</time>
      </trkpt>
      <trkpt lat="43.90699" lon="7.2367">
        <ele>793.2</ele>
        <time>2012-09-15T13:21:08.000Z</time>
      </trkpt>
      <trkpt lat="43.90703" lon="7.23674">
        <ele>794.3</ele>
        <time>2012-09-15T13:21:12.000Z</time>
      </trkpt>
      <trkpt lat="43.90707" lon="7.23677">
        <ele>798.1</ele>
        <time>2012-09-15T13:21:16.000Z</time>
      </trkpt>
      <trkpt lat="43.90713" lon="7.23677">
        <ele>801.3</ele>
        <time>2012-09-15T13:21:21.000Z</time>
      </trkpt>
      <trkpt lat="43.90717" lon="7.23678">
        <ele>801.9</ele>
        <time>2012-09-15T13:21:24.000Z</time>
      </trkpt>
      <trkpt lat="43.90722" lon="7.23679">
        <ele>802.9</ele>
        <time>2012-09-15T13:21:28.000Z</time>
      </trkpt>
      <trkpt lat="43.90727" lon="7.23677">
        <ele>803.5</ele>
        <time>2012-09-15T13:21:32.000Z</time>
      </trkpt>
      <trkpt lat="43.90734" lon="7.2368">
        <ele>804.5</ele>
        <time>2012-09-15T13:21:37.000Z</time>
      </trkpt>
      <trkpt lat="43.90738" lon="7.2368">
        <ele>803.9</ele>
        <time>2012-09-15T13:21:39.000Z</time>
      </trkpt>
      <trkpt lat="43.90744" lon="7.2368">
        <ele>803.2</ele>
        <time>2012-09-15T13:21:42.000Z</time>
      </trkpt>
      <trkpt lat="43.90749" lon="7.2368">
        <ele>803.2</ele>
        <time>2012-09-15T13:21:45.000Z</time>
      </trkpt>
      <trkpt lat="43.90753" lon="7.23682">
        <ele>804</ele>
        <time>2012-09-15T13:21:49.000Z</time>
      </trkpt>
      <trkpt lat="43.90758" lon="7.23686">
        <ele>804.7</ele>
        <time>2012-09-15T13:21:53.000Z</time>
      </trkpt>
      <trkpt lat="43.90764" lon="7.23684">
        <ele>804.2</ele>
        <time>2012-09-15T13:21:56.000Z</time>
      </trkpt>
      <trkpt lat="43.9077" lon="7.23681">
        <ele>804.3</ele>
        <time>2012-09-15T13:21:59.000Z</time>
      </trkpt>
      <trkpt lat="43.90775" lon="7.23681">
        <ele>803.1</ele>
        <time>2012-09-15T13:22:02.000Z</time>
      </trkpt>
      <trkpt lat="43.90781" lon="7.2368">
        <ele>801.2</ele>
        <time>2012-09-15T13:22:05.000Z</time>
      </trkpt>
      <trkpt lat="43.90787" lon="7.2368">
        <ele>800.4</ele>
        <time>2012-09-15T13:22:08.000Z</time>
      </trkpt>
      <trkpt lat="43.90791" lon="7.2368">
        <ele>804.6</ele>
        <time>2012-09-15T13:22:24.000Z</time>
      </trkpt>
      <trkpt lat="43.90796" lon="7.23683">
        <ele>803.2</ele>
        <time>2012-09-15T13:22:29.000Z</time>
      </trkpt>
      <trkpt lat="43.90794" lon="7.23691">
        <ele>814.4</ele>
        <time>2012-09-15T13:22:37.000Z</time>
      </trkpt>
      <trkpt lat="43.9079" lon="7.23699">
        <ele>821.4</ele>
        <time>2012-09-15T13:22:40.000Z</time>
      </trkpt>
      <trkpt lat="43.9079" lon="7.23707">
        <ele>817.7</ele>
        <time>2012-09-15T13:22:42.000Z</time>
      </trkpt>
      <trkpt lat="43.9079" lon="7.23714">
        <ele>817.8</ele>
        <time>2012-09-15T13:22:44.000Z</time>
      </trkpt>
      <trkpt lat="43.9079" lon="7.23721">
        <ele>817.9</ele>
        <time>2012-09-15T13:22:46.000Z</time>
      </trkpt>
      <trkpt lat="43.90789" lon="7.23728">
        <ele>818</ele>
        <time>2012-09-15T13:22:48.000Z</time>
      </trkpt>
      <trkpt lat="43.90787" lon="7.23735">
        <ele>815.8</ele>
        <time>2012-09-15T13:22:51.000Z</time>
      </trkpt>
      <trkpt lat="43.90785" lon="7.23743">
        <ele>812.7</ele>
        <time>2012-09-15T13:22:54.000Z</time>
      </trkpt>
      <trkpt lat="43.90784" lon="7.23751">
        <ele>813.6</ele>
        <time>2012-09-15T13:22:57.000Z</time>
      </trkpt>
      <trkpt lat="43.90783" lon="7.23759">
        <ele>813.2</ele>
        <time>2012-09-15T13:23:01.000Z</time>
      </trkpt>
      <trkpt lat="43.90782" lon="7.23767">
        <ele>813.3</ele>
        <time>2012-09-15T13:23:05.000Z</time>
      </trkpt>
      <trkpt lat="43.90781" lon="7.23774">
        <ele>811.3</ele>
        <time>2012-09-15T13:23:11.000Z</time>
      </trkpt>
      <trkpt lat="43.90777" lon="7.2378">
        <ele>813.9</ele>
        <time>2012-09-15T13:23:14.000Z</time>
      </trkpt>
      <trkpt lat="43.90777" lon="7.23787">
        <ele>815.8</ele>
        <time>2012-09-15T13:23:18.000Z</time>
      </trkpt>
      <trkpt lat="43.90776" lon="7.23796">
        <ele>818.7</ele>
        <time>2012-09-15T13:23:22.000Z</time>
      </trkpt>
      <trkpt lat="43.90774" lon="7.23803">
        <ele>820.2</ele>
        <time>2012-09-15T13:23:25.000Z</time>
      </trkpt>
      <trkpt lat="43.90774" lon="7.2381">
        <ele>820.9</ele>
        <time>2012-09-15T13:23:29.000Z</time>
      </trkpt>
      <trkpt lat="43.9077" lon="7.23816">
        <ele>821.4</ele>
        <time>2012-09-15T13:23:34.000Z</time>
      </trkpt>
      <trkpt lat="43.90766" lon="7.2382">
        <ele>823.9</ele>
        <time>2012-09-15T13:23:37.000Z</time>
      </trkpt>
      <trkpt lat="43.9077" lon="7.23827">
        <ele>817.5</ele>
        <time>2012-09-15T13:23:41.000Z</time>
      </trkpt>
      <trkpt lat="43.9077" lon="7.23833">
        <ele>816.6</ele>
        <time>2012-09-15T13:25:19.000Z</time>
      </trkpt>
      <trkpt lat="43.90771" lon="7.2384">
        <ele>816.1</ele>
        <time>2012-09-15T13:25:25.000Z</time>
      </trkpt>
      <trkpt lat="43.90773" lon="7.23846">
        <ele>817.5</ele>
        <time>2012-09-15T13:25:31.000Z</time>
      </trkpt>
      <trkpt lat="43.90775" lon="7.23853">
        <ele>817.6</ele>
        <time>2012-09-15T13:25:37.000Z</time>
      </trkpt>
      <trkpt lat="43.90778" lon="7.23859">
        <ele>816.5</ele>
        <time>2012-09-15T13:25:42.000Z</time>
      </trkpt>
      <trkpt lat="43.9078" lon="7.23864">
        <ele>817.3</ele>
        <time>2012-09-15T13:25:46.000Z</time>
      </trkpt>
      <trkpt lat="43.90782" lon="7.23871">
        <ele>818.9</ele>
        <time>2012-09-15T13:25:56.000Z</time>
      </trkpt>
      <trkpt lat="43.90784" lon="7.23876">
        <ele>819.5</ele>
        <time>2012-09-15T13:25:59.000Z</time>
      </trkpt>
      <trkpt lat="43.90789" lon="7.23882">
        <ele>815.9</ele>
        <time>2012-09-15T13:26:02.000Z</time>
      </trkpt>
      <trkpt lat="43.90794" lon="7.23888">
        <ele>815.4</ele>
        <time>2012-09-15T13:26:04.000Z</time>
      </trkpt>
      <trkpt lat="43.90799" lon="7.23895">
        <ele>814.6</ele>
        <time>2012-09-15T13:26:06.000Z</time>
      </trkpt>
      <trkpt lat="43.90805" lon="7.23903">
        <ele>814.6</ele>
        <time>2012-09-15T13:26:08.000Z</time>
      </trkpt>
      <trkpt lat="43.90811" lon="7.2391">
        <ele>815.3</ele>
        <time>2012-09-15T13:26:10.000Z</time>
      </trkpt>
      <trkpt lat="43.90815" lon="7.23917">
        <ele>816.2</ele>
        <time>2012-09-15T13:26:12.000Z</time>
      </trkpt>
      <trkpt lat="43.90818" lon="7.23922">
        <ele>816.6</ele>
        <time>2012-09-15T13:26:14.000Z</time>
      </trkpt>
      <trkpt lat="43.90823" lon="7.23926">
        <ele>817</ele>
        <time>2012-09-15T13:26:17.000Z</time>
      </trkpt>
      <trkpt lat="43.90827" lon="7.2393">
        <ele>816.8</ele>
        <time>2012-09-15T13:26:20.000Z</time>
      </trkpt>
      <trkpt lat="43.90832" lon="7.23932">
        <ele>816.7</ele>
        <time>2012-09-15T13:26:23.000Z</time>
      </trkpt>
      <trkpt lat="43.90836" lon="7.23935">
        <ele>817.1</ele>
        <time>2012-09-15T13:26:26.000Z</time>
      </trkpt>
      <trkpt lat="43.90841" lon="7.23938">
        <ele>818.4</ele>
        <time>2012-09-15T13:26:29.000Z</time>
      </trkpt>
      <trkpt lat="43.90846" lon="7.23942">
        <ele>819.2</ele>
        <time>2012-09-15T13:26:33.000Z</time>
      </trkpt>
      <trkpt lat="43.90851" lon="7.23948">
        <ele>821</ele>
        <time>2012-09-15T13:26:37.000Z</time>
      </trkpt>
      <trkpt lat="43.90853" lon="7.23954">
        <ele>822.4</ele>
        <time>2012-09-15T13:26:40.000Z</time>
      </trkpt>
      <trkpt lat="43.90855" lon="7.2396">
        <ele>825.3</ele>
        <time>2012-09-15T13:26:43.000Z</time>
      </trkpt>
      <trkpt lat="43.90858" lon="7.23966">
        <ele>826.1</ele>
        <time>2012-09-15T13:26:46.000Z</time>
      </trkpt>
      <trkpt lat="43.90859" lon="7.23974">
        <ele>825.6</ele>
        <time>2012-09-15T13:26:51.000Z</time>
      </trkpt>
      <trkpt lat="43.9086" lon="7.2398">
        <ele>824.3</ele>
        <time>2012-09-15T13:26:54.000Z</time>
      </trkpt>
      <trkpt lat="43.90862" lon="7.23986">
        <ele>822.9</ele>
        <time>2012-09-15T13:26:57.000Z</time>
      </trkpt>
      <trkpt lat="43.90866" lon="7.23995">
        <ele>823.4</ele>
        <time>2012-09-15T13:27:00.000Z</time>
      </trkpt>
      <trkpt lat="43.90867" lon="7.24003">
        <ele>826.2</ele>
        <time>2012-09-15T13:27:04.000Z</time>
      </trkpt>
      <trkpt lat="43.90868" lon="7.24009">
        <ele>827.2</ele>
        <time>2012-09-15T13:27:08.000Z</time>
      </trkpt>
      <trkpt lat="43.90868" lon="7.24016">
        <ele>826.8</ele>
        <time>2012-09-15T13:27:11.000Z</time>
      </trkpt>
      <trkpt lat="43.90868" lon="7.24024">
        <ele>826.7</ele>
        <time>2012-09-15T13:27:14.000Z</time>
      </trkpt>
      <trkpt lat="43.90869" lon="7.24032">
        <ele>828.5</ele>
        <time>2012-09-15T13:27:17.000Z</time>
      </trkpt>
      <trkpt lat="43.90872" lon="7.24038">
        <ele>828.9</ele>
        <time>2012-09-15T13:27:21.000Z</time>
      </trkpt>
      <trkpt lat="43.90876" lon="7.24047">
        <ele>826.7</ele>
        <time>2012-09-15T13:27:48.000Z</time>
      </trkpt>
      <trkpt lat="43.90883" lon="7.24055">
        <ele>825.7</ele>
        <time>2012-09-15T13:27:50.000Z</time>
      </trkpt>
      <trkpt lat="43.90888" lon="7.24059">
        <ele>827.1</ele>
        <time>2012-09-15T13:27:53.000Z</time>
      </trkpt>
      <trkpt lat="43.90893" lon="7.24064">
        <ele>826.5</ele>
        <time>2012-09-15T13:27:56.000Z</time>
      </trkpt>
      <trkpt lat="43.90898" lon="7.24065">
        <ele>823.5</ele>
        <time>2012-09-15T13:27:58.000Z</time>
      </trkpt>
      <trkpt lat="43.90903" lon="7.24069">
        <ele>822.1</ele>
        <time>2012-09-15T13:28:00.000Z</time>
      </trkpt>
      <trkpt lat="43.90908" lon="7.24073">
        <ele>819.9</ele>
        <time>2012-09-15T13:28:02.000Z</time>
      </trkpt>
      <trkpt lat="43.9091" lon="7.24081">
        <ele>820.8</ele>
        <time>2012-09-15T13:28:05.000Z</time>
      </trkpt>
      <trkpt lat="43.90913" lon="7.24089">
        <ele>818.3</ele>
        <time>2012-09-15T13:28:07.000Z</time>
      </trkpt>
      <trkpt lat="43.90916" lon="7.24097">
        <ele>819.1</ele>
        <time>2012-09-15T13:28:10.000Z</time>
      </trkpt>
      <trkpt lat="43.90914" lon="7.24102">
        <ele>822.1</ele>
        <time>2012-09-15T13:28:12.000Z</time>
      </trkpt>
      <trkpt lat="43.90915" lon="7.2411">
        <ele>825.9</ele>
        <time>2012-09-15T13:28:15.000Z</time>
      </trkpt>
      <trkpt lat="43.90914" lon="7.24117">
        <ele>826.1</ele>
        <time>2012-09-15T13:28:18.000Z</time>
      </trkpt>
      <trkpt lat="43.90913" lon="7.24124">
        <ele>827.2</ele>
        <time>2012-09-15T13:28:22.000Z</time>
      </trkpt>
      <trkpt lat="43.90914" lon="7.24134">
        <ele>827.1</ele>
        <time>2012-09-15T13:28:25.000Z</time>
      </trkpt>
      <trkpt lat="43.90915" lon="7.24141">
        <ele>826.9</ele>
        <time>2012-09-15T13:28:28.000Z</time>
      </trkpt>
      <trkpt lat="43.90916" lon="7.24148">
        <ele>826.9</ele>
        <time>2012-09-15T13:28:32.000Z</time>
      </trkpt>
      <trkpt lat="43.90918" lon="7.24158">
        <ele>825.4</ele>
        <time>2012-09-15T13:28:35.000Z</time>
      </trkpt>
      <trkpt lat="43.90921" lon="7.24165">
        <ele>824.9</ele>
        <time>2012-09-15T13:28:37.000Z</time>
      </trkpt>
      <trkpt lat="43.90925" lon="7.24172">
        <ele>824.9</ele>
        <time>2012-09-15T13:28:39.000Z</time>
      </trkpt>
      <trkpt lat="43.90927" lon="7.24179">
        <ele>824.2</ele>
        <time>2012-09-15T13:28:41.000Z</time>
      </trkpt>
      <trkpt lat="43.90931" lon="7.24185">
        <ele>821.3</ele>
        <time>2012-09-15T13:28:44.000Z</time>
      </trkpt>
      <trkpt lat="43.90936" lon="7.2419">
        <ele>820.3</ele>
        <time>2012-09-15T13:28:47.000Z</time>
      </trkpt>
      <trkpt lat="43.90941" lon="7.2419">
        <ele>820</ele>
        <time>2012-09-15T13:28:49.000Z</time>
      </trkpt>
      <trkpt lat="43.90945" lon="7.24195">
        <ele>818</ele>
        <time>2012-09-15T13:28:52.000Z</time>
      </trkpt>
      <trkpt lat="43.90951" lon="7.242">
        <ele>817</ele>
        <time>2012-09-15T13:28:54.000Z</time>
      </trkpt>
      <trkpt lat="43.90955" lon="7.24204">
        <ele>822.8</ele>
        <time>2012-09-15T13:28:56.000Z</time>
      </trkpt>
      <trkpt lat="43.9096" lon="7.24209">
        <ele>824</ele>
        <time>2012-09-15T13:28:58.000Z</time>
      </trkpt>
      <trkpt lat="43.90966" lon="7.24216">
        <ele>827.3</ele>
        <time>2012-09-15T13:29:00.000Z</time>
      </trkpt>
      <trkpt lat="43.90975" lon="7.24222">
        <ele>826.1</ele>
        <time>2012-09-15T13:29:02.000Z</time>
      </trkpt>
      <trkpt lat="43.9098" lon="7.24225">
        <ele>825.2</ele>
        <time>2012-09-15T13:29:03.000Z</time>
      </trkpt>
      <trkpt lat="43.90984" lon="7.24228">
        <ele>824.9</ele>
        <time>2012-09-15T13:29:04.000Z</time>
      </trkpt>
      <trkpt lat="43.90991" lon="7.24234">
        <ele>824.6</ele>
        <time>2012-09-15T13:29:06.000Z</time>
      </trkpt>
      <trkpt lat="43.90995" lon="7.24236">
        <ele>824</ele>
        <time>2012-09-15T13:29:07.000Z</time>
      </trkpt>
      <trkpt lat="43.91" lon="7.2424">
        <ele>822.9</ele>
        <time>2012-09-15T13:29:08.000Z</time>
      </trkpt>
      <trkpt lat="43.91006" lon="7.24248">
        <ele>821</ele>
        <time>2012-09-15T13:29:10.000Z</time>
      </trkpt>
      <trkpt lat="43.91013" lon="7.24254">
        <ele>821</ele>
        <time>2012-09-15T13:29:12.000Z</time>
      </trkpt>
      <trkpt lat="43.91017" lon="7.24257">
        <ele>820.8</ele>
        <time>2012-09-15T13:29:13.000Z</time>
      </trkpt>
      <trkpt lat="43.91024" lon="7.24263">
        <ele>821.1</ele>
        <time>2012-09-15T13:29:15.000Z</time>
      </trkpt>
      <trkpt lat="43.91031" lon="7.24268">
        <ele>821.1</ele>
        <time>2012-09-15T13:29:17.000Z</time>
      </trkpt>
      <trkpt lat="43.91037" lon="7.24273">
        <ele>822.3</ele>
        <time>2012-09-15T13:29:19.000Z</time>
      </trkpt>
      <trkpt lat="43.91042" lon="7.24276">
        <ele>822.2</ele>
        <time>2012-09-15T13:29:23.000Z</time>
      </trkpt>
      <trkpt lat="43.91047" lon="7.2428">
        <ele>822</ele>
        <time>2012-09-15T13:29:25.000Z</time>
      </trkpt>
      <trkpt lat="43.91051" lon="7.24284">
        <ele>822.3</ele>
        <time>2012-09-15T13:29:27.000Z</time>
      </trkpt>
      <trkpt lat="43.91055" lon="7.24288">
        <ele>820.3</ele>
        <time>2012-09-15T13:29:29.000Z</time>
      </trkpt>
      <trkpt lat="43.91058" lon="7.24293">
        <ele>820.4</ele>
        <time>2012-09-15T13:29:31.000Z</time>
      </trkpt>
      <trkpt lat="43.91062" lon="7.24298">
        <ele>821.2</ele>
        <time>2012-09-15T13:29:35.000Z</time>
      </trkpt>
      <trkpt lat="43.91063" lon="7.24305">
        <ele>821.7</ele>
        <time>2012-09-15T13:29:39.000Z</time>
      </trkpt>
      <trkpt lat="43.91064" lon="7.24312">
        <ele>822.2</ele>
        <time>2012-09-15T13:29:43.000Z</time>
      </trkpt>
      <trkpt lat="43.91067" lon="7.24319">
        <ele>823.3</ele>
        <time>2012-09-15T13:29:47.000Z</time>
      </trkpt>
      <trkpt lat="43.91069" lon="7.24326">
        <ele>822.3</ele>
        <time>2012-09-15T13:29:51.000Z</time>
      </trkpt>
      <trkpt lat="43.9107" lon="7.24334">
        <ele>821.9</ele>
        <time>2012-09-15T13:29:55.000Z</time>
      </trkpt>
      <trkpt lat="43.9107" lon="7.24341">
        <ele>822.4</ele>
        <time>2012-09-15T13:30:00.000Z</time>
      </trkpt>
      <trkpt lat="43.91069" lon="7.24348">
        <ele>824.8</ele>
        <time>2012-09-15T13:30:03.000Z</time>
      </trkpt>
      <trkpt lat="43.91071" lon="7.24353">
        <ele>822.5</ele>
        <time>2012-09-15T13:30:19.000Z</time>
      </trkpt>
      <trkpt lat="43.91072" lon="7.2436">
        <ele>825.1</ele>
        <time>2012-09-15T13:30:26.000Z</time>
      </trkpt>
      <trkpt lat="43.91072" lon="7.24366">
        <ele>824.3</ele>
        <time>2012-09-15T13:30:35.000Z</time>
      </trkpt>
      <trkpt lat="43.91073" lon="7.24372">
        <ele>825.4</ele>
        <time>2012-09-15T13:30:43.000Z</time>
      </trkpt>
      <trkpt lat="43.91075" lon="7.24378">
        <ele>828.2</ele>
        <time>2012-09-15T13:30:53.000Z</time>
      </trkpt>
      <trkpt lat="43.91077" lon="7.24384">
        <ele>829</ele>
        <time>2012-09-15T13:30:59.000Z</time>
      </trkpt>
      <trkpt lat="43.91077" lon="7.2439">
        <ele>830.6</ele>
        <time>2012-09-15T13:31:06.000Z</time>
      </trkpt>
      <trkpt lat="43.91076" lon="7.24396">
        <ele>833.2</ele>
        <time>2012-09-15T13:31:13.000Z</time>
      </trkpt>
      <trkpt lat="43.91075" lon="7.24403">
        <ele>835.7</ele>
        <time>2012-09-15T13:31:19.000Z</time>
      </trkpt>
      <trkpt lat="43.91074" lon="7.24409">
        <ele>835.7</ele>
        <time>2012-09-15T13:31:24.000Z</time>
      </trkpt>
      <trkpt lat="43.91075" lon="7.24416">
        <ele>834.4</ele>
        <time>2012-09-15T13:31:29.000Z</time>
      </trkpt>
      <trkpt lat="43.91075" lon="7.24423">
        <ele>833.9</ele>
        <time>2012-09-15T13:31:35.000Z</time>
      </trkpt>
      <trkpt lat="43.91072" lon="7.2443">
        <ele>835.2</ele>
        <time>2012-09-15T13:31:41.000Z</time>
      </trkpt>
      <trkpt lat="43.91073" lon="7.24436">
        <ele>836.4</ele>
        <time>2012-09-15T13:31:46.000Z</time>
      </trkpt>
      <trkpt lat="43.91075" lon="7.24443">
        <ele>840.5</ele>
        <time>2012-09-15T13:31:57.000Z</time>
      </trkpt>
      <trkpt lat="43.91078" lon="7.24447">
        <ele>841.2</ele>
        <time>2012-09-15T13:32:00.000Z</time>
      </trkpt>
      <trkpt lat="43.91082" lon="7.24452">
        <ele>842.6</ele>
        <time>2012-09-15T13:32:06.000Z</time>
      </trkpt>
      <trkpt lat="43.91087" lon="7.24459">
        <ele>844.1</ele>
        <time>2012-09-15T13:32:10.000Z</time>
      </trkpt>
      <trkpt lat="43.9109" lon="7.24464">
        <ele>844.5</ele>
        <time>2012-09-15T13:32:16.000Z</time>
      </trkpt>
      <trkpt lat="43.91094" lon="7.24468">
        <ele>845.9</ele>
        <time>2012-09-15T13:32:23.000Z</time>
      </trkpt>
      <trkpt lat="43.91098" lon="7.24472">
        <ele>847.3</ele>
        <time>2012-09-15T13:32:29.000Z</time>
      </trkpt>
      <trkpt lat="43.91103" lon="7.24476">
        <ele>849.8</ele>
        <time>2012-09-15T13:32:35.000Z</time>
      </trkpt>
      <trkpt lat="43.91107" lon="7.2448">
        <ele>849.3</ele>
        <time>2012-09-15T13:32:40.000Z</time>
      </trkpt>
      <trkpt lat="43.91111" lon="7.24484">
        <ele>849.1</ele>
        <time>2012-09-15T13:32:45.000Z</time>
      </trkpt>
      <trkpt lat="43.91115" lon="7.24486">
        <ele>849.6</ele>
        <time>2012-09-15T13:32:50.000Z</time>
      </trkpt>
      <trkpt lat="43.91119" lon="7.24488">
        <ele>849.3</ele>
        <time>2012-09-15T13:32:55.000Z</time>
      </trkpt>
      <trkpt lat="43.91124" lon="7.24491">
        <ele>851.5</ele>
        <time>2012-09-15T13:33:02.000Z</time>
      </trkpt>
      <trkpt lat="43.91128" lon="7.24494">
        <ele>850.6</ele>
        <time>2012-09-15T13:33:08.000Z</time>
      </trkpt>
      <trkpt lat="43.91133" lon="7.24497">
        <ele>852.8</ele>
        <time>2012-09-15T13:33:24.000Z</time>
      </trkpt>
      <trkpt lat="43.91138" lon="7.24499">
        <ele>853.3</ele>
        <time>2012-09-15T13:33:27.000Z</time>
      </trkpt>
      <trkpt lat="43.91143" lon="7.24502">
        <ele>854.1</ele>
        <time>2012-09-15T13:33:31.000Z</time>
      </trkpt>
      <trkpt lat="43.91148" lon="7.24505">
        <ele>853.4</ele>
        <time>2012-09-15T13:33:34.000Z</time>
      </trkpt>
      <trkpt lat="43.91153" lon="7.24507">
        <ele>854.4</ele>
        <time>2012-09-15T13:33:39.000Z</time>
      </trkpt>
      <trkpt lat="43.91158" lon="7.2451">
        <ele>854.3</ele>
        <time>2012-09-15T13:33:42.000Z</time>
      </trkpt>
      <trkpt lat="43.91163" lon="7.2451">
        <ele>854.8</ele>
        <time>2012-09-15T13:33:45.000Z</time>
      </trkpt>
      <trkpt lat="43.91169" lon="7.24512">
        <ele>854.7</ele>
        <time>2012-09-15T13:33:49.000Z</time>
      </trkpt>
      <trkpt lat="43.91174" lon="7.24513">
        <ele>855.8</ele>
        <time>2012-09-15T13:33:54.000Z</time>
      </trkpt>
      <trkpt lat="43.9118" lon="7.24514">
        <ele>855</ele>
        <time>2012-09-15T13:33:58.000Z</time>
      </trkpt>
      <trkpt lat="43.91185" lon="7.24516">
        <ele>854.2</ele>
        <time>2012-09-15T13:34:02.000Z</time>
      </trkpt>
      <trkpt lat="43.9119" lon="7.24517">
        <ele>855.9</ele>
        <time>2012-09-15T13:34:06.000Z</time>
      </trkpt>
      <trkpt lat="43.91194" lon="7.24516">
        <ele>855.5</ele>
        <time>2012-09-15T13:34:10.000Z</time>
      </trkpt>
      <trkpt lat="43.91199" lon="7.24518">
        <ele>855.1</ele>
        <time>2012-09-15T13:34:14.000Z</time>
      </trkpt>
      <trkpt lat="43.91204" lon="7.24519">
        <ele>856.4</ele>
        <time>2012-09-15T13:34:19.000Z</time>
      </trkpt>
      <trkpt lat="43.91209" lon="7.2452">
        <ele>857.6</ele>
        <time>2012-09-15T13:34:24.000Z</time>
      </trkpt>
      <trkpt lat="43.91214" lon="7.2452">
        <ele>857.7</ele>
        <time>2012-09-15T13:35:28.000Z</time>
      </trkpt>
      <trkpt lat="43.9122" lon="7.2452">
        <ele>857.7</ele>
        <time>2012-09-15T13:35:33.000Z</time>
      </trkpt>
      <trkpt lat="43.91224" lon="7.24522">
        <ele>858.9</ele>
        <time>2012-09-15T13:35:38.000Z</time>
      </trkpt>
      <trkpt lat="43.9123" lon="7.24522">
        <ele>859.7</ele>
        <time>2012-09-15T13:35:42.000Z</time>
      </trkpt>
      <trkpt lat="43.91235" lon="7.24525">
        <ele>860.1</ele>
        <time>2012-09-15T13:35:46.000Z</time>
      </trkpt>
      <trkpt lat="43.9124" lon="7.24528">
        <ele>860.4</ele>
        <time>2012-09-15T13:35:50.000Z</time>
      </trkpt>
      <trkpt lat="43.91245" lon="7.24531">
        <ele>860.8</ele>
        <time>2012-09-15T13:35:54.000Z</time>
      </trkpt>
      <trkpt lat="43.9125" lon="7.24531">
        <ele>863.3</ele>
        <time>2012-09-15T13:35:58.000Z</time>
      </trkpt>
      <trkpt lat="43.91255" lon="7.2453">
        <ele>863.8</ele>
        <time>2012-09-15T13:36:02.000Z</time>
      </trkpt>
      <trkpt lat="43.9126" lon="7.24528">
        <ele>863.4</ele>
        <time>2012-09-15T13:36:06.000Z</time>
      </trkpt>
      <trkpt lat="43.91266" lon="7.24529">
        <ele>863.6</ele>
        <time>2012-09-15T13:36:10.000Z</time>
      </trkpt>
      <trkpt lat="43.9127" lon="7.24528">
        <ele>862.6</ele>
        <time>2012-09-15T13:37:20.000Z</time>
      </trkpt>
      <trkpt lat="43.91275" lon="7.24528">
        <ele>864.2</ele>
        <time>2012-09-15T13:37:24.000Z</time>
      </trkpt>
      <trkpt lat="43.9128" lon="7.24526">
        <ele>863.4</ele>
        <time>2012-09-15T13:37:28.000Z</time>
      </trkpt>
      <trkpt lat="43.91286" lon="7.24526">
        <ele>863.4</ele>
        <time>2012-09-15T13:37:33.000Z</time>
      </trkpt>
      <trkpt lat="43.91292" lon="7.24527">
        <ele>862.8</ele>
        <time>2012-09-15T13:37:37.000Z</time>
      </trkpt>
      <trkpt lat="43.91296" lon="7.24528">
        <ele>862.2</ele>
        <time>2012-09-15T13:37:40.000Z</time>
      </trkpt>
      <trkpt lat="43.913" lon="7.24526">
        <ele>863.6</ele>
        <time>2012-09-15T13:37:44.000Z</time>
      </trkpt>
      <trkpt lat="43.91305" lon="7.24525">
        <ele>864.1</ele>
        <time>2012-09-15T13:37:49.000Z</time>
      </trkpt>
      <trkpt lat="43.9131" lon="7.24521">
        <ele>866.8</ele>
        <time>2012-09-15T13:38:22.000Z</time>
      </trkpt>
      <trkpt lat="43.91314" lon="7.24517">
        <ele>867.9</ele>
        <time>2012-09-15T13:38:25.000Z</time>
      </trkpt>
      <trkpt lat="43.91319" lon="7.24514">
        <ele>867.4</ele>
        <time>2012-09-15T13:38:37.000Z</time>
      </trkpt>
      <trkpt lat="43.91323" lon="7.24518">
        <ele>869.5</ele>
        <time>2012-09-15T13:38:40.000Z</time>
      </trkpt>
      <trkpt lat="43.91328" lon="7.24519">
        <ele>869.3</ele>
        <time>2012-09-15T13:38:42.000Z</time>
      </trkpt>
      <trkpt lat="43.91335" lon="7.2452">
        <ele>868.5</ele>
        <time>2012-09-15T13:38:45.000Z</time>
      </trkpt>
      <trkpt lat="43.9134" lon="7.24519">
        <ele>866.6</ele>
        <time>2012-09-15T13:38:47.000Z</time>
      </trkpt>
      <trkpt lat="43.91345" lon="7.24518">
        <ele>865.3</ele>
        <time>2012-09-15T13:38:49.000Z</time>
      </trkpt>
      <trkpt lat="43.91351" lon="7.24516">
        <ele>865.9</ele>
        <time>2012-09-15T13:38:52.000Z</time>
      </trkpt>
      <trkpt lat="43.91356" lon="7.24515">
        <ele>865.8</ele>
        <time>2012-09-15T13:38:54.000Z</time>
      </trkpt>
      <trkpt lat="43.91361" lon="7.24517">
        <ele>866.8</ele>
        <time>2012-09-15T13:38:56.000Z</time>
      </trkpt>
      <trkpt lat="43.91367" lon="7.24518">
        <ele>866.1</ele>
        <time>2012-09-15T13:38:59.000Z</time>
      </trkpt>
      <trkpt lat="43.91372" lon="7.24516">
        <ele>866.1</ele>
        <time>2012-09-15T13:39:01.000Z</time>
      </trkpt>
      <trkpt lat="43.91377" lon="7.24513">
        <ele>863.7</ele>
        <time>2012-09-15T13:39:03.000Z</time>
      </trkpt>
      <trkpt lat="43.91383" lon="7.24512">
        <ele>861.7</ele>
        <time>2012-09-15T13:39:06.000Z</time>
      </trkpt>
      <trkpt lat="43.91388" lon="7.24512">
        <ele>859.6</ele>
        <time>2012-09-15T13:39:09.000Z</time>
      </trkpt>
      <trkpt lat="43.91394" lon="7.2451">
        <ele>858.5</ele>
        <time>2012-09-15T13:39:12.000Z</time>
      </trkpt>
      <trkpt lat="43.914" lon="7.24508">
        <ele>857.7</ele>
        <time>2012-09-15T13:39:15.000Z</time>
      </trkpt>
      <trkpt lat="43.91406" lon="7.24508">
        <ele>857.5</ele>
        <time>2012-09-15T13:39:18.000Z</time>
      </trkpt>
      <trkpt lat="43.91412" lon="7.24509">
        <ele>854.1</ele>
        <time>2012-09-15T13:39:22.000Z</time>
      </trkpt>
      <trkpt lat="43.91417" lon="7.24508">
        <ele>852.4</ele>
        <time>2012-09-15T13:39:25.000Z</time>
      </trkpt>
      <trkpt lat="43.91422" lon="7.24509">
        <ele>852.1</ele>
        <time>2012-09-15T13:39:27.000Z</time>
      </trkpt>
      <trkpt lat="43.91427" lon="7.24509">
        <ele>850</ele>
        <time>2012-09-15T13:39:29.000Z</time>
      </trkpt>
      <trkpt lat="43.91434" lon="7.24508">
        <ele>848.2</ele>
        <time>2012-09-15T13:39:32.000Z</time>
      </trkpt>
      <trkpt lat="43.91439" lon="7.24508">
        <ele>847.7</ele>
        <time>2012-09-15T13:39:34.000Z</time>
      </trkpt>
      <trkpt lat="43.91442" lon="7.24501">
        <ele>845.7</ele>
        <time>2012-09-15T13:39:37.000Z</time>
      </trkpt>
      <trkpt lat="43.91444" lon="7.24495">
        <ele>843.7</ele>
        <time>2012-09-15T13:39:39.000Z</time>
      </trkpt>
      <trkpt lat="43.91447" lon="7.2449">
        <ele>842.8</ele>
        <time>2012-09-15T13:39:42.000Z</time>
      </trkpt>
      <trkpt lat="43.91448" lon="7.24483">
        <ele>842.9</ele>
        <time>2012-09-15T13:39:45.000Z</time>
      </trkpt>
      <trkpt lat="43.91452" lon="7.24476">
        <ele>840.6</ele>
        <time>2012-09-15T13:39:47.000Z</time>
      </trkpt>
      <trkpt lat="43.91455" lon="7.2447">
        <ele>841</ele>
        <time>2012-09-15T13:39:49.000Z</time>
      </trkpt>
      <trkpt lat="43.91458" lon="7.24464">
        <ele>840.9</ele>
        <time>2012-09-15T13:39:51.000Z</time>
      </trkpt>
      <trkpt lat="43.9146" lon="7.24458">
        <ele>840.4</ele>
        <time>2012-09-15T13:39:55.000Z</time>
      </trkpt>
      <trkpt lat="43.91462" lon="7.24451">
        <ele>838.3</ele>
        <time>2012-09-15T13:39:58.000Z</time>
      </trkpt>
      <trkpt lat="43.91462" lon="7.24443">
        <ele>836.1</ele>
        <time>2012-09-15T13:40:00.000Z</time>
      </trkpt>
      <trkpt lat="43.91462" lon="7.24436">
        <ele>836.2</ele>
        <time>2012-09-15T13:40:02.000Z</time>
      </trkpt>
      <trkpt lat="43.91464" lon="7.24429">
        <ele>837.2</ele>
        <time>2012-09-15T13:40:05.000Z</time>
      </trkpt>
      <trkpt lat="43.91465" lon="7.2442">
        <ele>836.1</ele>
        <time>2012-09-15T13:40:07.000Z</time>
      </trkpt>
      <trkpt lat="43.91465" lon="7.24412">
        <ele>835.4</ele>
        <time>2012-09-15T13:40:09.000Z</time>
      </trkpt>
      <trkpt lat="43.91466" lon="7.24405">
        <ele>834.6</ele>
        <time>2012-09-15T13:40:11.000Z</time>
      </trkpt>
      <trkpt lat="43.9147" lon="7.244">
        <ele>834.4</ele>
        <time>2012-09-15T13:40:13.000Z</time>
      </trkpt>
      <trkpt lat="43.91473" lon="7.24394">
        <ele>833</ele>
        <time>2012-09-15T13:40:15.000Z</time>
      </trkpt>
      <trkpt lat="43.91476" lon="7.24387">
        <ele>832.3</ele>
        <time>2012-09-15T13:40:18.000Z</time>
      </trkpt>
      <trkpt lat="43.9148" lon="7.2438">
        <ele>831.7</ele>
        <time>2012-09-15T13:40:21.000Z</time>
      </trkpt>
      <trkpt lat="43.9148" lon="7.24372">
        <ele>831.4</ele>
        <time>2012-09-15T13:40:23.000Z</time>
      </trkpt>
      <trkpt lat="43.91474" lon="7.24364">
        <ele>830</ele>
        <time>2012-09-15T13:40:25.000Z</time>
      </trkpt>
      <trkpt lat="43.9148" lon="7.24363">
        <ele>835.1</ele>
        <time>2012-09-15T13:40:27.000Z</time>
      </trkpt>
      <trkpt lat="43.91478" lon="7.24356">
        <ele>832.8</ele>
        <time>2012-09-15T13:40:30.000Z</time>
      </trkpt>
      <trkpt lat="43.91483" lon="7.24351">
        <ele>832.9</ele>
        <time>2012-09-15T13:40:33.000Z</time>
      </trkpt>
      <trkpt lat="43.91486" lon="7.24343">
        <ele>830.7</ele>
        <time>2012-09-15T13:40:36.000Z</time>
      </trkpt>
      <trkpt lat="43.91484" lon="7.24334">
        <ele>828</ele>
        <time>2012-09-15T13:40:39.000Z</time>
      </trkpt>
      <trkpt lat="43.91484" lon="7.24326">
        <ele>825.9</ele>
        <time>2012-09-15T13:40:41.000Z</time>
      </trkpt>
      <trkpt lat="43.91486" lon="7.24319">
        <ele>829.8</ele>
        <time>2012-09-15T13:40:44.000Z</time>
      </trkpt>
      <trkpt lat="43.9149" lon="7.24317">
        <ele>829.5</ele>
        <time>2012-09-15T13:40:47.000Z</time>
      </trkpt>
      <trkpt lat="43.91497" lon="7.24317">
        <ele>830.4</ele>
        <time>2012-09-15T13:40:50.000Z</time>
      </trkpt>
      <trkpt lat="43.91502" lon="7.24314">
        <ele>825.4</ele>
        <time>2012-09-15T13:40:53.000Z</time>
      </trkpt>
      <trkpt lat="43.91507" lon="7.2431">
        <ele>822</ele>
        <time>2012-09-15T13:40:56.000Z</time>
      </trkpt>
      <trkpt lat="43.9151" lon="7.24306">
        <ele>820.9</ele>
        <time>2012-09-15T13:40:59.000Z</time>
      </trkpt>
      <trkpt lat="43.9151" lon="7.24298">
        <ele>821</ele>
        <time>2012-09-15T13:41:31.000Z</time>
      </trkpt>
      <trkpt lat="43.91515" lon="7.24295">
        <ele>820.7</ele>
        <time>2012-09-15T13:41:32.000Z</time>
      </trkpt>
      <trkpt lat="43.91522" lon="7.24293">
        <ele>821.8</ele>
        <time>2012-09-15T13:41:34.000Z</time>
      </trkpt>
      <trkpt lat="43.91528" lon="7.24296">
        <ele>822.6</ele>
        <time>2012-09-15T13:41:36.000Z</time>
      </trkpt>
      <trkpt lat="43.91528" lon="7.24302">
        <ele>820.2</ele>
        <time>2012-09-15T13:41:38.000Z</time>
      </trkpt>
      <trkpt lat="43.91528" lon="7.24312">
        <ele>816.9</ele>
        <time>2012-09-15T13:41:40.000Z</time>
      </trkpt>
      <trkpt lat="43.91534" lon="7.24321">
        <ele>818.4</ele>
        <time>2012-09-15T13:41:42.000Z</time>
      </trkpt>
      <trkpt lat="43.91538" lon="7.24324">
        <ele>817.9</ele>
        <time>2012-09-15T13:41:43.000Z</time>
      </trkpt>
      <trkpt lat="43.91547" lon="7.24326">
        <ele>817.7</ele>
        <time>2012-09-15T13:41:45.000Z</time>
      </trkpt>
      <trkpt lat="43.91555" lon="7.24331">
        <ele>817.9</ele>
        <time>2012-09-15T13:41:47.000Z</time>
      </trkpt>
      <trkpt lat="43.91562" lon="7.24337">
        <ele>816.7</ele>
        <time>2012-09-15T13:41:49.000Z</time>
      </trkpt>
      <trkpt lat="43.91567" lon="7.2434">
        <ele>816.5</ele>
        <time>2012-09-15T13:41:50.000Z</time>
      </trkpt>
      <trkpt lat="43.91574" lon="7.24344">
        <ele>816.5</ele>
        <time>2012-09-15T13:41:52.000Z</time>
      </trkpt>
      <trkpt lat="43.91579" lon="7.24345">
        <ele>816.8</ele>
        <time>2012-09-15T13:41:53.000Z</time>
      </trkpt>
      <trkpt lat="43.91586" lon="7.24348">
        <ele>815.6</ele>
        <time>2012-09-15T13:41:55.000Z</time>
      </trkpt>
      <trkpt lat="43.91594" lon="7.24348">
        <ele>815</ele>
        <time>2012-09-15T13:41:57.000Z</time>
      </trkpt>
      <trkpt lat="43.91601" lon="7.24343">
        <ele>815.2</ele>
        <time>2012-09-15T13:41:59.000Z</time>
      </trkpt>
      <trkpt lat="43.91609" lon="7.24338">
        <ele>815.5</ele>
        <time>2012-09-15T13:42:01.000Z</time>
      </trkpt>
      <trkpt lat="43.91616" lon="7.24331">
        <ele>814.4</ele>
        <time>2012-09-15T13:42:03.000Z</time>
      </trkpt>
      <trkpt lat="43.9162" lon="7.24325">
        <ele>814.5</ele>
        <time>2012-09-15T13:42:05.000Z</time>
      </trkpt>
      <trkpt lat="43.91625" lon="7.24327">
        <ele>814.7</ele>
        <time>2012-09-15T13:42:07.000Z</time>
      </trkpt>
      <trkpt lat="43.9163" lon="7.24326">
        <ele>815.6</ele>
        <time>2012-09-15T13:42:09.000Z</time>
      </trkpt>
      <trkpt lat="43.91634" lon="7.24326">
        <ele>815.9</ele>
        <time>2012-09-15T13:42:11.000Z</time>
      </trkpt>
      <trkpt lat="43.91639" lon="7.24326">
        <ele>815.4</ele>
        <time>2012-09-15T13:42:13.000Z</time>
      </trkpt>
      <trkpt lat="43.91645" lon="7.24325">
        <ele>816</ele>
        <time>2012-09-15T13:42:15.000Z</time>
      </trkpt>
      <trkpt lat="43.9165" lon="7.24326">
        <ele>819</ele>
        <time>2012-09-15T13:42:17.000Z</time>
      </trkpt>
      <trkpt lat="43.91656" lon="7.24328">
        <ele>820.2</ele>
        <time>2012-09-15T13:42:19.000Z</time>
      </trkpt>
      <trkpt lat="43.9166" lon="7.24327">
        <ele>819.1</ele>
        <time>2012-09-15T13:42:20.000Z</time>
      </trkpt>
      <trkpt lat="43.91668" lon="7.24323">
        <ele>819.2</ele>
        <time>2012-09-15T13:42:22.000Z</time>
      </trkpt>
      <trkpt lat="43.91676" lon="7.24321">
        <ele>818.6</ele>
        <time>2012-09-15T13:42:24.000Z</time>
      </trkpt>
      <trkpt lat="43.91684" lon="7.24324">
        <ele>818.4</ele>
        <time>2012-09-15T13:42:26.000Z</time>
      </trkpt>
      <trkpt lat="43.91684" lon="7.24331">
        <ele>818.9</ele>
        <time>2012-09-15T13:42:28.000Z</time>
      </trkpt>
      <trkpt lat="43.91686" lon="7.2434">
        <ele>819.9</ele>
        <time>2012-09-15T13:42:31.000Z</time>
      </trkpt>
      <trkpt lat="43.91688" lon="7.24346">
        <ele>822.5</ele>
        <time>2012-09-15T13:42:35.000Z</time>
      </trkpt>
      <trkpt lat="43.91692" lon="7.24349">
        <ele>827</ele>
        <time>2012-09-15T13:42:40.000Z</time>
      </trkpt>
      <trkpt lat="43.91696" lon="7.24355">
        <ele>826.4</ele>
        <time>2012-09-15T13:42:43.000Z</time>
      </trkpt>
      <trkpt lat="43.91702" lon="7.24358">
        <ele>827.1</ele>
        <time>2012-09-15T13:42:48.000Z</time>
      </trkpt>
      <trkpt lat="43.91705" lon="7.24363">
        <ele>824.7</ele>
        <time>2012-09-15T13:42:53.000Z</time>
      </trkpt>
      <trkpt lat="43.91706" lon="7.2437">
        <ele>824.1</ele>
        <time>2012-09-15T13:42:57.000Z</time>
      </trkpt>
      <trkpt lat="43.91708" lon="7.24377">
        <ele>825.1</ele>
        <time>2012-09-15T13:43:03.000Z</time>
      </trkpt>
      <trkpt lat="43.9171" lon="7.24385">
        <ele>826.5</ele>
        <time>2012-09-15T13:43:09.000Z</time>
      </trkpt>
      <trkpt lat="43.9171" lon="7.24391">
        <ele>822.6</ele>
        <time>2012-09-15T13:43:21.000Z</time>
      </trkpt>
      <trkpt lat="43.9171" lon="7.24401">
        <ele>825.7</ele>
        <time>2012-09-15T13:44:02.000Z</time>
      </trkpt>
      <trkpt lat="43.91712" lon="7.24408">
        <ele>824.4</ele>
        <time>2012-09-15T13:44:06.000Z</time>
      </trkpt>
      <trkpt lat="43.91714" lon="7.24416">
        <ele>823.7</ele>
        <time>2012-09-15T13:44:09.000Z</time>
      </trkpt>
      <trkpt lat="43.91713" lon="7.24422">
        <ele>824.4</ele>
        <time>2012-09-15T13:44:12.000Z</time>
      </trkpt>
      <trkpt lat="43.91709" lon="7.24425">
        <ele>824.4</ele>
        <time>2012-09-15T13:44:23.000Z</time>
      </trkpt>
      <trkpt lat="43.9171" lon="7.24433">
        <ele>823.5</ele>
        <time>2012-09-15T13:44:27.000Z</time>
      </trkpt>
      <trkpt lat="43.91709" lon="7.2444">
        <ele>824.8</ele>
        <time>2012-09-15T13:44:33.000Z</time>
      </trkpt>
      <trkpt lat="43.91707" lon="7.24445">
        <ele>822.9</ele>
        <time>2012-09-15T13:44:39.000Z</time>
      </trkpt>
      <trkpt lat="43.91703" lon="7.2445">
        <ele>825.4</ele>
        <time>2012-09-15T13:44:46.000Z</time>
      </trkpt>
      <trkpt lat="43.91701" lon="7.24456">
        <ele>830.4</ele>
        <time>2012-09-15T13:44:58.000Z</time>
      </trkpt>
      <trkpt lat="43.91702" lon="7.24463">
        <ele>833.9</ele>
        <time>2012-09-15T13:45:04.000Z</time>
      </trkpt>
      <trkpt lat="43.91703" lon="7.24469">
        <ele>835.5</ele>
        <time>2012-09-15T13:45:09.000Z</time>
      </trkpt>
      <trkpt lat="43.91704" lon="7.24476">
        <ele>839</ele>
        <time>2012-09-15T13:45:18.000Z</time>
      </trkpt>
      <trkpt lat="43.91706" lon="7.24482">
        <ele>843.6</ele>
        <time>2012-09-15T13:45:24.000Z</time>
      </trkpt>
      <trkpt lat="43.91708" lon="7.24487">
        <ele>844.8</ele>
        <time>2012-09-15T13:45:34.000Z</time>
      </trkpt>
      <trkpt lat="43.91709" lon="7.24494">
        <ele>847.4</ele>
        <time>2012-09-15T13:45:49.000Z</time>
      </trkpt>
      <trkpt lat="43.91711" lon="7.245">
        <ele>843.8</ele>
        <time>2012-09-15T13:45:53.000Z</time>
      </trkpt>
      <trkpt lat="43.91712" lon="7.24507">
        <ele>843.7</ele>
        <time>2012-09-15T13:45:57.000Z</time>
      </trkpt>
      <trkpt lat="43.91713" lon="7.24514">
        <ele>843.7</ele>
        <time>2012-09-15T13:46:00.000Z</time>
      </trkpt>
      <trkpt lat="43.91714" lon="7.24522">
        <ele>843.4</ele>
        <time>2012-09-15T13:46:04.000Z</time>
      </trkpt>
      <trkpt lat="43.91714" lon="7.24528">
        <ele>845.3</ele>
        <time>2012-09-15T13:46:07.000Z</time>
      </trkpt>
      <trkpt lat="43.91715" lon="7.24535">
        <ele>847.3</ele>
        <time>2012-09-15T13:46:11.000Z</time>
      </trkpt>
      <trkpt lat="43.91716" lon="7.24542">
        <ele>849.3</ele>
        <time>2012-09-15T13:46:15.000Z</time>
      </trkpt>
      <trkpt lat="43.91718" lon="7.24549">
        <ele>849.1</ele>
        <time>2012-09-15T13:46:19.000Z</time>
      </trkpt>
      <trkpt lat="43.91722" lon="7.24555">
        <ele>850.6</ele>
        <time>2012-09-15T13:46:22.000Z</time>
      </trkpt>
      <trkpt lat="43.91719" lon="7.24563">
        <ele>849.9</ele>
        <time>2012-09-15T13:46:25.000Z</time>
      </trkpt>
      <trkpt lat="43.91719" lon="7.2457">
        <ele>848.2</ele>
        <time>2012-09-15T13:46:28.000Z</time>
      </trkpt>
      <trkpt lat="43.91719" lon="7.24578">
        <ele>846.3</ele>
        <time>2012-09-15T13:46:32.000Z</time>
      </trkpt>
      <trkpt lat="43.91718" lon="7.24585">
        <ele>844.4</ele>
        <time>2012-09-15T13:46:36.000Z</time>
      </trkpt>
      <trkpt lat="43.91715" lon="7.24591">
        <ele>845.6</ele>
        <time>2012-09-15T13:46:39.000Z</time>
      </trkpt>
      <trkpt lat="43.91712" lon="7.24596">
        <ele>844.6</ele>
        <time>2012-09-15T13:46:43.000Z</time>
      </trkpt>
      <trkpt lat="43.91716" lon="7.24592">
        <ele>842.5</ele>
        <time>2012-09-15T13:46:50.000Z</time>
      </trkpt>
      <trkpt lat="43.91716" lon="7.246">
        <ele>840.8</ele>
        <time>2012-09-15T13:46:52.000Z</time>
      </trkpt>
      <trkpt lat="43.91714" lon="7.24607">
        <ele>839.7</ele>
        <time>2012-09-15T13:46:54.000Z</time>
      </trkpt>
      <trkpt lat="43.91711" lon="7.24612">
        <ele>839.5</ele>
        <time>2012-09-15T13:46:57.000Z</time>
      </trkpt>
      <trkpt lat="43.91706" lon="7.24615">
        <ele>842.5</ele>
        <time>2012-09-15T13:47:03.000Z</time>
      </trkpt>
      <trkpt lat="43.91709" lon="7.24621">
        <ele>842.8</ele>
        <time>2012-09-15T13:47:06.000Z</time>
      </trkpt>
      <trkpt lat="43.9171" lon="7.24627">
        <ele>842.7</ele>
        <time>2012-09-15T13:47:14.000Z</time>
      </trkpt>
      <trkpt lat="43.91709" lon="7.24635">
        <ele>843.4</ele>
        <time>2012-09-15T13:47:17.000Z</time>
      </trkpt>
      <trkpt lat="43.91707" lon="7.24642">
        <ele>843.6</ele>
        <time>2012-09-15T13:47:21.000Z</time>
      </trkpt>
      <trkpt lat="43.91707" lon="7.2465">
        <ele>845.6</ele>
        <time>2012-09-15T13:47:23.000Z</time>
      </trkpt>
      <trkpt lat="43.91711" lon="7.24656">
        <ele>847.2</ele>
        <time>2012-09-15T13:47:25.000Z</time>
      </trkpt>
      <trkpt lat="43.91716" lon="7.24661">
        <ele>848.6</ele>
        <time>2012-09-15T13:47:26.000Z</time>
      </trkpt>
      <trkpt lat="43.91714" lon="7.24672">
        <ele>850.2</ele>
        <time>2012-09-15T13:47:28.000Z</time>
      </trkpt>
      <trkpt lat="43.91712" lon="7.24682">
        <ele>852.9</ele>
        <time>2012-09-15T13:47:30.000Z</time>
      </trkpt>
      <trkpt lat="43.9171" lon="7.24689">
        <ele>858.9</ele>
        <time>2012-09-15T13:47:36.000Z</time>
      </trkpt>
      <trkpt lat="43.9171" lon="7.24696">
        <ele>856.7</ele>
        <time>2012-09-15T13:47:39.000Z</time>
      </trkpt>
      <trkpt lat="43.9171" lon="7.24702">
        <ele>856.9</ele>
        <time>2012-09-15T13:47:42.000Z</time>
      </trkpt>
      <trkpt lat="43.91708" lon="7.24712">
        <ele>856.1</ele>
        <time>2012-09-15T13:47:47.000Z</time>
      </trkpt>
      <trkpt lat="43.91709" lon="7.2472">
        <ele>853.9</ele>
        <time>2012-09-15T13:47:51.000Z</time>
      </trkpt>
      <trkpt lat="43.91705" lon="7.2473">
        <ele>854.2</ele>
        <time>2012-09-15T13:47:53.000Z</time>
      </trkpt>
      <trkpt lat="43.91698" lon="7.24729">
        <ele>853</ele>
        <time>2012-09-15T13:47:54.000Z</time>
      </trkpt>
      <trkpt lat="43.91694" lon="7.24741">
        <ele>855</ele>
        <time>2012-09-15T13:47:56.000Z</time>
      </trkpt>
      <trkpt lat="43.91689" lon="7.24743">
        <ele>858.6</ele>
        <time>2012-09-15T13:47:57.000Z</time>
      </trkpt>
      <trkpt lat="43.91688" lon="7.24751">
        <ele>859.5</ele>
        <time>2012-09-15T13:47:59.000Z</time>
      </trkpt>
      <trkpt lat="43.9169" lon="7.24761">
        <ele>857.4</ele>
        <time>2012-09-15T13:48:02.000Z</time>
      </trkpt>
      <trkpt lat="43.91686" lon="7.24766">
        <ele>859.1</ele>
        <time>2012-09-15T13:48:06.000Z</time>
      </trkpt>
      <trkpt lat="43.91682" lon="7.2477">
        <ele>858.2</ele>
        <time>2012-09-15T13:48:08.000Z</time>
      </trkpt>
      <trkpt lat="43.91675" lon="7.24771">
        <ele>859.8</ele>
        <time>2012-09-15T13:48:12.000Z</time>
      </trkpt>
      <trkpt lat="43.9167" lon="7.24766">
        <ele>859.9</ele>
        <time>2012-09-15T13:48:18.000Z</time>
      </trkpt>
      <trkpt lat="43.91666" lon="7.24763">
        <ele>860.5</ele>
        <time>2012-09-15T13:48:21.000Z</time>
      </trkpt>
      <trkpt lat="43.91661" lon="7.24761">
        <ele>860.9</ele>
        <time>2012-09-15T13:48:23.000Z</time>
      </trkpt>
      <trkpt lat="43.91655" lon="7.24766">
        <ele>862.6</ele>
        <time>2012-09-15T13:48:26.000Z</time>
      </trkpt>
      <trkpt lat="43.91649" lon="7.24768">
        <ele>862.9</ele>
        <time>2012-09-15T13:48:29.000Z</time>
      </trkpt>
      <trkpt lat="43.91644" lon="7.24767">
        <ele>862.5</ele>
        <time>2012-09-15T13:48:31.000Z</time>
      </trkpt>
      <trkpt lat="43.91635" lon="7.24767">
        <ele>861.8</ele>
        <time>2012-09-15T13:48:35.000Z</time>
      </trkpt>
      <trkpt lat="43.91631" lon="7.24764">
        <ele>861.2</ele>
        <time>2012-09-15T13:48:36.000Z</time>
      </trkpt>
      <trkpt lat="43.91638" lon="7.24763">
        <ele>861.5</ele>
        <time>2012-09-15T13:53:45.000Z</time>
      </trkpt>
      <trkpt lat="43.91644" lon="7.24763">
        <ele>861.4</ele>
        <time>2012-09-15T13:53:47.000Z</time>
      </trkpt>
      <trkpt lat="43.91649" lon="7.24764">
        <ele>861.6</ele>
        <time>2012-09-15T13:53:48.000Z</time>
      </trkpt>
      <trkpt lat="43.91654" lon="7.24767">
        <ele>861.8</ele>
        <time>2012-09-15T13:53:49.000Z</time>
      </trkpt>
      <trkpt lat="43.91648" lon="7.24762">
        <ele>860.2</ele>
        <time>2012-09-15T13:53:50.000Z</time>
      </trkpt>
      <trkpt lat="43.91656" lon="7.24764">
        <ele>858.6</ele>
        <time>2012-09-15T13:53:52.000Z</time>
      </trkpt>
      <trkpt lat="43.91664" lon="7.24765">
        <ele>857.3</ele>
        <time>2012-09-15T13:53:54.000Z</time>
      </trkpt>
      <trkpt lat="43.9167" lon="7.24765">
        <ele>847.4</ele>
        <time>2012-09-15T13:53:57.000Z</time>
      </trkpt>
      <trkpt lat="43.9167" lon="7.24755">
        <ele>844.8</ele>
        <time>2012-09-15T13:53:59.000Z</time>
      </trkpt>
      <trkpt lat="43.91676" lon="7.24756">
        <ele>845.9</ele>
        <time>2012-09-15T13:54:00.000Z</time>
      </trkpt>
      <trkpt lat="43.91683" lon="7.24756">
        <ele>846.6</ele>
        <time>2012-09-15T13:54:01.000Z</time>
      </trkpt>
      <trkpt lat="43.91688" lon="7.24757">
        <ele>846.9</ele>
        <time>2012-09-15T13:54:02.000Z</time>
      </trkpt>
      <trkpt lat="43.91695" lon="7.24758">
        <ele>847</ele>
        <time>2012-09-15T13:54:03.000Z</time>
      </trkpt>
      <trkpt lat="43.91705" lon="7.2476">
        <ele>844.7</ele>
        <time>2012-09-15T13:54:06.000Z</time>
      </trkpt>
      <trkpt lat="43.91711" lon="7.24759">
        <ele>844.3</ele>
        <time>2012-09-15T13:54:08.000Z</time>
      </trkpt>
      <trkpt lat="43.91719" lon="7.24761">
        <ele>847.2</ele>
        <time>2012-09-15T13:54:10.000Z</time>
      </trkpt>
      <trkpt lat="43.91725" lon="7.24754">
        <ele>849</ele>
        <time>2012-09-15T13:54:14.000Z</time>
      </trkpt>
      <trkpt lat="43.9173" lon="7.24752">
        <ele>849</ele>
        <time>2012-09-15T13:54:16.000Z</time>
      </trkpt>
      <trkpt lat="43.91738" lon="7.24752">
        <ele>846.2</ele>
        <time>2012-09-15T13:54:18.000Z</time>
      </trkpt>
      <trkpt lat="43.91742" lon="7.24749">
        <ele>846.5</ele>
        <time>2012-09-15T13:54:21.000Z</time>
      </trkpt>
      <trkpt lat="43.91749" lon="7.24751">
        <ele>841.2</ele>
        <time>2012-09-15T13:54:24.000Z</time>
      </trkpt>
      <trkpt lat="43.91753" lon="7.24748">
        <ele>841.1</ele>
        <time>2012-09-15T13:54:27.000Z</time>
      </trkpt>
      <trkpt lat="43.91756" lon="7.24742">
        <ele>842.4</ele>
        <time>2012-09-15T13:54:31.000Z</time>
      </trkpt>
      <trkpt lat="43.91762" lon="7.24735">
        <ele>843.2</ele>
        <time>2012-09-15T13:54:34.000Z</time>
      </trkpt>
      <trkpt lat="43.91765" lon="7.2473">
        <ele>843.8</ele>
        <time>2012-09-15T13:54:37.000Z</time>
      </trkpt>
      <trkpt lat="43.91764" lon="7.2472">
        <ele>844.5</ele>
        <time>2012-09-15T13:54:39.000Z</time>
      </trkpt>
      <trkpt lat="43.91768" lon="7.24713">
        <ele>845.7</ele>
        <time>2012-09-15T13:54:43.000Z</time>
      </trkpt>
      <trkpt lat="43.91771" lon="7.24709">
        <ele>845.8</ele>
        <time>2012-09-15T13:54:46.000Z</time>
      </trkpt>
      <trkpt lat="43.91774" lon="7.24702">
        <ele>844.9</ele>
        <time>2012-09-15T13:54:47.000Z</time>
      </trkpt>
      <trkpt lat="43.91778" lon="7.24698">
        <ele>847.1</ele>
        <time>2012-09-15T13:54:52.000Z</time>
      </trkpt>
      <trkpt lat="43.91779" lon="7.24692">
        <ele>849.1</ele>
        <time>2012-09-15T13:54:56.000Z</time>
      </trkpt>
      <trkpt lat="43.91779" lon="7.24684">
        <ele>851.4</ele>
        <time>2012-09-15T13:55:00.000Z</time>
      </trkpt>
      <trkpt lat="43.91779" lon="7.24677">
        <ele>854.8</ele>
        <time>2012-09-15T13:55:04.000Z</time>
      </trkpt>
      <trkpt lat="43.91782" lon="7.2467">
        <ele>855.2</ele>
        <time>2012-09-15T13:55:07.000Z</time>
      </trkpt>
      <trkpt lat="43.91784" lon="7.24664">
        <ele>855.4</ele>
        <time>2012-09-15T13:55:10.000Z</time>
      </trkpt>
      <trkpt lat="43.91787" lon="7.24658">
        <ele>855.1</ele>
        <time>2012-09-15T13:55:13.000Z</time>
      </trkpt>
      <trkpt lat="43.9179" lon="7.24652">
        <ele>855</ele>
        <time>2012-09-15T13:55:17.000Z</time>
      </trkpt>
      <trkpt lat="43.91795" lon="7.2465">
        <ele>855.8</ele>
        <time>2012-09-15T13:55:43.000Z</time>
      </trkpt>
      <trkpt lat="43.91798" lon="7.24645">
        <ele>855.4</ele>
        <time>2012-09-15T13:55:54.000Z</time>
      </trkpt>
      <trkpt lat="43.91802" lon="7.24642">
        <ele>852.6</ele>
        <time>2012-09-15T13:55:57.000Z</time>
      </trkpt>
      <trkpt lat="43.91806" lon="7.24635">
        <ele>851.1</ele>
        <time>2012-09-15T13:56:00.000Z</time>
      </trkpt>
      <trkpt lat="43.91811" lon="7.24627">
        <ele>850.5</ele>
        <time>2012-09-15T13:56:02.000Z</time>
      </trkpt>
      <trkpt lat="43.91816" lon="7.24619">
        <ele>850.4</ele>
        <time>2012-09-15T13:56:04.000Z</time>
      </trkpt>
      <trkpt lat="43.91821" lon="7.24612">
        <ele>851</ele>
        <time>2012-09-15T13:56:06.000Z</time>
      </trkpt>
      <trkpt lat="43.91828" lon="7.24603">
        <ele>851.3</ele>
        <time>2012-09-15T13:56:08.000Z</time>
      </trkpt>
      <trkpt lat="43.91832" lon="7.24598">
        <ele>851.8</ele>
        <time>2012-09-15T13:56:10.000Z</time>
      </trkpt>
      <trkpt lat="43.91836" lon="7.24591">
        <ele>852.1</ele>
        <time>2012-09-15T13:56:12.000Z</time>
      </trkpt>
      <trkpt lat="43.9184" lon="7.24584">
        <ele>853.3</ele>
        <time>2012-09-15T13:56:14.000Z</time>
      </trkpt>
      <trkpt lat="43.91842" lon="7.24577">
        <ele>854</ele>
        <time>2012-09-15T13:56:16.000Z</time>
      </trkpt>
      <trkpt lat="43.91844" lon="7.24571">
        <ele>855</ele>
        <time>2012-09-15T13:56:18.000Z</time>
      </trkpt>
      <trkpt lat="43.91846" lon="7.24565">
        <ele>855.7</ele>
        <time>2012-09-15T13:56:20.000Z</time>
      </trkpt>
      <trkpt lat="43.91849" lon="7.24558">
        <ele>857.2</ele>
        <time>2012-09-15T13:56:23.000Z</time>
      </trkpt>
      <trkpt lat="43.91854" lon="7.24555">
        <ele>857.2</ele>
        <time>2012-09-15T13:56:26.000Z</time>
      </trkpt>
      <trkpt lat="43.91858" lon="7.24549">
        <ele>857.8</ele>
        <time>2012-09-15T13:56:29.000Z</time>
      </trkpt>
      <trkpt lat="43.91862" lon="7.24543">
        <ele>856.7</ele>
        <time>2012-09-15T13:56:32.000Z</time>
      </trkpt>
      <trkpt lat="43.91866" lon="7.24539">
        <ele>857.1</ele>
        <time>2012-09-15T13:56:35.000Z</time>
      </trkpt>
      <trkpt lat="43.91869" lon="7.24532">
        <ele>858.4</ele>
        <time>2012-09-15T13:56:39.000Z</time>
      </trkpt>
      <trkpt lat="43.91875" lon="7.24537">
        <ele>864.6</ele>
        <time>2012-09-15T13:58:53.000Z</time>
      </trkpt>
      <trkpt lat="43.9188" lon="7.24531">
        <ele>862.6</ele>
        <time>2012-09-15T13:58:55.000Z</time>
      </trkpt>
      <trkpt lat="43.9188" lon="7.24523">
        <ele>864.8</ele>
        <time>2012-09-15T13:58:57.000Z</time>
      </trkpt>
      <trkpt lat="43.91882" lon="7.24516">
        <ele>865.1</ele>
        <time>2012-09-15T13:58:59.000Z</time>
      </trkpt>
      <trkpt lat="43.91885" lon="7.24511">
        <ele>865.6</ele>
        <time>2012-09-15T13:59:01.000Z</time>
      </trkpt>
      <trkpt lat="43.91886" lon="7.24505">
        <ele>866</ele>
        <time>2012-09-15T13:59:03.000Z</time>
      </trkpt>
      <trkpt lat="43.91887" lon="7.24498">
        <ele>865.9</ele>
        <time>2012-09-15T13:59:05.000Z</time>
      </trkpt>
      <trkpt lat="43.91888" lon="7.24492">
        <ele>865.9</ele>
        <time>2012-09-15T13:59:07.000Z</time>
      </trkpt>
      <trkpt lat="43.91889" lon="7.24484">
        <ele>867.1</ele>
        <time>2012-09-15T13:59:10.000Z</time>
      </trkpt>
      <trkpt lat="43.91891" lon="7.24477">
        <ele>867.6</ele>
        <time>2012-09-15T13:59:13.000Z</time>
      </trkpt>
      <trkpt lat="43.91893" lon="7.2447">
        <ele>867.5</ele>
        <time>2012-09-15T13:59:16.000Z</time>
      </trkpt>
      <trkpt lat="43.91897" lon="7.24464">
        <ele>866.6</ele>
        <time>2012-09-15T13:59:19.000Z</time>
      </trkpt>
      <trkpt lat="43.919" lon="7.24458">
        <ele>867</ele>
        <time>2012-09-15T13:59:22.000Z</time>
      </trkpt>
      <trkpt lat="43.91904" lon="7.24453">
        <ele>867.1</ele>
        <time>2012-09-15T13:59:25.000Z</time>
      </trkpt>
      <trkpt lat="43.91908" lon="7.2445">
        <ele>867.2</ele>
        <time>2012-09-15T13:59:28.000Z</time>
      </trkpt>
      <trkpt lat="43.91913" lon="7.24448">
        <ele>867.4</ele>
        <time>2012-09-15T13:59:39.000Z</time>
      </trkpt>
      <trkpt lat="43.91918" lon="7.24446">
        <ele>868.3</ele>
        <time>2012-09-15T13:59:42.000Z</time>
      </trkpt>
      <trkpt lat="43.91922" lon="7.24444">
        <ele>867.8</ele>
        <time>2012-09-15T13:59:45.000Z</time>
      </trkpt>
      <trkpt lat="43.91927" lon="7.2444">
        <ele>868.4</ele>
        <time>2012-09-15T13:59:48.000Z</time>
      </trkpt>
      <trkpt lat="43.91932" lon="7.2444">
        <ele>868.5</ele>
        <time>2012-09-15T13:59:51.000Z</time>
      </trkpt>
      <trkpt lat="43.91938" lon="7.24438">
        <ele>868.4</ele>
        <time>2012-09-15T13:59:55.000Z</time>
      </trkpt>
      <trkpt lat="43.91944" lon="7.24436">
        <ele>868.3</ele>
        <time>2012-09-15T13:59:58.000Z</time>
      </trkpt>
      <trkpt lat="43.91948" lon="7.24434">
        <ele>868.3</ele>
        <time>2012-09-15T14:00:01.000Z</time>
      </trkpt>
      <trkpt lat="43.91953" lon="7.2443">
        <ele>869.6</ele>
        <time>2012-09-15T14:00:04.000Z</time>
      </trkpt>
      <trkpt lat="43.91958" lon="7.24427">
        <ele>871</ele>
        <time>2012-09-15T14:00:07.000Z</time>
      </trkpt>
      <trkpt lat="43.91962" lon="7.24424">
        <ele>871.5</ele>
        <time>2012-09-15T14:00:10.000Z</time>
      </trkpt>
      <trkpt lat="43.91966" lon="7.2442">
        <ele>871.2</ele>
        <time>2012-09-15T14:00:13.000Z</time>
      </trkpt>
      <trkpt lat="43.91969" lon="7.24413">
        <ele>872.2</ele>
        <time>2012-09-15T14:00:16.000Z</time>
      </trkpt>
      <trkpt lat="43.91972" lon="7.24406">
        <ele>873.2</ele>
        <time>2012-09-15T14:00:19.000Z</time>
      </trkpt>
      <trkpt lat="43.91974" lon="7.24399">
        <ele>873.7</ele>
        <time>2012-09-15T14:00:22.000Z</time>
      </trkpt>
      <trkpt lat="43.91976" lon="7.24393">
        <ele>874.2</ele>
        <time>2012-09-15T14:00:25.000Z</time>
      </trkpt>
      <trkpt lat="43.91977" lon="7.24386">
        <ele>874.5</ele>
        <time>2012-09-15T14:00:28.000Z</time>
      </trkpt>
      <trkpt lat="43.91978" lon="7.24379">
        <ele>875.3</ele>
        <time>2012-09-15T14:00:31.000Z</time>
      </trkpt>
      <trkpt lat="43.91978" lon="7.24372">
        <ele>875</ele>
        <time>2012-09-15T14:00:34.000Z</time>
      </trkpt>
      <trkpt lat="43.91978" lon="7.24363">
        <ele>876.1</ele>
        <time>2012-09-15T14:00:38.000Z</time>
      </trkpt>
      <trkpt lat="43.91977" lon="7.24355">
        <ele>876.7</ele>
        <time>2012-09-15T14:00:42.000Z</time>
      </trkpt>
      <trkpt lat="43.91975" lon="7.24347">
        <ele>877.3</ele>
        <time>2012-09-15T14:00:45.000Z</time>
      </trkpt>
      <trkpt lat="43.91972" lon="7.2434">
        <ele>878.8</ele>
        <time>2012-09-15T14:00:48.000Z</time>
      </trkpt>
      <trkpt lat="43.91968" lon="7.24334">
        <ele>879.3</ele>
        <time>2012-09-15T14:00:51.000Z</time>
      </trkpt>
      <trkpt lat="43.91964" lon="7.24329">
        <ele>879.1</ele>
        <time>2012-09-15T14:00:53.000Z</time>
      </trkpt>
      <trkpt lat="43.9196" lon="7.24322">
        <ele>879.8</ele>
        <time>2012-09-15T14:00:56.000Z</time>
      </trkpt>
      <trkpt lat="43.91955" lon="7.24317">
        <ele>880.1</ele>
        <time>2012-09-15T14:00:59.000Z</time>
      </trkpt>
      <trkpt lat="43.91951" lon="7.24313">
        <ele>880.4</ele>
        <time>2012-09-15T14:01:01.000Z</time>
      </trkpt>
      <trkpt lat="43.91946" lon="7.24308">
        <ele>880.9</ele>
        <time>2012-09-15T14:01:04.000Z</time>
      </trkpt>
      <trkpt lat="43.9194" lon="7.24304">
        <ele>880.9</ele>
        <time>2012-09-15T14:01:07.000Z</time>
      </trkpt>
      <trkpt lat="43.91935" lon="7.24301">
        <ele>881</ele>
        <time>2012-09-15T14:01:10.000Z</time>
      </trkpt>
      <trkpt lat="43.91929" lon="7.24299">
        <ele>882.6</ele>
        <time>2012-09-15T14:01:13.000Z</time>
      </trkpt>
      <trkpt lat="43.91924" lon="7.24296">
        <ele>882.7</ele>
        <time>2012-09-15T14:01:16.000Z</time>
      </trkpt>
      <trkpt lat="43.9192" lon="7.24294">
        <ele>883.5</ele>
        <time>2012-09-15T14:01:19.000Z</time>
      </trkpt>
      <trkpt lat="43.91915" lon="7.2429">
        <ele>884.1</ele>
        <time>2012-09-15T14:01:22.000Z</time>
      </trkpt>
      <trkpt lat="43.9191" lon="7.24286">
        <ele>883.7</ele>
        <time>2012-09-15T14:01:25.000Z</time>
      </trkpt>
      <trkpt lat="43.91906" lon="7.24282">
        <ele>884.6</ele>
        <time>2012-09-15T14:01:28.000Z</time>
      </trkpt>
      <trkpt lat="43.91899" lon="7.2428">
        <ele>885.4</ele>
        <time>2012-09-15T14:01:31.000Z</time>
      </trkpt>
      <trkpt lat="43.91894" lon="7.24279">
        <ele>886.7</ele>
        <time>2012-09-15T14:01:34.000Z</time>
      </trkpt>
      <trkpt lat="43.91889" lon="7.24272">
        <ele>888.2</ele>
        <time>2012-09-15T14:01:38.000Z</time>
      </trkpt>
      <trkpt lat="43.91883" lon="7.24268">
        <ele>888.3</ele>
        <time>2012-09-15T14:01:41.000Z</time>
      </trkpt>
      <trkpt lat="43.91879" lon="7.24264">
        <ele>887.3</ele>
        <time>2012-09-15T14:01:44.000Z</time>
      </trkpt>
      <trkpt lat="43.91875" lon="7.24258">
        <ele>887.8</ele>
        <time>2012-09-15T14:01:47.000Z</time>
      </trkpt>
      <trkpt lat="43.91872" lon="7.24252">
        <ele>888.4</ele>
        <time>2012-09-15T14:01:50.000Z</time>
      </trkpt>
      <trkpt lat="43.9187" lon="7.24245">
        <ele>888.2</ele>
        <time>2012-09-15T14:01:53.000Z</time>
      </trkpt>
      <trkpt lat="43.91869" lon="7.24238">
        <ele>888.4</ele>
        <time>2012-09-15T14:01:56.000Z</time>
      </trkpt>
      <trkpt lat="43.91869" lon="7.24231">
        <ele>888.4</ele>
        <time>2012-09-15T14:01:59.000Z</time>
      </trkpt>
      <trkpt lat="43.9187" lon="7.24223">
        <ele>888</ele>
        <time>2012-09-15T14:02:02.000Z</time>
      </trkpt>
      <trkpt lat="43.91871" lon="7.24216">
        <ele>888.1</ele>
        <time>2012-09-15T14:02:05.000Z</time>
      </trkpt>
      <trkpt lat="43.91874" lon="7.24209">
        <ele>887.7</ele>
        <time>2012-09-15T14:02:08.000Z</time>
      </trkpt>
      <trkpt lat="43.91878" lon="7.24203">
        <ele>887.8</ele>
        <time>2012-09-15T14:02:11.000Z</time>
      </trkpt>
      <trkpt lat="43.91882" lon="7.24197">
        <ele>888.3</ele>
        <time>2012-09-15T14:02:14.000Z</time>
      </trkpt>
      <trkpt lat="43.91886" lon="7.24191">
        <ele>888.2</ele>
        <time>2012-09-15T14:02:17.000Z</time>
      </trkpt>
      <trkpt lat="43.9189" lon="7.24186">
        <ele>888.6</ele>
        <time>2012-09-15T14:02:20.000Z</time>
      </trkpt>
      <trkpt lat="43.91894" lon="7.24181">
        <ele>889.1</ele>
        <time>2012-09-15T14:02:23.000Z</time>
      </trkpt>
      <trkpt lat="43.91898" lon="7.24176">
        <ele>889.6</ele>
        <time>2012-09-15T14:02:26.000Z</time>
      </trkpt>
      <trkpt lat="43.91902" lon="7.24171">
        <ele>889.5</ele>
        <time>2012-09-15T14:02:29.000Z</time>
      </trkpt>
      <trkpt lat="43.91907" lon="7.24169">
        <ele>889.7</ele>
        <time>2012-09-15T14:02:32.000Z</time>
      </trkpt>
      <trkpt lat="43.91911" lon="7.24166">
        <ele>890.1</ele>
        <time>2012-09-15T14:02:35.000Z</time>
      </trkpt>
      <trkpt lat="43.91915" lon="7.24159">
        <ele>890.6</ele>
        <time>2012-09-15T14:02:38.000Z</time>
      </trkpt>
      <trkpt lat="43.91918" lon="7.24154">
        <ele>890.8</ele>
        <time>2012-09-15T14:02:41.000Z</time>
      </trkpt>
      <trkpt lat="43.91923" lon="7.2415">
        <ele>890.9</ele>
        <time>2012-09-15T14:02:44.000Z</time>
      </trkpt>
      <trkpt lat="43.91926" lon="7.24145">
        <ele>891.4</ele>
        <time>2012-09-15T14:02:47.000Z</time>
      </trkpt>
      <trkpt lat="43.9193" lon="7.24142">
        <ele>891.5</ele>
        <time>2012-09-15T14:02:50.000Z</time>
      </trkpt>
      <trkpt lat="43.91935" lon="7.24138">
        <ele>892</ele>
        <time>2012-09-15T14:02:53.000Z</time>
      </trkpt>
      <trkpt lat="43.91939" lon="7.24134">
        <ele>892</ele>
        <time>2012-09-15T14:02:56.000Z</time>
      </trkpt>
      <trkpt lat="43.91943" lon="7.2413">
        <ele>892.7</ele>
        <time>2012-09-15T14:02:59.000Z</time>
      </trkpt>
      <trkpt lat="43.91948" lon="7.24127">
        <ele>892.9</ele>
        <time>2012-09-15T14:03:02.000Z</time>
      </trkpt>
      <trkpt lat="43.91952" lon="7.24124">
        <ele>893.4</ele>
        <time>2012-09-15T14:03:05.000Z</time>
      </trkpt>
      <trkpt lat="43.91957" lon="7.24122">
        <ele>893.1</ele>
        <time>2012-09-15T14:03:09.000Z</time>
      </trkpt>
      <trkpt lat="43.91963" lon="7.24122">
        <ele>893.4</ele>
        <time>2012-09-15T14:03:12.000Z</time>
      </trkpt>
      <trkpt lat="43.91969" lon="7.24122">
        <ele>893.4</ele>
        <time>2012-09-15T14:03:15.000Z</time>
      </trkpt>
      <trkpt lat="43.91974" lon="7.24122">
        <ele>894.1</ele>
        <time>2012-09-15T14:03:18.000Z</time>
      </trkpt>
      <trkpt lat="43.91979" lon="7.2412">
        <ele>893.9</ele>
        <time>2012-09-15T14:03:21.000Z</time>
      </trkpt>
      <trkpt lat="43.91984" lon="7.24121">
        <ele>894</ele>
        <time>2012-09-15T14:03:24.000Z</time>
      </trkpt>
      <trkpt lat="43.91988" lon="7.24119">
        <ele>894.6</ele>
        <time>2012-09-15T14:03:27.000Z</time>
      </trkpt>
      <trkpt lat="43.91993" lon="7.24117">
        <ele>894.8</ele>
        <time>2012-09-15T14:03:30.000Z</time>
      </trkpt>
      <trkpt lat="43.91998" lon="7.24116">
        <ele>894.9</ele>
        <time>2012-09-15T14:03:33.000Z</time>
      </trkpt>
      <trkpt lat="43.92002" lon="7.24112">
        <ele>895.3</ele>
        <time>2012-09-15T14:03:36.000Z</time>
      </trkpt>
      <trkpt lat="43.92005" lon="7.24107">
        <ele>895.3</ele>
        <time>2012-09-15T14:03:39.000Z</time>
      </trkpt>
      <trkpt lat="43.92009" lon="7.24103">
        <ele>895.1</ele>
        <time>2012-09-15T14:03:42.000Z</time>
      </trkpt>
      <trkpt lat="43.92012" lon="7.24098">
        <ele>895.5</ele>
        <time>2012-09-15T14:03:45.000Z</time>
      </trkpt>
      <trkpt lat="43.92014" lon="7.24091">
        <ele>895.4</ele>
        <time>2012-09-15T14:03:48.000Z</time>
      </trkpt>
      <trkpt lat="43.92018" lon="7.24086">
        <ele>894.8</ele>
        <time>2012-09-15T14:03:51.000Z</time>
      </trkpt>
      <trkpt lat="43.92023" lon="7.24084">
        <ele>895.3</ele>
        <time>2012-09-15T14:03:54.000Z</time>
      </trkpt>
      <trkpt lat="43.92025" lon="7.24077">
        <ele>895.8</ele>
        <time>2012-09-15T14:03:57.000Z</time>
      </trkpt>
      <trkpt lat="43.92028" lon="7.24072">
        <ele>896.3</ele>
        <time>2012-09-15T14:04:00.000Z</time>
      </trkpt>
      <trkpt lat="43.92032" lon="7.24068">
        <ele>895.9</ele>
        <time>2012-09-15T14:04:03.000Z</time>
      </trkpt>
      <trkpt lat="43.92036" lon="7.24063">
        <ele>896.6</ele>
        <time>2012-09-15T14:04:06.000Z</time>
      </trkpt>
      <trkpt lat="43.92038" lon="7.24056">
        <ele>896.6</ele>
        <time>2012-09-15T14:04:09.000Z</time>
      </trkpt>
      <trkpt lat="43.92041" lon="7.2405">
        <ele>896.8</ele>
        <time>2012-09-15T14:04:12.000Z</time>
      </trkpt>
      <trkpt lat="43.92045" lon="7.24045">
        <ele>897.1</ele>
        <time>2012-09-15T14:04:15.000Z</time>
      </trkpt>
      <trkpt lat="43.9205" lon="7.24041">
        <ele>897.5</ele>
        <time>2012-09-15T14:04:18.000Z</time>
      </trkpt>
      <trkpt lat="43.92053" lon="7.24035">
        <ele>898.3</ele>
        <time>2012-09-15T14:04:21.000Z</time>
      </trkpt>
      <trkpt lat="43.92054" lon="7.24028">
        <ele>898.9</ele>
        <time>2012-09-15T14:04:24.000Z</time>
      </trkpt>
      <trkpt lat="43.92053" lon="7.24022">
        <ele>899.5</ele>
        <time>2012-09-15T14:04:27.000Z</time>
      </trkpt>
      <trkpt lat="43.92048" lon="7.24017">
        <ele>900.6</ele>
        <time>2012-09-15T14:04:31.000Z</time>
      </trkpt>
      <trkpt lat="43.92044" lon="7.24011">
        <ele>902.6</ele>
        <time>2012-09-15T14:04:35.000Z</time>
      </trkpt>
      <trkpt lat="43.92039" lon="7.2401">
        <ele>904.6</ele>
        <time>2012-09-15T14:04:38.000Z</time>
      </trkpt>
      <trkpt lat="43.92034" lon="7.2401">
        <ele>904.7</ele>
        <time>2012-09-15T14:04:41.000Z</time>
      </trkpt>
      <trkpt lat="43.92029" lon="7.24008">
        <ele>905.4</ele>
        <time>2012-09-15T14:04:44.000Z</time>
      </trkpt>
      <trkpt lat="43.92025" lon="7.24005">
        <ele>905.8</ele>
        <time>2012-09-15T14:04:47.000Z</time>
      </trkpt>
      <trkpt lat="43.9202" lon="7.24002">
        <ele>906.3</ele>
        <time>2012-09-15T14:04:50.000Z</time>
      </trkpt>
      <trkpt lat="43.92015" lon="7.23999">
        <ele>906.9</ele>
        <time>2012-09-15T14:04:53.000Z</time>
      </trkpt>
      <trkpt lat="43.9201" lon="7.23996">
        <ele>907.1</ele>
        <time>2012-09-15T14:04:56.000Z</time>
      </trkpt>
      <trkpt lat="43.92009" lon="7.23989">
        <ele>908</ele>
        <time>2012-09-15T14:04:59.000Z</time>
      </trkpt>
      <trkpt lat="43.92006" lon="7.23983">
        <ele>908.2</ele>
        <time>2012-09-15T14:05:02.000Z</time>
      </trkpt>
      <trkpt lat="43.92002" lon="7.23978">
        <ele>909.4</ele>
        <time>2012-09-15T14:05:06.000Z</time>
      </trkpt>
      <trkpt lat="43.91999" lon="7.23971">
        <ele>910.1</ele>
        <time>2012-09-15T14:05:09.000Z</time>
      </trkpt>
      <trkpt lat="43.91997" lon="7.23965">
        <ele>910.4</ele>
        <time>2012-09-15T14:05:12.000Z</time>
      </trkpt>
      <trkpt lat="43.91996" lon="7.23957">
        <ele>910.7</ele>
        <time>2012-09-15T14:05:15.000Z</time>
      </trkpt>
      <trkpt lat="43.91994" lon="7.2395">
        <ele>910</ele>
        <time>2012-09-15T14:05:18.000Z</time>
      </trkpt>
      <trkpt lat="43.91992" lon="7.23943">
        <ele>910</ele>
        <time>2012-09-15T14:05:21.000Z</time>
      </trkpt>
      <trkpt lat="43.91988" lon="7.23936">
        <ele>909.8</ele>
        <time>2012-09-15T14:05:24.000Z</time>
      </trkpt>
      <trkpt lat="43.91984" lon="7.23935">
        <ele>910.3</ele>
        <time>2012-09-15T14:05:26.000Z</time>
      </trkpt>
      <trkpt lat="43.91978" lon="7.23935">
        <ele>911.4</ele>
        <time>2012-09-15T14:05:29.000Z</time>
      </trkpt>
      <trkpt lat="43.91973" lon="7.23933">
        <ele>909.2</ele>
        <time>2012-09-15T14:05:32.000Z</time>
      </trkpt>
      <trkpt lat="43.91967" lon="7.23932">
        <ele>910.1</ele>
        <time>2012-09-15T14:05:35.000Z</time>
      </trkpt>
      <trkpt lat="43.91961" lon="7.23937">
        <ele>910.8</ele>
        <time>2012-09-15T14:05:38.000Z</time>
      </trkpt>
      <trkpt lat="43.91956" lon="7.23938">
        <ele>910.3</ele>
        <time>2012-09-15T14:05:41.000Z</time>
      </trkpt>
      <trkpt lat="43.9195" lon="7.23935">
        <ele>910.5</ele>
        <time>2012-09-15T14:05:44.000Z</time>
      </trkpt>
      <trkpt lat="43.91945" lon="7.23938">
        <ele>911.3</ele>
        <time>2012-09-15T14:05:47.000Z</time>
      </trkpt>
      <trkpt lat="43.9194" lon="7.23941">
        <ele>912.1</ele>
        <time>2012-09-15T14:05:50.000Z</time>
      </trkpt>
      <trkpt lat="43.91935" lon="7.23939">
        <ele>912.2</ele>
        <time>2012-09-15T14:05:53.000Z</time>
      </trkpt>
      <trkpt lat="43.9193" lon="7.23939">
        <ele>912.8</ele>
        <time>2012-09-15T14:05:56.000Z</time>
      </trkpt>
      <trkpt lat="43.91924" lon="7.23942">
        <ele>913.1</ele>
        <time>2012-09-15T14:05:59.000Z</time>
      </trkpt>
      <trkpt lat="43.9192" lon="7.23938">
        <ele>913.7</ele>
        <time>2012-09-15T14:06:02.000Z</time>
      </trkpt>
      <trkpt lat="43.91914" lon="7.23936">
        <ele>914.1</ele>
        <time>2012-09-15T14:06:05.000Z</time>
      </trkpt>
      <trkpt lat="43.9191" lon="7.23939">
        <ele>915.2</ele>
        <time>2012-09-15T14:06:08.000Z</time>
      </trkpt>
      <trkpt lat="43.91904" lon="7.23937">
        <ele>915.2</ele>
        <time>2012-09-15T14:06:12.000Z</time>
      </trkpt>
      <trkpt lat="43.91899" lon="7.23938">
        <ele>916.5</ele>
        <time>2012-09-15T14:06:15.000Z</time>
      </trkpt>
      <trkpt lat="43.91894" lon="7.2394">
        <ele>918.7</ele>
        <time>2012-09-15T14:06:18.000Z</time>
      </trkpt>
      <trkpt lat="43.91888" lon="7.2394">
        <ele>917.3</ele>
        <time>2012-09-15T14:06:22.000Z</time>
      </trkpt>
      <trkpt lat="43.91886" lon="7.23933">
        <ele>916.1</ele>
        <time>2012-09-15T14:06:26.000Z</time>
      </trkpt>
      <trkpt lat="43.91883" lon="7.23924">
        <ele>916.8</ele>
        <time>2012-09-15T14:06:30.000Z</time>
      </trkpt>
      <trkpt lat="43.91882" lon="7.23917">
        <ele>917.5</ele>
        <time>2012-09-15T14:06:33.000Z</time>
      </trkpt>
      <trkpt lat="43.91882" lon="7.23907">
        <ele>919</ele>
        <time>2012-09-15T14:06:38.000Z</time>
      </trkpt>
      <trkpt lat="43.91879" lon="7.239">
        <ele>919.2</ele>
        <time>2012-09-15T14:06:43.000Z</time>
      </trkpt>
      <trkpt lat="43.91878" lon="7.23892">
        <ele>920</ele>
        <time>2012-09-15T14:06:46.000Z</time>
      </trkpt>
      <trkpt lat="43.91879" lon="7.23885">
        <ele>919.8</ele>
        <time>2012-09-15T14:06:49.000Z</time>
      </trkpt>
      <trkpt lat="43.9188" lon="7.23877">
        <ele>919.1</ele>
        <time>2012-09-15T14:06:52.000Z</time>
      </trkpt>
      <trkpt lat="43.91879" lon="7.23871">
        <ele>918.8</ele>
        <time>2012-09-15T14:06:55.000Z</time>
      </trkpt>
      <trkpt lat="43.91881" lon="7.23864">
        <ele>918.3</ele>
        <time>2012-09-15T14:06:58.000Z</time>
      </trkpt>
      <trkpt lat="43.91883" lon="7.23857">
        <ele>919.2</ele>
        <time>2012-09-15T14:07:01.000Z</time>
      </trkpt>
      <trkpt lat="43.91886" lon="7.2385">
        <ele>920.8</ele>
        <time>2012-09-15T14:07:04.000Z</time>
      </trkpt>
      <trkpt lat="43.91887" lon="7.23844">
        <ele>920.8</ele>
        <time>2012-09-15T14:07:07.000Z</time>
      </trkpt>
      <trkpt lat="43.91889" lon="7.23836">
        <ele>919.8</ele>
        <time>2012-09-15T14:07:11.000Z</time>
      </trkpt>
      <trkpt lat="43.91892" lon="7.23831">
        <ele>919.3</ele>
        <time>2012-09-15T14:07:13.000Z</time>
      </trkpt>
      <trkpt lat="43.91896" lon="7.23824">
        <ele>920.5</ele>
        <time>2012-09-15T14:07:17.000Z</time>
      </trkpt>
      <trkpt lat="43.919" lon="7.23819">
        <ele>920.6</ele>
        <time>2012-09-15T14:07:21.000Z</time>
      </trkpt>
      <trkpt lat="43.91905" lon="7.23818">
        <ele>918.1</ele>
        <time>2012-09-15T14:07:24.000Z</time>
      </trkpt>
      <trkpt lat="43.91908" lon="7.23812">
        <ele>919.5</ele>
        <time>2012-09-15T14:07:27.000Z</time>
      </trkpt>
      <trkpt lat="43.9191" lon="7.23804">
        <ele>920.7</ele>
        <time>2012-09-15T14:07:31.000Z</time>
      </trkpt>
      <trkpt lat="43.91914" lon="7.23801">
        <ele>920.4</ele>
        <time>2012-09-15T14:07:34.000Z</time>
      </trkpt>
      <trkpt lat="43.9192" lon="7.23797">
        <ele>920.5</ele>
        <time>2012-09-15T14:07:38.000Z</time>
      </trkpt>
      <trkpt lat="43.91922" lon="7.2379">
        <ele>921.4</ele>
        <time>2012-09-15T14:07:41.000Z</time>
      </trkpt>
      <trkpt lat="43.91925" lon="7.23785">
        <ele>922</ele>
        <time>2012-09-15T14:07:44.000Z</time>
      </trkpt>
      <trkpt lat="43.9193" lon="7.23781">
        <ele>922.5</ele>
        <time>2012-09-15T14:07:47.000Z</time>
      </trkpt>
      <trkpt lat="43.91934" lon="7.23777">
        <ele>923.1</ele>
        <time>2012-09-15T14:07:50.000Z</time>
      </trkpt>
      <trkpt lat="43.9194" lon="7.23774">
        <ele>922.7</ele>
        <time>2012-09-15T14:07:53.000Z</time>
      </trkpt>
      <trkpt lat="43.91944" lon="7.2377">
        <ele>922.9</ele>
        <time>2012-09-15T14:07:56.000Z</time>
      </trkpt>
      <trkpt lat="43.91948" lon="7.23767">
        <ele>922.5</ele>
        <time>2012-09-15T14:07:59.000Z</time>
      </trkpt>
      <trkpt lat="43.91954" lon="7.23768">
        <ele>923.9</ele>
        <time>2012-09-15T14:08:02.000Z</time>
      </trkpt>
      <trkpt lat="43.91959" lon="7.23769">
        <ele>924.3</ele>
        <time>2012-09-15T14:08:05.000Z</time>
      </trkpt>
      <trkpt lat="43.91964" lon="7.23768">
        <ele>926.4</ele>
        <time>2012-09-15T14:08:08.000Z</time>
      </trkpt>
      <trkpt lat="43.91969" lon="7.23767">
        <ele>926.8</ele>
        <time>2012-09-15T14:08:11.000Z</time>
      </trkpt>
      <trkpt lat="43.91974" lon="7.23764">
        <ele>926</ele>
        <time>2012-09-15T14:08:14.000Z</time>
      </trkpt>
      <trkpt lat="43.91978" lon="7.23759">
        <ele>926.5</ele>
        <time>2012-09-15T14:08:17.000Z</time>
      </trkpt>
      <trkpt lat="43.91981" lon="7.23754">
        <ele>926.1</ele>
        <time>2012-09-15T14:08:19.000Z</time>
      </trkpt>
      <trkpt lat="43.91985" lon="7.23747">
        <ele>926</ele>
        <time>2012-09-15T14:08:22.000Z</time>
      </trkpt>
      <trkpt lat="43.9199" lon="7.23742">
        <ele>926.7</ele>
        <time>2012-09-15T14:08:26.000Z</time>
      </trkpt>
      <trkpt lat="43.91986" lon="7.23736">
        <ele>925.9</ele>
        <time>2012-09-15T14:08:29.000Z</time>
      </trkpt>
      <trkpt lat="43.91985" lon="7.23729">
        <ele>925.5</ele>
        <time>2012-09-15T14:08:32.000Z</time>
      </trkpt>
      <trkpt lat="43.91987" lon="7.23723">
        <ele>926.8</ele>
        <time>2012-09-15T14:08:35.000Z</time>
      </trkpt>
      <trkpt lat="43.91985" lon="7.23718">
        <ele>928</ele>
        <time>2012-09-15T14:08:38.000Z</time>
      </trkpt>
      <trkpt lat="43.91982" lon="7.23711">
        <ele>929.1</ele>
        <time>2012-09-15T14:08:43.000Z</time>
      </trkpt>
      <trkpt lat="43.91983" lon="7.23704">
        <ele>929.4</ele>
        <time>2012-09-15T14:08:45.000Z</time>
      </trkpt>
      <trkpt lat="43.91984" lon="7.23696">
        <ele>929.1</ele>
        <time>2012-09-15T14:08:48.000Z</time>
      </trkpt>
      <trkpt lat="43.91984" lon="7.23689">
        <ele>930</ele>
        <time>2012-09-15T14:08:51.000Z</time>
      </trkpt>
      <trkpt lat="43.91984" lon="7.23682">
        <ele>930.8</ele>
        <time>2012-09-15T14:08:54.000Z</time>
      </trkpt>
      <trkpt lat="43.91985" lon="7.23674">
        <ele>931.5</ele>
        <time>2012-09-15T14:08:57.000Z</time>
      </trkpt>
      <trkpt lat="43.91987" lon="7.23667">
        <ele>931.7</ele>
        <time>2012-09-15T14:09:00.000Z</time>
      </trkpt>
      <trkpt lat="43.91989" lon="7.23661">
        <ele>931.8</ele>
        <time>2012-09-15T14:09:03.000Z</time>
      </trkpt>
      <trkpt lat="43.91989" lon="7.23654">
        <ele>931.9</ele>
        <time>2012-09-15T14:09:07.000Z</time>
      </trkpt>
      <trkpt lat="43.91989" lon="7.23646">
        <ele>932.9</ele>
        <time>2012-09-15T14:09:10.000Z</time>
      </trkpt>
      <trkpt lat="43.91991" lon="7.23639">
        <ele>933.8</ele>
        <time>2012-09-15T14:09:13.000Z</time>
      </trkpt>
      <trkpt lat="43.91989" lon="7.23633">
        <ele>934</ele>
        <time>2012-09-15T14:09:17.000Z</time>
      </trkpt>
      <trkpt lat="43.9199" lon="7.23626">
        <ele>934.4</ele>
        <time>2012-09-15T14:09:20.000Z</time>
      </trkpt>
      <trkpt lat="43.91988" lon="7.2362">
        <ele>935.1</ele>
        <time>2012-09-15T14:09:23.000Z</time>
      </trkpt>
      <trkpt lat="43.91984" lon="7.23614">
        <ele>935.4</ele>
        <time>2012-09-15T14:09:26.000Z</time>
      </trkpt>
      <trkpt lat="43.91978" lon="7.2361">
        <ele>937.3</ele>
        <time>2012-09-15T14:09:29.000Z</time>
      </trkpt>
      <trkpt lat="43.91973" lon="7.23607">
        <ele>937.1</ele>
        <time>2012-09-15T14:09:32.000Z</time>
      </trkpt>
      <trkpt lat="43.91967" lon="7.23606">
        <ele>941.7</ele>
        <time>2012-09-15T14:09:35.000Z</time>
      </trkpt>
      <trkpt lat="43.91962" lon="7.23604">
        <ele>943.3</ele>
        <time>2012-09-15T14:09:38.000Z</time>
      </trkpt>
      <trkpt lat="43.91956" lon="7.236">
        <ele>942.8</ele>
        <time>2012-09-15T14:09:41.000Z</time>
      </trkpt>
      <trkpt lat="43.91951" lon="7.23598">
        <ele>940.5</ele>
        <time>2012-09-15T14:09:44.000Z</time>
      </trkpt>
      <trkpt lat="43.91946" lon="7.23596">
        <ele>940</ele>
        <time>2012-09-15T14:09:47.000Z</time>
      </trkpt>
      <trkpt lat="43.91941" lon="7.23595">
        <ele>941.4</ele>
        <time>2012-09-15T14:09:50.000Z</time>
      </trkpt>
      <trkpt lat="43.91937" lon="7.23592">
        <ele>943.7</ele>
        <time>2012-09-15T14:09:53.000Z</time>
      </trkpt>
      <trkpt lat="43.91932" lon="7.23589">
        <ele>945.6</ele>
        <time>2012-09-15T14:09:57.000Z</time>
      </trkpt>
      <trkpt lat="43.91926" lon="7.23585">
        <ele>946.1</ele>
        <time>2012-09-15T14:10:00.000Z</time>
      </trkpt>
      <trkpt lat="43.9192" lon="7.23585">
        <ele>947.3</ele>
        <time>2012-09-15T14:10:03.000Z</time>
      </trkpt>
      <trkpt lat="43.91915" lon="7.23581">
        <ele>950.4</ele>
        <time>2012-09-15T14:10:07.000Z</time>
      </trkpt>
      <trkpt lat="43.91911" lon="7.23577">
        <ele>949.6</ele>
        <time>2012-09-15T14:10:10.000Z</time>
      </trkpt>
      <trkpt lat="43.91907" lon="7.23572">
        <ele>948.5</ele>
        <time>2012-09-15T14:10:12.000Z</time>
      </trkpt>
      <trkpt lat="43.91902" lon="7.23571">
        <ele>948</ele>
        <time>2012-09-15T14:10:15.000Z</time>
      </trkpt>
      <trkpt lat="43.91897" lon="7.23569">
        <ele>948.6</ele>
        <time>2012-09-15T14:10:17.000Z</time>
      </trkpt>
      <trkpt lat="43.91891" lon="7.23564">
        <ele>948.2</ele>
        <time>2012-09-15T14:10:21.000Z</time>
      </trkpt>
      <trkpt lat="43.91886" lon="7.23559">
        <ele>948.6</ele>
        <time>2012-09-15T14:10:24.000Z</time>
      </trkpt>
      <trkpt lat="43.91881" lon="7.23556">
        <ele>947.9</ele>
        <time>2012-09-15T14:10:28.000Z</time>
      </trkpt>
      <trkpt lat="43.91876" lon="7.23551">
        <ele>946.9</ele>
        <time>2012-09-15T14:10:32.000Z</time>
      </trkpt>
      <trkpt lat="43.91872" lon="7.23546">
        <ele>947.8</ele>
        <time>2012-09-15T14:10:35.000Z</time>
      </trkpt>
      <trkpt lat="43.91867" lon="7.23543">
        <ele>947.2</ele>
        <time>2012-09-15T14:10:38.000Z</time>
      </trkpt>
      <trkpt lat="43.91864" lon="7.23536">
        <ele>947.6</ele>
        <time>2012-09-15T14:10:42.000Z</time>
      </trkpt>
      <trkpt lat="43.9186" lon="7.23534">
        <ele>946.5</ele>
        <time>2012-09-15T14:10:45.000Z</time>
      </trkpt>
      <trkpt lat="43.91855" lon="7.23533">
        <ele>947</ele>
        <time>2012-09-15T14:10:48.000Z</time>
      </trkpt>
      <trkpt lat="43.91853" lon="7.23526">
        <ele>946.7</ele>
        <time>2012-09-15T14:10:52.000Z</time>
      </trkpt>
      <trkpt lat="43.9185" lon="7.2352">
        <ele>946.9</ele>
        <time>2012-09-15T14:10:55.000Z</time>
      </trkpt>
      <trkpt lat="43.91845" lon="7.23519">
        <ele>947.3</ele>
        <time>2012-09-15T14:10:58.000Z</time>
      </trkpt>
      <trkpt lat="43.9184" lon="7.23517">
        <ele>947.8</ele>
        <time>2012-09-15T14:11:01.000Z</time>
      </trkpt>
      <trkpt lat="43.91838" lon="7.23511">
        <ele>948</ele>
        <time>2012-09-15T14:11:04.000Z</time>
      </trkpt>
      <trkpt lat="43.91835" lon="7.23506">
        <ele>947.4</ele>
        <time>2012-09-15T14:11:06.000Z</time>
      </trkpt>
      <trkpt lat="43.91829" lon="7.23502">
        <ele>948.1</ele>
        <time>2012-09-15T14:11:10.000Z</time>
      </trkpt>
      <trkpt lat="43.91823" lon="7.235">
        <ele>948.9</ele>
        <time>2012-09-15T14:11:13.000Z</time>
      </trkpt>
      <trkpt lat="43.91819" lon="7.23496">
        <ele>949.8</ele>
        <time>2012-09-15T14:11:16.000Z</time>
      </trkpt>
      <trkpt lat="43.91816" lon="7.23492">
        <ele>948.1</ele>
        <time>2012-09-15T14:11:19.000Z</time>
      </trkpt>
      <trkpt lat="43.91811" lon="7.2349">
        <ele>947.9</ele>
        <time>2012-09-15T14:11:22.000Z</time>
      </trkpt>
      <trkpt lat="43.91806" lon="7.23492">
        <ele>949.4</ele>
        <time>2012-09-15T14:11:25.000Z</time>
      </trkpt>
      <trkpt lat="43.918" lon="7.23493">
        <ele>950.1</ele>
        <time>2012-09-15T14:11:29.000Z</time>
      </trkpt>
      <trkpt lat="43.91795" lon="7.23489">
        <ele>950.9</ele>
        <time>2012-09-15T14:11:32.000Z</time>
      </trkpt>
      <trkpt lat="43.9179" lon="7.23486">
        <ele>952.6</ele>
        <time>2012-09-15T14:11:35.000Z</time>
      </trkpt>
      <trkpt lat="43.91785" lon="7.23484">
        <ele>954.1</ele>
        <time>2012-09-15T14:11:39.000Z</time>
      </trkpt>
      <trkpt lat="43.9178" lon="7.23485">
        <ele>954</ele>
        <time>2012-09-15T14:11:42.000Z</time>
      </trkpt>
      <trkpt lat="43.91778" lon="7.23478">
        <ele>953.1</ele>
        <time>2012-09-15T14:11:45.000Z</time>
      </trkpt>
      <trkpt lat="43.91776" lon="7.23472">
        <ele>951.8</ele>
        <time>2012-09-15T14:11:48.000Z</time>
      </trkpt>
      <trkpt lat="43.91771" lon="7.23466">
        <ele>953</ele>
        <time>2012-09-15T14:11:51.000Z</time>
      </trkpt>
      <trkpt lat="43.91765" lon="7.23463">
        <ele>955.1</ele>
        <time>2012-09-15T14:11:54.000Z</time>
      </trkpt>
      <trkpt lat="43.9176" lon="7.23466">
        <ele>955.8</ele>
        <time>2012-09-15T14:11:56.000Z</time>
      </trkpt>
      <trkpt lat="43.91754" lon="7.23469">
        <ele>955.5</ele>
        <time>2012-09-15T14:11:58.000Z</time>
      </trkpt>
      <trkpt lat="43.9175" lon="7.23472">
        <ele>955.8</ele>
        <time>2012-09-15T14:12:00.000Z</time>
      </trkpt>
      <trkpt lat="43.91746" lon="7.23477">
        <ele>956.1</ele>
        <time>2012-09-15T14:12:01.000Z</time>
      </trkpt>
      <trkpt lat="43.91739" lon="7.23483">
        <ele>956.2</ele>
        <time>2012-09-15T14:12:03.000Z</time>
      </trkpt>
      <trkpt lat="43.91741" lon="7.23493">
        <ele>960.8</ele>
        <time>2012-09-15T14:12:05.000Z</time>
      </trkpt>
      <trkpt lat="43.9174" lon="7.23501">
        <ele>963.5</ele>
        <time>2012-09-15T14:12:08.000Z</time>
      </trkpt>
      <trkpt lat="43.91737" lon="7.23508">
        <ele>963.8</ele>
        <time>2012-09-15T14:12:10.000Z</time>
      </trkpt>
      <trkpt lat="43.91733" lon="7.2351">
        <ele>964.1</ele>
        <time>2012-09-15T14:12:12.000Z</time>
      </trkpt>
      <trkpt lat="43.91727" lon="7.23513">
        <ele>965</ele>
        <time>2012-09-15T14:12:15.000Z</time>
      </trkpt>
      <trkpt lat="43.91721" lon="7.23517">
        <ele>965</ele>
        <time>2012-09-15T14:12:18.000Z</time>
      </trkpt>
      <trkpt lat="43.91717" lon="7.23521">
        <ele>963.6</ele>
        <time>2012-09-15T14:12:20.000Z</time>
      </trkpt>
      <trkpt lat="43.91711" lon="7.23523">
        <ele>965.1</ele>
        <time>2012-09-15T14:12:24.000Z</time>
      </trkpt>
      <trkpt lat="43.91706" lon="7.23522">
        <ele>965.3</ele>
        <time>2012-09-15T14:12:27.000Z</time>
      </trkpt>
      <trkpt lat="43.91702" lon="7.23527">
        <ele>964</ele>
        <time>2012-09-15T14:12:29.000Z</time>
      </trkpt>
      <trkpt lat="43.91698" lon="7.23532">
        <ele>962.1</ele>
        <time>2012-09-15T14:12:32.000Z</time>
      </trkpt>
      <trkpt lat="43.91693" lon="7.23535">
        <ele>962.7</ele>
        <time>2012-09-15T14:12:36.000Z</time>
      </trkpt>
      <trkpt lat="43.91688" lon="7.23542">
        <ele>962.6</ele>
        <time>2012-09-15T14:12:40.000Z</time>
      </trkpt>
      <trkpt lat="43.91683" lon="7.23546">
        <ele>961.9</ele>
        <time>2012-09-15T14:12:43.000Z</time>
      </trkpt>
      <trkpt lat="43.91677" lon="7.23551">
        <ele>964.4</ele>
        <time>2012-09-15T14:12:47.000Z</time>
      </trkpt>
      <trkpt lat="43.91673" lon="7.23555">
        <ele>969.9</ele>
        <time>2012-09-15T14:12:51.000Z</time>
      </trkpt>
      <trkpt lat="43.9167" lon="7.2356">
        <ele>971.3</ele>
        <time>2012-09-15T14:12:54.000Z</time>
      </trkpt>
      <trkpt lat="43.91666" lon="7.23566">
        <ele>971.9</ele>
        <time>2012-09-15T14:12:57.000Z</time>
      </trkpt>
      <trkpt lat="43.91661" lon="7.2357">
        <ele>973.3</ele>
        <time>2012-09-15T14:13:00.000Z</time>
      </trkpt>
      <trkpt lat="43.91656" lon="7.23572">
        <ele>973.2</ele>
        <time>2012-09-15T14:13:03.000Z</time>
      </trkpt>
      <trkpt lat="43.91651" lon="7.23576">
        <ele>972.8</ele>
        <time>2012-09-15T14:13:06.000Z</time>
      </trkpt>
      <trkpt lat="43.91645" lon="7.23576">
        <ele>972.1</ele>
        <time>2012-09-15T14:13:10.000Z</time>
      </trkpt>
      <trkpt lat="43.9164" lon="7.23578">
        <ele>971.5</ele>
        <time>2012-09-15T14:13:13.000Z</time>
      </trkpt>
      <trkpt lat="43.91634" lon="7.23577">
        <ele>974.1</ele>
        <time>2012-09-15T14:13:16.000Z</time>
      </trkpt>
      <trkpt lat="43.9163" lon="7.23573">
        <ele>973.5</ele>
        <time>2012-09-15T14:13:19.000Z</time>
      </trkpt>
      <trkpt lat="43.91624" lon="7.23571">
        <ele>972.2</ele>
        <time>2012-09-15T14:13:23.000Z</time>
      </trkpt>
      <trkpt lat="43.91618" lon="7.23572">
        <ele>972</ele>
        <time>2012-09-15T14:13:26.000Z</time>
      </trkpt>
      <trkpt lat="43.91614" lon="7.23576">
        <ele>972</ele>
        <time>2012-09-15T14:13:28.000Z</time>
      </trkpt>
      <trkpt lat="43.91609" lon="7.23581">
        <ele>972.3</ele>
        <time>2012-09-15T14:13:30.000Z</time>
      </trkpt>
      <trkpt lat="43.91607" lon="7.23588">
        <ele>972.1</ele>
        <time>2012-09-15T14:13:31.000Z</time>
      </trkpt>
      <trkpt lat="43.91608" lon="7.23595">
        <ele>971.8</ele>
        <time>2012-09-15T14:13:35.000Z</time>
      </trkpt>
      <trkpt lat="43.91611" lon="7.236">
        <ele>972.4</ele>
        <time>2012-09-15T14:13:36.000Z</time>
      </trkpt>
      <trkpt lat="43.91605" lon="7.23608">
        <ele>969.7</ele>
        <time>2012-09-15T14:13:39.000Z</time>
      </trkpt>
      <trkpt lat="43.91603" lon="7.23614">
        <ele>973</ele>
        <time>2012-09-15T14:13:41.000Z</time>
      </trkpt>
      <trkpt lat="43.916" lon="7.23622">
        <ele>974.9</ele>
        <time>2012-09-15T14:13:44.000Z</time>
      </trkpt>
      <trkpt lat="43.916" lon="7.2363">
        <ele>974.8</ele>
        <time>2012-09-15T14:13:46.000Z</time>
      </trkpt>
      <trkpt lat="43.91598" lon="7.23636">
        <ele>975.2</ele>
        <time>2012-09-15T14:13:49.000Z</time>
      </trkpt>
      <trkpt lat="43.91593" lon="7.23642">
        <ele>976.7</ele>
        <time>2012-09-15T14:13:52.000Z</time>
      </trkpt>
      <trkpt lat="43.91593" lon="7.23648">
        <ele>977.5</ele>
        <time>2012-09-15T14:13:54.000Z</time>
      </trkpt>
      <trkpt lat="43.91588" lon="7.23656">
        <ele>977.5</ele>
        <time>2012-09-15T14:13:56.000Z</time>
      </trkpt>
      <trkpt lat="43.91583" lon="7.23656">
        <ele>962.2</ele>
        <time>2012-09-15T14:14:00.000Z</time>
      </trkpt>
      <trkpt lat="43.91581" lon="7.23662">
        <ele>963.3</ele>
        <time>2012-09-15T14:14:03.000Z</time>
      </trkpt>
      <trkpt lat="43.91576" lon="7.23663">
        <ele>962.6</ele>
        <time>2012-09-15T14:14:05.000Z</time>
      </trkpt>
      <trkpt lat="43.91569" lon="7.23668">
        <ele>962.6</ele>
        <time>2012-09-15T14:14:08.000Z</time>
      </trkpt>
      <trkpt lat="43.91564" lon="7.23668">
        <ele>963.4</ele>
        <time>2012-09-15T14:14:10.000Z</time>
      </trkpt>
      <trkpt lat="43.91558" lon="7.23671">
        <ele>963.7</ele>
        <time>2012-09-15T14:14:12.000Z</time>
      </trkpt>
      <trkpt lat="43.91552" lon="7.2367">
        <ele>963.5</ele>
        <time>2012-09-15T14:14:14.000Z</time>
      </trkpt>
      <trkpt lat="43.91547" lon="7.23671">
        <ele>958.8</ele>
        <time>2012-09-15T14:14:19.000Z</time>
      </trkpt>
      <trkpt lat="43.91542" lon="7.23669">
        <ele>958.3</ele>
        <time>2012-09-15T14:14:22.000Z</time>
      </trkpt>
      <trkpt lat="43.91535" lon="7.23669">
        <ele>960.6</ele>
        <time>2012-09-15T14:14:26.000Z</time>
      </trkpt>
      <trkpt lat="43.9153" lon="7.23668">
        <ele>968.3</ele>
        <time>2012-09-15T14:14:28.000Z</time>
      </trkpt>
      <trkpt lat="43.91524" lon="7.23664">
        <ele>970.7</ele>
        <time>2012-09-15T14:14:31.000Z</time>
      </trkpt>
      <trkpt lat="43.91517" lon="7.23665">
        <ele>971.3</ele>
        <time>2012-09-15T14:14:34.000Z</time>
      </trkpt>
      <trkpt lat="43.91512" lon="7.23666">
        <ele>973.7</ele>
        <time>2012-09-15T14:14:36.000Z</time>
      </trkpt>
      <trkpt lat="43.91507" lon="7.2367">
        <ele>973.7</ele>
        <time>2012-09-15T14:14:39.000Z</time>
      </trkpt>
      <trkpt lat="43.91505" lon="7.23682">
        <ele>977.3</ele>
        <time>2012-09-15T14:14:42.000Z</time>
      </trkpt>
      <trkpt lat="43.91501" lon="7.23687">
        <ele>977.8</ele>
        <time>2012-09-15T14:14:46.000Z</time>
      </trkpt>
      <trkpt lat="43.91502" lon="7.23694">
        <ele>977</ele>
        <time>2012-09-15T14:14:48.000Z</time>
      </trkpt>
      <trkpt lat="43.91496" lon="7.237">
        <ele>977.8</ele>
        <time>2012-09-15T14:14:50.000Z</time>
      </trkpt>
      <trkpt lat="43.91498" lon="7.23709">
        <ele>978.5</ele>
        <time>2012-09-15T14:14:52.000Z</time>
      </trkpt>
      <trkpt lat="43.91499" lon="7.23718">
        <ele>977.2</ele>
        <time>2012-09-15T14:14:55.000Z</time>
      </trkpt>
      <trkpt lat="43.915" lon="7.23725">
        <ele>978</ele>
        <time>2012-09-15T14:14:58.000Z</time>
      </trkpt>
      <trkpt lat="43.91496" lon="7.2373">
        <ele>979.4</ele>
        <time>2012-09-15T14:15:00.000Z</time>
      </trkpt>
      <trkpt lat="43.9149" lon="7.23732">
        <ele>978.2</ele>
        <time>2012-09-15T14:15:02.000Z</time>
      </trkpt>
      <trkpt lat="43.91485" lon="7.2373">
        <ele>983.9</ele>
        <time>2012-09-15T14:15:05.000Z</time>
      </trkpt>
      <trkpt lat="43.91479" lon="7.23732">
        <ele>982.3</ele>
        <time>2012-09-15T14:15:08.000Z</time>
      </trkpt>
      <trkpt lat="43.91474" lon="7.23736">
        <ele>982.3</ele>
        <time>2012-09-15T14:15:11.000Z</time>
      </trkpt>
      <trkpt lat="43.9147" lon="7.2374">
        <ele>983.8</ele>
        <time>2012-09-15T14:15:14.000Z</time>
      </trkpt>
      <trkpt lat="43.91465" lon="7.23744">
        <ele>983.7</ele>
        <time>2012-09-15T14:15:17.000Z</time>
      </trkpt>
      <trkpt lat="43.9146" lon="7.23751">
        <ele>981.9</ele>
        <time>2012-09-15T14:15:20.000Z</time>
      </trkpt>
      <trkpt lat="43.91458" lon="7.23759">
        <ele>985.6</ele>
        <time>2012-09-15T14:15:23.000Z</time>
      </trkpt>
      <trkpt lat="43.91457" lon="7.23768">
        <ele>985.9</ele>
        <time>2012-09-15T14:15:26.000Z</time>
      </trkpt>
      <trkpt lat="43.9146" lon="7.23774">
        <ele>985.3</ele>
        <time>2012-09-15T14:15:28.000Z</time>
      </trkpt>
      <trkpt lat="43.91462" lon="7.23781">
        <ele>986.3</ele>
        <time>2012-09-15T14:15:31.000Z</time>
      </trkpt>
      <trkpt lat="43.91465" lon="7.23785">
        <ele>985.6</ele>
        <time>2012-09-15T14:15:33.000Z</time>
      </trkpt>
      <trkpt lat="43.9147" lon="7.23791">
        <ele>981.5</ele>
        <time>2012-09-15T14:15:36.000Z</time>
      </trkpt>
      <trkpt lat="43.91472" lon="7.23797">
        <ele>980.8</ele>
        <time>2012-09-15T14:15:38.000Z</time>
      </trkpt>
      <trkpt lat="43.91475" lon="7.23805">
        <ele>981.5</ele>
        <time>2012-09-15T14:15:41.000Z</time>
      </trkpt>
      <trkpt lat="43.91478" lon="7.2381">
        <ele>972.1</ele>
        <time>2012-09-15T14:15:44.000Z</time>
      </trkpt>
      <trkpt lat="43.91478" lon="7.23816">
        <ele>970.9</ele>
        <time>2012-09-15T14:15:46.000Z</time>
      </trkpt>
      <trkpt lat="43.91479" lon="7.23824">
        <ele>971.7</ele>
        <time>2012-09-15T14:15:48.000Z</time>
      </trkpt>
      <trkpt lat="43.9148" lon="7.23831">
        <ele>971.6</ele>
        <time>2012-09-15T14:15:50.000Z</time>
      </trkpt>
      <trkpt lat="43.91479" lon="7.23837">
        <ele>971.3</ele>
        <time>2012-09-15T14:15:52.000Z</time>
      </trkpt>
      <trkpt lat="43.91477" lon="7.23845">
        <ele>969.7</ele>
        <time>2012-09-15T14:15:55.000Z</time>
      </trkpt>
      <trkpt lat="43.91475" lon="7.23852">
        <ele>970.5</ele>
        <time>2012-09-15T14:15:58.000Z</time>
      </trkpt>
      <trkpt lat="43.91473" lon="7.23858">
        <ele>968.9</ele>
        <time>2012-09-15T14:16:01.000Z</time>
      </trkpt>
      <trkpt lat="43.9147" lon="7.23865">
        <ele>969.1</ele>
        <time>2012-09-15T14:16:04.000Z</time>
      </trkpt>
      <trkpt lat="43.91469" lon="7.23873">
        <ele>970.7</ele>
        <time>2012-09-15T14:16:07.000Z</time>
      </trkpt>
      <trkpt lat="43.91466" lon="7.23879">
        <ele>971.7</ele>
        <time>2012-09-15T14:16:10.000Z</time>
      </trkpt>
      <trkpt lat="43.91464" lon="7.23887">
        <ele>973.4</ele>
        <time>2012-09-15T14:16:13.000Z</time>
      </trkpt>
      <trkpt lat="43.91461" lon="7.23894">
        <ele>976.4</ele>
        <time>2012-09-15T14:16:16.000Z</time>
      </trkpt>
      <trkpt lat="43.91458" lon="7.23902">
        <ele>977.8</ele>
        <time>2012-09-15T14:16:19.000Z</time>
      </trkpt>
      <trkpt lat="43.91454" lon="7.23907">
        <ele>977.4</ele>
        <time>2012-09-15T14:16:22.000Z</time>
      </trkpt>
      <trkpt lat="43.9145" lon="7.23903">
        <ele>977.7</ele>
        <time>2012-09-15T14:16:24.000Z</time>
      </trkpt>
      <trkpt lat="43.9145" lon="7.23895">
        <ele>978.7</ele>
        <time>2012-09-15T14:16:27.000Z</time>
      </trkpt>
      <trkpt lat="43.91453" lon="7.23889">
        <ele>979</ele>
        <time>2012-09-15T14:16:31.000Z</time>
      </trkpt>
      <trkpt lat="43.91457" lon="7.23884">
        <ele>980.2</ele>
        <time>2012-09-15T14:16:34.000Z</time>
      </trkpt>
      <trkpt lat="43.91461" lon="7.23876">
        <ele>982.7</ele>
        <time>2012-09-15T14:16:38.000Z</time>
      </trkpt>
      <trkpt lat="43.91462" lon="7.2387">
        <ele>982.5</ele>
        <time>2012-09-15T14:16:41.000Z</time>
      </trkpt>
      <trkpt lat="43.91464" lon="7.23863">
        <ele>984.7</ele>
        <time>2012-09-15T14:16:45.000Z</time>
      </trkpt>
      <trkpt lat="43.91464" lon="7.23854">
        <ele>985.9</ele>
        <time>2012-09-15T14:16:48.000Z</time>
      </trkpt>
      <trkpt lat="43.91467" lon="7.23849">
        <ele>988.3</ele>
        <time>2012-09-15T14:16:51.000Z</time>
      </trkpt>
      <trkpt lat="43.91466" lon="7.23842">
        <ele>987.6</ele>
        <time>2012-09-15T14:16:54.000Z</time>
      </trkpt>
      <trkpt lat="43.91464" lon="7.23836">
        <ele>988.2</ele>
        <time>2012-09-15T14:16:57.000Z</time>
      </trkpt>
      <trkpt lat="43.91461" lon="7.23832">
        <ele>989.7</ele>
        <time>2012-09-15T14:17:00.000Z</time>
      </trkpt>
      <trkpt lat="43.91457" lon="7.23826">
        <ele>989.1</ele>
        <time>2012-09-15T14:17:03.000Z</time>
      </trkpt>
      <trkpt lat="43.91454" lon="7.23819">
        <ele>989.9</ele>
        <time>2012-09-15T14:17:06.000Z</time>
      </trkpt>
      <trkpt lat="43.91451" lon="7.23814">
        <ele>992.1</ele>
        <time>2012-09-15T14:17:10.000Z</time>
      </trkpt>
      <trkpt lat="43.91448" lon="7.23807">
        <ele>992.3</ele>
        <time>2012-09-15T14:17:13.000Z</time>
      </trkpt>
      <trkpt lat="43.91444" lon="7.23802">
        <ele>992.3</ele>
        <time>2012-09-15T14:17:16.000Z</time>
      </trkpt>
      <trkpt lat="43.91441" lon="7.23797">
        <ele>994.2</ele>
        <time>2012-09-15T14:17:18.000Z</time>
      </trkpt>
      <trkpt lat="43.91436" lon="7.2379">
        <ele>994</ele>
        <time>2012-09-15T14:17:22.000Z</time>
      </trkpt>
      <trkpt lat="43.91436" lon="7.23782">
        <ele>997.2</ele>
        <time>2012-09-15T14:17:23.000Z</time>
      </trkpt>
      <trkpt lat="43.91434" lon="7.23772">
        <ele>999.1</ele>
        <time>2012-09-15T14:17:26.000Z</time>
      </trkpt>
      <trkpt lat="43.91433" lon="7.23765">
        <ele>1000.1</ele>
        <time>2012-09-15T14:17:27.000Z</time>
      </trkpt>
      <trkpt lat="43.91433" lon="7.23755">
        <ele>1004.8</ele>
        <time>2012-09-15T14:17:30.000Z</time>
      </trkpt>
      <trkpt lat="43.91436" lon="7.23748">
        <ele>1003.4</ele>
        <time>2012-09-15T14:17:32.000Z</time>
      </trkpt>
      <trkpt lat="43.91437" lon="7.23741">
        <ele>1003.3</ele>
        <time>2012-09-15T14:17:34.000Z</time>
      </trkpt>
      <trkpt lat="43.91442" lon="7.23735">
        <ele>1003.1</ele>
        <time>2012-09-15T14:17:38.000Z</time>
      </trkpt>
      <trkpt lat="43.91446" lon="7.2373">
        <ele>1003.7</ele>
        <time>2012-09-15T14:17:40.000Z</time>
      </trkpt>
      <trkpt lat="43.91452" lon="7.23722">
        <ele>1005.3</ele>
        <time>2012-09-15T14:17:42.000Z</time>
      </trkpt>
      <trkpt lat="43.91456" lon="7.23718">
        <ele>1005.6</ele>
        <time>2012-09-15T14:17:44.000Z</time>
      </trkpt>
      <trkpt lat="43.91462" lon="7.23719">
        <ele>1005.8</ele>
        <time>2012-09-15T14:17:46.000Z</time>
      </trkpt>
      <trkpt lat="43.91463" lon="7.23711">
        <ele>1006.9</ele>
        <time>2012-09-15T14:17:49.000Z</time>
      </trkpt>
      <trkpt lat="43.91464" lon="7.23704">
        <ele>1005</ele>
        <time>2012-09-15T14:17:51.000Z</time>
      </trkpt>
      <trkpt lat="43.91465" lon="7.23698">
        <ele>1006.3</ele>
        <time>2012-09-15T14:17:53.000Z</time>
      </trkpt>
      <trkpt lat="43.91466" lon="7.23692">
        <ele>1003.9</ele>
        <time>2012-09-15T14:17:55.000Z</time>
      </trkpt>
      <trkpt lat="43.91467" lon="7.23684">
        <ele>1004.8</ele>
        <time>2012-09-15T14:17:58.000Z</time>
      </trkpt>
      <trkpt lat="43.91467" lon="7.23676">
        <ele>1004.5</ele>
        <time>2012-09-15T14:18:01.000Z</time>
      </trkpt>
      <trkpt lat="43.9147" lon="7.23669">
        <ele>1003.5</ele>
        <time>2012-09-15T14:18:04.000Z</time>
      </trkpt>
      <trkpt lat="43.91472" lon="7.23662">
        <ele>1004</ele>
        <time>2012-09-15T14:18:06.000Z</time>
      </trkpt>
      <trkpt lat="43.91469" lon="7.23655">
        <ele>1001.7</ele>
        <time>2012-09-15T14:18:08.000Z</time>
      </trkpt>
      <trkpt lat="43.91467" lon="7.23645">
        <ele>1001.6</ele>
        <time>2012-09-15T14:18:11.000Z</time>
      </trkpt>
      <trkpt lat="43.91465" lon="7.23638">
        <ele>1003.4</ele>
        <time>2012-09-15T14:18:14.000Z</time>
      </trkpt>
      <trkpt lat="43.91464" lon="7.23629">
        <ele>1003.9</ele>
        <time>2012-09-15T14:18:17.000Z</time>
      </trkpt>
      <trkpt lat="43.91464" lon="7.2362">
        <ele>1004.6</ele>
        <time>2012-09-15T14:18:20.000Z</time>
      </trkpt>
      <trkpt lat="43.91463" lon="7.23614">
        <ele>1005.2</ele>
        <time>2012-09-15T14:18:22.000Z</time>
      </trkpt>
      <trkpt lat="43.91461" lon="7.23606">
        <ele>1002.4</ele>
        <time>2012-09-15T14:18:24.000Z</time>
      </trkpt>
      <trkpt lat="43.91462" lon="7.23598">
        <ele>1002.1</ele>
        <time>2012-09-15T14:18:26.000Z</time>
      </trkpt>
      <trkpt lat="43.91464" lon="7.23591">
        <ele>1003.9</ele>
        <time>2012-09-15T14:18:28.000Z</time>
      </trkpt>
      <trkpt lat="43.91467" lon="7.23584">
        <ele>1004.8</ele>
        <time>2012-09-15T14:18:30.000Z</time>
      </trkpt>
      <trkpt lat="43.91473" lon="7.23581">
        <ele>1007.1</ele>
        <time>2012-09-15T14:18:34.000Z</time>
      </trkpt>
      <trkpt lat="43.91481" lon="7.23585">
        <ele>1007.6</ele>
        <time>2012-09-15T14:18:36.000Z</time>
      </trkpt>
      <trkpt lat="43.9149" lon="7.23593">
        <ele>1005.5</ele>
        <time>2012-09-15T14:18:38.000Z</time>
      </trkpt>
      <trkpt lat="43.91495" lon="7.23598">
        <ele>1004.9</ele>
        <time>2012-09-15T14:18:41.000Z</time>
      </trkpt>
      <trkpt lat="43.91502" lon="7.23598">
        <ele>1005.8</ele>
        <time>2012-09-15T14:18:44.000Z</time>
      </trkpt>
      <trkpt lat="43.9151" lon="7.23597">
        <ele>1001.2</ele>
        <time>2012-09-15T14:18:47.000Z</time>
      </trkpt>
      <trkpt lat="43.91515" lon="7.23596">
        <ele>999.9</ele>
        <time>2012-09-15T14:18:49.000Z</time>
      </trkpt>
      <trkpt lat="43.9152" lon="7.23595">
        <ele>999.8</ele>
        <time>2012-09-15T14:18:51.000Z</time>
      </trkpt>
      <trkpt lat="43.91526" lon="7.23591">
        <ele>998.8</ele>
        <time>2012-09-15T14:18:54.000Z</time>
      </trkpt>
      <trkpt lat="43.9153" lon="7.23592">
        <ele>999.9</ele>
        <time>2012-09-15T14:18:57.000Z</time>
      </trkpt>
      <trkpt lat="43.91536" lon="7.23587">
        <ele>1003.6</ele>
        <time>2012-09-15T14:19:00.000Z</time>
      </trkpt>
      <trkpt lat="43.91538" lon="7.2358">
        <ele>1005.5</ele>
        <time>2012-09-15T14:19:04.000Z</time>
      </trkpt>
      <trkpt lat="43.9154" lon="7.23572">
        <ele>1004.8</ele>
        <time>2012-09-15T14:19:07.000Z</time>
      </trkpt>
      <trkpt lat="43.9154" lon="7.23563">
        <ele>1005.1</ele>
        <time>2012-09-15T14:19:10.000Z</time>
      </trkpt>
      <trkpt lat="43.91543" lon="7.23555">
        <ele>1006.1</ele>
        <time>2012-09-15T14:19:14.000Z</time>
      </trkpt>
      <trkpt lat="43.91545" lon="7.23549">
        <ele>1007</ele>
        <time>2012-09-15T14:19:16.000Z</time>
      </trkpt>
      <trkpt lat="43.91546" lon="7.23543">
        <ele>1007.5</ele>
        <time>2012-09-15T14:19:19.000Z</time>
      </trkpt>
      <trkpt lat="43.91543" lon="7.23538">
        <ele>1005.1</ele>
        <time>2012-09-15T14:19:21.000Z</time>
      </trkpt>
      <trkpt lat="43.91539" lon="7.2353">
        <ele>1003.2</ele>
        <time>2012-09-15T14:19:23.000Z</time>
      </trkpt>
      <trkpt lat="43.91541" lon="7.23523">
        <ele>1002.4</ele>
        <time>2012-09-15T14:19:26.000Z</time>
      </trkpt>
      <trkpt lat="43.91541" lon="7.23514">
        <ele>1001.5</ele>
        <time>2012-09-15T14:19:29.000Z</time>
      </trkpt>
      <trkpt lat="43.91541" lon="7.23506">
        <ele>1001.7</ele>
        <time>2012-09-15T14:19:31.000Z</time>
      </trkpt>
      <trkpt lat="43.9154" lon="7.23497">
        <ele>996.8</ele>
        <time>2012-09-15T14:19:33.000Z</time>
      </trkpt>
      <trkpt lat="43.91541" lon="7.23489">
        <ele>997.4</ele>
        <time>2012-09-15T14:19:36.000Z</time>
      </trkpt>
      <trkpt lat="43.91546" lon="7.23481">
        <ele>997.1</ele>
        <time>2012-09-15T14:19:39.000Z</time>
      </trkpt>
      <trkpt lat="43.91548" lon="7.23473">
        <ele>997</ele>
        <time>2012-09-15T14:19:42.000Z</time>
      </trkpt>
      <trkpt lat="43.91554" lon="7.23467">
        <ele>1001.9</ele>
        <time>2012-09-15T14:19:44.000Z</time>
      </trkpt>
      <trkpt lat="43.91555" lon="7.23461">
        <ele>1004.6</ele>
        <time>2012-09-15T14:19:46.000Z</time>
      </trkpt>
      <trkpt lat="43.91562" lon="7.23458">
        <ele>1006.3</ele>
        <time>2012-09-15T14:19:49.000Z</time>
      </trkpt>
      <trkpt lat="43.91567" lon="7.23464">
        <ele>1008.1</ele>
        <time>2012-09-15T14:19:50.000Z</time>
      </trkpt>
      <trkpt lat="43.91571" lon="7.23467">
        <ele>1009.3</ele>
        <time>2012-09-15T14:19:51.000Z</time>
      </trkpt>
      <trkpt lat="43.91576" lon="7.23469">
        <ele>1007.9</ele>
        <time>2012-09-15T14:19:53.000Z</time>
      </trkpt>
      <trkpt lat="43.91581" lon="7.23471">
        <ele>1009.3</ele>
        <time>2012-09-15T14:19:55.000Z</time>
      </trkpt>
      <trkpt lat="43.91586" lon="7.23471">
        <ele>1011.7</ele>
        <time>2012-09-15T14:19:57.000Z</time>
      </trkpt>
      <trkpt lat="43.91591" lon="7.23471">
        <ele>1012.2</ele>
        <time>2012-09-15T14:19:59.000Z</time>
      </trkpt>
      <trkpt lat="43.91596" lon="7.2347">
        <ele>1011.5</ele>
        <time>2012-09-15T14:20:01.000Z</time>
      </trkpt>
      <trkpt lat="43.91602" lon="7.23468">
        <ele>1011.5</ele>
        <time>2012-09-15T14:20:04.000Z</time>
      </trkpt>
      <trkpt lat="43.91607" lon="7.23463">
        <ele>1012.3</ele>
        <time>2012-09-15T14:20:06.000Z</time>
      </trkpt>
      <trkpt lat="43.91611" lon="7.2346">
        <ele>1013.8</ele>
        <time>2012-09-15T14:20:08.000Z</time>
      </trkpt>
      <trkpt lat="43.91616" lon="7.23454">
        <ele>1009.2</ele>
        <time>2012-09-15T14:20:11.000Z</time>
      </trkpt>
      <trkpt lat="43.91618" lon="7.23446">
        <ele>1011.1</ele>
        <time>2012-09-15T14:20:14.000Z</time>
      </trkpt>
      <trkpt lat="43.9162" lon="7.2344">
        <ele>1013.3</ele>
        <time>2012-09-15T14:20:17.000Z</time>
      </trkpt>
      <trkpt lat="43.91625" lon="7.23441">
        <ele>1014.5</ele>
        <time>2012-09-15T14:20:20.000Z</time>
      </trkpt>
      <trkpt lat="43.91626" lon="7.23435">
        <ele>1020.9</ele>
        <time>2012-09-15T14:20:22.000Z</time>
      </trkpt>
      <trkpt lat="43.91627" lon="7.23427">
        <ele>1024.4</ele>
        <time>2012-09-15T14:20:25.000Z</time>
      </trkpt>
      <trkpt lat="43.91631" lon="7.23422">
        <ele>1027</ele>
        <time>2012-09-15T14:20:28.000Z</time>
      </trkpt>
      <trkpt lat="43.91634" lon="7.23414">
        <ele>1028.5</ele>
        <time>2012-09-15T14:20:31.000Z</time>
      </trkpt>
      <trkpt lat="43.91639" lon="7.23409">
        <ele>1028.7</ele>
        <time>2012-09-15T14:20:34.000Z</time>
      </trkpt>
      <trkpt lat="43.91643" lon="7.23404">
        <ele>1030.2</ele>
        <time>2012-09-15T14:20:36.000Z</time>
      </trkpt>
      <trkpt lat="43.91646" lon="7.23398">
        <ele>1032</ele>
        <time>2012-09-15T14:20:38.000Z</time>
      </trkpt>
      <trkpt lat="43.91649" lon="7.2339">
        <ele>1033.2</ele>
        <time>2012-09-15T14:20:42.000Z</time>
      </trkpt>
      <trkpt lat="43.91657" lon="7.23388">
        <ele>1034.6</ele>
        <time>2012-09-15T14:20:44.000Z</time>
      </trkpt>
      <trkpt lat="43.91663" lon="7.23383">
        <ele>1035.9</ele>
        <time>2012-09-15T14:20:49.000Z</time>
      </trkpt>
      <trkpt lat="43.91666" lon="7.23378">
        <ele>1041.8</ele>
        <time>2012-09-15T14:20:52.000Z</time>
      </trkpt>
      <trkpt lat="43.91671" lon="7.23372">
        <ele>1041.2</ele>
        <time>2012-09-15T14:20:55.000Z</time>
      </trkpt>
      <trkpt lat="43.91674" lon="7.23368">
        <ele>1041.1</ele>
        <time>2012-09-15T14:20:57.000Z</time>
      </trkpt>
      <trkpt lat="43.9168" lon="7.23363">
        <ele>1043.2</ele>
        <time>2012-09-15T14:21:01.000Z</time>
      </trkpt>
      <trkpt lat="43.91684" lon="7.23358">
        <ele>1044.2</ele>
        <time>2012-09-15T14:21:03.000Z</time>
      </trkpt>
      <trkpt lat="43.91688" lon="7.23352">
        <ele>1045.7</ele>
        <time>2012-09-15T14:21:05.000Z</time>
      </trkpt>
      <trkpt lat="43.91691" lon="7.23347">
        <ele>1047.8</ele>
        <time>2012-09-15T14:21:07.000Z</time>
      </trkpt>
      <trkpt lat="43.91697" lon="7.23343">
        <ele>1050.3</ele>
        <time>2012-09-15T14:21:10.000Z</time>
      </trkpt>
      <trkpt lat="43.91701" lon="7.23339">
        <ele>1052.2</ele>
        <time>2012-09-15T14:21:12.000Z</time>
      </trkpt>
      <trkpt lat="43.91706" lon="7.23334">
        <ele>1053.3</ele>
        <time>2012-09-15T14:21:15.000Z</time>
      </trkpt>
      <trkpt lat="43.91712" lon="7.23331">
        <ele>1055.3</ele>
        <time>2012-09-15T14:21:18.000Z</time>
      </trkpt>
      <trkpt lat="43.91716" lon="7.23326">
        <ele>1055.5</ele>
        <time>2012-09-15T14:21:20.000Z</time>
      </trkpt>
      <trkpt lat="43.9172" lon="7.23319">
        <ele>1054.9</ele>
        <time>2012-09-15T14:21:23.000Z</time>
      </trkpt>
      <trkpt lat="43.91723" lon="7.23311">
        <ele>1049.5</ele>
        <time>2012-09-15T14:21:25.000Z</time>
      </trkpt>
      <trkpt lat="43.91726" lon="7.23306">
        <ele>1047.2</ele>
        <time>2012-09-15T14:21:27.000Z</time>
      </trkpt>
      <trkpt lat="43.91728" lon="7.23298">
        <ele>1046.9</ele>
        <time>2012-09-15T14:21:30.000Z</time>
      </trkpt>
      <trkpt lat="43.91732" lon="7.23293">
        <ele>1045.7</ele>
        <time>2012-09-15T14:21:32.000Z</time>
      </trkpt>
      <trkpt lat="43.91735" lon="7.23288">
        <ele>1042.5</ele>
        <time>2012-09-15T14:21:34.000Z</time>
      </trkpt>
      <trkpt lat="43.91738" lon="7.23283">
        <ele>1039.4</ele>
        <time>2012-09-15T14:21:36.000Z</time>
      </trkpt>
      <trkpt lat="43.9174" lon="7.23277">
        <ele>1037.5</ele>
        <time>2012-09-15T14:21:38.000Z</time>
      </trkpt>
      <trkpt lat="43.91743" lon="7.23271">
        <ele>1035.3</ele>
        <time>2012-09-15T14:21:40.000Z</time>
      </trkpt>
      <trkpt lat="43.91746" lon="7.23265">
        <ele>1033.3</ele>
        <time>2012-09-15T14:21:42.000Z</time>
      </trkpt>
      <trkpt lat="43.91746" lon="7.23258">
        <ele>1034.5</ele>
        <time>2012-09-15T14:21:44.000Z</time>
      </trkpt>
      <trkpt lat="43.91751" lon="7.23251">
        <ele>1034.5</ele>
        <time>2012-09-15T14:21:47.000Z</time>
      </trkpt>
      <trkpt lat="43.91754" lon="7.23244">
        <ele>1034.3</ele>
        <time>2012-09-15T14:21:50.000Z</time>
      </trkpt>
      <trkpt lat="43.91756" lon="7.23237">
        <ele>1033.1</ele>
        <time>2012-09-15T14:21:53.000Z</time>
      </trkpt>
      <trkpt lat="43.91751" lon="7.23235">
        <ele>1032.4</ele>
        <time>2012-09-15T14:21:57.000Z</time>
      </trkpt>
      <trkpt lat="43.91746" lon="7.23239">
        <ele>1031.8</ele>
        <time>2012-09-15T14:21:59.000Z</time>
      </trkpt>
      <trkpt lat="43.91742" lon="7.23245">
        <ele>1032.7</ele>
        <time>2012-09-15T14:22:02.000Z</time>
      </trkpt>
      <trkpt lat="43.91737" lon="7.23252">
        <ele>1031.7</ele>
        <time>2012-09-15T14:22:05.000Z</time>
      </trkpt>
      <trkpt lat="43.91732" lon="7.23258">
        <ele>1033</ele>
        <time>2012-09-15T14:22:08.000Z</time>
      </trkpt>
      <trkpt lat="43.91728" lon="7.23262">
        <ele>1033.7</ele>
        <time>2012-09-15T14:22:10.000Z</time>
      </trkpt>
      <trkpt lat="43.91722" lon="7.23268">
        <ele>1037.2</ele>
        <time>2012-09-15T14:22:12.000Z</time>
      </trkpt>
      <trkpt lat="43.91719" lon="7.23273">
        <ele>1035.7</ele>
        <time>2012-09-15T14:22:14.000Z</time>
      </trkpt>
      <trkpt lat="43.91715" lon="7.23278">
        <ele>1035.7</ele>
        <time>2012-09-15T14:22:16.000Z</time>
      </trkpt>
      <trkpt lat="43.91709" lon="7.23285">
        <ele>1035.3</ele>
        <time>2012-09-15T14:22:18.000Z</time>
      </trkpt>
      <trkpt lat="43.91706" lon="7.23292">
        <ele>1033</ele>
        <time>2012-09-15T14:22:21.000Z</time>
      </trkpt>
      <trkpt lat="43.91702" lon="7.233">
        <ele>1032.6</ele>
        <time>2012-09-15T14:22:23.000Z</time>
      </trkpt>
      <trkpt lat="43.91699" lon="7.23305">
        <ele>1032.3</ele>
        <time>2012-09-15T14:22:25.000Z</time>
      </trkpt>
      <trkpt lat="43.91693" lon="7.23308">
        <ele>1031.2</ele>
        <time>2012-09-15T14:22:28.000Z</time>
      </trkpt>
      <trkpt lat="43.9169" lon="7.23312">
        <ele>1031.6</ele>
        <time>2012-09-15T14:22:30.000Z</time>
      </trkpt>
      <trkpt lat="43.91685" lon="7.23314">
        <ele>1032.3</ele>
        <time>2012-09-15T14:22:32.000Z</time>
      </trkpt>
      <trkpt lat="43.91678" lon="7.23317">
        <ele>1033.9</ele>
        <time>2012-09-15T14:22:35.000Z</time>
      </trkpt>
      <trkpt lat="43.91674" lon="7.2332">
        <ele>1034.3</ele>
        <time>2012-09-15T14:22:37.000Z</time>
      </trkpt>
      <trkpt lat="43.9167" lon="7.23325">
        <ele>1034.7</ele>
        <time>2012-09-15T14:22:39.000Z</time>
      </trkpt>
      <trkpt lat="43.91664" lon="7.23329">
        <ele>1032.7</ele>
        <time>2012-09-15T14:22:42.000Z</time>
      </trkpt>
      <trkpt lat="43.91658" lon="7.23332">
        <ele>1032.8</ele>
        <time>2012-09-15T14:22:45.000Z</time>
      </trkpt>
      <trkpt lat="43.91653" lon="7.23335">
        <ele>1031.9</ele>
        <time>2012-09-15T14:22:48.000Z</time>
      </trkpt>
      <trkpt lat="43.91649" lon="7.2334">
        <ele>1032.1</ele>
        <time>2012-09-15T14:22:50.000Z</time>
      </trkpt>
      <trkpt lat="43.91644" lon="7.23343">
        <ele>1025.9</ele>
        <time>2012-09-15T14:22:53.000Z</time>
      </trkpt>
      <trkpt lat="43.9164" lon="7.23348">
        <ele>1023</ele>
        <time>2012-09-15T14:22:56.000Z</time>
      </trkpt>
      <trkpt lat="43.91634" lon="7.23353">
        <ele>1022</ele>
        <time>2012-09-15T14:22:59.000Z</time>
      </trkpt>
      <trkpt lat="43.9163" lon="7.23358">
        <ele>1022.8</ele>
        <time>2012-09-15T14:23:01.000Z</time>
      </trkpt>
      <trkpt lat="43.91627" lon="7.23363">
        <ele>1022.5</ele>
        <time>2012-09-15T14:23:03.000Z</time>
      </trkpt>
      <trkpt lat="43.91624" lon="7.23368">
        <ele>1023.8</ele>
        <time>2012-09-15T14:23:05.000Z</time>
      </trkpt>
      <trkpt lat="43.9162" lon="7.23376">
        <ele>1025</ele>
        <time>2012-09-15T14:23:07.000Z</time>
      </trkpt>
      <trkpt lat="43.91615" lon="7.23377">
        <ele>1025.3</ele>
        <time>2012-09-15T14:23:09.000Z</time>
      </trkpt>
      <trkpt lat="43.9161" lon="7.23383">
        <ele>1024.9</ele>
        <time>2012-09-15T14:23:12.000Z</time>
      </trkpt>
      <trkpt lat="43.91607" lon="7.23389">
        <ele>1025.4</ele>
        <time>2012-09-15T14:23:14.000Z</time>
      </trkpt>
      <trkpt lat="43.91603" lon="7.23393">
        <ele>1026.1</ele>
        <time>2012-09-15T14:23:17.000Z</time>
      </trkpt>
      <trkpt lat="43.91599" lon="7.23397">
        <ele>1027</ele>
        <time>2012-09-15T14:23:19.000Z</time>
      </trkpt>
      <trkpt lat="43.91594" lon="7.23399">
        <ele>1027.5</ele>
        <time>2012-09-15T14:23:21.000Z</time>
      </trkpt>
      <trkpt lat="43.91588" lon="7.234">
        <ele>1029.8</ele>
        <time>2012-09-15T14:23:24.000Z</time>
      </trkpt>
      <trkpt lat="43.91582" lon="7.23402">
        <ele>1029.2</ele>
        <time>2012-09-15T14:23:27.000Z</time>
      </trkpt>
      <trkpt lat="43.91577" lon="7.23399">
        <ele>1029.4</ele>
        <time>2012-09-15T14:23:30.000Z</time>
      </trkpt>
      <trkpt lat="43.91572" lon="7.23397">
        <ele>1029.8</ele>
        <time>2012-09-15T14:23:32.000Z</time>
      </trkpt>
      <trkpt lat="43.91566" lon="7.23392">
        <ele>1032.8</ele>
        <time>2012-09-15T14:23:35.000Z</time>
      </trkpt>
      <trkpt lat="43.9156" lon="7.23384">
        <ele>1034</ele>
        <time>2012-09-15T14:23:37.000Z</time>
      </trkpt>
      <trkpt lat="43.91554" lon="7.23378">
        <ele>1038.5</ele>
        <time>2012-09-15T14:23:41.000Z</time>
      </trkpt>
      <trkpt lat="43.91548" lon="7.23376">
        <ele>1039.8</ele>
        <time>2012-09-15T14:23:44.000Z</time>
      </trkpt>
      <trkpt lat="43.91542" lon="7.23379">
        <ele>1043.3</ele>
        <time>2012-09-15T14:23:47.000Z</time>
      </trkpt>
      <trkpt lat="43.91537" lon="7.23382">
        <ele>1043.2</ele>
        <time>2012-09-15T14:23:49.000Z</time>
      </trkpt>
      <trkpt lat="43.91533" lon="7.23387">
        <ele>1045.9</ele>
        <time>2012-09-15T14:23:51.000Z</time>
      </trkpt>
      <trkpt lat="43.91529" lon="7.23394">
        <ele>1047.8</ele>
        <time>2012-09-15T14:23:53.000Z</time>
      </trkpt>
      <trkpt lat="43.91526" lon="7.234">
        <ele>1046.4</ele>
        <time>2012-09-15T14:23:55.000Z</time>
      </trkpt>
      <trkpt lat="43.91523" lon="7.23407">
        <ele>1045.9</ele>
        <time>2012-09-15T14:23:58.000Z</time>
      </trkpt>
      <trkpt lat="43.91521" lon="7.23414">
        <ele>1045.1</ele>
        <time>2012-09-15T14:24:00.000Z</time>
      </trkpt>
      <trkpt lat="43.91518" lon="7.23423">
        <ele>1044</ele>
        <time>2012-09-15T14:24:03.000Z</time>
      </trkpt>
      <trkpt lat="43.91517" lon="7.23431">
        <ele>1043.4</ele>
        <time>2012-09-15T14:24:05.000Z</time>
      </trkpt>
      <trkpt lat="43.91514" lon="7.23439">
        <ele>1042.3</ele>
        <time>2012-09-15T14:24:07.000Z</time>
      </trkpt>
      <trkpt lat="43.9151" lon="7.23444">
        <ele>1040.8</ele>
        <time>2012-09-15T14:24:09.000Z</time>
      </trkpt>
      <trkpt lat="43.91509" lon="7.23451">
        <ele>1036</ele>
        <time>2012-09-15T14:24:12.000Z</time>
      </trkpt>
      <trkpt lat="43.9151" lon="7.23458">
        <ele>1034.9</ele>
        <time>2012-09-15T14:24:14.000Z</time>
      </trkpt>
      <trkpt lat="43.91507" lon="7.23463">
        <ele>1035.5</ele>
        <time>2012-09-15T14:24:16.000Z</time>
      </trkpt>
      <trkpt lat="43.91505" lon="7.2347">
        <ele>1033.8</ele>
        <time>2012-09-15T14:24:19.000Z</time>
      </trkpt>
      <trkpt lat="43.91501" lon="7.23476">
        <ele>1034.2</ele>
        <time>2012-09-15T14:24:23.000Z</time>
      </trkpt>
      <trkpt lat="43.91496" lon="7.23481">
        <ele>1034.8</ele>
        <time>2012-09-15T14:24:26.000Z</time>
      </trkpt>
      <trkpt lat="43.91491" lon="7.23485">
        <ele>1035.7</ele>
        <time>2012-09-15T14:24:28.000Z</time>
      </trkpt>
      <trkpt lat="43.91485" lon="7.23491">
        <ele>1037</ele>
        <time>2012-09-15T14:24:31.000Z</time>
      </trkpt>
      <trkpt lat="43.91481" lon="7.23494">
        <ele>1037</ele>
        <time>2012-09-15T14:24:33.000Z</time>
      </trkpt>
      <trkpt lat="43.91476" lon="7.23499">
        <ele>1032.6</ele>
        <time>2012-09-15T14:24:36.000Z</time>
      </trkpt>
      <trkpt lat="43.91472" lon="7.23503">
        <ele>1032.3</ele>
        <time>2012-09-15T14:24:39.000Z</time>
      </trkpt>
      <trkpt lat="43.91466" lon="7.23506">
        <ele>1033.4</ele>
        <time>2012-09-15T14:24:42.000Z</time>
      </trkpt>
      <trkpt lat="43.91461" lon="7.23508">
        <ele>1031.5</ele>
        <time>2012-09-15T14:24:45.000Z</time>
      </trkpt>
      <trkpt lat="43.91456" lon="7.23508">
        <ele>1026.1</ele>
        <time>2012-09-15T14:24:48.000Z</time>
      </trkpt>
      <trkpt lat="43.9145" lon="7.23509">
        <ele>1026.1</ele>
        <time>2012-09-15T14:24:50.000Z</time>
      </trkpt>
      <trkpt lat="43.91446" lon="7.2351">
        <ele>1025.8</ele>
        <time>2012-09-15T14:24:52.000Z</time>
      </trkpt>
      <trkpt lat="43.9144" lon="7.23511">
        <ele>1028.8</ele>
        <time>2012-09-15T14:24:54.000Z</time>
      </trkpt>
      <trkpt lat="43.91432" lon="7.23511">
        <ele>1031.9</ele>
        <time>2012-09-15T14:24:56.000Z</time>
      </trkpt>
      <trkpt lat="43.91435" lon="7.23517">
        <ele>1037.9</ele>
        <time>2012-09-15T14:24:58.000Z</time>
      </trkpt>
      <trkpt lat="43.91433" lon="7.23524">
        <ele>1042.8</ele>
        <time>2012-09-15T14:25:01.000Z</time>
      </trkpt>
      <trkpt lat="43.91429" lon="7.23524">
        <ele>1037.5</ele>
        <time>2012-09-15T14:25:02.000Z</time>
      </trkpt>
      <trkpt lat="43.91426" lon="7.2353">
        <ele>1042.9</ele>
        <time>2012-09-15T14:25:04.000Z</time>
      </trkpt>
      <trkpt lat="43.91423" lon="7.23536">
        <ele>1044.2</ele>
        <time>2012-09-15T14:25:06.000Z</time>
      </trkpt>
      <trkpt lat="43.91419" lon="7.2354">
        <ele>1043.7</ele>
        <time>2012-09-15T14:25:08.000Z</time>
      </trkpt>
      <trkpt lat="43.91414" lon="7.23542">
        <ele>1045</ele>
        <time>2012-09-15T14:25:10.000Z</time>
      </trkpt>
      <trkpt lat="43.91413" lon="7.23549">
        <ele>1051</ele>
        <time>2012-09-15T14:25:12.000Z</time>
      </trkpt>
      <trkpt lat="43.9141" lon="7.23554">
        <ele>1052.3</ele>
        <time>2012-09-15T14:25:14.000Z</time>
      </trkpt>
      <trkpt lat="43.91407" lon="7.23562">
        <ele>1050.8</ele>
        <time>2012-09-15T14:25:17.000Z</time>
      </trkpt>
      <trkpt lat="43.91406" lon="7.23569">
        <ele>1033.7</ele>
        <time>2012-09-15T14:25:22.000Z</time>
      </trkpt>
      <trkpt lat="43.91401" lon="7.23576">
        <ele>1039</ele>
        <time>2012-09-15T14:25:24.000Z</time>
      </trkpt>
      <trkpt lat="43.91398" lon="7.23582">
        <ele>1039.8</ele>
        <time>2012-09-15T14:25:26.000Z</time>
      </trkpt>
      <trkpt lat="43.91395" lon="7.23587">
        <ele>1040.7</ele>
        <time>2012-09-15T14:25:28.000Z</time>
      </trkpt>
      <trkpt lat="43.91392" lon="7.23592">
        <ele>1041.4</ele>
        <time>2012-09-15T14:25:30.000Z</time>
      </trkpt>
      <trkpt lat="43.91389" lon="7.23598">
        <ele>1041.3</ele>
        <time>2012-09-15T14:25:32.000Z</time>
      </trkpt>
      <trkpt lat="43.9139" lon="7.23605">
        <ele>1042.4</ele>
        <time>2012-09-15T14:25:35.000Z</time>
      </trkpt>
      <trkpt lat="43.91389" lon="7.23616">
        <ele>1043.3</ele>
        <time>2012-09-15T14:25:39.000Z</time>
      </trkpt>
      <trkpt lat="43.91385" lon="7.23623">
        <ele>1041.5</ele>
        <time>2012-09-15T14:25:42.000Z</time>
      </trkpt>
      <trkpt lat="43.91384" lon="7.23631">
        <ele>1043.7</ele>
        <time>2012-09-15T14:25:45.000Z</time>
      </trkpt>
      <trkpt lat="43.91381" lon="7.23635">
        <ele>1042.6</ele>
        <time>2012-09-15T14:25:47.000Z</time>
      </trkpt>
      <trkpt lat="43.91378" lon="7.23642">
        <ele>1042.7</ele>
        <time>2012-09-15T14:25:50.000Z</time>
      </trkpt>
      <trkpt lat="43.91376" lon="7.23648">
        <ele>1042.3</ele>
        <time>2012-09-15T14:25:52.000Z</time>
      </trkpt>
      <trkpt lat="43.91373" lon="7.23654">
        <ele>1042</ele>
        <time>2012-09-15T14:25:54.000Z</time>
      </trkpt>
      <trkpt lat="43.9137" lon="7.2366">
        <ele>1042.2</ele>
        <time>2012-09-15T14:25:57.000Z</time>
      </trkpt>
      <trkpt lat="43.91365" lon="7.23667">
        <ele>1042.9</ele>
        <time>2012-09-15T14:26:00.000Z</time>
      </trkpt>
      <trkpt lat="43.91361" lon="7.23672">
        <ele>1043.4</ele>
        <time>2012-09-15T14:26:03.000Z</time>
      </trkpt>
      <trkpt lat="43.91357" lon="7.23678">
        <ele>1043.8</ele>
        <time>2012-09-15T14:26:06.000Z</time>
      </trkpt>
      <trkpt lat="43.91355" lon="7.23684">
        <ele>1044.1</ele>
        <time>2012-09-15T14:26:08.000Z</time>
      </trkpt>
      <trkpt lat="43.91353" lon="7.23693">
        <ele>1045</ele>
        <time>2012-09-15T14:26:11.000Z</time>
      </trkpt>
      <trkpt lat="43.91352" lon="7.23699">
        <ele>1045.8</ele>
        <time>2012-09-15T14:26:14.000Z</time>
      </trkpt>
      <trkpt lat="43.9135" lon="7.23706">
        <ele>1045.9</ele>
        <time>2012-09-15T14:26:17.000Z</time>
      </trkpt>
      <trkpt lat="43.91347" lon="7.23713">
        <ele>1047.4</ele>
        <time>2012-09-15T14:26:20.000Z</time>
      </trkpt>
      <trkpt lat="43.91344" lon="7.2372">
        <ele>1048.2</ele>
        <time>2012-09-15T14:26:23.000Z</time>
      </trkpt>
      <trkpt lat="43.91341" lon="7.23724">
        <ele>1048.3</ele>
        <time>2012-09-15T14:26:25.000Z</time>
      </trkpt>
      <trkpt lat="43.91338" lon="7.23732">
        <ele>1048.7</ele>
        <time>2012-09-15T14:26:28.000Z</time>
      </trkpt>
      <trkpt lat="43.91335" lon="7.23739">
        <ele>1049.3</ele>
        <time>2012-09-15T14:26:31.000Z</time>
      </trkpt>
      <trkpt lat="43.91334" lon="7.23747">
        <ele>1050.6</ele>
        <time>2012-09-15T14:26:34.000Z</time>
      </trkpt>
      <trkpt lat="43.91331" lon="7.23756">
        <ele>1051.3</ele>
        <time>2012-09-15T14:26:38.000Z</time>
      </trkpt>
      <trkpt lat="43.91327" lon="7.23764">
        <ele>1053.2</ele>
        <time>2012-09-15T14:26:42.000Z</time>
      </trkpt>
      <trkpt lat="43.91326" lon="7.23772">
        <ele>1052.6</ele>
        <time>2012-09-15T14:26:45.000Z</time>
      </trkpt>
      <trkpt lat="43.91323" lon="7.23779">
        <ele>1053.1</ele>
        <time>2012-09-15T14:26:48.000Z</time>
      </trkpt>
      <trkpt lat="43.9132" lon="7.23786">
        <ele>1052.9</ele>
        <time>2012-09-15T14:26:51.000Z</time>
      </trkpt>
      <trkpt lat="43.91317" lon="7.23792">
        <ele>1053.5</ele>
        <time>2012-09-15T14:26:54.000Z</time>
      </trkpt>
      <trkpt lat="43.91313" lon="7.23796">
        <ele>1053.7</ele>
        <time>2012-09-15T14:26:57.000Z</time>
      </trkpt>
      <trkpt lat="43.91309" lon="7.238">
        <ele>1053.5</ele>
        <time>2012-09-15T14:27:00.000Z</time>
      </trkpt>
      <trkpt lat="43.91304" lon="7.23803">
        <ele>1053.6</ele>
        <time>2012-09-15T14:27:03.000Z</time>
      </trkpt>
      <trkpt lat="43.91299" lon="7.23807">
        <ele>1052.8</ele>
        <time>2012-09-15T14:27:06.000Z</time>
      </trkpt>
      <trkpt lat="43.91295" lon="7.23811">
        <ele>1052.8</ele>
        <time>2012-09-15T14:27:09.000Z</time>
      </trkpt>
      <trkpt lat="43.91292" lon="7.23818">
        <ele>1052.7</ele>
        <time>2012-09-15T14:27:12.000Z</time>
      </trkpt>
      <trkpt lat="43.91289" lon="7.23822">
        <ele>1055</ele>
        <time>2012-09-15T14:27:15.000Z</time>
      </trkpt>
      <trkpt lat="43.91284" lon="7.23822">
        <ele>1055.8</ele>
        <time>2012-09-15T14:27:18.000Z</time>
      </trkpt>
      <trkpt lat="43.91282" lon="7.23814">
        <ele>1057.1</ele>
        <time>2012-09-15T14:27:21.000Z</time>
      </trkpt>
      <trkpt lat="43.91282" lon="7.23806">
        <ele>1058.4</ele>
        <time>2012-09-15T14:27:23.000Z</time>
      </trkpt>
      <trkpt lat="43.91285" lon="7.238">
        <ele>1059.9</ele>
        <time>2012-09-15T14:27:25.000Z</time>
      </trkpt>
      <trkpt lat="43.9129" lon="7.23796">
        <ele>1061.7</ele>
        <time>2012-09-15T14:27:28.000Z</time>
      </trkpt>
      <trkpt lat="43.91294" lon="7.23791">
        <ele>1063.6</ele>
        <time>2012-09-15T14:27:31.000Z</time>
      </trkpt>
      <trkpt lat="43.91298" lon="7.23786">
        <ele>1065</ele>
        <time>2012-09-15T14:27:34.000Z</time>
      </trkpt>
      <trkpt lat="43.91302" lon="7.23782">
        <ele>1065.8</ele>
        <time>2012-09-15T14:27:37.000Z</time>
      </trkpt>
      <trkpt lat="43.91305" lon="7.23776">
        <ele>1066.6</ele>
        <time>2012-09-15T14:27:40.000Z</time>
      </trkpt>
      <trkpt lat="43.91308" lon="7.2377">
        <ele>1067.9</ele>
        <time>2012-09-15T14:27:43.000Z</time>
      </trkpt>
      <trkpt lat="43.9131" lon="7.23763">
        <ele>1068.6</ele>
        <time>2012-09-15T14:27:46.000Z</time>
      </trkpt>
      <trkpt lat="43.91312" lon="7.23756">
        <ele>1070.1</ele>
        <time>2012-09-15T14:27:49.000Z</time>
      </trkpt>
      <trkpt lat="43.91313" lon="7.23749">
        <ele>1070.5</ele>
        <time>2012-09-15T14:27:52.000Z</time>
      </trkpt>
      <trkpt lat="43.91315" lon="7.23742">
        <ele>1071.7</ele>
        <time>2012-09-15T14:27:55.000Z</time>
      </trkpt>
      <trkpt lat="43.91316" lon="7.23735">
        <ele>1072.8</ele>
        <time>2012-09-15T14:27:58.000Z</time>
      </trkpt>
      <trkpt lat="43.91317" lon="7.23727">
        <ele>1073.9</ele>
        <time>2012-09-15T14:28:01.000Z</time>
      </trkpt>
      <trkpt lat="43.91318" lon="7.2372">
        <ele>1074.9</ele>
        <time>2012-09-15T14:28:04.000Z</time>
      </trkpt>
      <trkpt lat="43.91321" lon="7.23713">
        <ele>1075.6</ele>
        <time>2012-09-15T14:28:07.000Z</time>
      </trkpt>
      <trkpt lat="43.91323" lon="7.23707">
        <ele>1076.4</ele>
        <time>2012-09-15T14:28:10.000Z</time>
      </trkpt>
      <trkpt lat="43.91323" lon="7.23714">
        <ele>1074.8</ele>
        <time>2012-09-15T14:28:18.000Z</time>
      </trkpt>
      <trkpt lat="43.91321" lon="7.2372">
        <ele>1070.1</ele>
        <time>2012-09-15T14:28:47.000Z</time>
      </trkpt>
      <trkpt lat="43.91317" lon="7.23716">
        <ele>1065.1</ele>
        <time>2012-09-15T14:29:55.000Z</time>
      </trkpt>
      <trkpt lat="43.91321" lon="7.23711">
        <ele>1067.2</ele>
        <time>2012-09-15T14:29:58.000Z</time>
      </trkpt>
      <trkpt lat="43.91324" lon="7.23704">
        <ele>1068.3</ele>
        <time>2012-09-15T14:30:01.000Z</time>
      </trkpt>
      <trkpt lat="43.91327" lon="7.23698">
        <ele>1069.7</ele>
        <time>2012-09-15T14:30:04.000Z</time>
      </trkpt>
      <trkpt lat="43.91329" lon="7.2369">
        <ele>1071.1</ele>
        <time>2012-09-15T14:30:07.000Z</time>
      </trkpt>
      <trkpt lat="43.91331" lon="7.23683">
        <ele>1072.5</ele>
        <time>2012-09-15T14:30:10.000Z</time>
      </trkpt>
      <trkpt lat="43.91334" lon="7.23677">
        <ele>1073.5</ele>
        <time>2012-09-15T14:30:13.000Z</time>
      </trkpt>
      <trkpt lat="43.91336" lon="7.23671">
        <ele>1072.3</ele>
        <time>2012-09-15T14:30:16.000Z</time>
      </trkpt>
      <trkpt lat="43.91339" lon="7.23664">
        <ele>1072.8</ele>
        <time>2012-09-15T14:30:19.000Z</time>
      </trkpt>
      <trkpt lat="43.91342" lon="7.23657">
        <ele>1075.1</ele>
        <time>2012-09-15T14:30:22.000Z</time>
      </trkpt>
      <trkpt lat="43.91343" lon="7.23649">
        <ele>1076.3</ele>
        <time>2012-09-15T14:30:25.000Z</time>
      </trkpt>
      <trkpt lat="43.91346" lon="7.23641">
        <ele>1077.9</ele>
        <time>2012-09-15T14:30:28.000Z</time>
      </trkpt>
      <trkpt lat="43.91346" lon="7.23634">
        <ele>1079.1</ele>
        <time>2012-09-15T14:30:30.000Z</time>
      </trkpt>
      <trkpt lat="43.91347" lon="7.23627">
        <ele>1080.9</ele>
        <time>2012-09-15T14:30:32.000Z</time>
      </trkpt>
      <trkpt lat="43.91348" lon="7.2362">
        <ele>1081.2</ele>
        <time>2012-09-15T14:30:34.000Z</time>
      </trkpt>
      <trkpt lat="43.9135" lon="7.23614">
        <ele>1080.8</ele>
        <time>2012-09-15T14:30:36.000Z</time>
      </trkpt>
      <trkpt lat="43.91354" lon="7.23607">
        <ele>1082</ele>
        <time>2012-09-15T14:30:40.000Z</time>
      </trkpt>
      <trkpt lat="43.91354" lon="7.23597">
        <ele>1083.8</ele>
        <time>2012-09-15T14:30:43.000Z</time>
      </trkpt>
      <trkpt lat="43.91356" lon="7.23591">
        <ele>1083.8</ele>
        <time>2012-09-15T14:30:45.000Z</time>
      </trkpt>
      <trkpt lat="43.9136" lon="7.23588">
        <ele>1084.9</ele>
        <time>2012-09-15T14:30:47.000Z</time>
      </trkpt>
      <trkpt lat="43.91363" lon="7.23581">
        <ele>1084.4</ele>
        <time>2012-09-15T14:30:50.000Z</time>
      </trkpt>
      <trkpt lat="43.91366" lon="7.23574">
        <ele>1084.3</ele>
        <time>2012-09-15T14:30:53.000Z</time>
      </trkpt>
      <trkpt lat="43.9137" lon="7.23566">
        <ele>1084.8</ele>
        <time>2012-09-15T14:30:56.000Z</time>
      </trkpt>
      <trkpt lat="43.91371" lon="7.2356">
        <ele>1086.5</ele>
        <time>2012-09-15T14:30:58.000Z</time>
      </trkpt>
      <trkpt lat="43.91372" lon="7.23553">
        <ele>1086.7</ele>
        <time>2012-09-15T14:31:01.000Z</time>
      </trkpt>
      <trkpt lat="43.91372" lon="7.23546">
        <ele>1086.4</ele>
        <time>2012-09-15T14:31:04.000Z</time>
      </trkpt>
      <trkpt lat="43.91374" lon="7.23539">
        <ele>1087.2</ele>
        <time>2012-09-15T14:31:07.000Z</time>
      </trkpt>
      <trkpt lat="43.91374" lon="7.23531">
        <ele>1087.4</ele>
        <time>2012-09-15T14:31:10.000Z</time>
      </trkpt>
      <trkpt lat="43.91377" lon="7.23525">
        <ele>1087.6</ele>
        <time>2012-09-15T14:31:13.000Z</time>
      </trkpt>
      <trkpt lat="43.91378" lon="7.23518">
        <ele>1087.9</ele>
        <time>2012-09-15T14:31:16.000Z</time>
      </trkpt>
      <trkpt lat="43.91379" lon="7.23511">
        <ele>1087.4</ele>
        <time>2012-09-15T14:31:19.000Z</time>
      </trkpt>
      <trkpt lat="43.91383" lon="7.23504">
        <ele>1087.5</ele>
        <time>2012-09-15T14:31:22.000Z</time>
      </trkpt>
      <trkpt lat="43.91386" lon="7.23497">
        <ele>1088</ele>
        <time>2012-09-15T14:31:25.000Z</time>
      </trkpt>
      <trkpt lat="43.91389" lon="7.23492">
        <ele>1089</ele>
        <time>2012-09-15T14:31:27.000Z</time>
      </trkpt>
      <trkpt lat="43.91392" lon="7.23486">
        <ele>1088.7</ele>
        <time>2012-09-15T14:31:29.000Z</time>
      </trkpt>
      <trkpt lat="43.91394" lon="7.23481">
        <ele>1088</ele>
        <time>2012-09-15T14:31:31.000Z</time>
      </trkpt>
      <trkpt lat="43.91397" lon="7.23473">
        <ele>1089.7</ele>
        <time>2012-09-15T14:31:34.000Z</time>
      </trkpt>
      <trkpt lat="43.91399" lon="7.23466">
        <ele>1090.6</ele>
        <time>2012-09-15T14:31:37.000Z</time>
      </trkpt>
      <trkpt lat="43.91403" lon="7.23459">
        <ele>1092.5</ele>
        <time>2012-09-15T14:31:40.000Z</time>
      </trkpt>
      <trkpt lat="43.91407" lon="7.23452">
        <ele>1090.3</ele>
        <time>2012-09-15T14:31:44.000Z</time>
      </trkpt>
      <trkpt lat="43.91411" lon="7.23446">
        <ele>1090.4</ele>
        <time>2012-09-15T14:31:47.000Z</time>
      </trkpt>
      <trkpt lat="43.91411" lon="7.23439">
        <ele>1089.7</ele>
        <time>2012-09-15T14:31:49.000Z</time>
      </trkpt>
      <trkpt lat="43.91414" lon="7.23431">
        <ele>1090.5</ele>
        <time>2012-09-15T14:31:52.000Z</time>
      </trkpt>
      <trkpt lat="43.91418" lon="7.23423">
        <ele>1091.4</ele>
        <time>2012-09-15T14:31:55.000Z</time>
      </trkpt>
      <trkpt lat="43.91422" lon="7.23418">
        <ele>1091.5</ele>
        <time>2012-09-15T14:31:58.000Z</time>
      </trkpt>
      <trkpt lat="43.91428" lon="7.23416">
        <ele>1092.5</ele>
        <time>2012-09-15T14:32:00.000Z</time>
      </trkpt>
      <trkpt lat="43.91432" lon="7.23414">
        <ele>1092.1</ele>
        <time>2012-09-15T14:32:02.000Z</time>
      </trkpt>
      <trkpt lat="43.91437" lon="7.23409">
        <ele>1095.9</ele>
        <time>2012-09-15T14:32:05.000Z</time>
      </trkpt>
      <trkpt lat="43.9144" lon="7.23402">
        <ele>1095.9</ele>
        <time>2012-09-15T14:32:08.000Z</time>
      </trkpt>
      <trkpt lat="43.91443" lon="7.23394">
        <ele>1094.1</ele>
        <time>2012-09-15T14:32:11.000Z</time>
      </trkpt>
      <trkpt lat="43.91445" lon="7.23388">
        <ele>1091.7</ele>
        <time>2012-09-15T14:32:13.000Z</time>
      </trkpt>
      <trkpt lat="43.91447" lon="7.23382">
        <ele>1092.2</ele>
        <time>2012-09-15T14:32:15.000Z</time>
      </trkpt>
      <trkpt lat="43.91449" lon="7.23374">
        <ele>1094.3</ele>
        <time>2012-09-15T14:32:18.000Z</time>
      </trkpt>
      <trkpt lat="43.9145" lon="7.23367">
        <ele>1095.1</ele>
        <time>2012-09-15T14:32:21.000Z</time>
      </trkpt>
      <trkpt lat="43.9145" lon="7.2336">
        <ele>1095.5</ele>
        <time>2012-09-15T14:32:24.000Z</time>
      </trkpt>
      <trkpt lat="43.91451" lon="7.23352">
        <ele>1095.7</ele>
        <time>2012-09-15T14:32:27.000Z</time>
      </trkpt>
      <trkpt lat="43.91451" lon="7.23344">
        <ele>1094.4</ele>
        <time>2012-09-15T14:32:30.000Z</time>
      </trkpt>
      <trkpt lat="43.91456" lon="7.23337">
        <ele>1095.5</ele>
        <time>2012-09-15T14:32:33.000Z</time>
      </trkpt>
      <trkpt lat="43.91458" lon="7.2333">
        <ele>1096.3</ele>
        <time>2012-09-15T14:32:36.000Z</time>
      </trkpt>
      <trkpt lat="43.91456" lon="7.23323">
        <ele>1096.2</ele>
        <time>2012-09-15T14:32:39.000Z</time>
      </trkpt>
      <trkpt lat="43.91455" lon="7.23314">
        <ele>1096.5</ele>
        <time>2012-09-15T14:32:42.000Z</time>
      </trkpt>
      <trkpt lat="43.91454" lon="7.23307">
        <ele>1096.1</ele>
        <time>2012-09-15T14:32:45.000Z</time>
      </trkpt>
      <trkpt lat="43.91452" lon="7.23299">
        <ele>1096.4</ele>
        <time>2012-09-15T14:32:48.000Z</time>
      </trkpt>
      <trkpt lat="43.9145" lon="7.23292">
        <ele>1095</ele>
        <time>2012-09-15T14:32:51.000Z</time>
      </trkpt>
      <trkpt lat="43.91446" lon="7.23285">
        <ele>1094.6</ele>
        <time>2012-09-15T14:32:54.000Z</time>
      </trkpt>
      <trkpt lat="43.91443" lon="7.23277">
        <ele>1094.7</ele>
        <time>2012-09-15T14:32:57.000Z</time>
      </trkpt>
      <trkpt lat="43.9144" lon="7.23271">
        <ele>1093.1</ele>
        <time>2012-09-15T14:32:59.000Z</time>
      </trkpt>
      <trkpt lat="43.91438" lon="7.23266">
        <ele>1092.7</ele>
        <time>2012-09-15T14:33:01.000Z</time>
      </trkpt>
      <trkpt lat="43.91436" lon="7.23259">
        <ele>1092.9</ele>
        <time>2012-09-15T14:33:03.000Z</time>
      </trkpt>
      <trkpt lat="43.91438" lon="7.23251">
        <ele>1093.7</ele>
        <time>2012-09-15T14:33:06.000Z</time>
      </trkpt>
      <trkpt lat="43.9144" lon="7.23246">
        <ele>1093.7</ele>
        <time>2012-09-15T14:33:08.000Z</time>
      </trkpt>
      <trkpt lat="43.91445" lon="7.2324">
        <ele>1094.1</ele>
        <time>2012-09-15T14:33:11.000Z</time>
      </trkpt>
      <trkpt lat="43.91449" lon="7.23233">
        <ele>1094.6</ele>
        <time>2012-09-15T14:33:14.000Z</time>
      </trkpt>
      <trkpt lat="43.91454" lon="7.23228">
        <ele>1096</ele>
        <time>2012-09-15T14:33:17.000Z</time>
      </trkpt>
      <trkpt lat="43.91458" lon="7.23225">
        <ele>1096.3</ele>
        <time>2012-09-15T14:33:19.000Z</time>
      </trkpt>
      <trkpt lat="43.91462" lon="7.23223">
        <ele>1096.2</ele>
        <time>2012-09-15T14:33:21.000Z</time>
      </trkpt>
      <trkpt lat="43.91469" lon="7.23223">
        <ele>1095.4</ele>
        <time>2012-09-15T14:33:24.000Z</time>
      </trkpt>
      <trkpt lat="43.91474" lon="7.23223">
        <ele>1096.1</ele>
        <time>2012-09-15T14:33:26.000Z</time>
      </trkpt>
      <trkpt lat="43.91478" lon="7.23224">
        <ele>1096.5</ele>
        <time>2012-09-15T14:33:28.000Z</time>
      </trkpt>
      <trkpt lat="43.91484" lon="7.23226">
        <ele>1096.6</ele>
        <time>2012-09-15T14:33:30.000Z</time>
      </trkpt>
      <trkpt lat="43.9149" lon="7.23229">
        <ele>1097</ele>
        <time>2012-09-15T14:33:32.000Z</time>
      </trkpt>
      <trkpt lat="43.91494" lon="7.23231">
        <ele>1097.8</ele>
        <time>2012-09-15T14:33:34.000Z</time>
      </trkpt>
      <trkpt lat="43.91499" lon="7.23232">
        <ele>1098.1</ele>
        <time>2012-09-15T14:33:36.000Z</time>
      </trkpt>
      <trkpt lat="43.91506" lon="7.23235">
        <ele>1097.6</ele>
        <time>2012-09-15T14:33:39.000Z</time>
      </trkpt>
      <trkpt lat="43.9151" lon="7.23237">
        <ele>1098.3</ele>
        <time>2012-09-15T14:33:41.000Z</time>
      </trkpt>
      <trkpt lat="43.91515" lon="7.2324">
        <ele>1098.9</ele>
        <time>2012-09-15T14:33:43.000Z</time>
      </trkpt>
      <trkpt lat="43.9152" lon="7.23241">
        <ele>1099.1</ele>
        <time>2012-09-15T14:33:45.000Z</time>
      </trkpt>
      <trkpt lat="43.91526" lon="7.23241">
        <ele>1098.8</ele>
        <time>2012-09-15T14:33:48.000Z</time>
      </trkpt>
      <trkpt lat="43.91533" lon="7.2324">
        <ele>1100.5</ele>
        <time>2012-09-15T14:33:51.000Z</time>
      </trkpt>
      <trkpt lat="43.91538" lon="7.23237">
        <ele>1099.5</ele>
        <time>2012-09-15T14:33:53.000Z</time>
      </trkpt>
      <trkpt lat="43.91542" lon="7.23233">
        <ele>1099.9</ele>
        <time>2012-09-15T14:33:55.000Z</time>
      </trkpt>
      <trkpt lat="43.91546" lon="7.23226">
        <ele>1100.3</ele>
        <time>2012-09-15T14:33:58.000Z</time>
      </trkpt>
      <trkpt lat="43.9155" lon="7.23223">
        <ele>1100.2</ele>
        <time>2012-09-15T14:34:00.000Z</time>
      </trkpt>
      <trkpt lat="43.91555" lon="7.23216">
        <ele>1100.7</ele>
        <time>2012-09-15T14:34:03.000Z</time>
      </trkpt>
      <trkpt lat="43.91559" lon="7.23209">
        <ele>1100.5</ele>
        <time>2012-09-15T14:34:06.000Z</time>
      </trkpt>
      <trkpt lat="43.91564" lon="7.23202">
        <ele>1100.8</ele>
        <time>2012-09-15T14:34:09.000Z</time>
      </trkpt>
      <trkpt lat="43.91567" lon="7.23197">
        <ele>1101.3</ele>
        <time>2012-09-15T14:34:11.000Z</time>
      </trkpt>
      <trkpt lat="43.9157" lon="7.23193">
        <ele>1101.3</ele>
        <time>2012-09-15T14:34:13.000Z</time>
      </trkpt>
      <trkpt lat="43.91573" lon="7.23188">
        <ele>1101.4</ele>
        <time>2012-09-15T14:34:15.000Z</time>
      </trkpt>
      <trkpt lat="43.91577" lon="7.23184">
        <ele>1101.5</ele>
        <time>2012-09-15T14:34:17.000Z</time>
      </trkpt>
      <trkpt lat="43.91582" lon="7.23177">
        <ele>1102.1</ele>
        <time>2012-09-15T14:34:20.000Z</time>
      </trkpt>
      <trkpt lat="43.91585" lon="7.23173">
        <ele>1102.8</ele>
        <time>2012-09-15T14:34:22.000Z</time>
      </trkpt>
      <trkpt lat="43.91588" lon="7.23168">
        <ele>1103.4</ele>
        <time>2012-09-15T14:34:24.000Z</time>
      </trkpt>
      <trkpt lat="43.91591" lon="7.23162">
        <ele>1103.8</ele>
        <time>2012-09-15T14:34:26.000Z</time>
      </trkpt>
      <trkpt lat="43.91594" lon="7.23158">
        <ele>1104.9</ele>
        <time>2012-09-15T14:34:28.000Z</time>
      </trkpt>
      <trkpt lat="43.91596" lon="7.2315">
        <ele>1106</ele>
        <time>2012-09-15T14:34:31.000Z</time>
      </trkpt>
      <trkpt lat="43.916" lon="7.23144">
        <ele>1106.9</ele>
        <time>2012-09-15T14:34:33.000Z</time>
      </trkpt>
      <trkpt lat="43.91605" lon="7.23137">
        <ele>1107.4</ele>
        <time>2012-09-15T14:34:36.000Z</time>
      </trkpt>
      <trkpt lat="43.9161" lon="7.2313">
        <ele>1108.3</ele>
        <time>2012-09-15T14:34:39.000Z</time>
      </trkpt>
      <trkpt lat="43.91612" lon="7.23125">
        <ele>1109.3</ele>
        <time>2012-09-15T14:34:41.000Z</time>
      </trkpt>
      <trkpt lat="43.91614" lon="7.23118">
        <ele>1109.7</ele>
        <time>2012-09-15T14:34:44.000Z</time>
      </trkpt>
      <trkpt lat="43.91611" lon="7.2311">
        <ele>1109.8</ele>
        <time>2012-09-15T14:34:47.000Z</time>
      </trkpt>
      <trkpt lat="43.91606" lon="7.23105">
        <ele>1110.2</ele>
        <time>2012-09-15T14:34:50.000Z</time>
      </trkpt>
      <trkpt lat="43.91602" lon="7.23103">
        <ele>1110.4</ele>
        <time>2012-09-15T14:34:53.000Z</time>
      </trkpt>
      <trkpt lat="43.91597" lon="7.231">
        <ele>1110.3</ele>
        <time>2012-09-15T14:34:56.000Z</time>
      </trkpt>
      <trkpt lat="43.91591" lon="7.23099">
        <ele>1110</ele>
        <time>2012-09-15T14:34:59.000Z</time>
      </trkpt>
      <trkpt lat="43.91586" lon="7.23099">
        <ele>1110.1</ele>
        <time>2012-09-15T14:35:02.000Z</time>
      </trkpt>
      <trkpt lat="43.91581" lon="7.231">
        <ele>1110.3</ele>
        <time>2012-09-15T14:35:05.000Z</time>
      </trkpt>
      <trkpt lat="43.91577" lon="7.23101">
        <ele>1110.4</ele>
        <time>2012-09-15T14:35:08.000Z</time>
      </trkpt>
      <trkpt lat="43.91572" lon="7.23105">
        <ele>1109.9</ele>
        <time>2012-09-15T14:35:11.000Z</time>
      </trkpt>
      <trkpt lat="43.91567" lon="7.23109">
        <ele>1109.5</ele>
        <time>2012-09-15T14:35:14.000Z</time>
      </trkpt>
      <trkpt lat="43.91563" lon="7.23113">
        <ele>1109.5</ele>
        <time>2012-09-15T14:35:17.000Z</time>
      </trkpt>
      <trkpt lat="43.9156" lon="7.23117">
        <ele>1109.3</ele>
        <time>2012-09-15T14:35:20.000Z</time>
      </trkpt>
      <trkpt lat="43.91556" lon="7.23121">
        <ele>1109.3</ele>
        <time>2012-09-15T14:35:23.000Z</time>
      </trkpt>
      <trkpt lat="43.91552" lon="7.23124">
        <ele>1109.1</ele>
        <time>2012-09-15T14:35:26.000Z</time>
      </trkpt>
      <trkpt lat="43.91548" lon="7.23128">
        <ele>1109.6</ele>
        <time>2012-09-15T14:35:29.000Z</time>
      </trkpt>
      <trkpt lat="43.91544" lon="7.23131">
        <ele>1110</ele>
        <time>2012-09-15T14:35:32.000Z</time>
      </trkpt>
      <trkpt lat="43.91539" lon="7.23134">
        <ele>1110.4</ele>
        <time>2012-09-15T14:35:35.000Z</time>
      </trkpt>
      <trkpt lat="43.91532" lon="7.23137">
        <ele>1110.5</ele>
        <time>2012-09-15T14:35:39.000Z</time>
      </trkpt>
      <trkpt lat="43.91528" lon="7.23141">
        <ele>1110.2</ele>
        <time>2012-09-15T14:35:42.000Z</time>
      </trkpt>
      <trkpt lat="43.91523" lon="7.23143">
        <ele>1109.9</ele>
        <time>2012-09-15T14:35:45.000Z</time>
      </trkpt>
      <trkpt lat="43.91519" lon="7.23145">
        <ele>1110.1</ele>
        <time>2012-09-15T14:35:48.000Z</time>
      </trkpt>
      <trkpt lat="43.91514" lon="7.23148">
        <ele>1110</ele>
        <time>2012-09-15T14:35:51.000Z</time>
      </trkpt>
      <trkpt lat="43.91509" lon="7.2315">
        <ele>1110.4</ele>
        <time>2012-09-15T14:35:54.000Z</time>
      </trkpt>
      <trkpt lat="43.91505" lon="7.23153">
        <ele>1110.7</ele>
        <time>2012-09-15T14:35:57.000Z</time>
      </trkpt>
      <trkpt lat="43.915" lon="7.23156">
        <ele>1110.6</ele>
        <time>2012-09-15T14:36:00.000Z</time>
      </trkpt>
      <trkpt lat="43.91495" lon="7.23157">
        <ele>1110.3</ele>
        <time>2012-09-15T14:36:03.000Z</time>
      </trkpt>
      <trkpt lat="43.9149" lon="7.2316">
        <ele>1110.6</ele>
        <time>2012-09-15T14:36:06.000Z</time>
      </trkpt>
      <trkpt lat="43.91485" lon="7.23161">
        <ele>1110.8</ele>
        <time>2012-09-15T14:36:09.000Z</time>
      </trkpt>
      <trkpt lat="43.91479" lon="7.23163">
        <ele>1111.5</ele>
        <time>2012-09-15T14:36:12.000Z</time>
      </trkpt>
      <trkpt lat="43.91473" lon="7.23166">
        <ele>1111.9</ele>
        <time>2012-09-15T14:36:15.000Z</time>
      </trkpt>
      <trkpt lat="43.91468" lon="7.23168">
        <ele>1112.5</ele>
        <time>2012-09-15T14:36:17.000Z</time>
      </trkpt>
      <trkpt lat="43.91463" lon="7.23169">
        <ele>1112.3</ele>
        <time>2012-09-15T14:36:19.000Z</time>
      </trkpt>
      <trkpt lat="43.91457" lon="7.23171">
        <ele>1112.4</ele>
        <time>2012-09-15T14:36:21.000Z</time>
      </trkpt>
      <trkpt lat="43.9145" lon="7.23173">
        <ele>1112</ele>
        <time>2012-09-15T14:36:23.000Z</time>
      </trkpt>
      <trkpt lat="43.91444" lon="7.23175">
        <ele>1112.5</ele>
        <time>2012-09-15T14:36:25.000Z</time>
      </trkpt>
      <trkpt lat="43.91438" lon="7.23177">
        <ele>1114.2</ele>
        <time>2012-09-15T14:36:27.000Z</time>
      </trkpt>
      <trkpt lat="43.9143" lon="7.23179">
        <ele>1114.5</ele>
        <time>2012-09-15T14:36:29.000Z</time>
      </trkpt>
      <trkpt lat="43.91422" lon="7.23182">
        <ele>1114.5</ele>
        <time>2012-09-15T14:36:31.000Z</time>
      </trkpt>
      <trkpt lat="43.91416" lon="7.23185">
        <ele>1114.8</ele>
        <time>2012-09-15T14:36:33.000Z</time>
      </trkpt>
      <trkpt lat="43.9141" lon="7.23189">
        <ele>1116.1</ele>
        <time>2012-09-15T14:36:35.000Z</time>
      </trkpt>
      <trkpt lat="43.91404" lon="7.23193">
        <ele>1117.3</ele>
        <time>2012-09-15T14:36:37.000Z</time>
      </trkpt>
      <trkpt lat="43.91396" lon="7.23199">
        <ele>1117.1</ele>
        <time>2012-09-15T14:36:40.000Z</time>
      </trkpt>
      <trkpt lat="43.9139" lon="7.23203">
        <ele>1116.1</ele>
        <time>2012-09-15T14:36:43.000Z</time>
      </trkpt>
      <trkpt lat="43.91385" lon="7.23208">
        <ele>1116.3</ele>
        <time>2012-09-15T14:36:45.000Z</time>
      </trkpt>
      <trkpt lat="43.9138" lon="7.23212">
        <ele>1117.2</ele>
        <time>2012-09-15T14:36:47.000Z</time>
      </trkpt>
      <trkpt lat="43.91376" lon="7.23216">
        <ele>1117</ele>
        <time>2012-09-15T14:36:49.000Z</time>
      </trkpt>
      <trkpt lat="43.91372" lon="7.23219">
        <ele>1116.7</ele>
        <time>2012-09-15T14:36:51.000Z</time>
      </trkpt>
      <trkpt lat="43.91369" lon="7.23224">
        <ele>1117</ele>
        <time>2012-09-15T14:36:53.000Z</time>
      </trkpt>
      <trkpt lat="43.91365" lon="7.23229">
        <ele>1115.8</ele>
        <time>2012-09-15T14:36:55.000Z</time>
      </trkpt>
      <trkpt lat="43.91362" lon="7.23236">
        <ele>1115.4</ele>
        <time>2012-09-15T14:36:57.000Z</time>
      </trkpt>
      <trkpt lat="43.91359" lon="7.23241">
        <ele>1114.7</ele>
        <time>2012-09-15T14:36:59.000Z</time>
      </trkpt>
      <trkpt lat="43.91355" lon="7.23248">
        <ele>1114.4</ele>
        <time>2012-09-15T14:37:02.000Z</time>
      </trkpt>
      <trkpt lat="43.91352" lon="7.23255">
        <ele>1114</ele>
        <time>2012-09-15T14:37:05.000Z</time>
      </trkpt>
      <trkpt lat="43.91351" lon="7.23263">
        <ele>1113.6</ele>
        <time>2012-09-15T14:37:08.000Z</time>
      </trkpt>
      <trkpt lat="43.91349" lon="7.2327">
        <ele>1114.8</ele>
        <time>2012-09-15T14:37:11.000Z</time>
      </trkpt>
      <trkpt lat="43.91348" lon="7.23278">
        <ele>1112.7</ele>
        <time>2012-09-15T14:37:14.000Z</time>
      </trkpt>
      <trkpt lat="43.91346" lon="7.23285">
        <ele>1111.8</ele>
        <time>2012-09-15T14:37:17.000Z</time>
      </trkpt>
      <trkpt lat="43.91344" lon="7.23291">
        <ele>1111.2</ele>
        <time>2012-09-15T14:37:20.000Z</time>
      </trkpt>
      <trkpt lat="43.91342" lon="7.23298">
        <ele>1108.9</ele>
        <time>2012-09-15T14:37:23.000Z</time>
      </trkpt>
      <trkpt lat="43.91342" lon="7.23305">
        <ele>1108.2</ele>
        <time>2012-09-15T14:37:26.000Z</time>
      </trkpt>
      <trkpt lat="43.91341" lon="7.23312">
        <ele>1109.1</ele>
        <time>2012-09-15T14:37:29.000Z</time>
      </trkpt>
      <trkpt lat="43.91341" lon="7.23319">
        <ele>1110.2</ele>
        <time>2012-09-15T14:37:32.000Z</time>
      </trkpt>
      <trkpt lat="43.91343" lon="7.23326">
        <ele>1110</ele>
        <time>2012-09-15T14:37:35.000Z</time>
      </trkpt>
      <trkpt lat="43.91347" lon="7.23331">
        <ele>1111</ele>
        <time>2012-09-15T14:37:38.000Z</time>
      </trkpt>
      <trkpt lat="43.91351" lon="7.23334">
        <ele>1112</ele>
        <time>2012-09-15T14:37:41.000Z</time>
      </trkpt>
      <trkpt lat="43.91356" lon="7.23338">
        <ele>1113.2</ele>
        <time>2012-09-15T14:37:44.000Z</time>
      </trkpt>
      <trkpt lat="43.9136" lon="7.23343">
        <ele>1114.3</ele>
        <time>2012-09-15T14:37:47.000Z</time>
      </trkpt>
      <trkpt lat="43.91361" lon="7.23349">
        <ele>1113.8</ele>
        <time>2012-09-15T14:37:50.000Z</time>
      </trkpt>
      <trkpt lat="43.91361" lon="7.23356">
        <ele>1114.8</ele>
        <time>2012-09-15T14:37:54.000Z</time>
      </trkpt>
      <trkpt lat="43.9136" lon="7.23362">
        <ele>1114.3</ele>
        <time>2012-09-15T14:37:57.000Z</time>
      </trkpt>
      <trkpt lat="43.91357" lon="7.23369">
        <ele>1114.2</ele>
        <time>2012-09-15T14:38:01.000Z</time>
      </trkpt>
      <trkpt lat="43.91354" lon="7.23375">
        <ele>1114.8</ele>
        <time>2012-09-15T14:38:04.000Z</time>
      </trkpt>
      <trkpt lat="43.91349" lon="7.2338">
        <ele>1116.5</ele>
        <time>2012-09-15T14:38:08.000Z</time>
      </trkpt>
      <trkpt lat="43.91347" lon="7.23386">
        <ele>1116.6</ele>
        <time>2012-09-15T14:38:11.000Z</time>
      </trkpt>
      <trkpt lat="43.91343" lon="7.2339">
        <ele>1116.6</ele>
        <time>2012-09-15T14:38:14.000Z</time>
      </trkpt>
      <trkpt lat="43.91339" lon="7.23396">
        <ele>1118.9</ele>
        <time>2012-09-15T14:38:18.000Z</time>
      </trkpt>
      <trkpt lat="43.91334" lon="7.234">
        <ele>1121.2</ele>
        <time>2012-09-15T14:38:22.000Z</time>
      </trkpt>
      <trkpt lat="43.91331" lon="7.23406">
        <ele>1122.1</ele>
        <time>2012-09-15T14:38:26.000Z</time>
      </trkpt>
      <trkpt lat="43.91326" lon="7.23404">
        <ele>1122.8</ele>
        <time>2012-09-15T14:38:29.000Z</time>
      </trkpt>
      <trkpt lat="43.91321" lon="7.23406">
        <ele>1123.4</ele>
        <time>2012-09-15T14:38:32.000Z</time>
      </trkpt>
      <trkpt lat="43.91317" lon="7.23401">
        <ele>1124.6</ele>
        <time>2012-09-15T14:38:36.000Z</time>
      </trkpt>
      <trkpt lat="43.91311" lon="7.23401">
        <ele>1125.6</ele>
        <time>2012-09-15T14:38:40.000Z</time>
      </trkpt>
      <trkpt lat="43.91308" lon="7.23395">
        <ele>1127.1</ele>
        <time>2012-09-15T14:38:43.000Z</time>
      </trkpt>
      <trkpt lat="43.91304" lon="7.2339">
        <ele>1128.3</ele>
        <time>2012-09-15T14:38:46.000Z</time>
      </trkpt>
      <trkpt lat="43.91301" lon="7.23385">
        <ele>1129.2</ele>
        <time>2012-09-15T14:38:49.000Z</time>
      </trkpt>
      <trkpt lat="43.91296" lon="7.23384">
        <ele>1130.6</ele>
        <time>2012-09-15T14:38:52.000Z</time>
      </trkpt>
      <trkpt lat="43.91291" lon="7.23384">
        <ele>1131.6</ele>
        <time>2012-09-15T14:38:55.000Z</time>
      </trkpt>
      <trkpt lat="43.91285" lon="7.23384">
        <ele>1133</ele>
        <time>2012-09-15T14:38:58.000Z</time>
      </trkpt>
      <trkpt lat="43.9128" lon="7.23386">
        <ele>1132.7</ele>
        <time>2012-09-15T14:39:01.000Z</time>
      </trkpt>
      <trkpt lat="43.91276" lon="7.23389">
        <ele>1132.5</ele>
        <time>2012-09-15T14:39:04.000Z</time>
      </trkpt>
      <trkpt lat="43.9127" lon="7.23391">
        <ele>1134</ele>
        <time>2012-09-15T14:39:07.000Z</time>
      </trkpt>
      <trkpt lat="43.91264" lon="7.23393">
        <ele>1134.3</ele>
        <time>2012-09-15T14:39:10.000Z</time>
      </trkpt>
      <trkpt lat="43.91258" lon="7.23395">
        <ele>1134.9</ele>
        <time>2012-09-15T14:39:13.000Z</time>
      </trkpt>
      <trkpt lat="43.91253" lon="7.23397">
        <ele>1135.9</ele>
        <time>2012-09-15T14:39:15.000Z</time>
      </trkpt>
      <trkpt lat="43.91249" lon="7.234">
        <ele>1136.4</ele>
        <time>2012-09-15T14:39:17.000Z</time>
      </trkpt>
      <trkpt lat="43.91244" lon="7.23401">
        <ele>1136</ele>
        <time>2012-09-15T14:39:19.000Z</time>
      </trkpt>
      <trkpt lat="43.91238" lon="7.23404">
        <ele>1136.5</ele>
        <time>2012-09-15T14:39:22.000Z</time>
      </trkpt>
      <trkpt lat="43.91234" lon="7.23406">
        <ele>1137.3</ele>
        <time>2012-09-15T14:39:24.000Z</time>
      </trkpt>
      <trkpt lat="43.91229" lon="7.23407">
        <ele>1137.9</ele>
        <time>2012-09-15T14:39:26.000Z</time>
      </trkpt>
      <trkpt lat="43.91225" lon="7.23409">
        <ele>1139.3</ele>
        <time>2012-09-15T14:39:28.000Z</time>
      </trkpt>
      <trkpt lat="43.9122" lon="7.23411">
        <ele>1141.5</ele>
        <time>2012-09-15T14:39:30.000Z</time>
      </trkpt>
      <trkpt lat="43.91216" lon="7.23412">
        <ele>1142.7</ele>
        <time>2012-09-15T14:39:32.000Z</time>
      </trkpt>
      <trkpt lat="43.91209" lon="7.23415">
        <ele>1145.8</ele>
        <time>2012-09-15T14:39:35.000Z</time>
      </trkpt>
      <trkpt lat="43.91205" lon="7.23417">
        <ele>1147</ele>
        <time>2012-09-15T14:39:37.000Z</time>
      </trkpt>
      <trkpt lat="43.912" lon="7.23418">
        <ele>1143.2</ele>
        <time>2012-09-15T14:39:40.000Z</time>
      </trkpt>
      <trkpt lat="43.91194" lon="7.2342">
        <ele>1141.3</ele>
        <time>2012-09-15T14:39:43.000Z</time>
      </trkpt>
      <trkpt lat="43.91188" lon="7.23422">
        <ele>1142.6</ele>
        <time>2012-09-15T14:39:46.000Z</time>
      </trkpt>
      <trkpt lat="43.91183" lon="7.23424">
        <ele>1142.6</ele>
        <time>2012-09-15T14:39:49.000Z</time>
      </trkpt>
      <trkpt lat="43.91177" lon="7.23428">
        <ele>1140.8</ele>
        <time>2012-09-15T14:39:52.000Z</time>
      </trkpt>
      <trkpt lat="43.91173" lon="7.2343">
        <ele>1140.9</ele>
        <time>2012-09-15T14:39:54.000Z</time>
      </trkpt>
      <trkpt lat="43.91167" lon="7.23433">
        <ele>1140.4</ele>
        <time>2012-09-15T14:39:57.000Z</time>
      </trkpt>
      <trkpt lat="43.91161" lon="7.23436">
        <ele>1141.6</ele>
        <time>2012-09-15T14:40:00.000Z</time>
      </trkpt>
      <trkpt lat="43.91155" lon="7.23441">
        <ele>1142.6</ele>
        <time>2012-09-15T14:40:03.000Z</time>
      </trkpt>
      <trkpt lat="43.9115" lon="7.23444">
        <ele>1142.7</ele>
        <time>2012-09-15T14:40:05.000Z</time>
      </trkpt>
      <trkpt lat="43.91145" lon="7.2345">
        <ele>1142</ele>
        <time>2012-09-15T14:40:08.000Z</time>
      </trkpt>
      <trkpt lat="43.91142" lon="7.23454">
        <ele>1141.7</ele>
        <time>2012-09-15T14:40:10.000Z</time>
      </trkpt>
      <trkpt lat="43.91139" lon="7.23459">
        <ele>1140</ele>
        <time>2012-09-15T14:40:12.000Z</time>
      </trkpt>
      <trkpt lat="43.91134" lon="7.23464">
        <ele>1139.2</ele>
        <time>2012-09-15T14:40:15.000Z</time>
      </trkpt>
      <trkpt lat="43.91127" lon="7.23467">
        <ele>1139.8</ele>
        <time>2012-09-15T14:40:18.000Z</time>
      </trkpt>
      <trkpt lat="43.91122" lon="7.23469">
        <ele>1140.3</ele>
        <time>2012-09-15T14:40:21.000Z</time>
      </trkpt>
      <trkpt lat="43.91116" lon="7.2347">
        <ele>1141.4</ele>
        <time>2012-09-15T14:40:24.000Z</time>
      </trkpt>
      <trkpt lat="43.9111" lon="7.23471">
        <ele>1142.1</ele>
        <time>2012-09-15T14:40:27.000Z</time>
      </trkpt>
      <trkpt lat="43.91105" lon="7.23464">
        <ele>1142.4</ele>
        <time>2012-09-15T14:40:30.000Z</time>
      </trkpt>
      <trkpt lat="43.91101" lon="7.23457">
        <ele>1142.9</ele>
        <time>2012-09-15T14:40:33.000Z</time>
      </trkpt>
      <trkpt lat="43.91098" lon="7.23449">
        <ele>1143.5</ele>
        <time>2012-09-15T14:40:36.000Z</time>
      </trkpt>
      <trkpt lat="43.91094" lon="7.23441">
        <ele>1144.8</ele>
        <time>2012-09-15T14:40:39.000Z</time>
      </trkpt>
      <trkpt lat="43.9109" lon="7.23438">
        <ele>1145.5</ele>
        <time>2012-09-15T14:40:41.000Z</time>
      </trkpt>
      <trkpt lat="43.91085" lon="7.23432">
        <ele>1146.6</ele>
        <time>2012-09-15T14:40:44.000Z</time>
      </trkpt>
      <trkpt lat="43.9108" lon="7.23425">
        <ele>1147.8</ele>
        <time>2012-09-15T14:40:47.000Z</time>
      </trkpt>
      <trkpt lat="43.91077" lon="7.23421">
        <ele>1149.6</ele>
        <time>2012-09-15T14:40:49.000Z</time>
      </trkpt>
      <trkpt lat="43.91073" lon="7.23415">
        <ele>1150.8</ele>
        <time>2012-09-15T14:40:52.000Z</time>
      </trkpt>
      <trkpt lat="43.91067" lon="7.23409">
        <ele>1152</ele>
        <time>2012-09-15T14:40:55.000Z</time>
      </trkpt>
      <trkpt lat="43.91063" lon="7.23408">
        <ele>1152.4</ele>
        <time>2012-09-15T14:40:58.000Z</time>
      </trkpt>
      <trkpt lat="43.91057" lon="7.23406">
        <ele>1153.1</ele>
        <time>2012-09-15T14:41:01.000Z</time>
      </trkpt>
      <trkpt lat="43.91052" lon="7.23403">
        <ele>1154.7</ele>
        <time>2012-09-15T14:41:04.000Z</time>
      </trkpt>
      <trkpt lat="43.91047" lon="7.23403">
        <ele>1155.1</ele>
        <time>2012-09-15T14:41:06.000Z</time>
      </trkpt>
      <trkpt lat="43.91042" lon="7.234">
        <ele>1155</ele>
        <time>2012-09-15T14:41:09.000Z</time>
      </trkpt>
      <trkpt lat="43.91037" lon="7.23395">
        <ele>1155.7</ele>
        <time>2012-09-15T14:41:12.000Z</time>
      </trkpt>
      <trkpt lat="43.91034" lon="7.23389">
        <ele>1156.3</ele>
        <time>2012-09-15T14:41:14.000Z</time>
      </trkpt>
      <trkpt lat="43.91033" lon="7.23382">
        <ele>1157.4</ele>
        <time>2012-09-15T14:41:17.000Z</time>
      </trkpt>
      <trkpt lat="43.91038" lon="7.2338">
        <ele>1157.8</ele>
        <time>2012-09-15T14:41:20.000Z</time>
      </trkpt>
      <trkpt lat="43.91043" lon="7.23383">
        <ele>1158.3</ele>
        <time>2012-09-15T14:41:23.000Z</time>
      </trkpt>
      <trkpt lat="43.91048" lon="7.23387">
        <ele>1158.2</ele>
        <time>2012-09-15T14:41:26.000Z</time>
      </trkpt>
      <trkpt lat="43.91052" lon="7.23391">
        <ele>1158.7</ele>
        <time>2012-09-15T14:41:29.000Z</time>
      </trkpt>
      <trkpt lat="43.91058" lon="7.23394">
        <ele>1160</ele>
        <time>2012-09-15T14:41:32.000Z</time>
      </trkpt>
      <trkpt lat="43.91063" lon="7.23396">
        <ele>1161.7</ele>
        <time>2012-09-15T14:41:35.000Z</time>
      </trkpt>
      <trkpt lat="43.91067" lon="7.23399">
        <ele>1161.7</ele>
        <time>2012-09-15T14:41:38.000Z</time>
      </trkpt>
      <trkpt lat="43.91072" lon="7.23402">
        <ele>1162.7</ele>
        <time>2012-09-15T14:41:41.000Z</time>
      </trkpt>
      <trkpt lat="43.91077" lon="7.23405">
        <ele>1163.5</ele>
        <time>2012-09-15T14:41:44.000Z</time>
      </trkpt>
      <trkpt lat="43.91082" lon="7.23408">
        <ele>1164.3</ele>
        <time>2012-09-15T14:41:47.000Z</time>
      </trkpt>
      <trkpt lat="43.91087" lon="7.23412">
        <ele>1164.2</ele>
        <time>2012-09-15T14:41:50.000Z</time>
      </trkpt>
      <trkpt lat="43.91092" lon="7.23414">
        <ele>1164.6</ele>
        <time>2012-09-15T14:41:53.000Z</time>
      </trkpt>
      <trkpt lat="43.91096" lon="7.23418">
        <ele>1165</ele>
        <time>2012-09-15T14:41:56.000Z</time>
      </trkpt>
      <trkpt lat="43.911" lon="7.23423">
        <ele>1166.2</ele>
        <time>2012-09-15T14:41:59.000Z</time>
      </trkpt>
      <trkpt lat="43.91104" lon="7.23427">
        <ele>1166.3</ele>
        <time>2012-09-15T14:42:02.000Z</time>
      </trkpt>
      <trkpt lat="43.91108" lon="7.2343">
        <ele>1165.6</ele>
        <time>2012-09-15T14:42:05.000Z</time>
      </trkpt>
      <trkpt lat="43.91114" lon="7.23431">
        <ele>1167</ele>
        <time>2012-09-15T14:42:08.000Z</time>
      </trkpt>
      <trkpt lat="43.91119" lon="7.23428">
        <ele>1166.9</ele>
        <time>2012-09-15T14:42:11.000Z</time>
      </trkpt>
      <trkpt lat="43.91124" lon="7.23423">
        <ele>1166.1</ele>
        <time>2012-09-15T14:42:14.000Z</time>
      </trkpt>
      <trkpt lat="43.91128" lon="7.2342">
        <ele>1166.2</ele>
        <time>2012-09-15T14:42:17.000Z</time>
      </trkpt>
      <trkpt lat="43.91132" lon="7.23415">
        <ele>1166.5</ele>
        <time>2012-09-15T14:42:20.000Z</time>
      </trkpt>
      <trkpt lat="43.91136" lon="7.23411">
        <ele>1166.8</ele>
        <time>2012-09-15T14:42:23.000Z</time>
      </trkpt>
      <trkpt lat="43.91141" lon="7.23406">
        <ele>1167.5</ele>
        <time>2012-09-15T14:42:26.000Z</time>
      </trkpt>
      <trkpt lat="43.91144" lon="7.23401">
        <ele>1167.9</ele>
        <time>2012-09-15T14:42:29.000Z</time>
      </trkpt>
      <trkpt lat="43.91149" lon="7.23397">
        <ele>1168</ele>
        <time>2012-09-15T14:42:32.000Z</time>
      </trkpt>
      <trkpt lat="43.91153" lon="7.23392">
        <ele>1168.5</ele>
        <time>2012-09-15T14:42:35.000Z</time>
      </trkpt>
      <trkpt lat="43.91158" lon="7.2339">
        <ele>1168.2</ele>
        <time>2012-09-15T14:42:38.000Z</time>
      </trkpt>
      <trkpt lat="43.91164" lon="7.23388">
        <ele>1168.8</ele>
        <time>2012-09-15T14:42:41.000Z</time>
      </trkpt>
      <trkpt lat="43.91166" lon="7.23381">
        <ele>1169.2</ele>
        <time>2012-09-15T14:42:44.000Z</time>
      </trkpt>
      <trkpt lat="43.91171" lon="7.23378">
        <ele>1169.7</ele>
        <time>2012-09-15T14:42:47.000Z</time>
      </trkpt>
      <trkpt lat="43.91177" lon="7.23377">
        <ele>1170.6</ele>
        <time>2012-09-15T14:42:50.000Z</time>
      </trkpt>
      <trkpt lat="43.9118" lon="7.2337">
        <ele>1169.2</ele>
        <time>2012-09-15T14:48:48.000Z</time>
      </trkpt>
      <trkpt lat="43.91184" lon="7.23365">
        <ele>1168.7</ele>
        <time>2012-09-15T14:48:51.000Z</time>
      </trkpt>
      <trkpt lat="43.91188" lon="7.23362">
        <ele>1169.7</ele>
        <time>2012-09-15T14:48:54.000Z</time>
      </trkpt>
      <trkpt lat="43.91192" lon="7.23359">
        <ele>1169.2</ele>
        <time>2012-09-15T14:48:57.000Z</time>
      </trkpt>
      <trkpt lat="43.91197" lon="7.23356">
        <ele>1169.4</ele>
        <time>2012-09-15T14:49:00.000Z</time>
      </trkpt>
      <trkpt lat="43.91201" lon="7.23352">
        <ele>1169.1</ele>
        <time>2012-09-15T14:49:03.000Z</time>
      </trkpt>
      <trkpt lat="43.91205" lon="7.23348">
        <ele>1167.7</ele>
        <time>2012-09-15T14:49:06.000Z</time>
      </trkpt>
      <trkpt lat="43.91209" lon="7.23344">
        <ele>1167.4</ele>
        <time>2012-09-15T14:49:09.000Z</time>
      </trkpt>
      <trkpt lat="43.91212" lon="7.2334">
        <ele>1167.5</ele>
        <time>2012-09-15T14:49:12.000Z</time>
      </trkpt>
      <trkpt lat="43.91216" lon="7.23335">
        <ele>1167.7</ele>
        <time>2012-09-15T14:49:15.000Z</time>
      </trkpt>
      <trkpt lat="43.91221" lon="7.23331">
        <ele>1167.2</ele>
        <time>2012-09-15T14:49:18.000Z</time>
      </trkpt>
      <trkpt lat="43.91224" lon="7.23324">
        <ele>1167.3</ele>
        <time>2012-09-15T14:49:21.000Z</time>
      </trkpt>
      <trkpt lat="43.91228" lon="7.23319">
        <ele>1167.4</ele>
        <time>2012-09-15T14:49:24.000Z</time>
      </trkpt>
      <trkpt lat="43.91232" lon="7.23313">
        <ele>1167.4</ele>
        <time>2012-09-15T14:49:27.000Z</time>
      </trkpt>
      <trkpt lat="43.91236" lon="7.23306">
        <ele>1168.4</ele>
        <time>2012-09-15T14:49:30.000Z</time>
      </trkpt>
      <trkpt lat="43.91238" lon="7.23299">
        <ele>1168.6</ele>
        <time>2012-09-15T14:49:33.000Z</time>
      </trkpt>
      <trkpt lat="43.91241" lon="7.23292">
        <ele>1168.8</ele>
        <time>2012-09-15T14:49:36.000Z</time>
      </trkpt>
      <trkpt lat="43.91243" lon="7.23283">
        <ele>1168.7</ele>
        <time>2012-09-15T14:49:40.000Z</time>
      </trkpt>
      <trkpt lat="43.91244" lon="7.23276">
        <ele>1169.5</ele>
        <time>2012-09-15T14:49:43.000Z</time>
      </trkpt>
      <trkpt lat="43.91246" lon="7.23269">
        <ele>1169.3</ele>
        <time>2012-09-15T14:49:46.000Z</time>
      </trkpt>
      <trkpt lat="43.91248" lon="7.23261">
        <ele>1169.6</ele>
        <time>2012-09-15T14:49:50.000Z</time>
      </trkpt>
      <trkpt lat="43.91251" lon="7.23255">
        <ele>1169.4</ele>
        <time>2012-09-15T14:49:53.000Z</time>
      </trkpt>
      <trkpt lat="43.91252" lon="7.23248">
        <ele>1169.6</ele>
        <time>2012-09-15T14:49:56.000Z</time>
      </trkpt>
      <trkpt lat="43.91253" lon="7.23241">
        <ele>1169.6</ele>
        <time>2012-09-15T14:49:59.000Z</time>
      </trkpt>
      <trkpt lat="43.91256" lon="7.23234">
        <ele>1169.7</ele>
        <time>2012-09-15T14:50:02.000Z</time>
      </trkpt>
      <trkpt lat="43.91258" lon="7.23228">
        <ele>1170.3</ele>
        <time>2012-09-15T14:50:05.000Z</time>
      </trkpt>
      <trkpt lat="43.9126" lon="7.23223">
        <ele>1170.7</ele>
        <time>2012-09-15T14:50:08.000Z</time>
      </trkpt>
      <trkpt lat="43.91265" lon="7.23217">
        <ele>1171.1</ele>
        <time>2012-09-15T14:50:11.000Z</time>
      </trkpt>
      <trkpt lat="43.91268" lon="7.2321">
        <ele>1170.8</ele>
        <time>2012-09-15T14:50:14.000Z</time>
      </trkpt>
      <trkpt lat="43.91271" lon="7.23203">
        <ele>1171.2</ele>
        <time>2012-09-15T14:50:18.000Z</time>
      </trkpt>
      <trkpt lat="43.91273" lon="7.23196">
        <ele>1171</ele>
        <time>2012-09-15T14:50:22.000Z</time>
      </trkpt>
      <trkpt lat="43.91277" lon="7.23189">
        <ele>1171.7</ele>
        <time>2012-09-15T14:50:25.000Z</time>
      </trkpt>
      <trkpt lat="43.9128" lon="7.23183">
        <ele>1171.4</ele>
        <time>2012-09-15T14:50:28.000Z</time>
      </trkpt>
      <trkpt lat="43.91283" lon="7.23177">
        <ele>1171.7</ele>
        <time>2012-09-15T14:50:31.000Z</time>
      </trkpt>
      <trkpt lat="43.91287" lon="7.23173">
        <ele>1172.5</ele>
        <time>2012-09-15T14:50:34.000Z</time>
      </trkpt>
      <trkpt lat="43.91288" lon="7.23165">
        <ele>1172.8</ele>
        <time>2012-09-15T14:50:37.000Z</time>
      </trkpt>
      <trkpt lat="43.91287" lon="7.23158">
        <ele>1173.5</ele>
        <time>2012-09-15T14:50:40.000Z</time>
      </trkpt>
      <trkpt lat="43.91287" lon="7.23152">
        <ele>1174.7</ele>
        <time>2012-09-15T14:50:43.000Z</time>
      </trkpt>
      <trkpt lat="43.91285" lon="7.23145">
        <ele>1174.1</ele>
        <time>2012-09-15T14:50:46.000Z</time>
      </trkpt>
      <trkpt lat="43.91284" lon="7.23138">
        <ele>1174.4</ele>
        <time>2012-09-15T14:50:49.000Z</time>
      </trkpt>
      <trkpt lat="43.91284" lon="7.2313">
        <ele>1175</ele>
        <time>2012-09-15T14:50:52.000Z</time>
      </trkpt>
      <trkpt lat="43.91284" lon="7.23122">
        <ele>1174.7</ele>
        <time>2012-09-15T14:50:55.000Z</time>
      </trkpt>
      <trkpt lat="43.91284" lon="7.23116">
        <ele>1175.5</ele>
        <time>2012-09-15T14:50:58.000Z</time>
      </trkpt>
      <trkpt lat="43.91284" lon="7.23108">
        <ele>1175.4</ele>
        <time>2012-09-15T14:51:01.000Z</time>
      </trkpt>
      <trkpt lat="43.91281" lon="7.23101">
        <ele>1178.1</ele>
        <time>2012-09-15T14:51:05.000Z</time>
      </trkpt>
      <trkpt lat="43.91278" lon="7.23095">
        <ele>1174.9</ele>
        <time>2012-09-15T14:51:08.000Z</time>
      </trkpt>
      <trkpt lat="43.91273" lon="7.2309">
        <ele>1174.8</ele>
        <time>2012-09-15T14:51:11.000Z</time>
      </trkpt>
      <trkpt lat="43.9127" lon="7.23083">
        <ele>1176.6</ele>
        <time>2012-09-15T14:51:14.000Z</time>
      </trkpt>
      <trkpt lat="43.91266" lon="7.23078">
        <ele>1177.5</ele>
        <time>2012-09-15T14:51:16.000Z</time>
      </trkpt>
      <trkpt lat="43.91264" lon="7.23071">
        <ele>1179.5</ele>
        <time>2012-09-15T14:51:19.000Z</time>
      </trkpt>
      <trkpt lat="43.91262" lon="7.23064">
        <ele>1182.2</ele>
        <time>2012-09-15T14:51:22.000Z</time>
      </trkpt>
      <trkpt lat="43.9126" lon="7.23057">
        <ele>1181.6</ele>
        <time>2012-09-15T14:51:26.000Z</time>
      </trkpt>
      <trkpt lat="43.91257" lon="7.2305">
        <ele>1182.7</ele>
        <time>2012-09-15T14:51:29.000Z</time>
      </trkpt>
      <trkpt lat="43.91252" lon="7.23046">
        <ele>1184.1</ele>
        <time>2012-09-15T14:51:32.000Z</time>
      </trkpt>
      <trkpt lat="43.91247" lon="7.23039">
        <ele>1182.6</ele>
        <time>2012-09-15T14:51:35.000Z</time>
      </trkpt>
      <trkpt lat="43.91246" lon="7.23031">
        <ele>1183.1</ele>
        <time>2012-09-15T14:51:38.000Z</time>
      </trkpt>
      <trkpt lat="43.91245" lon="7.23025">
        <ele>1184</ele>
        <time>2012-09-15T14:51:40.000Z</time>
      </trkpt>
      <trkpt lat="43.91244" lon="7.23018">
        <ele>1184.7</ele>
        <time>2012-09-15T14:51:42.000Z</time>
      </trkpt>
      <trkpt lat="43.91242" lon="7.23012">
        <ele>1184.4</ele>
        <time>2012-09-15T14:51:45.000Z</time>
      </trkpt>
      <trkpt lat="43.9124" lon="7.23004">
        <ele>1186.2</ele>
        <time>2012-09-15T14:51:48.000Z</time>
      </trkpt>
      <trkpt lat="43.91238" lon="7.22998">
        <ele>1186.2</ele>
        <time>2012-09-15T14:51:51.000Z</time>
      </trkpt>
      <trkpt lat="43.91235" lon="7.22992">
        <ele>1186.4</ele>
        <time>2012-09-15T14:51:54.000Z</time>
      </trkpt>
      <trkpt lat="43.91234" lon="7.22984">
        <ele>1186.5</ele>
        <time>2012-09-15T14:51:58.000Z</time>
      </trkpt>
      <trkpt lat="43.9123" lon="7.22977">
        <ele>1186.9</ele>
        <time>2012-09-15T14:52:01.000Z</time>
      </trkpt>
      <trkpt lat="43.91229" lon="7.22968">
        <ele>1188.2</ele>
        <time>2012-09-15T14:52:04.000Z</time>
      </trkpt>
      <trkpt lat="43.91227" lon="7.22961">
        <ele>1189</ele>
        <time>2012-09-15T14:52:07.000Z</time>
      </trkpt>
      <trkpt lat="43.91223" lon="7.22956">
        <ele>1191.1</ele>
        <time>2012-09-15T14:52:10.000Z</time>
      </trkpt>
      <trkpt lat="43.9122" lon="7.22948">
        <ele>1191.2</ele>
        <time>2012-09-15T14:52:13.000Z</time>
      </trkpt>
      <trkpt lat="43.91217" lon="7.22942">
        <ele>1190.1</ele>
        <time>2012-09-15T14:52:16.000Z</time>
      </trkpt>
      <trkpt lat="43.91213" lon="7.22935">
        <ele>1189.2</ele>
        <time>2012-09-15T14:52:20.000Z</time>
      </trkpt>
      <trkpt lat="43.91209" lon="7.2293">
        <ele>1188</ele>
        <time>2012-09-15T14:52:23.000Z</time>
      </trkpt>
      <trkpt lat="43.91205" lon="7.22925">
        <ele>1188.1</ele>
        <time>2012-09-15T14:52:26.000Z</time>
      </trkpt>
      <trkpt lat="43.91201" lon="7.22921">
        <ele>1187.6</ele>
        <time>2012-09-15T14:52:29.000Z</time>
      </trkpt>
      <trkpt lat="43.91194" lon="7.22918">
        <ele>1187.7</ele>
        <time>2012-09-15T14:52:33.000Z</time>
      </trkpt>
      <trkpt lat="43.9119" lon="7.22913">
        <ele>1189.1</ele>
        <time>2012-09-15T14:52:37.000Z</time>
      </trkpt>
      <trkpt lat="43.91185" lon="7.22908">
        <ele>1190.6</ele>
        <time>2012-09-15T14:52:40.000Z</time>
      </trkpt>
      <trkpt lat="43.9118" lon="7.22903">
        <ele>1193.5</ele>
        <time>2012-09-15T14:52:44.000Z</time>
      </trkpt>
      <trkpt lat="43.91176" lon="7.22898">
        <ele>1193.7</ele>
        <time>2012-09-15T14:52:47.000Z</time>
      </trkpt>
      <trkpt lat="43.91172" lon="7.22894">
        <ele>1194.4</ele>
        <time>2012-09-15T14:52:52.000Z</time>
      </trkpt>
      <trkpt lat="43.91168" lon="7.22891">
        <ele>1193.7</ele>
        <time>2012-09-15T14:52:55.000Z</time>
      </trkpt>
      <trkpt lat="43.91164" lon="7.22884">
        <ele>1193.5</ele>
        <time>2012-09-15T14:52:58.000Z</time>
      </trkpt>
      <trkpt lat="43.91161" lon="7.22878">
        <ele>1194.1</ele>
        <time>2012-09-15T14:53:02.000Z</time>
      </trkpt>
      <trkpt lat="43.91157" lon="7.22875">
        <ele>1194.5</ele>
        <time>2012-09-15T14:53:05.000Z</time>
      </trkpt>
      <trkpt lat="43.91154" lon="7.22866">
        <ele>1194.9</ele>
        <time>2012-09-15T14:53:08.000Z</time>
      </trkpt>
      <trkpt lat="43.91153" lon="7.22859">
        <ele>1196.1</ele>
        <time>2012-09-15T14:53:11.000Z</time>
      </trkpt>
      <trkpt lat="43.9115" lon="7.22854">
        <ele>1196.1</ele>
        <time>2012-09-15T14:53:14.000Z</time>
      </trkpt>
      <trkpt lat="43.91144" lon="7.22852">
        <ele>1196.6</ele>
        <time>2012-09-15T14:53:17.000Z</time>
      </trkpt>
      <trkpt lat="43.91142" lon="7.2286">
        <ele>1197.7</ele>
        <time>2012-09-15T14:53:21.000Z</time>
      </trkpt>
      <trkpt lat="43.91144" lon="7.22868">
        <ele>1199.4</ele>
        <time>2012-09-15T14:53:24.000Z</time>
      </trkpt>
      <trkpt lat="43.91147" lon="7.22876">
        <ele>1200.1</ele>
        <time>2012-09-15T14:53:27.000Z</time>
      </trkpt>
      <trkpt lat="43.9115" lon="7.22884">
        <ele>1198.4</ele>
        <time>2012-09-15T14:53:31.000Z</time>
      </trkpt>
      <trkpt lat="43.91154" lon="7.2289">
        <ele>1199</ele>
        <time>2012-09-15T14:53:34.000Z</time>
      </trkpt>
      <trkpt lat="43.91158" lon="7.22896">
        <ele>1198.4</ele>
        <time>2012-09-15T14:53:37.000Z</time>
      </trkpt>
      <trkpt lat="43.9116" lon="7.22902">
        <ele>1198.2</ele>
        <time>2012-09-15T14:53:39.000Z</time>
      </trkpt>
      <trkpt lat="43.91163" lon="7.22908">
        <ele>1199</ele>
        <time>2012-09-15T14:53:42.000Z</time>
      </trkpt>
      <trkpt lat="43.91168" lon="7.22911">
        <ele>1199.8</ele>
        <time>2012-09-15T14:53:45.000Z</time>
      </trkpt>
      <trkpt lat="43.91172" lon="7.22916">
        <ele>1200.2</ele>
        <time>2012-09-15T14:53:47.000Z</time>
      </trkpt>
      <trkpt lat="43.91175" lon="7.22922">
        <ele>1200.6</ele>
        <time>2012-09-15T14:53:50.000Z</time>
      </trkpt>
      <trkpt lat="43.91178" lon="7.22928">
        <ele>1201.9</ele>
        <time>2012-09-15T14:53:53.000Z</time>
      </trkpt>
      <trkpt lat="43.91183" lon="7.22936">
        <ele>1203</ele>
        <time>2012-09-15T14:53:56.000Z</time>
      </trkpt>
      <trkpt lat="43.91187" lon="7.22942">
        <ele>1203.3</ele>
        <time>2012-09-15T14:53:59.000Z</time>
      </trkpt>
      <trkpt lat="43.91189" lon="7.22948">
        <ele>1205.3</ele>
        <time>2012-09-15T14:54:01.000Z</time>
      </trkpt>
      <trkpt lat="43.91191" lon="7.22955">
        <ele>1205</ele>
        <time>2012-09-15T14:54:04.000Z</time>
      </trkpt>
      <trkpt lat="43.91194" lon="7.22961">
        <ele>1205.4</ele>
        <time>2012-09-15T14:54:07.000Z</time>
      </trkpt>
      <trkpt lat="43.91194" lon="7.22968">
        <ele>1204.3</ele>
        <time>2012-09-15T14:54:09.000Z</time>
      </trkpt>
      <trkpt lat="43.91192" lon="7.22974">
        <ele>1203.3</ele>
        <time>2012-09-15T14:54:12.000Z</time>
      </trkpt>
      <trkpt lat="43.91194" lon="7.22982">
        <ele>1205.3</ele>
        <time>2012-09-15T14:54:15.000Z</time>
      </trkpt>
      <trkpt lat="43.91191" lon="7.22991">
        <ele>1203.2</ele>
        <time>2012-09-15T14:54:19.000Z</time>
      </trkpt>
      <trkpt lat="43.9119" lon="7.22999">
        <ele>1200.8</ele>
        <time>2012-09-15T14:54:23.000Z</time>
      </trkpt>
      <trkpt lat="43.91192" lon="7.23008">
        <ele>1203</ele>
        <time>2012-09-15T14:54:26.000Z</time>
      </trkpt>
      <trkpt lat="43.91193" lon="7.23016">
        <ele>1202.2</ele>
        <time>2012-09-15T14:54:29.000Z</time>
      </trkpt>
      <trkpt lat="43.91196" lon="7.23024">
        <ele>1204.2</ele>
        <time>2012-09-15T14:54:32.000Z</time>
      </trkpt>
      <trkpt lat="43.91199" lon="7.2303">
        <ele>1204.8</ele>
        <time>2012-09-15T14:54:35.000Z</time>
      </trkpt>
      <trkpt lat="43.91199" lon="7.23037">
        <ele>1203.5</ele>
        <time>2012-09-15T14:54:38.000Z</time>
      </trkpt>
      <trkpt lat="43.912" lon="7.23045">
        <ele>1204.2</ele>
        <time>2012-09-15T14:54:41.000Z</time>
      </trkpt>
      <trkpt lat="43.91203" lon="7.23053">
        <ele>1205.1</ele>
        <time>2012-09-15T14:54:44.000Z</time>
      </trkpt>
      <trkpt lat="43.91203" lon="7.2306">
        <ele>1206.5</ele>
        <time>2012-09-15T14:54:47.000Z</time>
      </trkpt>
      <trkpt lat="43.91204" lon="7.23067">
        <ele>1206</ele>
        <time>2012-09-15T14:54:50.000Z</time>
      </trkpt>
      <trkpt lat="43.91205" lon="7.23074">
        <ele>1203.7</ele>
        <time>2012-09-15T14:54:53.000Z</time>
      </trkpt>
      <trkpt lat="43.91206" lon="7.23081">
        <ele>1204.9</ele>
        <time>2012-09-15T14:54:56.000Z</time>
      </trkpt>
      <trkpt lat="43.91211" lon="7.23092">
        <ele>1206.9</ele>
        <time>2012-09-15T14:55:00.000Z</time>
      </trkpt>
      <trkpt lat="43.91211" lon="7.23098">
        <ele>1209.2</ele>
        <time>2012-09-15T14:55:03.000Z</time>
      </trkpt>
      <trkpt lat="43.91211" lon="7.23106">
        <ele>1209.8</ele>
        <time>2012-09-15T14:55:06.000Z</time>
      </trkpt>
      <trkpt lat="43.91211" lon="7.23113">
        <ele>1210</ele>
        <time>2012-09-15T14:55:08.000Z</time>
      </trkpt>
      <trkpt lat="43.91211" lon="7.23122">
        <ele>1212.7</ele>
        <time>2012-09-15T14:55:11.000Z</time>
      </trkpt>
      <trkpt lat="43.9121" lon="7.23129">
        <ele>1213.1</ele>
        <time>2012-09-15T14:55:14.000Z</time>
      </trkpt>
      <trkpt lat="43.91207" lon="7.23136">
        <ele>1211.8</ele>
        <time>2012-09-15T14:55:18.000Z</time>
      </trkpt>
      <trkpt lat="43.91204" lon="7.23143">
        <ele>1210.2</ele>
        <time>2012-09-15T14:55:21.000Z</time>
      </trkpt>
      <trkpt lat="43.91203" lon="7.23151">
        <ele>1211.1</ele>
        <time>2012-09-15T14:55:24.000Z</time>
      </trkpt>
      <trkpt lat="43.91202" lon="7.23159">
        <ele>1211.7</ele>
        <time>2012-09-15T14:55:27.000Z</time>
      </trkpt>
      <trkpt lat="43.91203" lon="7.23168">
        <ele>1212.5</ele>
        <time>2012-09-15T14:55:30.000Z</time>
      </trkpt>
      <trkpt lat="43.912" lon="7.23175">
        <ele>1213.3</ele>
        <time>2012-09-15T14:55:33.000Z</time>
      </trkpt>
      <trkpt lat="43.91199" lon="7.23183">
        <ele>1214.1</ele>
        <time>2012-09-15T14:55:36.000Z</time>
      </trkpt>
      <trkpt lat="43.91198" lon="7.23191">
        <ele>1214.1</ele>
        <time>2012-09-15T14:55:39.000Z</time>
      </trkpt>
      <trkpt lat="43.91196" lon="7.23198">
        <ele>1214.4</ele>
        <time>2012-09-15T14:55:42.000Z</time>
      </trkpt>
      <trkpt lat="43.91191" lon="7.23202">
        <ele>1215.8</ele>
        <time>2012-09-15T14:55:45.000Z</time>
      </trkpt>
      <trkpt lat="43.91187" lon="7.23207">
        <ele>1216.5</ele>
        <time>2012-09-15T14:55:48.000Z</time>
      </trkpt>
      <trkpt lat="43.91183" lon="7.23212">
        <ele>1217</ele>
        <time>2012-09-15T14:55:51.000Z</time>
      </trkpt>
      <trkpt lat="43.91178" lon="7.23213">
        <ele>1217.4</ele>
        <time>2012-09-15T14:55:54.000Z</time>
      </trkpt>
      <trkpt lat="43.91173" lon="7.23212">
        <ele>1217.9</ele>
        <time>2012-09-15T14:55:56.000Z</time>
      </trkpt>
      <trkpt lat="43.91167" lon="7.23215">
        <ele>1218.2</ele>
        <time>2012-09-15T14:55:59.000Z</time>
      </trkpt>
      <trkpt lat="43.91161" lon="7.23217">
        <ele>1218.7</ele>
        <time>2012-09-15T14:56:02.000Z</time>
      </trkpt>
      <trkpt lat="43.91156" lon="7.23216">
        <ele>1218.9</ele>
        <time>2012-09-15T14:56:05.000Z</time>
      </trkpt>
      <trkpt lat="43.91151" lon="7.23214">
        <ele>1218.9</ele>
        <time>2012-09-15T14:56:08.000Z</time>
      </trkpt>
      <trkpt lat="43.91147" lon="7.23211">
        <ele>1219.3</ele>
        <time>2012-09-15T14:56:11.000Z</time>
      </trkpt>
      <trkpt lat="43.91142" lon="7.23206">
        <ele>1219.5</ele>
        <time>2012-09-15T14:56:14.000Z</time>
      </trkpt>
      <trkpt lat="43.91139" lon="7.23201">
        <ele>1220.5</ele>
        <time>2012-09-15T14:56:17.000Z</time>
      </trkpt>
      <trkpt lat="43.91135" lon="7.23196">
        <ele>1220.5</ele>
        <time>2012-09-15T14:56:20.000Z</time>
      </trkpt>
      <trkpt lat="43.91131" lon="7.2319">
        <ele>1220.9</ele>
        <time>2012-09-15T14:56:23.000Z</time>
      </trkpt>
      <trkpt lat="43.91128" lon="7.23186">
        <ele>1222.3</ele>
        <time>2012-09-15T14:56:26.000Z</time>
      </trkpt>
      <trkpt lat="43.91124" lon="7.23181">
        <ele>1223</ele>
        <time>2012-09-15T14:56:29.000Z</time>
      </trkpt>
      <trkpt lat="43.9112" lon="7.23176">
        <ele>1223.1</ele>
        <time>2012-09-15T14:56:32.000Z</time>
      </trkpt>
      <trkpt lat="43.91119" lon="7.2317">
        <ele>1223.3</ele>
        <time>2012-09-15T14:56:35.000Z</time>
      </trkpt>
      <trkpt lat="43.91117" lon="7.2316">
        <ele>1224.2</ele>
        <time>2012-09-15T14:56:40.000Z</time>
      </trkpt>
      <trkpt lat="43.91117" lon="7.23152">
        <ele>1224.5</ele>
        <time>2012-09-15T14:56:43.000Z</time>
      </trkpt>
      <trkpt lat="43.91116" lon="7.23145">
        <ele>1224.7</ele>
        <time>2012-09-15T14:56:46.000Z</time>
      </trkpt>
      <trkpt lat="43.91116" lon="7.23138">
        <ele>1225</ele>
        <time>2012-09-15T14:56:49.000Z</time>
      </trkpt>
      <trkpt lat="43.91116" lon="7.23131">
        <ele>1225.2</ele>
        <time>2012-09-15T14:56:52.000Z</time>
      </trkpt>
      <trkpt lat="43.91114" lon="7.23123">
        <ele>1225.7</ele>
        <time>2012-09-15T14:56:55.000Z</time>
      </trkpt>
      <trkpt lat="43.91114" lon="7.23116">
        <ele>1226</ele>
        <time>2012-09-15T14:56:58.000Z</time>
      </trkpt>
      <trkpt lat="43.91114" lon="7.23108">
        <ele>1226.2</ele>
        <time>2012-09-15T14:57:02.000Z</time>
      </trkpt>
      <trkpt lat="43.91118" lon="7.23101">
        <ele>1226.2</ele>
        <time>2012-09-15T14:57:06.000Z</time>
      </trkpt>
      <trkpt lat="43.91121" lon="7.23094">
        <ele>1226.7</ele>
        <time>2012-09-15T14:57:10.000Z</time>
      </trkpt>
      <trkpt lat="43.91123" lon="7.23089">
        <ele>1225.7</ele>
        <time>2012-09-15T14:57:15.000Z</time>
      </trkpt>
      <trkpt lat="43.91126" lon="7.23094">
        <ele>1225.9</ele>
        <time>2012-09-15T14:57:19.000Z</time>
      </trkpt>
      <trkpt lat="43.91126" lon="7.231">
        <ele>1226.4</ele>
        <time>2012-09-15T14:57:23.000Z</time>
      </trkpt>
      <trkpt lat="43.91126" lon="7.23108">
        <ele>1227.4</ele>
        <time>2012-09-15T14:57:28.000Z</time>
      </trkpt>
      <trkpt lat="43.91125" lon="7.23116">
        <ele>1228.4</ele>
        <time>2012-09-15T14:57:32.000Z</time>
      </trkpt>
      <trkpt lat="43.91125" lon="7.23122">
        <ele>1228.6</ele>
        <time>2012-09-15T14:57:35.000Z</time>
      </trkpt>
      <trkpt lat="43.91127" lon="7.23128">
        <ele>1229</ele>
        <time>2012-09-15T14:57:38.000Z</time>
      </trkpt>
      <trkpt lat="43.91129" lon="7.23135">
        <ele>1228.7</ele>
        <time>2012-09-15T14:57:41.000Z</time>
      </trkpt>
      <trkpt lat="43.9113" lon="7.23141">
        <ele>1228.2</ele>
        <time>2012-09-15T14:57:44.000Z</time>
      </trkpt>
      <trkpt lat="43.91132" lon="7.23147">
        <ele>1228.6</ele>
        <time>2012-09-15T14:57:47.000Z</time>
      </trkpt>
      <trkpt lat="43.91128" lon="7.23149">
        <ele>1228</ele>
        <time>2012-09-15T14:57:54.000Z</time>
      </trkpt>
      <trkpt lat="43.91125" lon="7.23142">
        <ele>1227.2</ele>
        <time>2012-09-15T14:58:15.000Z</time>
      </trkpt>
      <trkpt lat="43.91125" lon="7.23135">
        <ele>1226.3</ele>
        <time>2012-09-15T14:58:18.000Z</time>
      </trkpt>
      <trkpt lat="43.91125" lon="7.23127">
        <ele>1225.2</ele>
        <time>2012-09-15T14:58:21.000Z</time>
      </trkpt>
      <trkpt lat="43.91124" lon="7.23121">
        <ele>1225.2</ele>
        <time>2012-09-15T14:58:23.000Z</time>
      </trkpt>
      <trkpt lat="43.91123" lon="7.23113">
        <ele>1229.1</ele>
        <time>2012-09-15T14:58:26.000Z</time>
      </trkpt>
      <trkpt lat="43.91122" lon="7.23104">
        <ele>1228.5</ele>
        <time>2012-09-15T14:58:28.000Z</time>
      </trkpt>
      <trkpt lat="43.91121" lon="7.23097">
        <ele>1228.8</ele>
        <time>2012-09-15T14:58:30.000Z</time>
      </trkpt>
      <trkpt lat="43.9112" lon="7.23088">
        <ele>1229.6</ele>
        <time>2012-09-15T14:58:33.000Z</time>
      </trkpt>
      <trkpt lat="43.91117" lon="7.23082">
        <ele>1230.1</ele>
        <time>2012-09-15T14:58:35.000Z</time>
      </trkpt>
      <trkpt lat="43.91116" lon="7.23076">
        <ele>1230.3</ele>
        <time>2012-09-15T14:58:37.000Z</time>
      </trkpt>
      <trkpt lat="43.91114" lon="7.23068">
        <ele>1232.5</ele>
        <time>2012-09-15T14:58:40.000Z</time>
      </trkpt>
      <trkpt lat="43.91111" lon="7.23062">
        <ele>1232.9</ele>
        <time>2012-09-15T14:58:43.000Z</time>
      </trkpt>
      <trkpt lat="43.91108" lon="7.23056">
        <ele>1233.7</ele>
        <time>2012-09-15T14:58:46.000Z</time>
      </trkpt>
      <trkpt lat="43.91104" lon="7.23049">
        <ele>1234</ele>
        <time>2012-09-15T14:58:49.000Z</time>
      </trkpt>
      <trkpt lat="43.911" lon="7.23044">
        <ele>1234.6</ele>
        <time>2012-09-15T14:58:51.000Z</time>
      </trkpt>
      <trkpt lat="43.91096" lon="7.23039">
        <ele>1235.4</ele>
        <time>2012-09-15T14:58:53.000Z</time>
      </trkpt>
      <trkpt lat="43.91095" lon="7.23033">
        <ele>1236</ele>
        <time>2012-09-15T14:58:55.000Z</time>
      </trkpt>
      <trkpt lat="43.91093" lon="7.23027">
        <ele>1236.2</ele>
        <time>2012-09-15T14:58:57.000Z</time>
      </trkpt>
      <trkpt lat="43.91093" lon="7.2302">
        <ele>1236</ele>
        <time>2012-09-15T14:58:59.000Z</time>
      </trkpt>
      <trkpt lat="43.91094" lon="7.23012">
        <ele>1236.2</ele>
        <time>2012-09-15T14:59:02.000Z</time>
      </trkpt>
      <trkpt lat="43.91093" lon="7.23004">
        <ele>1236.4</ele>
        <time>2012-09-15T14:59:05.000Z</time>
      </trkpt>
      <trkpt lat="43.9109" lon="7.22995">
        <ele>1237</ele>
        <time>2012-09-15T14:59:08.000Z</time>
      </trkpt>
      <trkpt lat="43.91087" lon="7.22987">
        <ele>1237.5</ele>
        <time>2012-09-15T14:59:11.000Z</time>
      </trkpt>
      <trkpt lat="43.91084" lon="7.22979">
        <ele>1237.9</ele>
        <time>2012-09-15T14:59:14.000Z</time>
      </trkpt>
      <trkpt lat="43.9108" lon="7.22972">
        <ele>1238.5</ele>
        <time>2012-09-15T14:59:17.000Z</time>
      </trkpt>
      <trkpt lat="43.91075" lon="7.22966">
        <ele>1238</ele>
        <time>2012-09-15T14:59:20.000Z</time>
      </trkpt>
      <trkpt lat="43.91072" lon="7.22961">
        <ele>1238.1</ele>
        <time>2012-09-15T14:59:22.000Z</time>
      </trkpt>
      <trkpt lat="43.91067" lon="7.22954">
        <ele>1238.9</ele>
        <time>2012-09-15T14:59:25.000Z</time>
      </trkpt>
      <trkpt lat="43.91062" lon="7.22946">
        <ele>1239.6</ele>
        <time>2012-09-15T14:59:28.000Z</time>
      </trkpt>
      <trkpt lat="43.91059" lon="7.2294">
        <ele>1239.3</ele>
        <time>2012-09-15T14:59:30.000Z</time>
      </trkpt>
      <trkpt lat="43.91055" lon="7.22935">
        <ele>1239</ele>
        <time>2012-09-15T14:59:32.000Z</time>
      </trkpt>
      <trkpt lat="43.9105" lon="7.2293">
        <ele>1239</ele>
        <time>2012-09-15T14:59:34.000Z</time>
      </trkpt>
      <trkpt lat="43.91045" lon="7.22924">
        <ele>1239</ele>
        <time>2012-09-15T14:59:36.000Z</time>
      </trkpt>
      <trkpt lat="43.91036" lon="7.22911">
        <ele>1238.9</ele>
        <time>2012-09-15T14:59:39.000Z</time>
      </trkpt>
      <trkpt lat="43.91029" lon="7.22902">
        <ele>1239.2</ele>
        <time>2012-09-15T14:59:41.000Z</time>
      </trkpt>
      <trkpt lat="43.91026" lon="7.22897">
        <ele>1238.8</ele>
        <time>2012-09-15T14:59:42.000Z</time>
      </trkpt>
      <trkpt lat="43.91023" lon="7.22889">
        <ele>1238.4</ele>
        <time>2012-09-15T14:59:44.000Z</time>
      </trkpt>
      <trkpt lat="43.9102" lon="7.22883">
        <ele>1238.3</ele>
        <time>2012-09-15T14:59:45.000Z</time>
      </trkpt>
      <trkpt lat="43.91017" lon="7.22873">
        <ele>1237</ele>
        <time>2012-09-15T14:59:47.000Z</time>
      </trkpt>
      <trkpt lat="43.91014" lon="7.22864">
        <ele>1236.9</ele>
        <time>2012-09-15T14:59:49.000Z</time>
      </trkpt>
      <trkpt lat="43.91012" lon="7.22857">
        <ele>1236.7</ele>
        <time>2012-09-15T14:59:51.000Z</time>
      </trkpt>
      <trkpt lat="43.91011" lon="7.22851">
        <ele>1236.5</ele>
        <time>2012-09-15T14:59:53.000Z</time>
      </trkpt>
      <trkpt lat="43.91009" lon="7.22845">
        <ele>1235.9</ele>
        <time>2012-09-15T14:59:55.000Z</time>
      </trkpt>
      <trkpt lat="43.91008" lon="7.22838">
        <ele>1236.2</ele>
        <time>2012-09-15T14:59:57.000Z</time>
      </trkpt>
      <trkpt lat="43.91006" lon="7.22831">
        <ele>1235.9</ele>
        <time>2012-09-15T14:59:59.000Z</time>
      </trkpt>
      <trkpt lat="43.91004" lon="7.22826">
        <ele>1236.6</ele>
        <time>2012-09-15T15:00:02.000Z</time>
      </trkpt>
      <trkpt lat="43.90998" lon="7.22826">
        <ele>1235.3</ele>
        <time>2012-09-15T15:00:05.000Z</time>
      </trkpt>
      <trkpt lat="43.90993" lon="7.22826">
        <ele>1235.8</ele>
        <time>2012-09-15T15:00:08.000Z</time>
      </trkpt>
      <trkpt lat="43.90992" lon="7.2282">
        <ele>1235.5</ele>
        <time>2012-09-15T15:00:52.000Z</time>
      </trkpt>
      <trkpt lat="43.90997" lon="7.22819">
        <ele>1235.9</ele>
        <time>2012-09-15T15:00:55.000Z</time>
      </trkpt>
      <trkpt lat="43.90998" lon="7.22811">
        <ele>1235.7</ele>
        <time>2012-09-15T15:01:00.000Z</time>
      </trkpt>
      <trkpt lat="43.90995" lon="7.22804">
        <ele>1235.1</ele>
        <time>2012-09-15T15:01:03.000Z</time>
      </trkpt>
      <trkpt lat="43.90993" lon="7.22798">
        <ele>1235.2</ele>
        <time>2012-09-15T15:01:06.000Z</time>
      </trkpt>
      <trkpt lat="43.90991" lon="7.22791">
        <ele>1235.4</ele>
        <time>2012-09-15T15:01:09.000Z</time>
      </trkpt>
      <trkpt lat="43.90988" lon="7.22785">
        <ele>1235.4</ele>
        <time>2012-09-15T15:01:12.000Z</time>
      </trkpt>
      <trkpt lat="43.90986" lon="7.22777">
        <ele>1234.4</ele>
        <time>2012-09-15T15:01:15.000Z</time>
      </trkpt>
      <trkpt lat="43.90984" lon="7.2277">
        <ele>1234.1</ele>
        <time>2012-09-15T15:01:18.000Z</time>
      </trkpt>
      <trkpt lat="43.90982" lon="7.22763">
        <ele>1235</ele>
        <time>2012-09-15T15:01:21.000Z</time>
      </trkpt>
      <trkpt lat="43.90978" lon="7.22756">
        <ele>1235.3</ele>
        <time>2012-09-15T15:01:24.000Z</time>
      </trkpt>
      <trkpt lat="43.90975" lon="7.22752">
        <ele>1234.8</ele>
        <time>2012-09-15T15:01:26.000Z</time>
      </trkpt>
      <trkpt lat="43.90973" lon="7.22745">
        <ele>1235.2</ele>
        <time>2012-09-15T15:01:28.000Z</time>
      </trkpt>
      <trkpt lat="43.90972" lon="7.22738">
        <ele>1235.3</ele>
        <time>2012-09-15T15:01:30.000Z</time>
      </trkpt>
      <trkpt lat="43.9097" lon="7.22731">
        <ele>1235.4</ele>
        <time>2012-09-15T15:01:32.000Z</time>
      </trkpt>
      <trkpt lat="43.90968" lon="7.22724">
        <ele>1235.6</ele>
        <time>2012-09-15T15:01:34.000Z</time>
      </trkpt>
      <trkpt lat="43.90967" lon="7.22714">
        <ele>1236.1</ele>
        <time>2012-09-15T15:01:37.000Z</time>
      </trkpt>
      <trkpt lat="43.90966" lon="7.22707">
        <ele>1236</ele>
        <time>2012-09-15T15:01:39.000Z</time>
      </trkpt>
      <trkpt lat="43.90965" lon="7.22701">
        <ele>1236.1</ele>
        <time>2012-09-15T15:01:41.000Z</time>
      </trkpt>
      <trkpt lat="43.90963" lon="7.22695">
        <ele>1236.6</ele>
        <time>2012-09-15T15:01:43.000Z</time>
      </trkpt>
      <trkpt lat="43.90962" lon="7.22685">
        <ele>1236.8</ele>
        <time>2012-09-15T15:01:46.000Z</time>
      </trkpt>
      <trkpt lat="43.9096" lon="7.22676">
        <ele>1237.2</ele>
        <time>2012-09-15T15:01:49.000Z</time>
      </trkpt>
      <trkpt lat="43.90958" lon="7.2267">
        <ele>1237.5</ele>
        <time>2012-09-15T15:01:51.000Z</time>
      </trkpt>
      <trkpt lat="43.90956" lon="7.22661">
        <ele>1238.2</ele>
        <time>2012-09-15T15:01:54.000Z</time>
      </trkpt>
      <trkpt lat="43.90955" lon="7.22654">
        <ele>1238.4</ele>
        <time>2012-09-15T15:01:56.000Z</time>
      </trkpt>
      <trkpt lat="43.90953" lon="7.22644">
        <ele>1239.2</ele>
        <time>2012-09-15T15:01:59.000Z</time>
      </trkpt>
      <trkpt lat="43.90951" lon="7.22638">
        <ele>1239.7</ele>
        <time>2012-09-15T15:02:01.000Z</time>
      </trkpt>
      <trkpt lat="43.9095" lon="7.22632">
        <ele>1239.1</ele>
        <time>2012-09-15T15:02:03.000Z</time>
      </trkpt>
      <trkpt lat="43.90948" lon="7.22624">
        <ele>1239.2</ele>
        <time>2012-09-15T15:02:05.000Z</time>
      </trkpt>
      <trkpt lat="43.90946" lon="7.22617">
        <ele>1239.4</ele>
        <time>2012-09-15T15:02:07.000Z</time>
      </trkpt>
      <trkpt lat="43.90944" lon="7.2261">
        <ele>1239.5</ele>
        <time>2012-09-15T15:02:09.000Z</time>
      </trkpt>
      <trkpt lat="43.90941" lon="7.22604">
        <ele>1239.7</ele>
        <time>2012-09-15T15:02:11.000Z</time>
      </trkpt>
      <trkpt lat="43.9094" lon="7.22596">
        <ele>1239.3</ele>
        <time>2012-09-15T15:02:13.000Z</time>
      </trkpt>
      <trkpt lat="43.90939" lon="7.22589">
        <ele>1240</ele>
        <time>2012-09-15T15:02:15.000Z</time>
      </trkpt>
      <trkpt lat="43.90937" lon="7.22582">
        <ele>1240.2</ele>
        <time>2012-09-15T15:02:17.000Z</time>
      </trkpt>
      <trkpt lat="43.90935" lon="7.22574">
        <ele>1240.8</ele>
        <time>2012-09-15T15:02:19.000Z</time>
      </trkpt>
      <trkpt lat="43.90932" lon="7.22567">
        <ele>1241.1</ele>
        <time>2012-09-15T15:02:21.000Z</time>
      </trkpt>
      <trkpt lat="43.90929" lon="7.22558">
        <ele>1241</ele>
        <time>2012-09-15T15:02:23.000Z</time>
      </trkpt>
      <trkpt lat="43.90925" lon="7.2255">
        <ele>1240.6</ele>
        <time>2012-09-15T15:02:25.000Z</time>
      </trkpt>
      <trkpt lat="43.90921" lon="7.22543">
        <ele>1241.2</ele>
        <time>2012-09-15T15:02:27.000Z</time>
      </trkpt>
      <trkpt lat="43.90917" lon="7.22535">
        <ele>1241.8</ele>
        <time>2012-09-15T15:02:29.000Z</time>
      </trkpt>
      <trkpt lat="43.90915" lon="7.22527">
        <ele>1241.8</ele>
        <time>2012-09-15T15:02:31.000Z</time>
      </trkpt>
      <trkpt lat="43.90911" lon="7.22519">
        <ele>1241.8</ele>
        <time>2012-09-15T15:02:33.000Z</time>
      </trkpt>
      <trkpt lat="43.90908" lon="7.22513">
        <ele>1242.2</ele>
        <time>2012-09-15T15:02:35.000Z</time>
      </trkpt>
      <trkpt lat="43.90905" lon="7.22506">
        <ele>1242.8</ele>
        <time>2012-09-15T15:02:37.000Z</time>
      </trkpt>
      <trkpt lat="43.90902" lon="7.22499">
        <ele>1242.6</ele>
        <time>2012-09-15T15:02:39.000Z</time>
      </trkpt>
      <trkpt lat="43.909" lon="7.22492">
        <ele>1242.8</ele>
        <time>2012-09-15T15:02:41.000Z</time>
      </trkpt>
      <trkpt lat="43.90899" lon="7.22484">
        <ele>1243.7</ele>
        <time>2012-09-15T15:02:43.000Z</time>
      </trkpt>
      <trkpt lat="43.90898" lon="7.22477">
        <ele>1243.3</ele>
        <time>2012-09-15T15:02:45.000Z</time>
      </trkpt>
      <trkpt lat="43.90896" lon="7.2247">
        <ele>1243.7</ele>
        <time>2012-09-15T15:02:47.000Z</time>
      </trkpt>
      <trkpt lat="43.90895" lon="7.22464">
        <ele>1243.5</ele>
        <time>2012-09-15T15:02:49.000Z</time>
      </trkpt>
      <trkpt lat="43.90894" lon="7.22457">
        <ele>1243.6</ele>
        <time>2012-09-15T15:02:51.000Z</time>
      </trkpt>
      <trkpt lat="43.90894" lon="7.2245">
        <ele>1243.9</ele>
        <time>2012-09-15T15:02:53.000Z</time>
      </trkpt>
      <trkpt lat="43.90894" lon="7.22443">
        <ele>1244.8</ele>
        <time>2012-09-15T15:02:55.000Z</time>
      </trkpt>
      <trkpt lat="43.90894" lon="7.22436">
        <ele>1245.3</ele>
        <time>2012-09-15T15:02:57.000Z</time>
      </trkpt>
      <trkpt lat="43.90894" lon="7.22428">
        <ele>1245.1</ele>
        <time>2012-09-15T15:02:59.000Z</time>
      </trkpt>
      <trkpt lat="43.90893" lon="7.22422">
        <ele>1245</ele>
        <time>2012-09-15T15:03:01.000Z</time>
      </trkpt>
      <trkpt lat="43.90892" lon="7.22414">
        <ele>1244.7</ele>
        <time>2012-09-15T15:03:03.000Z</time>
      </trkpt>
      <trkpt lat="43.90891" lon="7.22407">
        <ele>1244.9</ele>
        <time>2012-09-15T15:03:05.000Z</time>
      </trkpt>
      <trkpt lat="43.90889" lon="7.22401">
        <ele>1245.7</ele>
        <time>2012-09-15T15:03:07.000Z</time>
      </trkpt>
      <trkpt lat="43.90887" lon="7.22394">
        <ele>1246.1</ele>
        <time>2012-09-15T15:03:09.000Z</time>
      </trkpt>
      <trkpt lat="43.90884" lon="7.22387">
        <ele>1246.4</ele>
        <time>2012-09-15T15:03:12.000Z</time>
      </trkpt>
      <trkpt lat="43.90882" lon="7.2238">
        <ele>1248</ele>
        <time>2012-09-15T15:03:15.000Z</time>
      </trkpt>
      <trkpt lat="43.90879" lon="7.22371">
        <ele>1249.2</ele>
        <time>2012-09-15T15:03:18.000Z</time>
      </trkpt>
      <trkpt lat="43.90877" lon="7.22364">
        <ele>1248.6</ele>
        <time>2012-09-15T15:03:20.000Z</time>
      </trkpt>
      <trkpt lat="43.90876" lon="7.22358">
        <ele>1248.2</ele>
        <time>2012-09-15T15:03:22.000Z</time>
      </trkpt>
      <trkpt lat="43.90874" lon="7.22351">
        <ele>1248.1</ele>
        <time>2012-09-15T15:03:24.000Z</time>
      </trkpt>
      <trkpt lat="43.90873" lon="7.22344">
        <ele>1247.3</ele>
        <time>2012-09-15T15:03:26.000Z</time>
      </trkpt>
      <trkpt lat="43.90871" lon="7.22335">
        <ele>1246.9</ele>
        <time>2012-09-15T15:03:29.000Z</time>
      </trkpt>
      <trkpt lat="43.9087" lon="7.22329">
        <ele>1247.1</ele>
        <time>2012-09-15T15:03:31.000Z</time>
      </trkpt>
      <trkpt lat="43.90869" lon="7.22323">
        <ele>1247.4</ele>
        <time>2012-09-15T15:03:33.000Z</time>
      </trkpt>
      <trkpt lat="43.90868" lon="7.22316">
        <ele>1247.1</ele>
        <time>2012-09-15T15:03:35.000Z</time>
      </trkpt>
      <trkpt lat="43.90866" lon="7.22308">
        <ele>1246.6</ele>
        <time>2012-09-15T15:03:38.000Z</time>
      </trkpt>
      <trkpt lat="43.90864" lon="7.22297">
        <ele>1246.8</ele>
        <time>2012-09-15T15:03:42.000Z</time>
      </trkpt>
      <trkpt lat="43.90863" lon="7.22288">
        <ele>1247.5</ele>
        <time>2012-09-15T15:03:45.000Z</time>
      </trkpt>
      <trkpt lat="43.90862" lon="7.22281">
        <ele>1248.2</ele>
        <time>2012-09-15T15:03:47.000Z</time>
      </trkpt>
      <trkpt lat="43.90861" lon="7.22273">
        <ele>1248.7</ele>
        <time>2012-09-15T15:03:49.000Z</time>
      </trkpt>
      <trkpt lat="43.9086" lon="7.22264">
        <ele>1248.8</ele>
        <time>2012-09-15T15:03:51.000Z</time>
      </trkpt>
      <trkpt lat="43.90858" lon="7.22256">
        <ele>1248.9</ele>
        <time>2012-09-15T15:03:53.000Z</time>
      </trkpt>
      <trkpt lat="43.90858" lon="7.22248">
        <ele>1248.7</ele>
        <time>2012-09-15T15:03:55.000Z</time>
      </trkpt>
      <trkpt lat="43.90857" lon="7.22239">
        <ele>1248.6</ele>
        <time>2012-09-15T15:03:57.000Z</time>
      </trkpt>
      <trkpt lat="43.90856" lon="7.22229">
        <ele>1248.1</ele>
        <time>2012-09-15T15:03:59.000Z</time>
      </trkpt>
      <trkpt lat="43.90854" lon="7.22216">
        <ele>1246.6</ele>
        <time>2012-09-15T15:04:01.000Z</time>
      </trkpt>
      <trkpt lat="43.90853" lon="7.22209">
        <ele>1246.6</ele>
        <time>2012-09-15T15:04:02.000Z</time>
      </trkpt>
      <trkpt lat="43.90849" lon="7.222">
        <ele>1247.7</ele>
        <time>2012-09-15T15:04:04.000Z</time>
      </trkpt>
      <trkpt lat="43.90845" lon="7.22197">
        <ele>1248.2</ele>
        <time>2012-09-15T15:04:05.000Z</time>
      </trkpt>
      <trkpt lat="43.9084" lon="7.22191">
        <ele>1249.8</ele>
        <time>2012-09-15T15:04:07.000Z</time>
      </trkpt>
      <trkpt lat="43.90839" lon="7.22185">
        <ele>1248.2</ele>
        <time>2012-09-15T15:04:09.000Z</time>
      </trkpt>
      <trkpt lat="43.90836" lon="7.22178">
        <ele>1247.6</ele>
        <time>2012-09-15T15:04:13.000Z</time>
      </trkpt>
      <trkpt lat="43.90834" lon="7.22172">
        <ele>1246.8</ele>
        <time>2012-09-15T15:04:18.000Z</time>
      </trkpt>
      <trkpt lat="43.90837" lon="7.22176">
        <ele>1246.6</ele>
        <time>2012-09-15T15:04:32.000Z</time>
      </trkpt>
      <trkpt lat="43.90834" lon="7.22171">
        <ele>1241.1</ele>
        <time>2012-09-15T15:06:14.000Z</time>
      </trkpt>
      <trkpt lat="43.90828" lon="7.22166">
        <ele>1239.8</ele>
        <time>2012-09-15T15:06:17.000Z</time>
      </trkpt>
      <trkpt lat="43.90822" lon="7.22165">
        <ele>1238.1</ele>
        <time>2012-09-15T15:06:20.000Z</time>
      </trkpt>
      <trkpt lat="43.90818" lon="7.22161">
        <ele>1235.6</ele>
        <time>2012-09-15T15:06:23.000Z</time>
      </trkpt>
      <trkpt lat="43.90813" lon="7.22156">
        <ele>1234.5</ele>
        <time>2012-09-15T15:06:26.000Z</time>
      </trkpt>
      <trkpt lat="43.9081" lon="7.22152">
        <ele>1233.2</ele>
        <time>2012-09-15T15:06:28.000Z</time>
      </trkpt>
      <trkpt lat="43.90805" lon="7.22151">
        <ele>1230.9</ele>
        <time>2012-09-15T15:06:30.000Z</time>
      </trkpt>
      <trkpt lat="43.908" lon="7.22156">
        <ele>1227.9</ele>
        <time>2012-09-15T15:06:33.000Z</time>
      </trkpt>
      <trkpt lat="43.90798" lon="7.22164">
        <ele>1225.8</ele>
        <time>2012-09-15T15:06:36.000Z</time>
      </trkpt>
      <trkpt lat="43.90796" lon="7.22172">
        <ele>1224.2</ele>
        <time>2012-09-15T15:06:39.000Z</time>
      </trkpt>
      <trkpt lat="43.90794" lon="7.2218">
        <ele>1223.3</ele>
        <time>2012-09-15T15:06:41.000Z</time>
      </trkpt>
      <trkpt lat="43.90793" lon="7.22189">
        <ele>1221.2</ele>
        <time>2012-09-15T15:06:43.000Z</time>
      </trkpt>
      <trkpt lat="43.90793" lon="7.22196">
        <ele>1220.6</ele>
        <time>2012-09-15T15:06:44.000Z</time>
      </trkpt>
      <trkpt lat="43.90792" lon="7.22203">
        <ele>1220.3</ele>
        <time>2012-09-15T15:06:45.000Z</time>
      </trkpt>
      <trkpt lat="43.90791" lon="7.2221">
        <ele>1219.3</ele>
        <time>2012-09-15T15:06:46.000Z</time>
      </trkpt>
      <trkpt lat="43.90791" lon="7.22217">
        <ele>1218.6</ele>
        <time>2012-09-15T15:06:47.000Z</time>
      </trkpt>
      <trkpt lat="43.90791" lon="7.22223">
        <ele>1217.7</ele>
        <time>2012-09-15T15:06:48.000Z</time>
      </trkpt>
      <trkpt lat="43.90791" lon="7.22231">
        <ele>1216.3</ele>
        <time>2012-09-15T15:06:49.000Z</time>
      </trkpt>
      <trkpt lat="43.90791" lon="7.22237">
        <ele>1215.5</ele>
        <time>2012-09-15T15:06:50.000Z</time>
      </trkpt>
      <trkpt lat="43.90791" lon="7.22245">
        <ele>1214.7</ele>
        <time>2012-09-15T15:06:51.000Z</time>
      </trkpt>
      <trkpt lat="43.90792" lon="7.22251">
        <ele>1213.8</ele>
        <time>2012-09-15T15:06:52.000Z</time>
      </trkpt>
      <trkpt lat="43.9079" lon="7.22264">
        <ele>1212.6</ele>
        <time>2012-09-15T15:06:54.000Z</time>
      </trkpt>
      <trkpt lat="43.90789" lon="7.22273">
        <ele>1209.4</ele>
        <time>2012-09-15T15:06:56.000Z</time>
      </trkpt>
      <trkpt lat="43.90788" lon="7.22281">
        <ele>1206.4</ele>
        <time>2012-09-15T15:06:58.000Z</time>
      </trkpt>
      <trkpt lat="43.90784" lon="7.22286">
        <ele>1206.2</ele>
        <time>2012-09-15T15:07:00.000Z</time>
      </trkpt>
      <trkpt lat="43.90782" lon="7.2228">
        <ele>1205.9</ele>
        <time>2012-09-15T15:07:03.000Z</time>
      </trkpt>
      <trkpt lat="43.90781" lon="7.22271">
        <ele>1206</ele>
        <time>2012-09-15T15:07:05.000Z</time>
      </trkpt>
      <trkpt lat="43.9078" lon="7.22261">
        <ele>1205.8</ele>
        <time>2012-09-15T15:07:07.000Z</time>
      </trkpt>
      <trkpt lat="43.90776" lon="7.22255">
        <ele>1204.6</ele>
        <time>2012-09-15T15:07:09.000Z</time>
      </trkpt>
      <trkpt lat="43.90773" lon="7.22249">
        <ele>1203.3</ele>
        <time>2012-09-15T15:07:11.000Z</time>
      </trkpt>
      <trkpt lat="43.9077" lon="7.22243">
        <ele>1201.6</ele>
        <time>2012-09-15T15:07:13.000Z</time>
      </trkpt>
      <trkpt lat="43.90766" lon="7.22237">
        <ele>1200.4</ele>
        <time>2012-09-15T15:07:15.000Z</time>
      </trkpt>
      <trkpt lat="43.90762" lon="7.22232">
        <ele>1198.5</ele>
        <time>2012-09-15T15:07:17.000Z</time>
      </trkpt>
      <trkpt lat="43.90757" lon="7.22226">
        <ele>1197</ele>
        <time>2012-09-15T15:07:19.000Z</time>
      </trkpt>
      <trkpt lat="43.90753" lon="7.2222">
        <ele>1195.4</ele>
        <time>2012-09-15T15:07:21.000Z</time>
      </trkpt>
      <trkpt lat="43.9075" lon="7.22215">
        <ele>1195.4</ele>
        <time>2012-09-15T15:07:23.000Z</time>
      </trkpt>
      <trkpt lat="43.90745" lon="7.2221">
        <ele>1195.1</ele>
        <time>2012-09-15T15:07:25.000Z</time>
      </trkpt>
      <trkpt lat="43.90743" lon="7.22217">
        <ele>1194</ele>
        <time>2012-09-15T15:07:31.000Z</time>
      </trkpt>
      <trkpt lat="43.90742" lon="7.22224">
        <ele>1193.7</ele>
        <time>2012-09-15T15:07:33.000Z</time>
      </trkpt>
      <trkpt lat="43.90741" lon="7.22233">
        <ele>1191.8</ele>
        <time>2012-09-15T15:07:35.000Z</time>
      </trkpt>
      <trkpt lat="43.9074" lon="7.22241">
        <ele>1188.8</ele>
        <time>2012-09-15T15:07:37.000Z</time>
      </trkpt>
      <trkpt lat="43.90738" lon="7.22251">
        <ele>1186.7</ele>
        <time>2012-09-15T15:07:39.000Z</time>
      </trkpt>
      <trkpt lat="43.90737" lon="7.22261">
        <ele>1185.4</ele>
        <time>2012-09-15T15:07:41.000Z</time>
      </trkpt>
      <trkpt lat="43.90736" lon="7.22269">
        <ele>1182.2</ele>
        <time>2012-09-15T15:07:43.000Z</time>
      </trkpt>
      <trkpt lat="43.90734" lon="7.22276">
        <ele>1180.7</ele>
        <time>2012-09-15T15:07:45.000Z</time>
      </trkpt>
      <trkpt lat="43.90733" lon="7.22286">
        <ele>1178.3</ele>
        <time>2012-09-15T15:07:47.000Z</time>
      </trkpt>
      <trkpt lat="43.90733" lon="7.22294">
        <ele>1175.1</ele>
        <time>2012-09-15T15:07:49.000Z</time>
      </trkpt>
      <trkpt lat="43.90732" lon="7.22302">
        <ele>1173.6</ele>
        <time>2012-09-15T15:07:51.000Z</time>
      </trkpt>
      <trkpt lat="43.90729" lon="7.22309">
        <ele>1170.7</ele>
        <time>2012-09-15T15:07:53.000Z</time>
      </trkpt>
      <trkpt lat="43.90728" lon="7.22315">
        <ele>1169.3</ele>
        <time>2012-09-15T15:07:55.000Z</time>
      </trkpt>
      <trkpt lat="43.90726" lon="7.22321">
        <ele>1167.6</ele>
        <time>2012-09-15T15:07:57.000Z</time>
      </trkpt>
      <trkpt lat="43.90721" lon="7.22317">
        <ele>1165.6</ele>
        <time>2012-09-15T15:08:10.000Z</time>
      </trkpt>
      <trkpt lat="43.9072" lon="7.22311">
        <ele>1166.3</ele>
        <time>2012-09-15T15:08:12.000Z</time>
      </trkpt>
      <trkpt lat="43.90714" lon="7.22304">
        <ele>1164.6</ele>
        <time>2012-09-15T15:08:15.000Z</time>
      </trkpt>
      <trkpt lat="43.90711" lon="7.22296">
        <ele>1162.5</ele>
        <time>2012-09-15T15:08:18.000Z</time>
      </trkpt>
      <trkpt lat="43.90709" lon="7.22289">
        <ele>1162</ele>
        <time>2012-09-15T15:08:21.000Z</time>
      </trkpt>
      <trkpt lat="43.90706" lon="7.22283">
        <ele>1160.6</ele>
        <time>2012-09-15T15:08:23.000Z</time>
      </trkpt>
      <trkpt lat="43.90702" lon="7.22274">
        <ele>1158.4</ele>
        <time>2012-09-15T15:08:25.000Z</time>
      </trkpt>
      <trkpt lat="43.90698" lon="7.22265">
        <ele>1157.4</ele>
        <time>2012-09-15T15:08:27.000Z</time>
      </trkpt>
      <trkpt lat="43.90695" lon="7.22255">
        <ele>1155.8</ele>
        <time>2012-09-15T15:08:29.000Z</time>
      </trkpt>
      <trkpt lat="43.90692" lon="7.22249">
        <ele>1155.9</ele>
        <time>2012-09-15T15:08:31.000Z</time>
      </trkpt>
      <trkpt lat="43.90687" lon="7.22252">
        <ele>1154.6</ele>
        <time>2012-09-15T15:08:34.000Z</time>
      </trkpt>
      <trkpt lat="43.90686" lon="7.2226">
        <ele>1152.7</ele>
        <time>2012-09-15T15:08:37.000Z</time>
      </trkpt>
      <trkpt lat="43.90684" lon="7.22268">
        <ele>1149.7</ele>
        <time>2012-09-15T15:08:40.000Z</time>
      </trkpt>
      <trkpt lat="43.90682" lon="7.22275">
        <ele>1146.7</ele>
        <time>2012-09-15T15:08:43.000Z</time>
      </trkpt>
      <trkpt lat="43.90679" lon="7.22283">
        <ele>1142.2</ele>
        <time>2012-09-15T15:08:46.000Z</time>
      </trkpt>
      <trkpt lat="43.90676" lon="7.22288">
        <ele>1141.2</ele>
        <time>2012-09-15T15:08:48.000Z</time>
      </trkpt>
      <trkpt lat="43.90673" lon="7.22296">
        <ele>1139.8</ele>
        <time>2012-09-15T15:08:50.000Z</time>
      </trkpt>
      <trkpt lat="43.90671" lon="7.22302">
        <ele>1138.2</ele>
        <time>2012-09-15T15:08:52.000Z</time>
      </trkpt>
      <trkpt lat="43.90669" lon="7.22308">
        <ele>1137.9</ele>
        <time>2012-09-15T15:08:54.000Z</time>
      </trkpt>
      <trkpt lat="43.90667" lon="7.22315">
        <ele>1137.4</ele>
        <time>2012-09-15T15:08:56.000Z</time>
      </trkpt>
      <trkpt lat="43.90666" lon="7.22322">
        <ele>1135.9</ele>
        <time>2012-09-15T15:08:58.000Z</time>
      </trkpt>
      <trkpt lat="43.90664" lon="7.22329">
        <ele>1133.2</ele>
        <time>2012-09-15T15:09:00.000Z</time>
      </trkpt>
      <trkpt lat="43.90663" lon="7.22338">
        <ele>1132.9</ele>
        <time>2012-09-15T15:09:02.000Z</time>
      </trkpt>
      <trkpt lat="43.90662" lon="7.22346">
        <ele>1131</ele>
        <time>2012-09-15T15:09:04.000Z</time>
      </trkpt>
      <trkpt lat="43.90662" lon="7.22355">
        <ele>1128.9</ele>
        <time>2012-09-15T15:09:06.000Z</time>
      </trkpt>
      <trkpt lat="43.9066" lon="7.22365">
        <ele>1127.6</ele>
        <time>2012-09-15T15:09:08.000Z</time>
      </trkpt>
      <trkpt lat="43.90657" lon="7.22374">
        <ele>1126.1</ele>
        <time>2012-09-15T15:09:10.000Z</time>
      </trkpt>
      <trkpt lat="43.90656" lon="7.2238">
        <ele>1125.1</ele>
        <time>2012-09-15T15:09:11.000Z</time>
      </trkpt>
      <trkpt lat="43.90654" lon="7.2239">
        <ele>1123.8</ele>
        <time>2012-09-15T15:09:13.000Z</time>
      </trkpt>
      <trkpt lat="43.90651" lon="7.22402">
        <ele>1121.6</ele>
        <time>2012-09-15T15:09:15.000Z</time>
      </trkpt>
      <trkpt lat="43.9065" lon="7.22409">
        <ele>1120.9</ele>
        <time>2012-09-15T15:09:16.000Z</time>
      </trkpt>
      <trkpt lat="43.90647" lon="7.2242">
        <ele>1119.8</ele>
        <time>2012-09-15T15:09:18.000Z</time>
      </trkpt>
      <trkpt lat="43.90645" lon="7.22431">
        <ele>1117.2</ele>
        <time>2012-09-15T15:09:20.000Z</time>
      </trkpt>
      <trkpt lat="43.90641" lon="7.2244">
        <ele>1115.5</ele>
        <time>2012-09-15T15:09:22.000Z</time>
      </trkpt>
      <trkpt lat="43.90637" lon="7.22446">
        <ele>1114.3</ele>
        <time>2012-09-15T15:09:24.000Z</time>
      </trkpt>
      <trkpt lat="43.90634" lon="7.2245">
        <ele>1113.1</ele>
        <time>2012-09-15T15:09:26.000Z</time>
      </trkpt>
      <trkpt lat="43.9063" lon="7.22456">
        <ele>1112.2</ele>
        <time>2012-09-15T15:09:28.000Z</time>
      </trkpt>
      <trkpt lat="43.90629" lon="7.22463">
        <ele>1110.3</ele>
        <time>2012-09-15T15:09:30.000Z</time>
      </trkpt>
      <trkpt lat="43.90628" lon="7.22469">
        <ele>1109.4</ele>
        <time>2012-09-15T15:09:33.000Z</time>
      </trkpt>
      <trkpt lat="43.90631" lon="7.22464">
        <ele>1109.8</ele>
        <time>2012-09-15T15:09:45.000Z</time>
      </trkpt>
      <trkpt lat="43.90635" lon="7.22463">
        <ele>1111.4</ele>
        <time>2012-09-15T15:10:01.000Z</time>
      </trkpt>
      <trkpt lat="43.90632" lon="7.22456">
        <ele>1111.3</ele>
        <time>2012-09-15T15:10:06.000Z</time>
      </trkpt>
      <trkpt lat="43.90629" lon="7.2245">
        <ele>1110.8</ele>
        <time>2012-09-15T15:10:10.000Z</time>
      </trkpt>
      <trkpt lat="43.90623" lon="7.22448">
        <ele>1110.4</ele>
        <time>2012-09-15T15:10:24.000Z</time>
      </trkpt>
      <trkpt lat="43.90621" lon="7.22441">
        <ele>1108.4</ele>
        <time>2012-09-15T15:10:42.000Z</time>
      </trkpt>
      <trkpt lat="43.90618" lon="7.22437">
        <ele>1104.9</ele>
        <time>2012-09-15T15:10:49.000Z</time>
      </trkpt>
      <trkpt lat="43.90613" lon="7.22432">
        <ele>1103.8</ele>
        <time>2012-09-15T15:10:53.000Z</time>
      </trkpt>
      <trkpt lat="43.90607" lon="7.2243">
        <ele>1103.2</ele>
        <time>2012-09-15T15:11:02.000Z</time>
      </trkpt>
      <trkpt lat="43.90603" lon="7.22426">
        <ele>1102</ele>
        <time>2012-09-15T15:11:05.000Z</time>
      </trkpt>
      <trkpt lat="43.906" lon="7.22421">
        <ele>1101.4</ele>
        <time>2012-09-15T15:11:08.000Z</time>
      </trkpt>
      <trkpt lat="43.90596" lon="7.22418">
        <ele>1099.3</ele>
        <time>2012-09-15T15:11:11.000Z</time>
      </trkpt>
      <trkpt lat="43.90591" lon="7.22416">
        <ele>1097.4</ele>
        <time>2012-09-15T15:11:20.000Z</time>
      </trkpt>
      <trkpt lat="43.90586" lon="7.22417">
        <ele>1096.7</ele>
        <time>2012-09-15T15:11:28.000Z</time>
      </trkpt>
      <trkpt lat="43.90582" lon="7.22421">
        <ele>1095</ele>
        <time>2012-09-15T15:11:37.000Z</time>
      </trkpt>
      <trkpt lat="43.90578" lon="7.22425">
        <ele>1093.4</ele>
        <time>2012-09-15T15:11:42.000Z</time>
      </trkpt>
      <trkpt lat="43.90573" lon="7.2242">
        <ele>1090.8</ele>
        <time>2012-09-15T15:11:46.000Z</time>
      </trkpt>
      <trkpt lat="43.90569" lon="7.22417">
        <ele>1088.3</ele>
        <time>2012-09-15T15:11:49.000Z</time>
      </trkpt>
      <trkpt lat="43.90564" lon="7.22416">
        <ele>1085.7</ele>
        <time>2012-09-15T15:11:54.000Z</time>
      </trkpt>
      <trkpt lat="43.90559" lon="7.22416">
        <ele>1082.4</ele>
        <time>2012-09-15T15:12:12.000Z</time>
      </trkpt>
      <trkpt lat="43.90555" lon="7.22412">
        <ele>1079.3</ele>
        <time>2012-09-15T15:12:29.000Z</time>
      </trkpt>
      <trkpt lat="43.9055" lon="7.22412">
        <ele>1076.9</ele>
        <time>2012-09-15T15:12:35.000Z</time>
      </trkpt>
      <trkpt lat="43.90546" lon="7.22413">
        <ele>1074.5</ele>
        <time>2012-09-15T15:12:48.000Z</time>
      </trkpt>
      <trkpt lat="43.90541" lon="7.22413">
        <ele>1072</ele>
        <time>2012-09-15T15:13:04.000Z</time>
      </trkpt>
      <trkpt lat="43.90536" lon="7.22413">
        <ele>1071.5</ele>
        <time>2012-09-15T15:13:22.000Z</time>
      </trkpt>
      <trkpt lat="43.90532" lon="7.22413">
        <ele>1070</ele>
        <time>2012-09-15T15:13:38.000Z</time>
      </trkpt>
      <trkpt lat="43.90528" lon="7.22408">
        <ele>1070.6</ele>
        <time>2012-09-15T15:13:45.000Z</time>
      </trkpt>
      <trkpt lat="43.90522" lon="7.22407">
        <ele>1065</ele>
        <time>2012-09-15T15:14:27.000Z</time>
      </trkpt>
      <trkpt lat="43.90519" lon="7.22403">
        <ele>1061.5</ele>
        <time>2012-09-15T15:14:42.000Z</time>
      </trkpt>
      <trkpt lat="43.90515" lon="7.22409">
        <ele>1057</ele>
        <time>2012-09-15T15:14:48.000Z</time>
      </trkpt>
      <trkpt lat="43.90512" lon="7.22402">
        <ele>1055.4</ele>
        <time>2012-09-15T15:14:57.000Z</time>
      </trkpt>
      <trkpt lat="43.90508" lon="7.22397">
        <ele>1054.9</ele>
        <time>2012-09-15T15:15:09.000Z</time>
      </trkpt>
      <trkpt lat="43.90504" lon="7.22395">
        <ele>1050.9</ele>
        <time>2012-09-15T15:15:19.000Z</time>
      </trkpt>
      <trkpt lat="43.90502" lon="7.2239">
        <ele>1048.3</ele>
        <time>2012-09-15T15:15:25.000Z</time>
      </trkpt>
      <trkpt lat="43.90499" lon="7.22384">
        <ele>1049.3</ele>
        <time>2012-09-15T15:15:30.000Z</time>
      </trkpt>
      <trkpt lat="43.90496" lon="7.22378">
        <ele>1048.8</ele>
        <time>2012-09-15T15:15:36.000Z</time>
      </trkpt>
      <trkpt lat="43.9049" lon="7.2238">
        <ele>1047.6</ele>
        <time>2012-09-15T15:15:43.000Z</time>
      </trkpt>
      <trkpt lat="43.90483" lon="7.22382">
        <ele>1047.1</ele>
        <time>2012-09-15T15:15:46.000Z</time>
      </trkpt>
      <trkpt lat="43.90475" lon="7.22383">
        <ele>1045.8</ele>
        <time>2012-09-15T15:15:48.000Z</time>
      </trkpt>
      <trkpt lat="43.90465" lon="7.22382">
        <ele>1043.8</ele>
        <time>2012-09-15T15:15:50.000Z</time>
      </trkpt>
      <trkpt lat="43.90458" lon="7.22379">
        <ele>1042.2</ele>
        <time>2012-09-15T15:15:52.000Z</time>
      </trkpt>
      <trkpt lat="43.90451" lon="7.22374">
        <ele>1041</ele>
        <time>2012-09-15T15:15:54.000Z</time>
      </trkpt>
      <trkpt lat="43.90447" lon="7.22369">
        <ele>1039.2</ele>
        <time>2012-09-15T15:15:56.000Z</time>
      </trkpt>
      <trkpt lat="43.9044" lon="7.22367">
        <ele>1037.9</ele>
        <time>2012-09-15T15:15:58.000Z</time>
      </trkpt>
      <trkpt lat="43.90433" lon="7.22364">
        <ele>1036.8</ele>
        <time>2012-09-15T15:16:00.000Z</time>
      </trkpt>
      <trkpt lat="43.90428" lon="7.22363">
        <ele>1035.7</ele>
        <time>2012-09-15T15:16:02.000Z</time>
      </trkpt>
      <trkpt lat="43.90423" lon="7.22363">
        <ele>1036</ele>
        <time>2012-09-15T15:16:03.000Z</time>
      </trkpt>
      <trkpt lat="43.90418" lon="7.22364">
        <ele>1036.1</ele>
        <time>2012-09-15T15:16:04.000Z</time>
      </trkpt>
      <trkpt lat="43.9041" lon="7.22362">
        <ele>1035.1</ele>
        <time>2012-09-15T15:16:06.000Z</time>
      </trkpt>
      <trkpt lat="43.90403" lon="7.22358">
        <ele>1033.5</ele>
        <time>2012-09-15T15:16:08.000Z</time>
      </trkpt>
      <trkpt lat="43.90397" lon="7.22351">
        <ele>1032</ele>
        <time>2012-09-15T15:16:10.000Z</time>
      </trkpt>
      <trkpt lat="43.9039" lon="7.22347">
        <ele>1031.2</ele>
        <time>2012-09-15T15:16:12.000Z</time>
      </trkpt>
      <trkpt lat="43.90381" lon="7.22344">
        <ele>1030.2</ele>
        <time>2012-09-15T15:16:14.000Z</time>
      </trkpt>
      <trkpt lat="43.90377" lon="7.2234">
        <ele>1030.1</ele>
        <time>2012-09-15T15:16:15.000Z</time>
      </trkpt>
      <trkpt lat="43.90368" lon="7.2234">
        <ele>1027.5</ele>
        <time>2012-09-15T15:16:17.000Z</time>
      </trkpt>
      <trkpt lat="43.90364" lon="7.22341">
        <ele>1026.3</ele>
        <time>2012-09-15T15:16:18.000Z</time>
      </trkpt>
      <trkpt lat="43.90358" lon="7.22342">
        <ele>1025</ele>
        <time>2012-09-15T15:16:19.000Z</time>
      </trkpt>
      <trkpt lat="43.90352" lon="7.22343">
        <ele>1024.6</ele>
        <time>2012-09-15T15:16:20.000Z</time>
      </trkpt>
      <trkpt lat="43.90345" lon="7.22344">
        <ele>1023.7</ele>
        <time>2012-09-15T15:16:21.000Z</time>
      </trkpt>
      <trkpt lat="43.90339" lon="7.22344">
        <ele>1023</ele>
        <time>2012-09-15T15:16:22.000Z</time>
      </trkpt>
      <trkpt lat="43.90333" lon="7.22345">
        <ele>1022.5</ele>
        <time>2012-09-15T15:16:23.000Z</time>
      </trkpt>
      <trkpt lat="43.90327" lon="7.22346">
        <ele>1022.4</ele>
        <time>2012-09-15T15:16:24.000Z</time>
      </trkpt>
      <trkpt lat="43.90319" lon="7.22348">
        <ele>1022.1</ele>
        <time>2012-09-15T15:16:25.000Z</time>
      </trkpt>
      <trkpt lat="43.90313" lon="7.22352">
        <ele>1021.5</ele>
        <time>2012-09-15T15:16:26.000Z</time>
      </trkpt>
      <trkpt lat="43.90306" lon="7.22356">
        <ele>1021.2</ele>
        <time>2012-09-15T15:16:27.000Z</time>
      </trkpt>
      <trkpt lat="43.90299" lon="7.22362">
        <ele>1020.2</ele>
        <time>2012-09-15T15:16:28.000Z</time>
      </trkpt>
      <trkpt lat="43.90293" lon="7.22367">
        <ele>1019.5</ele>
        <time>2012-09-15T15:16:29.000Z</time>
      </trkpt>
      <trkpt lat="43.90286" lon="7.22372">
        <ele>1019.3</ele>
        <time>2012-09-15T15:16:30.000Z</time>
      </trkpt>
      <trkpt lat="43.90278" lon="7.22377">
        <ele>1019.3</ele>
        <time>2012-09-15T15:16:31.000Z</time>
      </trkpt>
      <trkpt lat="43.90271" lon="7.22381">
        <ele>1018.9</ele>
        <time>2012-09-15T15:16:32.000Z</time>
      </trkpt>
      <trkpt lat="43.90263" lon="7.22384">
        <ele>1017.9</ele>
        <time>2012-09-15T15:16:33.000Z</time>
      </trkpt>
      <trkpt lat="43.90256" lon="7.22388">
        <ele>1018.8</ele>
        <time>2012-09-15T15:16:34.000Z</time>
      </trkpt>
      <trkpt lat="43.90251" lon="7.22393">
        <ele>1019.2</ele>
        <time>2012-09-15T15:16:35.000Z</time>
      </trkpt>
      <trkpt lat="43.90247" lon="7.22398">
        <ele>1019.8</ele>
        <time>2012-09-15T15:16:36.000Z</time>
      </trkpt>
      <trkpt lat="43.90243" lon="7.22402">
        <ele>1019.5</ele>
        <time>2012-09-15T15:16:37.000Z</time>
      </trkpt>
      <trkpt lat="43.90239" lon="7.22407">
        <ele>1019.8</ele>
        <time>2012-09-15T15:16:38.000Z</time>
      </trkpt>
      <trkpt lat="43.90233" lon="7.22414">
        <ele>1021.3</ele>
        <time>2012-09-15T15:16:40.000Z</time>
      </trkpt>
      <trkpt lat="43.9023" lon="7.22424">
        <ele>1021.7</ele>
        <time>2012-09-15T15:16:42.000Z</time>
      </trkpt>
      <trkpt lat="43.90227" lon="7.2243">
        <ele>1022.4</ele>
        <time>2012-09-15T15:16:44.000Z</time>
      </trkpt>
      <trkpt lat="43.90223" lon="7.22436">
        <ele>1021.4</ele>
        <time>2012-09-15T15:16:46.000Z</time>
      </trkpt>
      <trkpt lat="43.90219" lon="7.2244">
        <ele>1021.2</ele>
        <time>2012-09-15T15:16:48.000Z</time>
      </trkpt>
      <trkpt lat="43.90215" lon="7.22446">
        <ele>1022.2</ele>
        <time>2012-09-15T15:16:51.000Z</time>
      </trkpt>
      <trkpt lat="43.90211" lon="7.22449">
        <ele>1021.4</ele>
        <time>2012-09-15T15:17:23.000Z</time>
      </trkpt>
      <trkpt lat="43.90207" lon="7.22454">
        <ele>1019.7</ele>
        <time>2012-09-15T15:17:25.000Z</time>
      </trkpt>
      <trkpt lat="43.90203" lon="7.22464">
        <ele>1014.7</ele>
        <time>2012-09-15T15:17:27.000Z</time>
      </trkpt>
      <trkpt lat="43.902" lon="7.22473">
        <ele>1013.8</ele>
        <time>2012-09-15T15:17:29.000Z</time>
      </trkpt>
      <trkpt lat="43.90201" lon="7.22481">
        <ele>1016.6</ele>
        <time>2012-09-15T15:17:31.000Z</time>
      </trkpt>
      <trkpt lat="43.90198" lon="7.22488">
        <ele>1017.3</ele>
        <time>2012-09-15T15:17:34.000Z</time>
      </trkpt>
      <trkpt lat="43.90194" lon="7.22494">
        <ele>1018.6</ele>
        <time>2012-09-15T15:18:09.000Z</time>
      </trkpt>
      <trkpt lat="43.90195" lon="7.22487">
        <ele>1016.5</ele>
        <time>2012-09-15T15:18:32.000Z</time>
      </trkpt>
      <trkpt lat="43.90197" lon="7.22478">
        <ele>1018</ele>
        <time>2012-09-15T15:18:34.000Z</time>
      </trkpt>
      <trkpt lat="43.90197" lon="7.22468">
        <ele>1018.1</ele>
        <time>2012-09-15T15:18:36.000Z</time>
      </trkpt>
      <trkpt lat="43.90198" lon="7.22458">
        <ele>1017.7</ele>
        <time>2012-09-15T15:18:38.000Z</time>
      </trkpt>
      <trkpt lat="43.90202" lon="7.22451">
        <ele>1017.9</ele>
        <time>2012-09-15T15:18:42.000Z</time>
      </trkpt>
      <trkpt lat="43.90208" lon="7.2245">
        <ele>1017.2</ele>
        <time>2012-09-15T15:18:43.000Z</time>
      </trkpt>
      <trkpt lat="43.90204" lon="7.22446">
        <ele>1020.3</ele>
        <time>2012-09-15T15:18:46.000Z</time>
      </trkpt>
      <trkpt lat="43.90202" lon="7.22439">
        <ele>1021.2</ele>
        <time>2012-09-15T15:18:51.000Z</time>
      </trkpt>
      <trkpt lat="43.90198" lon="7.22435">
        <ele>1021.3</ele>
        <time>2012-09-15T15:18:54.000Z</time>
      </trkpt>
      <trkpt lat="43.90194" lon="7.2243">
        <ele>1026.1</ele>
        <time>2012-09-15T15:19:00.000Z</time>
      </trkpt>
      <trkpt lat="43.90189" lon="7.2243">
        <ele>1026.6</ele>
        <time>2012-09-15T15:19:04.000Z</time>
      </trkpt>
      <trkpt lat="43.90184" lon="7.22434">
        <ele>1025.4</ele>
        <time>2012-09-15T15:19:09.000Z</time>
      </trkpt>
      <trkpt lat="43.90179" lon="7.22432">
        <ele>1029.8</ele>
        <time>2012-09-15T15:19:17.000Z</time>
      </trkpt>
      <trkpt lat="43.90174" lon="7.22429">
        <ele>1030.4</ele>
        <time>2012-09-15T15:19:21.000Z</time>
      </trkpt>
      <trkpt lat="43.90169" lon="7.22428">
        <ele>1030</ele>
        <time>2012-09-15T15:19:31.000Z</time>
      </trkpt>
      <trkpt lat="43.90165" lon="7.22425">
        <ele>1029.7</ele>
        <time>2012-09-15T15:19:35.000Z</time>
      </trkpt>
      <trkpt lat="43.90159" lon="7.22424">
        <ele>1030.9</ele>
        <time>2012-09-15T15:19:40.000Z</time>
      </trkpt>
      <trkpt lat="43.90154" lon="7.22424">
        <ele>1031.8</ele>
        <time>2012-09-15T15:19:46.000Z</time>
      </trkpt>
      <trkpt lat="43.90148" lon="7.22424">
        <ele>1031.8</ele>
        <time>2012-09-15T15:19:50.000Z</time>
      </trkpt>
      <trkpt lat="43.90144" lon="7.22422">
        <ele>1029.7</ele>
        <time>2012-09-15T15:19:56.000Z</time>
      </trkpt>
      <trkpt lat="43.90138" lon="7.22422">
        <ele>1031.3</ele>
        <time>2012-09-15T15:20:02.000Z</time>
      </trkpt>
      <trkpt lat="43.90133" lon="7.22421">
        <ele>1034.2</ele>
        <time>2012-09-15T15:20:10.000Z</time>
      </trkpt>
      <trkpt lat="43.90128" lon="7.2242">
        <ele>1034.9</ele>
        <time>2012-09-15T15:20:15.000Z</time>
      </trkpt>
      <trkpt lat="43.90124" lon="7.22419">
        <ele>1035.4</ele>
        <time>2012-09-15T15:20:23.000Z</time>
      </trkpt>
      <trkpt lat="43.90121" lon="7.22415">
        <ele>1034</ele>
        <time>2012-09-15T15:20:28.000Z</time>
      </trkpt>
      <trkpt lat="43.90116" lon="7.22412">
        <ele>1035.4</ele>
        <time>2012-09-15T15:20:38.000Z</time>
      </trkpt>
      <trkpt lat="43.90111" lon="7.22408">
        <ele>1035.9</ele>
        <time>2012-09-15T15:20:55.000Z</time>
      </trkpt>
      <trkpt lat="43.90107" lon="7.22408">
        <ele>1034.9</ele>
        <time>2012-09-15T15:21:02.000Z</time>
      </trkpt>
      <trkpt lat="43.90102" lon="7.22406">
        <ele>1037</ele>
        <time>2012-09-15T15:21:08.000Z</time>
      </trkpt>
      <trkpt lat="43.90097" lon="7.22406">
        <ele>1041.9</ele>
        <time>2012-09-15T15:22:22.000Z</time>
      </trkpt>
      <trkpt lat="43.90093" lon="7.22402">
        <ele>1040.9</ele>
        <time>2012-09-15T15:22:49.000Z</time>
      </trkpt>
      <trkpt lat="43.90088" lon="7.22401">
        <ele>1040.1</ele>
        <time>2012-09-15T15:23:47.000Z</time>
      </trkpt>
      <trkpt lat="43.90084" lon="7.22397">
        <ele>1040.1</ele>
        <time>2012-09-15T15:23:53.000Z</time>
      </trkpt>
      <trkpt lat="43.9008" lon="7.22398">
        <ele>1041.5</ele>
        <time>2012-09-15T15:23:57.000Z</time>
      </trkpt>
      <trkpt lat="43.90075" lon="7.22402">
        <ele>1042.6</ele>
        <time>2012-09-15T15:24:01.000Z</time>
      </trkpt>
      <trkpt lat="43.90074" lon="7.22395">
        <ele>1044.7</ele>
        <time>2012-09-15T15:24:04.000Z</time>
      </trkpt>
      <trkpt lat="43.90072" lon="7.22402">
        <ele>1046.3</ele>
        <time>2012-09-15T15:24:07.000Z</time>
      </trkpt>
      <trkpt lat="43.90069" lon="7.22406">
        <ele>1046.1</ele>
        <time>2012-09-15T15:24:13.000Z</time>
      </trkpt>
      <trkpt lat="43.90069" lon="7.22414">
        <ele>1047.2</ele>
        <time>2012-09-15T15:24:18.000Z</time>
      </trkpt>
      <trkpt lat="43.90072" lon="7.22419">
        <ele>1047.4</ele>
        <time>2012-09-15T15:24:22.000Z</time>
      </trkpt>
      <trkpt lat="43.90074" lon="7.22425">
        <ele>1047.2</ele>
        <time>2012-09-15T15:24:30.000Z</time>
      </trkpt>
      <trkpt lat="43.90075" lon="7.22431">
        <ele>1049.3</ele>
        <time>2012-09-15T15:24:39.000Z</time>
      </trkpt>
      <trkpt lat="43.9007" lon="7.22431">
        <ele>1048.3</ele>
        <time>2012-09-15T15:24:44.000Z</time>
      </trkpt>
      <trkpt lat="43.90065" lon="7.22429">
        <ele>1048.3</ele>
        <time>2012-09-15T15:24:50.000Z</time>
      </trkpt>
      <trkpt lat="43.9006" lon="7.22427">
        <ele>1049.3</ele>
        <time>2012-09-15T15:24:56.000Z</time>
      </trkpt>
      <trkpt lat="43.90056" lon="7.22429">
        <ele>1049.6</ele>
        <time>2012-09-15T15:25:05.000Z</time>
      </trkpt>
      <trkpt lat="43.9005" lon="7.22426">
        <ele>1048.3</ele>
        <time>2012-09-15T15:25:11.000Z</time>
      </trkpt>
      <trkpt lat="43.90045" lon="7.22423">
        <ele>1048.9</ele>
        <time>2012-09-15T15:25:21.000Z</time>
      </trkpt>
      <trkpt lat="43.9004" lon="7.22419">
        <ele>1049.4</ele>
        <time>2012-09-15T15:25:27.000Z</time>
      </trkpt>
      <trkpt lat="43.90036" lon="7.22421">
        <ele>1049</ele>
        <time>2012-09-15T15:25:36.000Z</time>
      </trkpt>
      <trkpt lat="43.90032" lon="7.2242">
        <ele>1049.6</ele>
        <time>2012-09-15T15:25:46.000Z</time>
      </trkpt>
      <trkpt lat="43.90027" lon="7.22417">
        <ele>1053.1</ele>
        <time>2012-09-15T15:26:00.000Z</time>
      </trkpt>
      <trkpt lat="43.90025" lon="7.22424">
        <ele>1055.5</ele>
        <time>2012-09-15T15:26:16.000Z</time>
      </trkpt>
      <trkpt lat="43.90026" lon="7.2243">
        <ele>1055.9</ele>
        <time>2012-09-15T15:26:22.000Z</time>
      </trkpt>
      <trkpt lat="43.90024" lon="7.22436">
        <ele>1056</ele>
        <time>2012-09-15T15:26:28.000Z</time>
      </trkpt>
      <trkpt lat="43.90023" lon="7.22442">
        <ele>1057.1</ele>
        <time>2012-09-15T15:26:35.000Z</time>
      </trkpt>
      <trkpt lat="43.90019" lon="7.22445">
        <ele>1057.8</ele>
        <time>2012-09-15T15:26:41.000Z</time>
      </trkpt>
      <trkpt lat="43.90012" lon="7.22444">
        <ele>1059.6</ele>
        <time>2012-09-15T15:26:44.000Z</time>
      </trkpt>
      <trkpt lat="43.90013" lon="7.2245">
        <ele>1058.6</ele>
        <time>2012-09-15T15:26:48.000Z</time>
      </trkpt>
      <trkpt lat="43.90014" lon="7.22457">
        <ele>1063.8</ele>
        <time>2012-09-15T15:26:57.000Z</time>
      </trkpt>
      <trkpt lat="43.90014" lon="7.22464">
        <ele>1065</ele>
        <time>2012-09-15T15:27:01.000Z</time>
      </trkpt>
      <trkpt lat="43.90009" lon="7.22466">
        <ele>1068.8</ele>
        <time>2012-09-15T15:27:06.000Z</time>
      </trkpt>
      <trkpt lat="43.90004" lon="7.22467">
        <ele>1071.3</ele>
        <time>2012-09-15T15:27:12.000Z</time>
      </trkpt>
      <trkpt lat="43.90008" lon="7.22474">
        <ele>1072.9</ele>
        <time>2012-09-15T15:27:15.000Z</time>
      </trkpt>
      <trkpt lat="43.90007" lon="7.22483">
        <ele>1074.7</ele>
        <time>2012-09-15T15:28:28.000Z</time>
      </trkpt>
      <trkpt lat="43.90007" lon="7.22492">
        <ele>1072.5</ele>
        <time>2012-09-15T15:28:30.000Z</time>
      </trkpt>
      <trkpt lat="43.90009" lon="7.22502">
        <ele>1073.1</ele>
        <time>2012-09-15T15:28:33.000Z</time>
      </trkpt>
      <trkpt lat="43.90008" lon="7.22509">
        <ele>1071</ele>
        <time>2012-09-15T15:28:35.000Z</time>
      </trkpt>
      <trkpt lat="43.90006" lon="7.22519">
        <ele>1069.7</ele>
        <time>2012-09-15T15:28:38.000Z</time>
      </trkpt>
      <trkpt lat="43.9001" lon="7.2253">
        <ele>1069.3</ele>
        <time>2012-09-15T15:28:41.000Z</time>
      </trkpt>
      <trkpt lat="43.90007" lon="7.22538">
        <ele>1067.9</ele>
        <time>2012-09-15T15:28:43.000Z</time>
      </trkpt>
      <trkpt lat="43.90005" lon="7.22551">
        <ele>1065.8</ele>
        <time>2012-09-15T15:28:45.000Z</time>
      </trkpt>
      <trkpt lat="43.89999" lon="7.22554">
        <ele>1066</ele>
        <time>2012-09-15T15:28:47.000Z</time>
      </trkpt>
      <trkpt lat="43.89991" lon="7.22562">
        <ele>1064.2</ele>
        <time>2012-09-15T15:28:50.000Z</time>
      </trkpt>
      <trkpt lat="43.89987" lon="7.22567">
        <ele>1064</ele>
        <time>2012-09-15T15:28:51.000Z</time>
      </trkpt>
      <trkpt lat="43.89981" lon="7.22574">
        <ele>1062.3</ele>
        <time>2012-09-15T15:28:52.000Z</time>
      </trkpt>
      <trkpt lat="43.89983" lon="7.22581">
        <ele>1064.3</ele>
        <time>2012-09-15T15:28:55.000Z</time>
      </trkpt>
      <trkpt lat="43.89982" lon="7.22589">
        <ele>1063.8</ele>
        <time>2012-09-15T15:28:57.000Z</time>
      </trkpt>
      <trkpt lat="43.89976" lon="7.2259">
        <ele>1066</ele>
        <time>2012-09-15T15:28:59.000Z</time>
      </trkpt>
      <trkpt lat="43.89971" lon="7.22591">
        <ele>1069.8</ele>
        <time>2012-09-15T15:29:01.000Z</time>
      </trkpt>
      <trkpt lat="43.8997" lon="7.22599">
        <ele>1070.6</ele>
        <time>2012-09-15T15:29:03.000Z</time>
      </trkpt>
      <trkpt lat="43.89965" lon="7.226">
        <ele>1059.9</ele>
        <time>2012-09-15T15:29:06.000Z</time>
      </trkpt>
      <trkpt lat="43.89961" lon="7.22604">
        <ele>1057.4</ele>
        <time>2012-09-15T15:29:08.000Z</time>
      </trkpt>
      <trkpt lat="43.89959" lon="7.22611">
        <ele>1060.8</ele>
        <time>2012-09-15T15:29:10.000Z</time>
      </trkpt>
      <trkpt lat="43.89955" lon="7.22615">
        <ele>1066.4</ele>
        <time>2012-09-15T15:29:14.000Z</time>
      </trkpt>
      <trkpt lat="43.89953" lon="7.22621">
        <ele>1065.8</ele>
        <time>2012-09-15T15:29:18.000Z</time>
      </trkpt>
      <trkpt lat="43.89949" lon="7.22624">
        <ele>1071.9</ele>
        <time>2012-09-15T15:29:22.000Z</time>
      </trkpt>
      <trkpt lat="43.89944" lon="7.22628">
        <ele>1075.3</ele>
        <time>2012-09-15T15:29:25.000Z</time>
      </trkpt>
      <trkpt lat="43.8994" lon="7.22633">
        <ele>1074</ele>
        <time>2012-09-15T15:29:28.000Z</time>
      </trkpt>
      <trkpt lat="43.89934" lon="7.22643">
        <ele>1075.2</ele>
        <time>2012-09-15T15:29:31.000Z</time>
      </trkpt>
      <trkpt lat="43.8993" lon="7.22647">
        <ele>1076.9</ele>
        <time>2012-09-15T15:29:34.000Z</time>
      </trkpt>
      <trkpt lat="43.89925" lon="7.22649">
        <ele>1075.8</ele>
        <time>2012-09-15T15:29:36.000Z</time>
      </trkpt>
      <trkpt lat="43.89919" lon="7.22652">
        <ele>1073</ele>
        <time>2012-09-15T15:29:43.000Z</time>
      </trkpt>
      <trkpt lat="43.89915" lon="7.22656">
        <ele>1072.7</ele>
        <time>2012-09-15T15:29:47.000Z</time>
      </trkpt>
      <trkpt lat="43.89913" lon="7.22663">
        <ele>1075</ele>
        <time>2012-09-15T15:29:52.000Z</time>
      </trkpt>
      <trkpt lat="43.89909" lon="7.22666">
        <ele>1075.3</ele>
        <time>2012-09-15T15:29:57.000Z</time>
      </trkpt>
      <trkpt lat="43.89904" lon="7.22666">
        <ele>1068.9</ele>
        <time>2012-09-15T15:30:00.000Z</time>
      </trkpt>
      <trkpt lat="43.899" lon="7.22672">
        <ele>1071.7</ele>
        <time>2012-09-15T15:30:04.000Z</time>
      </trkpt>
      <trkpt lat="43.89901" lon="7.2268">
        <ele>1078.1</ele>
        <time>2012-09-15T15:30:08.000Z</time>
      </trkpt>
      <trkpt lat="43.89898" lon="7.22686">
        <ele>1080.9</ele>
        <time>2012-09-15T15:30:13.000Z</time>
      </trkpt>
      <trkpt lat="43.89897" lon="7.22692">
        <ele>1082.9</ele>
        <time>2012-09-15T15:30:20.000Z</time>
      </trkpt>
      <trkpt lat="43.89893" lon="7.22697">
        <ele>1080.9</ele>
        <time>2012-09-15T15:30:27.000Z</time>
      </trkpt>
      <trkpt lat="43.89889" lon="7.227">
        <ele>1080.2</ele>
        <time>2012-09-15T15:30:31.000Z</time>
      </trkpt>
      <trkpt lat="43.89884" lon="7.22702">
        <ele>1081.8</ele>
        <time>2012-09-15T15:30:36.000Z</time>
      </trkpt>
      <trkpt lat="43.89879" lon="7.22703">
        <ele>1082.1</ele>
        <time>2012-09-15T15:30:40.000Z</time>
      </trkpt>
      <trkpt lat="43.89875" lon="7.22706">
        <ele>1083.4</ele>
        <time>2012-09-15T15:30:44.000Z</time>
      </trkpt>
      <trkpt lat="43.89871" lon="7.22703">
        <ele>1086.5</ele>
        <time>2012-09-15T15:30:55.000Z</time>
      </trkpt>
      <trkpt lat="43.89867" lon="7.22699">
        <ele>1088.5</ele>
        <time>2012-09-15T15:31:00.000Z</time>
      </trkpt>
      <trkpt lat="43.89862" lon="7.22694">
        <ele>1090.3</ele>
        <time>2012-09-15T15:31:05.000Z</time>
      </trkpt>
      <trkpt lat="43.89858" lon="7.22692">
        <ele>1093.4</ele>
        <time>2012-09-15T15:31:11.000Z</time>
      </trkpt>
      <trkpt lat="43.89854" lon="7.2269">
        <ele>1093.7</ele>
        <time>2012-09-15T15:31:25.000Z</time>
      </trkpt>
      <trkpt lat="43.89851" lon="7.22683">
        <ele>1092.5</ele>
        <time>2012-09-15T15:31:29.000Z</time>
      </trkpt>
      <trkpt lat="43.89848" lon="7.22678">
        <ele>1092.2</ele>
        <time>2012-09-15T15:31:33.000Z</time>
      </trkpt>
      <trkpt lat="43.89845" lon="7.22671">
        <ele>1092</ele>
        <time>2012-09-15T15:31:37.000Z</time>
      </trkpt>
      <trkpt lat="43.89843" lon="7.22664">
        <ele>1092.3</ele>
        <time>2012-09-15T15:31:41.000Z</time>
      </trkpt>
      <trkpt lat="43.89844" lon="7.22657">
        <ele>1093.4</ele>
        <time>2012-09-15T15:31:45.000Z</time>
      </trkpt>
      <trkpt lat="43.89849" lon="7.22652">
        <ele>1094.3</ele>
        <time>2012-09-15T15:31:49.000Z</time>
      </trkpt>
      <trkpt lat="43.89854" lon="7.22648">
        <ele>1094.5</ele>
        <time>2012-09-15T15:31:52.000Z</time>
      </trkpt>
      <trkpt lat="43.89857" lon="7.22643">
        <ele>1095</ele>
        <time>2012-09-15T15:31:55.000Z</time>
      </trkpt>
      <trkpt lat="43.89859" lon="7.22637">
        <ele>1095.3</ele>
        <time>2012-09-15T15:31:58.000Z</time>
      </trkpt>
      <trkpt lat="43.89862" lon="7.2263">
        <ele>1095.5</ele>
        <time>2012-09-15T15:32:01.000Z</time>
      </trkpt>
      <trkpt lat="43.89864" lon="7.22624">
        <ele>1096.1</ele>
        <time>2012-09-15T15:32:04.000Z</time>
      </trkpt>
      <trkpt lat="43.89866" lon="7.22618">
        <ele>1096.5</ele>
        <time>2012-09-15T15:32:07.000Z</time>
      </trkpt>
      <trkpt lat="43.89867" lon="7.22611">
        <ele>1096.9</ele>
        <time>2012-09-15T15:32:11.000Z</time>
      </trkpt>
      <trkpt lat="43.89868" lon="7.22603">
        <ele>1096.4</ele>
        <time>2012-09-15T15:32:15.000Z</time>
      </trkpt>
      <trkpt lat="43.89869" lon="7.22596">
        <ele>1097.2</ele>
        <time>2012-09-15T15:32:19.000Z</time>
      </trkpt>
      <trkpt lat="43.8987" lon="7.22589">
        <ele>1096.6</ele>
        <time>2012-09-15T15:32:22.000Z</time>
      </trkpt>
      <trkpt lat="43.89871" lon="7.22581">
        <ele>1096.1</ele>
        <time>2012-09-15T15:32:25.000Z</time>
      </trkpt>
      <trkpt lat="43.89872" lon="7.22575">
        <ele>1096.4</ele>
        <time>2012-09-15T15:32:28.000Z</time>
      </trkpt>
      <trkpt lat="43.89873" lon="7.22569">
        <ele>1096.6</ele>
        <time>2012-09-15T15:32:31.000Z</time>
      </trkpt>
      <trkpt lat="43.89874" lon="7.22562">
        <ele>1096.2</ele>
        <time>2012-09-15T15:32:34.000Z</time>
      </trkpt>
      <trkpt lat="43.89875" lon="7.22556">
        <ele>1096.4</ele>
        <time>2012-09-15T15:32:37.000Z</time>
      </trkpt>
      <trkpt lat="43.89875" lon="7.22549">
        <ele>1096.4</ele>
        <time>2012-09-15T15:32:40.000Z</time>
      </trkpt>
      <trkpt lat="43.89876" lon="7.22542">
        <ele>1096.6</ele>
        <time>2012-09-15T15:32:44.000Z</time>
      </trkpt>
      <trkpt lat="43.89877" lon="7.22533">
        <ele>1097.3</ele>
        <time>2012-09-15T15:32:48.000Z</time>
      </trkpt>
      <trkpt lat="43.89879" lon="7.22526">
        <ele>1097.7</ele>
        <time>2012-09-15T15:32:52.000Z</time>
      </trkpt>
      <trkpt lat="43.8988" lon="7.22518">
        <ele>1098.3</ele>
        <time>2012-09-15T15:32:56.000Z</time>
      </trkpt>
      <trkpt lat="43.89881" lon="7.22511">
        <ele>1099.1</ele>
        <time>2012-09-15T15:33:00.000Z</time>
      </trkpt>
      <trkpt lat="43.89882" lon="7.22504">
        <ele>1099.1</ele>
        <time>2012-09-15T15:33:03.000Z</time>
      </trkpt>
      <trkpt lat="43.89883" lon="7.22497">
        <ele>1099.1</ele>
        <time>2012-09-15T15:33:06.000Z</time>
      </trkpt>
      <trkpt lat="43.89883" lon="7.2249">
        <ele>1099.4</ele>
        <time>2012-09-15T15:33:09.000Z</time>
      </trkpt>
      <trkpt lat="43.89883" lon="7.22483">
        <ele>1100.3</ele>
        <time>2012-09-15T15:33:13.000Z</time>
      </trkpt>
      <trkpt lat="43.89883" lon="7.22476">
        <ele>1100.5</ele>
        <time>2012-09-15T15:33:16.000Z</time>
      </trkpt>
      <trkpt lat="43.89884" lon="7.22469">
        <ele>1100.8</ele>
        <time>2012-09-15T15:33:20.000Z</time>
      </trkpt>
      <trkpt lat="43.89883" lon="7.22462">
        <ele>1101.4</ele>
        <time>2012-09-15T15:33:24.000Z</time>
      </trkpt>
      <trkpt lat="43.89882" lon="7.22454">
        <ele>1102.1</ele>
        <time>2012-09-15T15:33:29.000Z</time>
      </trkpt>
      <trkpt lat="43.89881" lon="7.22447">
        <ele>1104.5</ele>
        <time>2012-09-15T15:33:33.000Z</time>
      </trkpt>
      <trkpt lat="43.89881" lon="7.2244">
        <ele>1104.6</ele>
        <time>2012-09-15T15:33:37.000Z</time>
      </trkpt>
      <trkpt lat="43.89881" lon="7.22433">
        <ele>1105.2</ele>
        <time>2012-09-15T15:33:41.000Z</time>
      </trkpt>
      <trkpt lat="43.8988" lon="7.22425">
        <ele>1105.7</ele>
        <time>2012-09-15T15:33:45.000Z</time>
      </trkpt>
      <trkpt lat="43.8988" lon="7.22418">
        <ele>1106.4</ele>
        <time>2012-09-15T15:33:50.000Z</time>
      </trkpt>
      <trkpt lat="43.89879" lon="7.22411">
        <ele>1106.5</ele>
        <time>2012-09-15T15:33:54.000Z</time>
      </trkpt>
      <trkpt lat="43.89878" lon="7.22403">
        <ele>1106.6</ele>
        <time>2012-09-15T15:33:59.000Z</time>
      </trkpt>
      <trkpt lat="43.89877" lon="7.22396">
        <ele>1107.1</ele>
        <time>2012-09-15T15:34:03.000Z</time>
      </trkpt>
      <trkpt lat="43.89876" lon="7.22388">
        <ele>1108.8</ele>
        <time>2012-09-15T15:34:07.000Z</time>
      </trkpt>
      <trkpt lat="43.89874" lon="7.22381">
        <ele>1109.1</ele>
        <time>2012-09-15T15:34:10.000Z</time>
      </trkpt>
      <trkpt lat="43.89872" lon="7.22374">
        <ele>1109.7</ele>
        <time>2012-09-15T15:34:15.000Z</time>
      </trkpt>
      <trkpt lat="43.89871" lon="7.22366">
        <ele>1109.8</ele>
        <time>2012-09-15T15:34:19.000Z</time>
      </trkpt>
      <trkpt lat="43.89866" lon="7.22361">
        <ele>1109.2</ele>
        <time>2012-09-15T15:34:22.000Z</time>
      </trkpt>
      <trkpt lat="43.89862" lon="7.22355">
        <ele>1107.1</ele>
        <time>2012-09-15T15:34:25.000Z</time>
      </trkpt>
      <trkpt lat="43.8986" lon="7.22346">
        <ele>1106.9</ele>
        <time>2012-09-15T15:34:28.000Z</time>
      </trkpt>
      <trkpt lat="43.89858" lon="7.2234">
        <ele>1107.3</ele>
        <time>2012-09-15T15:34:30.000Z</time>
      </trkpt>
      <trkpt lat="43.89855" lon="7.22334">
        <ele>1107.1</ele>
        <time>2012-09-15T15:34:32.000Z</time>
      </trkpt>
      <trkpt lat="43.8985" lon="7.22328">
        <ele>1106.5</ele>
        <time>2012-09-15T15:34:34.000Z</time>
      </trkpt>
      <trkpt lat="43.89846" lon="7.22322">
        <ele>1106.3</ele>
        <time>2012-09-15T15:34:36.000Z</time>
      </trkpt>
      <trkpt lat="43.89842" lon="7.22315">
        <ele>1106</ele>
        <time>2012-09-15T15:34:39.000Z</time>
      </trkpt>
      <trkpt lat="43.89842" lon="7.22308">
        <ele>1105.9</ele>
        <time>2012-09-15T15:34:41.000Z</time>
      </trkpt>
      <trkpt lat="43.8984" lon="7.22301">
        <ele>1106.3</ele>
        <time>2012-09-15T15:34:43.000Z</time>
      </trkpt>
      <trkpt lat="43.89838" lon="7.22292">
        <ele>1107</ele>
        <time>2012-09-15T15:34:45.000Z</time>
      </trkpt>
      <trkpt lat="43.89836" lon="7.22282">
        <ele>1106.5</ele>
        <time>2012-09-15T15:34:47.000Z</time>
      </trkpt>
      <trkpt lat="43.89834" lon="7.22276">
        <ele>1106.3</ele>
        <time>2012-09-15T15:34:48.000Z</time>
      </trkpt>
      <trkpt lat="43.89832" lon="7.2227">
        <ele>1106.3</ele>
        <time>2012-09-15T15:34:49.000Z</time>
      </trkpt>
      <trkpt lat="43.8983" lon="7.2226">
        <ele>1106.6</ele>
        <time>2012-09-15T15:34:51.000Z</time>
      </trkpt>
      <trkpt lat="43.8983" lon="7.22249">
        <ele>1107.1</ele>
        <time>2012-09-15T15:34:53.000Z</time>
      </trkpt>
      <trkpt lat="43.89827" lon="7.22237">
        <ele>1106.8</ele>
        <time>2012-09-15T15:34:55.000Z</time>
      </trkpt>
      <trkpt lat="43.89827" lon="7.22225">
        <ele>1107.1</ele>
        <time>2012-09-15T15:34:57.000Z</time>
      </trkpt>
      <trkpt lat="43.89827" lon="7.22215">
        <ele>1107.3</ele>
        <time>2012-09-15T15:34:59.000Z</time>
      </trkpt>
      <trkpt lat="43.89823" lon="7.22206">
        <ele>1107.5</ele>
        <time>2012-09-15T15:35:01.000Z</time>
      </trkpt>
      <trkpt lat="43.8982" lon="7.22197">
        <ele>1107.9</ele>
        <time>2012-09-15T15:35:03.000Z</time>
      </trkpt>
      <trkpt lat="43.89817" lon="7.2219">
        <ele>1108.1</ele>
        <time>2012-09-15T15:35:04.000Z</time>
      </trkpt>
      <trkpt lat="43.89812" lon="7.22178">
        <ele>1106.8</ele>
        <time>2012-09-15T15:35:07.000Z</time>
      </trkpt>
      <trkpt lat="43.8981" lon="7.22171">
        <ele>1106.9</ele>
        <time>2012-09-15T15:35:09.000Z</time>
      </trkpt>
      <trkpt lat="43.89808" lon="7.22162">
        <ele>1108</ele>
        <time>2012-09-15T15:35:12.000Z</time>
      </trkpt>
      <trkpt lat="43.89805" lon="7.22154">
        <ele>1108.1</ele>
        <time>2012-09-15T15:35:15.000Z</time>
      </trkpt>
      <trkpt lat="43.89801" lon="7.22147">
        <ele>1107.5</ele>
        <time>2012-09-15T15:35:18.000Z</time>
      </trkpt>
      <trkpt lat="43.89796" lon="7.22141">
        <ele>1107.2</ele>
        <time>2012-09-15T15:35:20.000Z</time>
      </trkpt>
      <trkpt lat="43.89792" lon="7.22136">
        <ele>1106.4</ele>
        <time>2012-09-15T15:35:22.000Z</time>
      </trkpt>
      <trkpt lat="43.89791" lon="7.22129">
        <ele>1106.8</ele>
        <time>2012-09-15T15:35:24.000Z</time>
      </trkpt>
      <trkpt lat="43.8979" lon="7.2212">
        <ele>1108.4</ele>
        <time>2012-09-15T15:35:27.000Z</time>
      </trkpt>
      <trkpt lat="43.89787" lon="7.22113">
        <ele>1108.6</ele>
        <time>2012-09-15T15:35:29.000Z</time>
      </trkpt>
      <trkpt lat="43.89784" lon="7.22106">
        <ele>1107.8</ele>
        <time>2012-09-15T15:35:32.000Z</time>
      </trkpt>
      <trkpt lat="43.89783" lon="7.22097">
        <ele>1108.4</ele>
        <time>2012-09-15T15:35:35.000Z</time>
      </trkpt>
      <trkpt lat="43.89782" lon="7.2209">
        <ele>1108.5</ele>
        <time>2012-09-15T15:35:37.000Z</time>
      </trkpt>
      <trkpt lat="43.89781" lon="7.22082">
        <ele>1108.5</ele>
        <time>2012-09-15T15:35:39.000Z</time>
      </trkpt>
      <trkpt lat="43.89779" lon="7.22075">
        <ele>1108.6</ele>
        <time>2012-09-15T15:35:41.000Z</time>
      </trkpt>
      <trkpt lat="43.89778" lon="7.22068">
        <ele>1109.2</ele>
        <time>2012-09-15T15:35:43.000Z</time>
      </trkpt>
      <trkpt lat="43.89777" lon="7.22061">
        <ele>1109.9</ele>
        <time>2012-09-15T15:35:45.000Z</time>
      </trkpt>
      <trkpt lat="43.89775" lon="7.22053">
        <ele>1110.7</ele>
        <time>2012-09-15T15:35:48.000Z</time>
      </trkpt>
      <trkpt lat="43.89774" lon="7.22047">
        <ele>1111.3</ele>
        <time>2012-09-15T15:35:50.000Z</time>
      </trkpt>
      <trkpt lat="43.89773" lon="7.22038">
        <ele>1111.6</ele>
        <time>2012-09-15T15:35:53.000Z</time>
      </trkpt>
      <trkpt lat="43.89772" lon="7.22032">
        <ele>1111.4</ele>
        <time>2012-09-15T15:35:55.000Z</time>
      </trkpt>
      <trkpt lat="43.89772" lon="7.22025">
        <ele>1110.5</ele>
        <time>2012-09-15T15:35:57.000Z</time>
      </trkpt>
      <trkpt lat="43.89769" lon="7.2202">
        <ele>1111.5</ele>
        <time>2012-09-15T15:35:59.000Z</time>
      </trkpt>
      <trkpt lat="43.89766" lon="7.22015">
        <ele>1111.8</ele>
        <time>2012-09-15T15:36:01.000Z</time>
      </trkpt>
      <trkpt lat="43.89763" lon="7.2201">
        <ele>1110.8</ele>
        <time>2012-09-15T15:36:03.000Z</time>
      </trkpt>
      <trkpt lat="43.8976" lon="7.22002">
        <ele>1111.1</ele>
        <time>2012-09-15T15:36:06.000Z</time>
      </trkpt>
      <trkpt lat="43.89757" lon="7.21995">
        <ele>1111</ele>
        <time>2012-09-15T15:36:09.000Z</time>
      </trkpt>
      <trkpt lat="43.89755" lon="7.21988">
        <ele>1112.1</ele>
        <time>2012-09-15T15:36:12.000Z</time>
      </trkpt>
      <trkpt lat="43.89754" lon="7.2198">
        <ele>1113.1</ele>
        <time>2012-09-15T15:36:15.000Z</time>
      </trkpt>
      <trkpt lat="43.8975" lon="7.21972">
        <ele>1113.5</ele>
        <time>2012-09-15T15:36:18.000Z</time>
      </trkpt>
      <trkpt lat="43.89747" lon="7.21967">
        <ele>1113.3</ele>
        <time>2012-09-15T15:36:20.000Z</time>
      </trkpt>
      <trkpt lat="43.89744" lon="7.21959">
        <ele>1113.1</ele>
        <time>2012-09-15T15:36:23.000Z</time>
      </trkpt>
      <trkpt lat="43.89742" lon="7.21953">
        <ele>1113.8</ele>
        <time>2012-09-15T15:36:25.000Z</time>
      </trkpt>
      <trkpt lat="43.89737" lon="7.21947">
        <ele>1113.3</ele>
        <time>2012-09-15T15:36:28.000Z</time>
      </trkpt>
      <trkpt lat="43.89735" lon="7.2194">
        <ele>1113.1</ele>
        <time>2012-09-15T15:36:30.000Z</time>
      </trkpt>
      <trkpt lat="43.89733" lon="7.21934">
        <ele>1112.7</ele>
        <time>2012-09-15T15:36:32.000Z</time>
      </trkpt>
      <trkpt lat="43.8973" lon="7.21929">
        <ele>1110.8</ele>
        <time>2012-09-15T15:36:41.000Z</time>
      </trkpt>
      <trkpt lat="43.89727" lon="7.21923">
        <ele>1111.6</ele>
        <time>2012-09-15T15:36:43.000Z</time>
      </trkpt>
      <trkpt lat="43.89726" lon="7.21917">
        <ele>1112.1</ele>
        <time>2012-09-15T15:36:45.000Z</time>
      </trkpt>
      <trkpt lat="43.89723" lon="7.21909">
        <ele>1112.5</ele>
        <time>2012-09-15T15:36:47.000Z</time>
      </trkpt>
      <trkpt lat="43.8972" lon="7.21902">
        <ele>1112.5</ele>
        <time>2012-09-15T15:36:49.000Z</time>
      </trkpt>
      <trkpt lat="43.8972" lon="7.21895">
        <ele>1112.4</ele>
        <time>2012-09-15T15:36:51.000Z</time>
      </trkpt>
      <trkpt lat="43.89718" lon="7.21887">
        <ele>1111.7</ele>
        <time>2012-09-15T15:36:53.000Z</time>
      </trkpt>
      <trkpt lat="43.89716" lon="7.21881">
        <ele>1112</ele>
        <time>2012-09-15T15:36:55.000Z</time>
      </trkpt>
      <trkpt lat="43.89712" lon="7.21873">
        <ele>1111</ele>
        <time>2012-09-15T15:36:58.000Z</time>
      </trkpt>
      <trkpt lat="43.89711" lon="7.21866">
        <ele>1111.2</ele>
        <time>2012-09-15T15:37:00.000Z</time>
      </trkpt>
      <trkpt lat="43.89708" lon="7.21859">
        <ele>1111</ele>
        <time>2012-09-15T15:37:02.000Z</time>
      </trkpt>
      <trkpt lat="43.89706" lon="7.21852">
        <ele>1110.8</ele>
        <time>2012-09-15T15:37:04.000Z</time>
      </trkpt>
      <trkpt lat="43.89702" lon="7.21843">
        <ele>1111.7</ele>
        <time>2012-09-15T15:37:07.000Z</time>
      </trkpt>
      <trkpt lat="43.89698" lon="7.21834">
        <ele>1110.2</ele>
        <time>2012-09-15T15:37:09.000Z</time>
      </trkpt>
      <trkpt lat="43.89699" lon="7.21827">
        <ele>1108.2</ele>
        <time>2012-09-15T15:37:11.000Z</time>
      </trkpt>
      <trkpt lat="43.89694" lon="7.21829">
        <ele>1106.8</ele>
        <time>2012-09-15T15:37:13.000Z</time>
      </trkpt>
      <trkpt lat="43.89689" lon="7.21828">
        <ele>1105.3</ele>
        <time>2012-09-15T15:37:15.000Z</time>
      </trkpt>
      <trkpt lat="43.89685" lon="7.21824">
        <ele>1101.5</ele>
        <time>2012-09-15T15:37:18.000Z</time>
      </trkpt>
      <trkpt lat="43.89682" lon="7.21817">
        <ele>1100</ele>
        <time>2012-09-15T15:37:20.000Z</time>
      </trkpt>
      <trkpt lat="43.89679" lon="7.21812">
        <ele>1099.7</ele>
        <time>2012-09-15T15:37:24.000Z</time>
      </trkpt>
      <trkpt lat="43.89681" lon="7.21806">
        <ele>1098.6</ele>
        <time>2012-09-15T15:38:19.000Z</time>
      </trkpt>
      <trkpt lat="43.89681" lon="7.21795">
        <ele>1097.7</ele>
        <time>2012-09-15T15:38:22.000Z</time>
      </trkpt>
      <trkpt lat="43.89681" lon="7.21785">
        <ele>1098.1</ele>
        <time>2012-09-15T15:38:24.000Z</time>
      </trkpt>
      <trkpt lat="43.89682" lon="7.21776">
        <ele>1097.5</ele>
        <time>2012-09-15T15:38:26.000Z</time>
      </trkpt>
      <trkpt lat="43.89684" lon="7.2177">
        <ele>1092</ele>
        <time>2012-09-15T15:38:40.000Z</time>
      </trkpt>
      <trkpt lat="43.89678" lon="7.2177">
        <ele>1089</ele>
        <time>2012-09-15T15:38:45.000Z</time>
      </trkpt>
      <trkpt lat="43.89674" lon="7.21772">
        <ele>1087.7</ele>
        <time>2012-09-15T15:38:52.000Z</time>
      </trkpt>
      <trkpt lat="43.89668" lon="7.21774">
        <ele>1082.9</ele>
        <time>2012-09-15T15:39:00.000Z</time>
      </trkpt>
      <trkpt lat="43.89664" lon="7.21768">
        <ele>1081.8</ele>
        <time>2012-09-15T15:39:03.000Z</time>
      </trkpt>
      <trkpt lat="43.89659" lon="7.21764">
        <ele>1080.4</ele>
        <time>2012-09-15T15:39:06.000Z</time>
      </trkpt>
      <trkpt lat="43.89654" lon="7.21761">
        <ele>1077.5</ele>
        <time>2012-09-15T15:39:11.000Z</time>
      </trkpt>
      <trkpt lat="43.89649" lon="7.2176">
        <ele>1074.2</ele>
        <time>2012-09-15T15:39:26.000Z</time>
      </trkpt>
      <trkpt lat="43.89644" lon="7.21759">
        <ele>1075.5</ele>
        <time>2012-09-15T15:39:32.000Z</time>
      </trkpt>
      <trkpt lat="43.89638" lon="7.21754">
        <ele>1079.1</ele>
        <time>2012-09-15T15:39:35.000Z</time>
      </trkpt>
      <trkpt lat="43.89634" lon="7.21759">
        <ele>1082</ele>
        <time>2012-09-15T15:39:37.000Z</time>
      </trkpt>
      <trkpt lat="43.89629" lon="7.2176">
        <ele>1084.5</ele>
        <time>2012-09-15T15:39:40.000Z</time>
      </trkpt>
      <trkpt lat="43.89622" lon="7.21758">
        <ele>1087.9</ele>
        <time>2012-09-15T15:39:43.000Z</time>
      </trkpt>
      <trkpt lat="43.89618" lon="7.21754">
        <ele>1087.8</ele>
        <time>2012-09-15T15:39:45.000Z</time>
      </trkpt>
      <trkpt lat="43.89612" lon="7.21751">
        <ele>1087.1</ele>
        <time>2012-09-15T15:39:47.000Z</time>
      </trkpt>
      <trkpt lat="43.89608" lon="7.21743">
        <ele>1083.9</ele>
        <time>2012-09-15T15:39:50.000Z</time>
      </trkpt>
      <trkpt lat="43.89605" lon="7.21739">
        <ele>1082.1</ele>
        <time>2012-09-15T15:39:52.000Z</time>
      </trkpt>
      <trkpt lat="43.89598" lon="7.21739">
        <ele>1079.3</ele>
        <time>2012-09-15T15:39:54.000Z</time>
      </trkpt>
      <trkpt lat="43.89594" lon="7.21735">
        <ele>1079.1</ele>
        <time>2012-09-15T15:39:56.000Z</time>
      </trkpt>
      <trkpt lat="43.89596" lon="7.21729">
        <ele>1071.1</ele>
        <time>2012-09-15T15:39:58.000Z</time>
      </trkpt>
      <trkpt lat="43.89596" lon="7.21721">
        <ele>1067.7</ele>
        <time>2012-09-15T15:40:01.000Z</time>
      </trkpt>
      <trkpt lat="43.8959" lon="7.21719">
        <ele>1067.5</ele>
        <time>2012-09-15T15:40:02.000Z</time>
      </trkpt>
      <trkpt lat="43.89586" lon="7.21716">
        <ele>1066.8</ele>
        <time>2012-09-15T15:40:04.000Z</time>
      </trkpt>
      <trkpt lat="43.8958" lon="7.21712">
        <ele>1065.8</ele>
        <time>2012-09-15T15:40:06.000Z</time>
      </trkpt>
      <trkpt lat="43.89574" lon="7.21708">
        <ele>1057.4</ele>
        <time>2012-09-15T15:40:11.000Z</time>
      </trkpt>
      <trkpt lat="43.8957" lon="7.21704">
        <ele>1053.9</ele>
        <time>2012-09-15T15:40:15.000Z</time>
      </trkpt>
      <trkpt lat="43.8957" lon="7.21697">
        <ele>1053.6</ele>
        <time>2012-09-15T15:40:17.000Z</time>
      </trkpt>
      <trkpt lat="43.89567" lon="7.2169">
        <ele>1058.3</ele>
        <time>2012-09-15T15:40:30.000Z</time>
      </trkpt>
      <trkpt lat="43.89567" lon="7.21683">
        <ele>1058.3</ele>
        <time>2012-09-15T15:40:32.000Z</time>
      </trkpt>
      <trkpt lat="43.89564" lon="7.21674">
        <ele>1058.2</ele>
        <time>2012-09-15T15:40:35.000Z</time>
      </trkpt>
      <trkpt lat="43.89565" lon="7.21667">
        <ele>1058</ele>
        <time>2012-09-15T15:40:37.000Z</time>
      </trkpt>
      <trkpt lat="43.89567" lon="7.21658">
        <ele>1057.2</ele>
        <time>2012-09-15T15:40:39.000Z</time>
      </trkpt>
      <trkpt lat="43.89561" lon="7.21659">
        <ele>1054.2</ele>
        <time>2012-09-15T15:40:43.000Z</time>
      </trkpt>
      <trkpt lat="43.89559" lon="7.21653">
        <ele>1054.9</ele>
        <time>2012-09-15T15:41:10.000Z</time>
      </trkpt>
      <trkpt lat="43.89562" lon="7.21645">
        <ele>1057.3</ele>
        <time>2012-09-15T15:41:12.000Z</time>
      </trkpt>
      <trkpt lat="43.89562" lon="7.21639">
        <ele>1055.8</ele>
        <time>2012-09-15T15:41:15.000Z</time>
      </trkpt>
      <trkpt lat="43.89557" lon="7.21635">
        <ele>1054</ele>
        <time>2012-09-15T15:41:19.000Z</time>
      </trkpt>
      <trkpt lat="43.89552" lon="7.21628">
        <ele>1054.1</ele>
        <time>2012-09-15T15:41:22.000Z</time>
      </trkpt>
      <trkpt lat="43.89554" lon="7.21621">
        <ele>1054.7</ele>
        <time>2012-09-15T15:41:24.000Z</time>
      </trkpt>
      <trkpt lat="43.8956" lon="7.21615">
        <ele>1052.2</ele>
        <time>2012-09-15T15:41:26.000Z</time>
      </trkpt>
      <trkpt lat="43.89556" lon="7.2161">
        <ele>1050.2</ele>
        <time>2012-09-15T15:41:30.000Z</time>
      </trkpt>
      <trkpt lat="43.89551" lon="7.21604">
        <ele>1048.9</ele>
        <time>2012-09-15T15:41:32.000Z</time>
      </trkpt>
      <trkpt lat="43.89547" lon="7.21602">
        <ele>1042</ele>
        <time>2012-09-15T15:41:34.000Z</time>
      </trkpt>
      <trkpt lat="43.89542" lon="7.216">
        <ele>1041.5</ele>
        <time>2012-09-15T15:41:36.000Z</time>
      </trkpt>
      <trkpt lat="43.89538" lon="7.21597">
        <ele>1041.6</ele>
        <time>2012-09-15T15:41:39.000Z</time>
      </trkpt>
      <trkpt lat="43.89535" lon="7.21592">
        <ele>1040.7</ele>
        <time>2012-09-15T15:41:41.000Z</time>
      </trkpt>
      <trkpt lat="43.89529" lon="7.21587">
        <ele>1040</ele>
        <time>2012-09-15T15:41:43.000Z</time>
      </trkpt>
      <trkpt lat="43.89527" lon="7.2158">
        <ele>1041.4</ele>
        <time>2012-09-15T15:41:45.000Z</time>
      </trkpt>
      <trkpt lat="43.89526" lon="7.21573">
        <ele>1043.2</ele>
        <time>2012-09-15T15:41:47.000Z</time>
      </trkpt>
      <trkpt lat="43.8952" lon="7.21567">
        <ele>1042.3</ele>
        <time>2012-09-15T15:41:50.000Z</time>
      </trkpt>
      <trkpt lat="43.89518" lon="7.21558">
        <ele>1040.6</ele>
        <time>2012-09-15T15:41:53.000Z</time>
      </trkpt>
      <trkpt lat="43.89519" lon="7.21549">
        <ele>1037.2</ele>
        <time>2012-09-15T15:41:55.000Z</time>
      </trkpt>
      <trkpt lat="43.89521" lon="7.21542">
        <ele>1035.9</ele>
        <time>2012-09-15T15:41:58.000Z</time>
      </trkpt>
      <trkpt lat="43.89524" lon="7.21538">
        <ele>1037.1</ele>
        <time>2012-09-15T15:42:00.000Z</time>
      </trkpt>
      <trkpt lat="43.89522" lon="7.21532">
        <ele>1037.1</ele>
        <time>2012-09-15T15:42:04.000Z</time>
      </trkpt>
      <trkpt lat="43.89519" lon="7.21528">
        <ele>1036.2</ele>
        <time>2012-09-15T15:42:05.000Z</time>
      </trkpt>
      <trkpt lat="43.89516" lon="7.21515">
        <ele>1035</ele>
        <time>2012-09-15T15:42:07.000Z</time>
      </trkpt>
      <trkpt lat="43.8952" lon="7.21506">
        <ele>1036.7</ele>
        <time>2012-09-15T15:42:08.000Z</time>
      </trkpt>
      <trkpt lat="43.8952" lon="7.21499">
        <ele>1036.9</ele>
        <time>2012-09-15T15:42:09.000Z</time>
      </trkpt>
      <trkpt lat="43.8952" lon="7.21491">
        <ele>1037.9</ele>
        <time>2012-09-15T15:42:11.000Z</time>
      </trkpt>
      <trkpt lat="43.89522" lon="7.21481">
        <ele>1038.7</ele>
        <time>2012-09-15T15:42:13.000Z</time>
      </trkpt>
      <trkpt lat="43.89525" lon="7.21475">
        <ele>1040.8</ele>
        <time>2012-09-15T15:42:15.000Z</time>
      </trkpt>
      <trkpt lat="43.89519" lon="7.21469">
        <ele>1036.6</ele>
        <time>2012-09-15T15:42:18.000Z</time>
      </trkpt>
      <trkpt lat="43.89518" lon="7.21462">
        <ele>1034.6</ele>
        <time>2012-09-15T15:42:20.000Z</time>
      </trkpt>
      <trkpt lat="43.89515" lon="7.21457">
        <ele>1033.3</ele>
        <time>2012-09-15T15:42:21.000Z</time>
      </trkpt>
      <trkpt lat="43.89514" lon="7.21449">
        <ele>1031.7</ele>
        <time>2012-09-15T15:42:23.000Z</time>
      </trkpt>
      <trkpt lat="43.89511" lon="7.21442">
        <ele>1030.3</ele>
        <time>2012-09-15T15:42:26.000Z</time>
      </trkpt>
      <trkpt lat="43.89509" lon="7.21434">
        <ele>1024.4</ele>
        <time>2012-09-15T15:42:28.000Z</time>
      </trkpt>
      <trkpt lat="43.89509" lon="7.21428">
        <ele>1023.6</ele>
        <time>2012-09-15T15:42:30.000Z</time>
      </trkpt>
      <trkpt lat="43.89509" lon="7.21419">
        <ele>1024.5</ele>
        <time>2012-09-15T15:42:32.000Z</time>
      </trkpt>
      <trkpt lat="43.89508" lon="7.21413">
        <ele>1025.7</ele>
        <time>2012-09-15T15:42:34.000Z</time>
      </trkpt>
      <trkpt lat="43.89509" lon="7.21406">
        <ele>1029.8</ele>
        <time>2012-09-15T15:42:36.000Z</time>
      </trkpt>
      <trkpt lat="43.89509" lon="7.21397">
        <ele>1032.8</ele>
        <time>2012-09-15T15:42:39.000Z</time>
      </trkpt>
      <trkpt lat="43.89509" lon="7.21387">
        <ele>1032.5</ele>
        <time>2012-09-15T15:42:42.000Z</time>
      </trkpt>
      <trkpt lat="43.89508" lon="7.2138">
        <ele>1032.6</ele>
        <time>2012-09-15T15:42:44.000Z</time>
      </trkpt>
      <trkpt lat="43.8951" lon="7.21371">
        <ele>1034.6</ele>
        <time>2012-09-15T15:42:46.000Z</time>
      </trkpt>
      <trkpt lat="43.89512" lon="7.21362">
        <ele>1039</ele>
        <time>2012-09-15T15:42:49.000Z</time>
      </trkpt>
      <trkpt lat="43.89515" lon="7.21357">
        <ele>1039.6</ele>
        <time>2012-09-15T15:42:51.000Z</time>
      </trkpt>
      <trkpt lat="43.89515" lon="7.21349">
        <ele>1037.1</ele>
        <time>2012-09-15T15:42:53.000Z</time>
      </trkpt>
      <trkpt lat="43.89516" lon="7.21343">
        <ele>1036.8</ele>
        <time>2012-09-15T15:42:54.000Z</time>
      </trkpt>
      <trkpt lat="43.89516" lon="7.21333">
        <ele>1036.5</ele>
        <time>2012-09-15T15:42:56.000Z</time>
      </trkpt>
      <trkpt lat="43.89516" lon="7.21324">
        <ele>1037.6</ele>
        <time>2012-09-15T15:42:58.000Z</time>
      </trkpt>
      <trkpt lat="43.89514" lon="7.21318">
        <ele>1036.4</ele>
        <time>2012-09-15T15:43:00.000Z</time>
      </trkpt>
      <trkpt lat="43.89516" lon="7.21311">
        <ele>1036.4</ele>
        <time>2012-09-15T15:43:02.000Z</time>
      </trkpt>
      <trkpt lat="43.89518" lon="7.21304">
        <ele>1035.7</ele>
        <time>2012-09-15T15:43:05.000Z</time>
      </trkpt>
      <trkpt lat="43.89519" lon="7.21298">
        <ele>1034.2</ele>
        <time>2012-09-15T15:43:07.000Z</time>
      </trkpt>
      <trkpt lat="43.8952" lon="7.21289">
        <ele>1034.3</ele>
        <time>2012-09-15T15:43:09.000Z</time>
      </trkpt>
      <trkpt lat="43.89521" lon="7.21283">
        <ele>1034.6</ele>
        <time>2012-09-15T15:43:13.000Z</time>
      </trkpt>
      <trkpt lat="43.8952" lon="7.21276">
        <ele>1032.8</ele>
        <time>2012-09-15T15:43:39.000Z</time>
      </trkpt>
      <trkpt lat="43.89516" lon="7.21272">
        <ele>1030.5</ele>
        <time>2012-09-15T15:43:45.000Z</time>
      </trkpt>
      <trkpt lat="43.89511" lon="7.21266">
        <ele>1027.8</ele>
        <time>2012-09-15T15:43:49.000Z</time>
      </trkpt>
      <trkpt lat="43.89507" lon="7.21262">
        <ele>1025.6</ele>
        <time>2012-09-15T15:43:54.000Z</time>
      </trkpt>
      <trkpt lat="43.8951" lon="7.21257">
        <ele>1022.9</ele>
        <time>2012-09-15T15:44:07.000Z</time>
      </trkpt>
      <trkpt lat="43.89507" lon="7.21251">
        <ele>1021.4</ele>
        <time>2012-09-15T15:44:19.000Z</time>
      </trkpt>
      <trkpt lat="43.89505" lon="7.21244">
        <ele>1020.2</ele>
        <time>2012-09-15T15:44:21.000Z</time>
      </trkpt>
      <trkpt lat="43.89502" lon="7.21238">
        <ele>1020.5</ele>
        <time>2012-09-15T15:44:23.000Z</time>
      </trkpt>
      <trkpt lat="43.895" lon="7.21229">
        <ele>1020.6</ele>
        <time>2012-09-15T15:44:27.000Z</time>
      </trkpt>
      <trkpt lat="43.89496" lon="7.21226">
        <ele>1018</ele>
        <time>2012-09-15T15:44:30.000Z</time>
      </trkpt>
      <trkpt lat="43.89492" lon="7.21221">
        <ele>1018</ele>
        <time>2012-09-15T15:44:32.000Z</time>
      </trkpt>
      <trkpt lat="43.89488" lon="7.21218">
        <ele>1015.9</ele>
        <time>2012-09-15T15:44:45.000Z</time>
      </trkpt>
      <trkpt lat="43.89487" lon="7.21212">
        <ele>1017.3</ele>
        <time>2012-09-15T15:44:52.000Z</time>
      </trkpt>
      <trkpt lat="43.89483" lon="7.21205">
        <ele>1013.5</ele>
        <time>2012-09-15T15:45:01.000Z</time>
      </trkpt>
      <trkpt lat="43.89479" lon="7.212">
        <ele>1010.3</ele>
        <time>2012-09-15T15:45:04.000Z</time>
      </trkpt>
      <trkpt lat="43.89475" lon="7.21196">
        <ele>1007.8</ele>
        <time>2012-09-15T15:45:06.000Z</time>
      </trkpt>
      <trkpt lat="43.89472" lon="7.2119">
        <ele>1005.3</ele>
        <time>2012-09-15T15:45:09.000Z</time>
      </trkpt>
      <trkpt lat="43.89468" lon="7.21185">
        <ele>1005.5</ele>
        <time>2012-09-15T15:45:12.000Z</time>
      </trkpt>
      <trkpt lat="43.89463" lon="7.21182">
        <ele>1005.3</ele>
        <time>2012-09-15T15:45:15.000Z</time>
      </trkpt>
      <trkpt lat="43.89459" lon="7.21178">
        <ele>1002.4</ele>
        <time>2012-09-15T15:45:18.000Z</time>
      </trkpt>
      <trkpt lat="43.89455" lon="7.21174">
        <ele>1005.1</ele>
        <time>2012-09-15T15:45:21.000Z</time>
      </trkpt>
      <trkpt lat="43.8945" lon="7.2117">
        <ele>1007</ele>
        <time>2012-09-15T15:45:54.000Z</time>
      </trkpt>
      <trkpt lat="43.89447" lon="7.21165">
        <ele>1007.8</ele>
        <time>2012-09-15T15:46:10.000Z</time>
      </trkpt>
      <trkpt lat="43.89442" lon="7.21166">
        <ele>1007.7</ele>
        <time>2012-09-15T15:46:13.000Z</time>
      </trkpt>
      <trkpt lat="43.89437" lon="7.21162">
        <ele>1007.2</ele>
        <time>2012-09-15T15:46:15.000Z</time>
      </trkpt>
      <trkpt lat="43.89431" lon="7.21158">
        <ele>1005.6</ele>
        <time>2012-09-15T15:46:17.000Z</time>
      </trkpt>
      <trkpt lat="43.89426" lon="7.21153">
        <ele>1004.3</ele>
        <time>2012-09-15T15:46:19.000Z</time>
      </trkpt>
      <trkpt lat="43.89421" lon="7.21147">
        <ele>1003.5</ele>
        <time>2012-09-15T15:46:21.000Z</time>
      </trkpt>
      <trkpt lat="43.89416" lon="7.21141">
        <ele>1003.5</ele>
        <time>2012-09-15T15:46:23.000Z</time>
      </trkpt>
      <trkpt lat="43.89411" lon="7.21136">
        <ele>1002.6</ele>
        <time>2012-09-15T15:46:26.000Z</time>
      </trkpt>
      <trkpt lat="43.89406" lon="7.21133">
        <ele>999.2</ele>
        <time>2012-09-15T15:46:28.000Z</time>
      </trkpt>
      <trkpt lat="43.89401" lon="7.2113">
        <ele>996.1</ele>
        <time>2012-09-15T15:46:30.000Z</time>
      </trkpt>
      <trkpt lat="43.89397" lon="7.21126">
        <ele>998.1</ele>
        <time>2012-09-15T15:46:35.000Z</time>
      </trkpt>
      <trkpt lat="43.89389" lon="7.2112">
        <ele>997.2</ele>
        <time>2012-09-15T15:46:41.000Z</time>
      </trkpt>
      <trkpt lat="43.89382" lon="7.21115">
        <ele>996.2</ele>
        <time>2012-09-15T15:46:43.000Z</time>
      </trkpt>
      <trkpt lat="43.89375" lon="7.21109">
        <ele>994.5</ele>
        <time>2012-09-15T15:46:45.000Z</time>
      </trkpt>
      <trkpt lat="43.8937" lon="7.21103">
        <ele>991.9</ele>
        <time>2012-09-15T15:46:47.000Z</time>
      </trkpt>
      <trkpt lat="43.89363" lon="7.21097">
        <ele>992.3</ele>
        <time>2012-09-15T15:46:49.000Z</time>
      </trkpt>
      <trkpt lat="43.89356" lon="7.2109">
        <ele>992.6</ele>
        <time>2012-09-15T15:46:51.000Z</time>
      </trkpt>
      <trkpt lat="43.8935" lon="7.21088">
        <ele>993</ele>
        <time>2012-09-15T15:46:53.000Z</time>
      </trkpt>
      <trkpt lat="43.89344" lon="7.21082">
        <ele>992</ele>
        <time>2012-09-15T15:46:57.000Z</time>
      </trkpt>
      <trkpt lat="43.89338" lon="7.21078">
        <ele>991.3</ele>
        <time>2012-09-15T15:46:59.000Z</time>
      </trkpt>
      <trkpt lat="43.89333" lon="7.21074">
        <ele>991.9</ele>
        <time>2012-09-15T15:47:01.000Z</time>
      </trkpt>
      <trkpt lat="43.89327" lon="7.21071">
        <ele>991.1</ele>
        <time>2012-09-15T15:47:03.000Z</time>
      </trkpt>
      <trkpt lat="43.89323" lon="7.21066">
        <ele>990.1</ele>
        <time>2012-09-15T15:47:05.000Z</time>
      </trkpt>
      <trkpt lat="43.89318" lon="7.21063">
        <ele>988.5</ele>
        <time>2012-09-15T15:47:07.000Z</time>
      </trkpt>
      <trkpt lat="43.89314" lon="7.2106">
        <ele>988</ele>
        <time>2012-09-15T15:47:08.000Z</time>
      </trkpt>
      <trkpt lat="43.89309" lon="7.21057">
        <ele>987.6</ele>
        <time>2012-09-15T15:47:10.000Z</time>
      </trkpt>
      <trkpt lat="43.89304" lon="7.21051">
        <ele>985</ele>
        <time>2012-09-15T15:47:12.000Z</time>
      </trkpt>
      <trkpt lat="43.89298" lon="7.21044">
        <ele>983.6</ele>
        <time>2012-09-15T15:47:14.000Z</time>
      </trkpt>
      <trkpt lat="43.8929" lon="7.21038">
        <ele>982.1</ele>
        <time>2012-09-15T15:47:16.000Z</time>
      </trkpt>
      <trkpt lat="43.89282" lon="7.21036">
        <ele>982</ele>
        <time>2012-09-15T15:47:18.000Z</time>
      </trkpt>
      <trkpt lat="43.89276" lon="7.21033">
        <ele>980.9</ele>
        <time>2012-09-15T15:47:20.000Z</time>
      </trkpt>
      <trkpt lat="43.8927" lon="7.2103">
        <ele>980</ele>
        <time>2012-09-15T15:47:22.000Z</time>
      </trkpt>
      <trkpt lat="43.89264" lon="7.21028">
        <ele>979.3</ele>
        <time>2012-09-15T15:47:25.000Z</time>
      </trkpt>
      <trkpt lat="43.89259" lon="7.21025">
        <ele>978.9</ele>
        <time>2012-09-15T15:47:27.000Z</time>
      </trkpt>
      <trkpt lat="43.89251" lon="7.2102">
        <ele>977</ele>
        <time>2012-09-15T15:47:29.000Z</time>
      </trkpt>
      <trkpt lat="43.89247" lon="7.21017">
        <ele>977</ele>
        <time>2012-09-15T15:47:30.000Z</time>
      </trkpt>
      <trkpt lat="43.89238" lon="7.21011">
        <ele>976.8</ele>
        <time>2012-09-15T15:47:32.000Z</time>
      </trkpt>
      <trkpt lat="43.89233" lon="7.21009">
        <ele>977</ele>
        <time>2012-09-15T15:47:34.000Z</time>
      </trkpt>
      <trkpt lat="43.89229" lon="7.21004">
        <ele>975.2</ele>
        <time>2012-09-15T15:47:38.000Z</time>
      </trkpt>
      <trkpt lat="43.89225" lon="7.20998">
        <ele>972.9</ele>
        <time>2012-09-15T15:47:42.000Z</time>
      </trkpt>
      <trkpt lat="43.8922" lon="7.20995">
        <ele>971.4</ele>
        <time>2012-09-15T15:47:45.000Z</time>
      </trkpt>
      <trkpt lat="43.89216" lon="7.20991">
        <ele>970.4</ele>
        <time>2012-09-15T15:47:47.000Z</time>
      </trkpt>
      <trkpt lat="43.89212" lon="7.20986">
        <ele>969.8</ele>
        <time>2012-09-15T15:47:49.000Z</time>
      </trkpt>
      <trkpt lat="43.89207" lon="7.2098">
        <ele>969.1</ele>
        <time>2012-09-15T15:47:52.000Z</time>
      </trkpt>
      <trkpt lat="43.89202" lon="7.20976">
        <ele>968.8</ele>
        <time>2012-09-15T15:47:54.000Z</time>
      </trkpt>
      <trkpt lat="43.89196" lon="7.20972">
        <ele>967.1</ele>
        <time>2012-09-15T15:47:56.000Z</time>
      </trkpt>
      <trkpt lat="43.8919" lon="7.2097">
        <ele>966.4</ele>
        <time>2012-09-15T15:47:58.000Z</time>
      </trkpt>
      <trkpt lat="43.89186" lon="7.2097">
        <ele>966.3</ele>
        <time>2012-09-15T15:47:59.000Z</time>
      </trkpt>
      <trkpt lat="43.89186" lon="7.20963">
        <ele>967.6</ele>
        <time>2012-09-15T15:48:00.000Z</time>
      </trkpt>
      <trkpt lat="43.89179" lon="7.20958">
        <ele>967.1</ele>
        <time>2012-09-15T15:48:06.000Z</time>
      </trkpt>
      <trkpt lat="43.89174" lon="7.20956">
        <ele>967.2</ele>
        <time>2012-09-15T15:48:07.000Z</time>
      </trkpt>
      <trkpt lat="43.89165" lon="7.20953">
        <ele>966.4</ele>
        <time>2012-09-15T15:48:09.000Z</time>
      </trkpt>
      <trkpt lat="43.8916" lon="7.20952">
        <ele>966.2</ele>
        <time>2012-09-15T15:48:10.000Z</time>
      </trkpt>
      <trkpt lat="43.89155" lon="7.20953">
        <ele>965.5</ele>
        <time>2012-09-15T15:48:11.000Z</time>
      </trkpt>
      <trkpt lat="43.89149" lon="7.20952">
        <ele>965.2</ele>
        <time>2012-09-15T15:48:12.000Z</time>
      </trkpt>
      <trkpt lat="43.89144" lon="7.2095">
        <ele>964.3</ele>
        <time>2012-09-15T15:48:13.000Z</time>
      </trkpt>
      <trkpt lat="43.8914" lon="7.20947">
        <ele>964.5</ele>
        <time>2012-09-15T15:48:14.000Z</time>
      </trkpt>
      <trkpt lat="43.89133" lon="7.20946">
        <ele>965.4</ele>
        <time>2012-09-15T15:48:16.000Z</time>
      </trkpt>
      <trkpt lat="43.89124" lon="7.20944">
        <ele>965.4</ele>
        <time>2012-09-15T15:48:18.000Z</time>
      </trkpt>
      <trkpt lat="43.89117" lon="7.20944">
        <ele>968.2</ele>
        <time>2012-09-15T15:48:20.000Z</time>
      </trkpt>
      <trkpt lat="43.8911" lon="7.20944">
        <ele>967.9</ele>
        <time>2012-09-15T15:48:22.000Z</time>
      </trkpt>
      <trkpt lat="43.89106" lon="7.20941">
        <ele>968.5</ele>
        <time>2012-09-15T15:48:24.000Z</time>
      </trkpt>
      <trkpt lat="43.89102" lon="7.20936">
        <ele>971.5</ele>
        <time>2012-09-15T15:48:27.000Z</time>
      </trkpt>
      <trkpt lat="43.89097" lon="7.20933">
        <ele>970.6</ele>
        <time>2012-09-15T15:48:30.000Z</time>
      </trkpt>
      <trkpt lat="43.8909" lon="7.20927">
        <ele>968.9</ele>
        <time>2012-09-15T15:48:32.000Z</time>
      </trkpt>
      <trkpt lat="43.89084" lon="7.2092">
        <ele>968.2</ele>
        <time>2012-09-15T15:48:34.000Z</time>
      </trkpt>
      <trkpt lat="43.89077" lon="7.20915">
        <ele>966.7</ele>
        <time>2012-09-15T15:48:36.000Z</time>
      </trkpt>
      <trkpt lat="43.89071" lon="7.20908">
        <ele>965.1</ele>
        <time>2012-09-15T15:48:38.000Z</time>
      </trkpt>
      <trkpt lat="43.89068" lon="7.20902">
        <ele>963.2</ele>
        <time>2012-09-15T15:48:40.000Z</time>
      </trkpt>
      <trkpt lat="43.89064" lon="7.20898">
        <ele>965.3</ele>
        <time>2012-09-15T15:48:41.000Z</time>
      </trkpt>
      <trkpt lat="43.89058" lon="7.20891">
        <ele>965.6</ele>
        <time>2012-09-15T15:48:43.000Z</time>
      </trkpt>
      <trkpt lat="43.89054" lon="7.20887">
        <ele>965.2</ele>
        <time>2012-09-15T15:48:44.000Z</time>
      </trkpt>
      <trkpt lat="43.89051" lon="7.20878">
        <ele>963.5</ele>
        <time>2012-09-15T15:48:46.000Z</time>
      </trkpt>
      <trkpt lat="43.8905" lon="7.20868">
        <ele>964.4</ele>
        <time>2012-09-15T15:48:48.000Z</time>
      </trkpt>
      <trkpt lat="43.89048" lon="7.2086">
        <ele>967.4</ele>
        <time>2012-09-15T15:48:50.000Z</time>
      </trkpt>
      <trkpt lat="43.89047" lon="7.20852">
        <ele>969.3</ele>
        <time>2012-09-15T15:48:53.000Z</time>
      </trkpt>
      <trkpt lat="43.89047" lon="7.20843">
        <ele>966.8</ele>
        <time>2012-09-15T15:48:56.000Z</time>
      </trkpt>
      <trkpt lat="43.89046" lon="7.20834">
        <ele>965.2</ele>
        <time>2012-09-15T15:48:58.000Z</time>
      </trkpt>
      <trkpt lat="43.89043" lon="7.20827">
        <ele>965.7</ele>
        <time>2012-09-15T15:49:00.000Z</time>
      </trkpt>
      <trkpt lat="43.89039" lon="7.20822">
        <ele>965.9</ele>
        <time>2012-09-15T15:49:03.000Z</time>
      </trkpt>
      <trkpt lat="43.89036" lon="7.20814">
        <ele>966.1</ele>
        <time>2012-09-15T15:49:06.000Z</time>
      </trkpt>
      <trkpt lat="43.89034" lon="7.20808">
        <ele>967.1</ele>
        <time>2012-09-15T15:49:09.000Z</time>
      </trkpt>
      <trkpt lat="43.89032" lon="7.20802">
        <ele>967.5</ele>
        <time>2012-09-15T15:49:12.000Z</time>
      </trkpt>
      <trkpt lat="43.89028" lon="7.20797">
        <ele>967.6</ele>
        <time>2012-09-15T15:49:15.000Z</time>
      </trkpt>
      <trkpt lat="43.89023" lon="7.20795">
        <ele>966.4</ele>
        <time>2012-09-15T15:49:18.000Z</time>
      </trkpt>
      <trkpt lat="43.89018" lon="7.20795">
        <ele>963.5</ele>
        <time>2012-09-15T15:50:04.000Z</time>
      </trkpt>
      <trkpt lat="43.89013" lon="7.20793">
        <ele>960.8</ele>
        <time>2012-09-15T15:50:06.000Z</time>
      </trkpt>
      <trkpt lat="43.89006" lon="7.20788">
        <ele>959.6</ele>
        <time>2012-09-15T15:50:08.000Z</time>
      </trkpt>
      <trkpt lat="43.89001" lon="7.2079">
        <ele>957.9</ele>
        <time>2012-09-15T15:50:10.000Z</time>
      </trkpt>
      <trkpt lat="43.88995" lon="7.20788">
        <ele>955.8</ele>
        <time>2012-09-15T15:50:12.000Z</time>
      </trkpt>
      <trkpt lat="43.88988" lon="7.20784">
        <ele>955.4</ele>
        <time>2012-09-15T15:50:14.000Z</time>
      </trkpt>
      <trkpt lat="43.8898" lon="7.20781">
        <ele>955.2</ele>
        <time>2012-09-15T15:50:16.000Z</time>
      </trkpt>
      <trkpt lat="43.88975" lon="7.2078">
        <ele>951.9</ele>
        <time>2012-09-15T15:50:18.000Z</time>
      </trkpt>
      <trkpt lat="43.88972" lon="7.20772">
        <ele>951</ele>
        <time>2012-09-15T15:50:21.000Z</time>
      </trkpt>
      <trkpt lat="43.88967" lon="7.20768">
        <ele>948.7</ele>
        <time>2012-09-15T15:50:23.000Z</time>
      </trkpt>
      <trkpt lat="43.88961" lon="7.20764">
        <ele>945.7</ele>
        <time>2012-09-15T15:50:25.000Z</time>
      </trkpt>
      <trkpt lat="43.88955" lon="7.20761">
        <ele>946</ele>
        <time>2012-09-15T15:50:27.000Z</time>
      </trkpt>
      <trkpt lat="43.88951" lon="7.20758">
        <ele>945.7</ele>
        <time>2012-09-15T15:50:29.000Z</time>
      </trkpt>
      <trkpt lat="43.88944" lon="7.20754">
        <ele>943.8</ele>
        <time>2012-09-15T15:50:31.000Z</time>
      </trkpt>
      <trkpt lat="43.88942" lon="7.20749">
        <ele>942.9</ele>
        <time>2012-09-15T15:50:32.000Z</time>
      </trkpt>
      <trkpt lat="43.88939" lon="7.20744">
        <ele>942.3</ele>
        <time>2012-09-15T15:50:33.000Z</time>
      </trkpt>
      <trkpt lat="43.88933" lon="7.2074">
        <ele>939.1</ele>
        <time>2012-09-15T15:50:37.000Z</time>
      </trkpt>
      <trkpt lat="43.88929" lon="7.20737">
        <ele>941.7</ele>
        <time>2012-09-15T15:50:55.000Z</time>
      </trkpt>
      <trkpt lat="43.88925" lon="7.20734">
        <ele>941.9</ele>
        <time>2012-09-15T15:51:09.000Z</time>
      </trkpt>
      <trkpt lat="43.88922" lon="7.20729">
        <ele>943.7</ele>
        <time>2012-09-15T15:51:17.000Z</time>
      </trkpt>
      <trkpt lat="43.88921" lon="7.2072">
        <ele>944.3</ele>
        <time>2012-09-15T15:51:28.000Z</time>
      </trkpt>
      <trkpt lat="43.88914" lon="7.20714">
        <ele>942.3</ele>
        <time>2012-09-15T15:51:31.000Z</time>
      </trkpt>
      <trkpt lat="43.88907" lon="7.20706">
        <ele>939.7</ele>
        <time>2012-09-15T15:51:33.000Z</time>
      </trkpt>
      <trkpt lat="43.88902" lon="7.20704">
        <ele>938.9</ele>
        <time>2012-09-15T15:51:34.000Z</time>
      </trkpt>
      <trkpt lat="43.88897" lon="7.20702">
        <ele>936.8</ele>
        <time>2012-09-15T15:51:36.000Z</time>
      </trkpt>
      <trkpt lat="43.88893" lon="7.20699">
        <ele>933.2</ele>
        <time>2012-09-15T15:51:39.000Z</time>
      </trkpt>
      <trkpt lat="43.88888" lon="7.20698">
        <ele>932.4</ele>
        <time>2012-09-15T15:51:41.000Z</time>
      </trkpt>
      <trkpt lat="43.8888" lon="7.20693">
        <ele>928</ele>
        <time>2012-09-15T15:51:44.000Z</time>
      </trkpt>
      <trkpt lat="43.88874" lon="7.20689">
        <ele>925.5</ele>
        <time>2012-09-15T15:51:46.000Z</time>
      </trkpt>
      <trkpt lat="43.88867" lon="7.20686">
        <ele>925.4</ele>
        <time>2012-09-15T15:51:48.000Z</time>
      </trkpt>
      <trkpt lat="43.8886" lon="7.20685">
        <ele>925.4</ele>
        <time>2012-09-15T15:51:50.000Z</time>
      </trkpt>
      <trkpt lat="43.88855" lon="7.20683">
        <ele>924.6</ele>
        <time>2012-09-15T15:51:52.000Z</time>
      </trkpt>
      <trkpt lat="43.8885" lon="7.20681">
        <ele>923.2</ele>
        <time>2012-09-15T15:51:54.000Z</time>
      </trkpt>
      <trkpt lat="43.88848" lon="7.20674">
        <ele>919.5</ele>
        <time>2012-09-15T15:51:58.000Z</time>
      </trkpt>
      <trkpt lat="43.8885" lon="7.20666">
        <ele>918.6</ele>
        <time>2012-09-15T15:52:00.000Z</time>
      </trkpt>
      <trkpt lat="43.8885" lon="7.20656">
        <ele>918.3</ele>
        <time>2012-09-15T15:52:02.000Z</time>
      </trkpt>
      <trkpt lat="43.88851" lon="7.20645">
        <ele>916.7</ele>
        <time>2012-09-15T15:52:04.000Z</time>
      </trkpt>
      <trkpt lat="43.8885" lon="7.20635">
        <ele>916.8</ele>
        <time>2012-09-15T15:52:06.000Z</time>
      </trkpt>
      <trkpt lat="43.88852" lon="7.20621">
        <ele>916.9</ele>
        <time>2012-09-15T15:52:08.000Z</time>
      </trkpt>
      <trkpt lat="43.88854" lon="7.20612">
        <ele>917</ele>
        <time>2012-09-15T15:52:09.000Z</time>
      </trkpt>
      <trkpt lat="43.88853" lon="7.20604">
        <ele>917.3</ele>
        <time>2012-09-15T15:52:10.000Z</time>
      </trkpt>
      <trkpt lat="43.88856" lon="7.20595">
        <ele>917.4</ele>
        <time>2012-09-15T15:52:11.000Z</time>
      </trkpt>
      <trkpt lat="43.8886" lon="7.20584">
        <ele>917.4</ele>
        <time>2012-09-15T15:52:12.000Z</time>
      </trkpt>
      <trkpt lat="43.88859" lon="7.20568">
        <ele>916.2</ele>
        <time>2012-09-15T15:52:14.000Z</time>
      </trkpt>
      <trkpt lat="43.88861" lon="7.20559">
        <ele>915.6</ele>
        <time>2012-09-15T15:52:15.000Z</time>
      </trkpt>
      <trkpt lat="43.88864" lon="7.20552">
        <ele>915.4</ele>
        <time>2012-09-15T15:52:16.000Z</time>
      </trkpt>
      <trkpt lat="43.88864" lon="7.20544">
        <ele>914.6</ele>
        <time>2012-09-15T15:52:17.000Z</time>
      </trkpt>
      <trkpt lat="43.88865" lon="7.20537">
        <ele>912.8</ele>
        <time>2012-09-15T15:52:19.000Z</time>
      </trkpt>
      <trkpt lat="43.88865" lon="7.2053">
        <ele>911.3</ele>
        <time>2012-09-15T15:52:21.000Z</time>
      </trkpt>
      <trkpt lat="43.88864" lon="7.20522">
        <ele>908.4</ele>
        <time>2012-09-15T15:52:23.000Z</time>
      </trkpt>
      <trkpt lat="43.8886" lon="7.20515">
        <ele>908.4</ele>
        <time>2012-09-15T15:52:25.000Z</time>
      </trkpt>
      <trkpt lat="43.88856" lon="7.2051">
        <ele>909</ele>
        <time>2012-09-15T15:52:26.000Z</time>
      </trkpt>
      <trkpt lat="43.88851" lon="7.20506">
        <ele>909</ele>
        <time>2012-09-15T15:52:27.000Z</time>
      </trkpt>
      <trkpt lat="43.88845" lon="7.20503">
        <ele>907.7</ele>
        <time>2012-09-15T15:52:29.000Z</time>
      </trkpt>
      <trkpt lat="43.8884" lon="7.205">
        <ele>905</ele>
        <time>2012-09-15T15:52:31.000Z</time>
      </trkpt>
      <trkpt lat="43.88833" lon="7.20496">
        <ele>900.1</ele>
        <time>2012-09-15T15:52:34.000Z</time>
      </trkpt>
      <trkpt lat="43.88828" lon="7.20493">
        <ele>898.6</ele>
        <time>2012-09-15T15:52:35.000Z</time>
      </trkpt>
      <trkpt lat="43.88824" lon="7.20489">
        <ele>899</ele>
        <time>2012-09-15T15:52:36.000Z</time>
      </trkpt>
      <trkpt lat="43.88817" lon="7.20484">
        <ele>898.2</ele>
        <time>2012-09-15T15:52:38.000Z</time>
      </trkpt>
      <trkpt lat="43.88811" lon="7.20479">
        <ele>898.2</ele>
        <time>2012-09-15T15:52:40.000Z</time>
      </trkpt>
      <trkpt lat="43.88808" lon="7.20474">
        <ele>897.8</ele>
        <time>2012-09-15T15:52:41.000Z</time>
      </trkpt>
      <trkpt lat="43.88798" lon="7.20468">
        <ele>896.5</ele>
        <time>2012-09-15T15:52:43.000Z</time>
      </trkpt>
      <trkpt lat="43.88791" lon="7.20464">
        <ele>896.2</ele>
        <time>2012-09-15T15:52:45.000Z</time>
      </trkpt>
      <trkpt lat="43.88782" lon="7.20464">
        <ele>895.8</ele>
        <time>2012-09-15T15:52:47.000Z</time>
      </trkpt>
      <trkpt lat="43.88776" lon="7.20462">
        <ele>895.6</ele>
        <time>2012-09-15T15:52:48.000Z</time>
      </trkpt>
      <trkpt lat="43.88771" lon="7.20462">
        <ele>896.1</ele>
        <time>2012-09-15T15:52:49.000Z</time>
      </trkpt>
      <trkpt lat="43.88765" lon="7.2046">
        <ele>896.6</ele>
        <time>2012-09-15T15:52:50.000Z</time>
      </trkpt>
      <trkpt lat="43.8876" lon="7.20457">
        <ele>896.2</ele>
        <time>2012-09-15T15:52:51.000Z</time>
      </trkpt>
      <trkpt lat="43.88754" lon="7.20453">
        <ele>896.1</ele>
        <time>2012-09-15T15:52:52.000Z</time>
      </trkpt>
      <trkpt lat="43.88748" lon="7.20452">
        <ele>896.2</ele>
        <time>2012-09-15T15:52:53.000Z</time>
      </trkpt>
      <trkpt lat="43.88743" lon="7.2045">
        <ele>895.6</ele>
        <time>2012-09-15T15:52:54.000Z</time>
      </trkpt>
      <trkpt lat="43.88736" lon="7.2045">
        <ele>894.7</ele>
        <time>2012-09-15T15:52:56.000Z</time>
      </trkpt>
      <trkpt lat="43.88739" lon="7.20454">
        <ele>895.6</ele>
        <time>2012-09-15T15:53:08.000Z</time>
      </trkpt>
      <trkpt lat="43.88734" lon="7.20451">
        <ele>898.8</ele>
        <time>2012-09-15T15:53:13.000Z</time>
      </trkpt>
      <trkpt lat="43.88729" lon="7.20449">
        <ele>902.1</ele>
        <time>2012-09-15T15:54:16.000Z</time>
      </trkpt>
      <trkpt lat="43.88722" lon="7.20452">
        <ele>901.3</ele>
        <time>2012-09-15T15:54:18.000Z</time>
      </trkpt>
      <trkpt lat="43.88716" lon="7.20453">
        <ele>899.8</ele>
        <time>2012-09-15T15:54:20.000Z</time>
      </trkpt>
      <trkpt lat="43.88708" lon="7.20455">
        <ele>898.7</ele>
        <time>2012-09-15T15:54:22.000Z</time>
      </trkpt>
      <trkpt lat="43.88702" lon="7.20454">
        <ele>898.1</ele>
        <time>2012-09-15T15:54:23.000Z</time>
      </trkpt>
      <trkpt lat="43.88695" lon="7.20456">
        <ele>897.2</ele>
        <time>2012-09-15T15:54:25.000Z</time>
      </trkpt>
      <trkpt lat="43.88688" lon="7.20457">
        <ele>894.4</ele>
        <time>2012-09-15T15:54:27.000Z</time>
      </trkpt>
      <trkpt lat="43.88683" lon="7.20457">
        <ele>893.9</ele>
        <time>2012-09-15T15:54:29.000Z</time>
      </trkpt>
      <trkpt lat="43.88678" lon="7.20459">
        <ele>893.7</ele>
        <time>2012-09-15T15:54:31.000Z</time>
      </trkpt>
      <trkpt lat="43.88671" lon="7.20469">
        <ele>891.8</ele>
        <time>2012-09-15T15:54:34.000Z</time>
      </trkpt>
      <trkpt lat="43.88664" lon="7.20469">
        <ele>889.4</ele>
        <time>2012-09-15T15:54:36.000Z</time>
      </trkpt>
      <trkpt lat="43.8866" lon="7.20476">
        <ele>890.3</ele>
        <time>2012-09-15T15:54:38.000Z</time>
      </trkpt>
      <trkpt lat="43.88654" lon="7.20479">
        <ele>891.2</ele>
        <time>2012-09-15T15:54:40.000Z</time>
      </trkpt>
      <trkpt lat="43.88648" lon="7.20483">
        <ele>891.4</ele>
        <time>2012-09-15T15:54:42.000Z</time>
      </trkpt>
      <trkpt lat="43.88641" lon="7.20485">
        <ele>887.6</ele>
        <time>2012-09-15T15:54:44.000Z</time>
      </trkpt>
      <trkpt lat="43.88633" lon="7.20485">
        <ele>885</ele>
        <time>2012-09-15T15:54:46.000Z</time>
      </trkpt>
      <trkpt lat="43.88624" lon="7.20485">
        <ele>883.5</ele>
        <time>2012-09-15T15:54:48.000Z</time>
      </trkpt>
      <trkpt lat="43.88618" lon="7.20485">
        <ele>883</ele>
        <time>2012-09-15T15:54:49.000Z</time>
      </trkpt>
      <trkpt lat="43.88612" lon="7.20487">
        <ele>883.7</ele>
        <time>2012-09-15T15:54:50.000Z</time>
      </trkpt>
      <trkpt lat="43.88605" lon="7.20487">
        <ele>884.4</ele>
        <time>2012-09-15T15:54:52.000Z</time>
      </trkpt>
      <trkpt lat="43.88599" lon="7.20485">
        <ele>883.1</ele>
        <time>2012-09-15T15:54:54.000Z</time>
      </trkpt>
      <trkpt lat="43.88594" lon="7.20484">
        <ele>885.1</ele>
        <time>2012-09-15T15:54:57.000Z</time>
      </trkpt>
      <trkpt lat="43.88592" lon="7.20489">
        <ele>884.3</ele>
        <time>2012-09-15T15:55:39.000Z</time>
      </trkpt>
      <trkpt lat="43.88585" lon="7.2049">
        <ele>884.6</ele>
        <time>2012-09-15T15:55:48.000Z</time>
      </trkpt>
      <trkpt lat="43.8858" lon="7.2049">
        <ele>883.7</ele>
        <time>2012-09-15T15:55:59.000Z</time>
      </trkpt>
      <trkpt lat="43.88574" lon="7.2049">
        <ele>885.8</ele>
        <time>2012-09-15T15:56:01.000Z</time>
      </trkpt>
      <trkpt lat="43.88569" lon="7.2049">
        <ele>883.8</ele>
        <time>2012-09-15T15:56:03.000Z</time>
      </trkpt>
      <trkpt lat="43.88562" lon="7.20492">
        <ele>884</ele>
        <time>2012-09-15T15:56:06.000Z</time>
      </trkpt>
      <trkpt lat="43.88556" lon="7.20491">
        <ele>881.7</ele>
        <time>2012-09-15T15:56:09.000Z</time>
      </trkpt>
      <trkpt lat="43.88548" lon="7.20492">
        <ele>882.2</ele>
        <time>2012-09-15T15:56:12.000Z</time>
      </trkpt>
      <trkpt lat="43.88542" lon="7.20494">
        <ele>880.3</ele>
        <time>2012-09-15T15:56:14.000Z</time>
      </trkpt>
      <trkpt lat="43.88535" lon="7.20494">
        <ele>880.1</ele>
        <time>2012-09-15T15:56:16.000Z</time>
      </trkpt>
      <trkpt lat="43.8853" lon="7.20495">
        <ele>880.5</ele>
        <time>2012-09-15T15:56:17.000Z</time>
      </trkpt>
      <trkpt lat="43.88522" lon="7.20495">
        <ele>880.6</ele>
        <time>2012-09-15T15:56:19.000Z</time>
      </trkpt>
      <trkpt lat="43.88518" lon="7.20491">
        <ele>880.4</ele>
        <time>2012-09-15T15:56:26.000Z</time>
      </trkpt>
      <trkpt lat="43.88513" lon="7.20491">
        <ele>878.8</ele>
        <time>2012-09-15T15:56:50.000Z</time>
      </trkpt>
      <trkpt lat="43.88507" lon="7.20493">
        <ele>880</ele>
        <time>2012-09-15T15:56:52.000Z</time>
      </trkpt>
      <trkpt lat="43.88499" lon="7.20492">
        <ele>879.7</ele>
        <time>2012-09-15T15:56:54.000Z</time>
      </trkpt>
      <trkpt lat="43.88492" lon="7.2049">
        <ele>880.6</ele>
        <time>2012-09-15T15:56:56.000Z</time>
      </trkpt>
      <trkpt lat="43.88486" lon="7.20486">
        <ele>879.5</ele>
        <time>2012-09-15T15:56:58.000Z</time>
      </trkpt>
      <trkpt lat="43.88481" lon="7.20484">
        <ele>880.5</ele>
        <time>2012-09-15T15:57:00.000Z</time>
      </trkpt>
      <trkpt lat="43.88476" lon="7.20486">
        <ele>881.1</ele>
        <time>2012-09-15T15:57:02.000Z</time>
      </trkpt>
      <trkpt lat="43.8847" lon="7.2049">
        <ele>881.3</ele>
        <time>2012-09-15T15:57:04.000Z</time>
      </trkpt>
      <trkpt lat="43.88465" lon="7.20492">
        <ele>881.7</ele>
        <time>2012-09-15T15:57:06.000Z</time>
      </trkpt>
      <trkpt lat="43.88459" lon="7.20493">
        <ele>881.6</ele>
        <time>2012-09-15T15:57:08.000Z</time>
      </trkpt>
      <trkpt lat="43.88456" lon="7.20504">
        <ele>883.6</ele>
        <time>2012-09-15T15:57:10.000Z</time>
      </trkpt>
      <trkpt lat="43.88456" lon="7.20514">
        <ele>884.5</ele>
        <time>2012-09-15T15:57:12.000Z</time>
      </trkpt>
      <trkpt lat="43.88451" lon="7.20521">
        <ele>887.7</ele>
        <time>2012-09-15T15:57:14.000Z</time>
      </trkpt>
      <trkpt lat="43.88446" lon="7.20527">
        <ele>888.9</ele>
        <time>2012-09-15T15:57:16.000Z</time>
      </trkpt>
      <trkpt lat="43.8844" lon="7.2053">
        <ele>889.1</ele>
        <time>2012-09-15T15:57:18.000Z</time>
      </trkpt>
      <trkpt lat="43.88436" lon="7.20533">
        <ele>889.4</ele>
        <time>2012-09-15T15:57:20.000Z</time>
      </trkpt>
      <trkpt lat="43.88434" lon="7.20539">
        <ele>892</ele>
        <time>2012-09-15T15:57:22.000Z</time>
      </trkpt>
      <trkpt lat="43.88431" lon="7.20547">
        <ele>892.4</ele>
        <time>2012-09-15T15:57:25.000Z</time>
      </trkpt>
      <trkpt lat="43.88426" lon="7.20551">
        <ele>892.1</ele>
        <time>2012-09-15T15:57:27.000Z</time>
      </trkpt>
      <trkpt lat="43.8842" lon="7.20552">
        <ele>890.7</ele>
        <time>2012-09-15T15:57:28.000Z</time>
      </trkpt>
      <trkpt lat="43.88419" lon="7.20558">
        <ele>892.3</ele>
        <time>2012-09-15T15:57:31.000Z</time>
      </trkpt>
      <trkpt lat="43.88411" lon="7.20563">
        <ele>892.4</ele>
        <time>2012-09-15T15:57:34.000Z</time>
      </trkpt>
      <trkpt lat="43.88403" lon="7.20565">
        <ele>891.1</ele>
        <time>2012-09-15T15:57:36.000Z</time>
      </trkpt>
      <trkpt lat="43.88399" lon="7.20569">
        <ele>889.4</ele>
        <time>2012-09-15T15:57:38.000Z</time>
      </trkpt>
      <trkpt lat="43.88393" lon="7.20574">
        <ele>884.4</ele>
        <time>2012-09-15T15:57:41.000Z</time>
      </trkpt>
      <trkpt lat="43.88386" lon="7.20578">
        <ele>883.8</ele>
        <time>2012-09-15T15:57:44.000Z</time>
      </trkpt>
      <trkpt lat="43.88381" lon="7.20581">
        <ele>884.7</ele>
        <time>2012-09-15T15:57:48.000Z</time>
      </trkpt>
      <trkpt lat="43.88377" lon="7.20585">
        <ele>887.1</ele>
        <time>2012-09-15T15:57:51.000Z</time>
      </trkpt>
      <trkpt lat="43.88374" lon="7.20589">
        <ele>884.8</ele>
        <time>2012-09-15T15:57:53.000Z</time>
      </trkpt>
      <trkpt lat="43.88367" lon="7.20592">
        <ele>882.7</ele>
        <time>2012-09-15T15:57:56.000Z</time>
      </trkpt>
      <trkpt lat="43.88362" lon="7.20594">
        <ele>881.6</ele>
        <time>2012-09-15T15:57:58.000Z</time>
      </trkpt>
      <trkpt lat="43.88357" lon="7.20599">
        <ele>882.3</ele>
        <time>2012-09-15T15:58:01.000Z</time>
      </trkpt>
      <trkpt lat="43.8835" lon="7.206">
        <ele>881.2</ele>
        <time>2012-09-15T15:58:05.000Z</time>
      </trkpt>
      <trkpt lat="43.88345" lon="7.20602">
        <ele>882.5</ele>
        <time>2012-09-15T15:58:08.000Z</time>
      </trkpt>
      <trkpt lat="43.88341" lon="7.20605">
        <ele>882.7</ele>
        <time>2012-09-15T15:58:10.000Z</time>
      </trkpt>
      <trkpt lat="43.88335" lon="7.20605">
        <ele>882.7</ele>
        <time>2012-09-15T15:58:13.000Z</time>
      </trkpt>
      <trkpt lat="43.88329" lon="7.20607">
        <ele>883.2</ele>
        <time>2012-09-15T15:58:15.000Z</time>
      </trkpt>
      <trkpt lat="43.88324" lon="7.20609">
        <ele>884.8</ele>
        <time>2012-09-15T15:58:17.000Z</time>
      </trkpt>
      <trkpt lat="43.88319" lon="7.20611">
        <ele>886.4</ele>
        <time>2012-09-15T15:58:19.000Z</time>
      </trkpt>
      <trkpt lat="43.88314" lon="7.20614">
        <ele>888.3</ele>
        <time>2012-09-15T15:58:21.000Z</time>
      </trkpt>
      <trkpt lat="43.8831" lon="7.20616">
        <ele>890.1</ele>
        <time>2012-09-15T15:58:23.000Z</time>
      </trkpt>
      <trkpt lat="43.88305" lon="7.20616">
        <ele>890.2</ele>
        <time>2012-09-15T15:58:25.000Z</time>
      </trkpt>
      <trkpt lat="43.88299" lon="7.20616">
        <ele>891.1</ele>
        <time>2012-09-15T15:58:28.000Z</time>
      </trkpt>
      <trkpt lat="43.88294" lon="7.20617">
        <ele>892.1</ele>
        <time>2012-09-15T15:58:31.000Z</time>
      </trkpt>
      <trkpt lat="43.88288" lon="7.2062">
        <ele>891.6</ele>
        <time>2012-09-15T15:58:34.000Z</time>
      </trkpt>
      <trkpt lat="43.88283" lon="7.20621">
        <ele>892</ele>
        <time>2012-09-15T15:58:36.000Z</time>
      </trkpt>
      <trkpt lat="43.88275" lon="7.20624">
        <ele>890.9</ele>
        <time>2012-09-15T15:58:39.000Z</time>
      </trkpt>
      <trkpt lat="43.88268" lon="7.20627">
        <ele>889.9</ele>
        <time>2012-09-15T15:58:41.000Z</time>
      </trkpt>
      <trkpt lat="43.88263" lon="7.20631">
        <ele>890.5</ele>
        <time>2012-09-15T15:58:42.000Z</time>
      </trkpt>
      <trkpt lat="43.88254" lon="7.20637">
        <ele>888.9</ele>
        <time>2012-09-15T15:58:44.000Z</time>
      </trkpt>
      <trkpt lat="43.88247" lon="7.20635">
        <ele>886</ele>
        <time>2012-09-15T15:58:46.000Z</time>
      </trkpt>
      <trkpt lat="43.88242" lon="7.20636">
        <ele>884.7</ele>
        <time>2012-09-15T15:58:47.000Z</time>
      </trkpt>
      <trkpt lat="43.88238" lon="7.20635">
        <ele>883.9</ele>
        <time>2012-09-15T15:58:48.000Z</time>
      </trkpt>
      <trkpt lat="43.88233" lon="7.20635">
        <ele>882.8</ele>
        <time>2012-09-15T15:58:49.000Z</time>
      </trkpt>
      <trkpt lat="43.88228" lon="7.20637">
        <ele>881.8</ele>
        <time>2012-09-15T15:58:50.000Z</time>
      </trkpt>
      <trkpt lat="43.88219" lon="7.2064">
        <ele>881.5</ele>
        <time>2012-09-15T15:58:52.000Z</time>
      </trkpt>
      <trkpt lat="43.88215" lon="7.20643">
        <ele>880.8</ele>
        <time>2012-09-15T15:58:53.000Z</time>
      </trkpt>
      <trkpt lat="43.88211" lon="7.20648">
        <ele>880.5</ele>
        <time>2012-09-15T15:58:54.000Z</time>
      </trkpt>
      <trkpt lat="43.88208" lon="7.20656">
        <ele>879.6</ele>
        <time>2012-09-15T15:58:56.000Z</time>
      </trkpt>
      <trkpt lat="43.88202" lon="7.2066">
        <ele>879.1</ele>
        <time>2012-09-15T15:58:59.000Z</time>
      </trkpt>
      <trkpt lat="43.88197" lon="7.20655">
        <ele>876.5</ele>
        <time>2012-09-15T15:59:01.000Z</time>
      </trkpt>
      <trkpt lat="43.8819" lon="7.20649">
        <ele>873.5</ele>
        <time>2012-09-15T15:59:03.000Z</time>
      </trkpt>
      <trkpt lat="43.88184" lon="7.20651">
        <ele>873.7</ele>
        <time>2012-09-15T15:59:05.000Z</time>
      </trkpt>
      <trkpt lat="43.88178" lon="7.20654">
        <ele>873.2</ele>
        <time>2012-09-15T15:59:07.000Z</time>
      </trkpt>
      <trkpt lat="43.88173" lon="7.20655">
        <ele>873</ele>
        <time>2012-09-15T15:59:09.000Z</time>
      </trkpt>
      <trkpt lat="43.88167" lon="7.20654">
        <ele>872</ele>
        <time>2012-09-15T15:59:11.000Z</time>
      </trkpt>
      <trkpt lat="43.88158" lon="7.20652">
        <ele>870.9</ele>
        <time>2012-09-15T15:59:13.000Z</time>
      </trkpt>
      <trkpt lat="43.88151" lon="7.20653">
        <ele>870.7</ele>
        <time>2012-09-15T15:59:15.000Z</time>
      </trkpt>
      <trkpt lat="43.88143" lon="7.20653">
        <ele>870.2</ele>
        <time>2012-09-15T15:59:17.000Z</time>
      </trkpt>
      <trkpt lat="43.88135" lon="7.20653">
        <ele>868</ele>
        <time>2012-09-15T15:59:19.000Z</time>
      </trkpt>
      <trkpt lat="43.88126" lon="7.2065">
        <ele>867.4</ele>
        <time>2012-09-15T15:59:21.000Z</time>
      </trkpt>
      <trkpt lat="43.88119" lon="7.20647">
        <ele>866.7</ele>
        <time>2012-09-15T15:59:23.000Z</time>
      </trkpt>
      <trkpt lat="43.88111" lon="7.20645">
        <ele>866.4</ele>
        <time>2012-09-15T15:59:25.000Z</time>
      </trkpt>
      <trkpt lat="43.88103" lon="7.20643">
        <ele>866.9</ele>
        <time>2012-09-15T15:59:27.000Z</time>
      </trkpt>
      <trkpt lat="43.88096" lon="7.2064">
        <ele>865.2</ele>
        <time>2012-09-15T15:59:29.000Z</time>
      </trkpt>
      <trkpt lat="43.88089" lon="7.2064">
        <ele>862.8</ele>
        <time>2012-09-15T15:59:31.000Z</time>
      </trkpt>
      <trkpt lat="43.88082" lon="7.2064">
        <ele>860</ele>
        <time>2012-09-15T15:59:33.000Z</time>
      </trkpt>
      <trkpt lat="43.88076" lon="7.20642">
        <ele>857.9</ele>
        <time>2012-09-15T15:59:35.000Z</time>
      </trkpt>
      <trkpt lat="43.88071" lon="7.20644">
        <ele>856.4</ele>
        <time>2012-09-15T15:59:37.000Z</time>
      </trkpt>
      <trkpt lat="43.88066" lon="7.20646">
        <ele>854.3</ele>
        <time>2012-09-15T15:59:39.000Z</time>
      </trkpt>
      <trkpt lat="43.8806" lon="7.20645">
        <ele>855.7</ele>
        <time>2012-09-15T15:59:41.000Z</time>
      </trkpt>
      <trkpt lat="43.88054" lon="7.20645">
        <ele>856.5</ele>
        <time>2012-09-15T15:59:43.000Z</time>
      </trkpt>
      <trkpt lat="43.88048" lon="7.20645">
        <ele>856.7</ele>
        <time>2012-09-15T15:59:45.000Z</time>
      </trkpt>
      <trkpt lat="43.88044" lon="7.20646">
        <ele>855.7</ele>
        <time>2012-09-15T15:59:47.000Z</time>
      </trkpt>
      <trkpt lat="43.88038" lon="7.20648">
        <ele>853.5</ele>
        <time>2012-09-15T15:59:49.000Z</time>
      </trkpt>
      <trkpt lat="43.88033" lon="7.20652">
        <ele>850.9</ele>
        <time>2012-09-15T15:59:51.000Z</time>
      </trkpt>
      <trkpt lat="43.88026" lon="7.20653">
        <ele>849.6</ele>
        <time>2012-09-15T15:59:53.000Z</time>
      </trkpt>
      <trkpt lat="43.88019" lon="7.20651">
        <ele>845.8</ele>
        <time>2012-09-15T15:59:55.000Z</time>
      </trkpt>
      <trkpt lat="43.88011" lon="7.2065">
        <ele>844.6</ele>
        <time>2012-09-15T15:59:57.000Z</time>
      </trkpt>
      <trkpt lat="43.88003" lon="7.20649">
        <ele>844.4</ele>
        <time>2012-09-15T15:59:59.000Z</time>
      </trkpt>
      <trkpt lat="43.87999" lon="7.20646">
        <ele>844.8</ele>
        <time>2012-09-15T16:00:00.000Z</time>
      </trkpt>
      <trkpt lat="43.87995" lon="7.20641">
        <ele>845.2</ele>
        <time>2012-09-15T16:00:01.000Z</time>
      </trkpt>
      <trkpt lat="43.87984" lon="7.20635">
        <ele>848.4</ele>
        <time>2012-09-15T16:00:03.000Z</time>
      </trkpt>
      <trkpt lat="43.87979" lon="7.20634">
        <ele>848.4</ele>
        <time>2012-09-15T16:00:04.000Z</time>
      </trkpt>
      <trkpt lat="43.87969" lon="7.20635">
        <ele>849.8</ele>
        <time>2012-09-15T16:00:06.000Z</time>
      </trkpt>
      <trkpt lat="43.8796" lon="7.20635">
        <ele>850.1</ele>
        <time>2012-09-15T16:00:08.000Z</time>
      </trkpt>
      <trkpt lat="43.87956" lon="7.20634">
        <ele>850.6</ele>
        <time>2012-09-15T16:00:09.000Z</time>
      </trkpt>
      <trkpt lat="43.87947" lon="7.20634">
        <ele>851.5</ele>
        <time>2012-09-15T16:00:11.000Z</time>
      </trkpt>
      <trkpt lat="43.87939" lon="7.20636">
        <ele>851.4</ele>
        <time>2012-09-15T16:00:12.000Z</time>
      </trkpt>
      <trkpt lat="43.87932" lon="7.20638">
        <ele>849.9</ele>
        <time>2012-09-15T16:00:15.000Z</time>
      </trkpt>
      <trkpt lat="43.87925" lon="7.20639">
        <ele>849.9</ele>
        <time>2012-09-15T16:00:17.000Z</time>
      </trkpt>
      <trkpt lat="43.87918" lon="7.20641">
        <ele>850.6</ele>
        <time>2012-09-15T16:00:19.000Z</time>
      </trkpt>
      <trkpt lat="43.87911" lon="7.20644">
        <ele>851.3</ele>
        <time>2012-09-15T16:00:21.000Z</time>
      </trkpt>
      <trkpt lat="43.87907" lon="7.20647">
        <ele>853.1</ele>
        <time>2012-09-15T16:00:23.000Z</time>
      </trkpt>
      <trkpt lat="43.87901" lon="7.20648">
        <ele>854.8</ele>
        <time>2012-09-15T16:00:26.000Z</time>
      </trkpt>
      <trkpt lat="43.87896" lon="7.20652">
        <ele>854</ele>
        <time>2012-09-15T16:00:51.000Z</time>
      </trkpt>
      <trkpt lat="43.8789" lon="7.20658">
        <ele>853.2</ele>
        <time>2012-09-15T16:00:53.000Z</time>
      </trkpt>
      <trkpt lat="43.87884" lon="7.20666">
        <ele>852.5</ele>
        <time>2012-09-15T16:00:55.000Z</time>
      </trkpt>
      <trkpt lat="43.87878" lon="7.20673">
        <ele>852.2</ele>
        <time>2012-09-15T16:00:57.000Z</time>
      </trkpt>
      <trkpt lat="43.87874" lon="7.20677">
        <ele>853.1</ele>
        <time>2012-09-15T16:00:58.000Z</time>
      </trkpt>
      <trkpt lat="43.87871" lon="7.20687">
        <ele>854.1</ele>
        <time>2012-09-15T16:01:00.000Z</time>
      </trkpt>
      <trkpt lat="43.87869" lon="7.20697">
        <ele>854.5</ele>
        <time>2012-09-15T16:01:02.000Z</time>
      </trkpt>
      <trkpt lat="43.87865" lon="7.20705">
        <ele>854.2</ele>
        <time>2012-09-15T16:01:04.000Z</time>
      </trkpt>
      <trkpt lat="43.87861" lon="7.20713">
        <ele>854.5</ele>
        <time>2012-09-15T16:01:06.000Z</time>
      </trkpt>
      <trkpt lat="43.87855" lon="7.20719">
        <ele>854.4</ele>
        <time>2012-09-15T16:01:08.000Z</time>
      </trkpt>
      <trkpt lat="43.87849" lon="7.20721">
        <ele>853.7</ele>
        <time>2012-09-15T16:01:10.000Z</time>
      </trkpt>
      <trkpt lat="43.87844" lon="7.20724">
        <ele>851.7</ele>
        <time>2012-09-15T16:01:12.000Z</time>
      </trkpt>
      <trkpt lat="43.87839" lon="7.20734">
        <ele>850</ele>
        <time>2012-09-15T16:01:14.000Z</time>
      </trkpt>
      <trkpt lat="43.87834" lon="7.20739">
        <ele>850.5</ele>
        <time>2012-09-15T16:01:15.000Z</time>
      </trkpt>
      <trkpt lat="43.87829" lon="7.20743">
        <ele>850.8</ele>
        <time>2012-09-15T16:01:16.000Z</time>
      </trkpt>
      <trkpt lat="43.87825" lon="7.20746">
        <ele>851</ele>
        <time>2012-09-15T16:01:17.000Z</time>
      </trkpt>
      <trkpt lat="43.87821" lon="7.2075">
        <ele>850.9</ele>
        <time>2012-09-15T16:01:18.000Z</time>
      </trkpt>
      <trkpt lat="43.87816" lon="7.20753">
        <ele>851.5</ele>
        <time>2012-09-15T16:01:19.000Z</time>
      </trkpt>
      <trkpt lat="43.87812" lon="7.20756">
        <ele>852.2</ele>
        <time>2012-09-15T16:01:20.000Z</time>
      </trkpt>
      <trkpt lat="43.87807" lon="7.20759">
        <ele>852.5</ele>
        <time>2012-09-15T16:01:21.000Z</time>
      </trkpt>
      <trkpt lat="43.87803" lon="7.20762">
        <ele>852.7</ele>
        <time>2012-09-15T16:01:22.000Z</time>
      </trkpt>
      <trkpt lat="43.87793" lon="7.20766">
        <ele>852.3</ele>
        <time>2012-09-15T16:01:24.000Z</time>
      </trkpt>
      <trkpt lat="43.87783" lon="7.20766">
        <ele>852.2</ele>
        <time>2012-09-15T16:01:26.000Z</time>
      </trkpt>
      <trkpt lat="43.87777" lon="7.20766">
        <ele>850.8</ele>
        <time>2012-09-15T16:01:27.000Z</time>
      </trkpt>
      <trkpt lat="43.87772" lon="7.20768">
        <ele>850.5</ele>
        <time>2012-09-15T16:01:28.000Z</time>
      </trkpt>
      <trkpt lat="43.87766" lon="7.20771">
        <ele>850.1</ele>
        <time>2012-09-15T16:01:29.000Z</time>
      </trkpt>
      <trkpt lat="43.87761" lon="7.20777">
        <ele>851</ele>
        <time>2012-09-15T16:01:30.000Z</time>
      </trkpt>
      <trkpt lat="43.87757" lon="7.2078">
        <ele>850.6</ele>
        <time>2012-09-15T16:01:31.000Z</time>
      </trkpt>
      <trkpt lat="43.87752" lon="7.20783">
        <ele>850</ele>
        <time>2012-09-15T16:01:32.000Z</time>
      </trkpt>
      <trkpt lat="43.87748" lon="7.20787">
        <ele>850.2</ele>
        <time>2012-09-15T16:01:33.000Z</time>
      </trkpt>
      <trkpt lat="43.87741" lon="7.20789">
        <ele>850.3</ele>
        <time>2012-09-15T16:01:35.000Z</time>
      </trkpt>
      <trkpt lat="43.87734" lon="7.2079">
        <ele>847.2</ele>
        <time>2012-09-15T16:01:37.000Z</time>
      </trkpt>
      <trkpt lat="43.87724" lon="7.20793">
        <ele>845.1</ele>
        <time>2012-09-15T16:01:39.000Z</time>
      </trkpt>
      <trkpt lat="43.87718" lon="7.20795">
        <ele>844.3</ele>
        <time>2012-09-15T16:01:40.000Z</time>
      </trkpt>
      <trkpt lat="43.87712" lon="7.20798">
        <ele>844.7</ele>
        <time>2012-09-15T16:01:41.000Z</time>
      </trkpt>
      <trkpt lat="43.87708" lon="7.208">
        <ele>843.8</ele>
        <time>2012-09-15T16:01:42.000Z</time>
      </trkpt>
      <trkpt lat="43.87699" lon="7.20803">
        <ele>843.5</ele>
        <time>2012-09-15T16:01:44.000Z</time>
      </trkpt>
      <trkpt lat="43.87693" lon="7.20801">
        <ele>842.6</ele>
        <time>2012-09-15T16:01:46.000Z</time>
      </trkpt>
      <trkpt lat="43.87688" lon="7.20801">
        <ele>840.5</ele>
        <time>2012-09-15T16:01:49.000Z</time>
      </trkpt>
      <trkpt lat="43.87682" lon="7.20801">
        <ele>838.4</ele>
        <time>2012-09-15T16:01:51.000Z</time>
      </trkpt>
      <trkpt lat="43.87677" lon="7.20804">
        <ele>838.4</ele>
        <time>2012-09-15T16:01:53.000Z</time>
      </trkpt>
      <trkpt lat="43.87672" lon="7.20807">
        <ele>838</ele>
        <time>2012-09-15T16:01:55.000Z</time>
      </trkpt>
      <trkpt lat="43.87666" lon="7.20813">
        <ele>839.1</ele>
        <time>2012-09-15T16:01:57.000Z</time>
      </trkpt>
      <trkpt lat="43.87661" lon="7.20813">
        <ele>837.1</ele>
        <time>2012-09-15T16:01:59.000Z</time>
      </trkpt>
      <trkpt lat="43.87656" lon="7.2081">
        <ele>835.1</ele>
        <time>2012-09-15T16:02:01.000Z</time>
      </trkpt>
      <trkpt lat="43.87651" lon="7.20807">
        <ele>833.3</ele>
        <time>2012-09-15T16:02:03.000Z</time>
      </trkpt>
      <trkpt lat="43.87644" lon="7.20804">
        <ele>830.6</ele>
        <time>2012-09-15T16:02:06.000Z</time>
      </trkpt>
      <trkpt lat="43.87637" lon="7.20803">
        <ele>830.6</ele>
        <time>2012-09-15T16:02:08.000Z</time>
      </trkpt>
      <trkpt lat="43.87631" lon="7.20804">
        <ele>831.4</ele>
        <time>2012-09-15T16:02:09.000Z</time>
      </trkpt>
      <trkpt lat="43.87626" lon="7.20804">
        <ele>826.1</ele>
        <time>2012-09-15T16:02:12.000Z</time>
      </trkpt>
      <trkpt lat="43.87621" lon="7.20805">
        <ele>822.9</ele>
        <time>2012-09-15T16:02:14.000Z</time>
      </trkpt>
      <trkpt lat="43.87615" lon="7.20808">
        <ele>824.1</ele>
        <time>2012-09-15T16:02:16.000Z</time>
      </trkpt>
      <trkpt lat="43.87608" lon="7.20809">
        <ele>823.7</ele>
        <time>2012-09-15T16:02:18.000Z</time>
      </trkpt>
      <trkpt lat="43.87603" lon="7.20811">
        <ele>821.7</ele>
        <time>2012-09-15T16:02:20.000Z</time>
      </trkpt>
      <trkpt lat="43.87599" lon="7.20813">
        <ele>821.3</ele>
        <time>2012-09-15T16:02:22.000Z</time>
      </trkpt>
      <trkpt lat="43.87594" lon="7.20818">
        <ele>821.3</ele>
        <time>2012-09-15T16:02:24.000Z</time>
      </trkpt>
      <trkpt lat="43.87589" lon="7.20817">
        <ele>820.4</ele>
        <time>2012-09-15T16:02:26.000Z</time>
      </trkpt>
      <trkpt lat="43.87584" lon="7.20816">
        <ele>817.3</ele>
        <time>2012-09-15T16:02:28.000Z</time>
      </trkpt>
      <trkpt lat="43.87578" lon="7.20818">
        <ele>816.7</ele>
        <time>2012-09-15T16:02:30.000Z</time>
      </trkpt>
      <trkpt lat="43.87574" lon="7.20818">
        <ele>815.3</ele>
        <time>2012-09-15T16:02:32.000Z</time>
      </trkpt>
      <trkpt lat="43.87569" lon="7.20818">
        <ele>811.4</ele>
        <time>2012-09-15T16:02:44.000Z</time>
      </trkpt>
      <trkpt lat="43.87563" lon="7.20816">
        <ele>810.2</ele>
        <time>2012-09-15T16:03:59.000Z</time>
      </trkpt>
      <trkpt lat="43.87558" lon="7.20814">
        <ele>808.7</ele>
        <time>2012-09-15T16:04:01.000Z</time>
      </trkpt>
      <trkpt lat="43.87554" lon="7.20817">
        <ele>808.8</ele>
        <time>2012-09-15T16:04:03.000Z</time>
      </trkpt>
      <trkpt lat="43.87548" lon="7.20818">
        <ele>807</ele>
        <time>2012-09-15T16:04:07.000Z</time>
      </trkpt>
      <trkpt lat="43.87541" lon="7.20818">
        <ele>806.9</ele>
        <time>2012-09-15T16:04:10.000Z</time>
      </trkpt>
      <trkpt lat="43.87535" lon="7.20813">
        <ele>804</ele>
        <time>2012-09-15T16:04:12.000Z</time>
      </trkpt>
      <trkpt lat="43.87528" lon="7.20812">
        <ele>806</ele>
        <time>2012-09-15T16:04:14.000Z</time>
      </trkpt>
      <trkpt lat="43.87522" lon="7.20811">
        <ele>805.6</ele>
        <time>2012-09-15T16:04:16.000Z</time>
      </trkpt>
      <trkpt lat="43.87515" lon="7.20809">
        <ele>805.7</ele>
        <time>2012-09-15T16:04:19.000Z</time>
      </trkpt>
      <trkpt lat="43.87508" lon="7.20808">
        <ele>805.9</ele>
        <time>2012-09-15T16:04:21.000Z</time>
      </trkpt>
      <trkpt lat="43.87504" lon="7.20809">
        <ele>804.9</ele>
        <time>2012-09-15T16:04:23.000Z</time>
      </trkpt>
      <trkpt lat="43.87499" lon="7.20806">
        <ele>800</ele>
        <time>2012-09-15T16:04:25.000Z</time>
      </trkpt>
      <trkpt lat="43.87495" lon="7.2081">
        <ele>799.7</ele>
        <time>2012-09-15T16:04:27.000Z</time>
      </trkpt>
      <trkpt lat="43.87487" lon="7.2081">
        <ele>797.8</ele>
        <time>2012-09-15T16:04:30.000Z</time>
      </trkpt>
      <trkpt lat="43.87481" lon="7.20808">
        <ele>797.2</ele>
        <time>2012-09-15T16:04:33.000Z</time>
      </trkpt>
      <trkpt lat="43.87474" lon="7.20809">
        <ele>797.5</ele>
        <time>2012-09-15T16:04:35.000Z</time>
      </trkpt>
      <trkpt lat="43.87468" lon="7.2081">
        <ele>795.9</ele>
        <time>2012-09-15T16:04:37.000Z</time>
      </trkpt>
      <trkpt lat="43.87462" lon="7.20808">
        <ele>794.3</ele>
        <time>2012-09-15T16:04:39.000Z</time>
      </trkpt>
      <trkpt lat="43.87456" lon="7.20809">
        <ele>791.4</ele>
        <time>2012-09-15T16:04:42.000Z</time>
      </trkpt>
      <trkpt lat="43.87449" lon="7.20809">
        <ele>791.2</ele>
        <time>2012-09-15T16:04:44.000Z</time>
      </trkpt>
      <trkpt lat="43.87442" lon="7.20809">
        <ele>790.7</ele>
        <time>2012-09-15T16:04:46.000Z</time>
      </trkpt>
      <trkpt lat="43.87437" lon="7.20809">
        <ele>790.6</ele>
        <time>2012-09-15T16:04:47.000Z</time>
      </trkpt>
      <trkpt lat="43.8743" lon="7.20809">
        <ele>790.6</ele>
        <time>2012-09-15T16:04:48.000Z</time>
      </trkpt>
      <trkpt lat="43.87426" lon="7.20809">
        <ele>789.9</ele>
        <time>2012-09-15T16:04:49.000Z</time>
      </trkpt>
      <trkpt lat="43.87417" lon="7.20806">
        <ele>787.8</ele>
        <time>2012-09-15T16:04:51.000Z</time>
      </trkpt>
      <trkpt lat="43.87411" lon="7.20806">
        <ele>788.9</ele>
        <time>2012-09-15T16:04:52.000Z</time>
      </trkpt>
      <trkpt lat="43.87403" lon="7.20805">
        <ele>792.8</ele>
        <time>2012-09-15T16:04:54.000Z</time>
      </trkpt>
      <trkpt lat="43.87396" lon="7.20806">
        <ele>793.8</ele>
        <time>2012-09-15T16:04:56.000Z</time>
      </trkpt>
      <trkpt lat="43.87389" lon="7.20805">
        <ele>792.3</ele>
        <time>2012-09-15T16:04:58.000Z</time>
      </trkpt>
      <trkpt lat="43.87383" lon="7.20803">
        <ele>791.1</ele>
        <time>2012-09-15T16:05:00.000Z</time>
      </trkpt>
      <trkpt lat="43.87378" lon="7.20802">
        <ele>790.9</ele>
        <time>2012-09-15T16:05:01.000Z</time>
      </trkpt>
      <trkpt lat="43.87373" lon="7.20803">
        <ele>787.4</ele>
        <time>2012-09-15T16:05:05.000Z</time>
      </trkpt>
      <trkpt lat="43.87366" lon="7.20807">
        <ele>784.8</ele>
        <time>2012-09-15T16:05:07.000Z</time>
      </trkpt>
      <trkpt lat="43.87362" lon="7.20811">
        <ele>784.1</ele>
        <time>2012-09-15T16:05:09.000Z</time>
      </trkpt>
      <trkpt lat="43.87358" lon="7.20815">
        <ele>780.5</ele>
        <time>2012-09-15T16:05:12.000Z</time>
      </trkpt>
      <trkpt lat="43.87351" lon="7.20819">
        <ele>781.6</ele>
        <time>2012-09-15T16:05:14.000Z</time>
      </trkpt>
      <trkpt lat="43.87344" lon="7.20822">
        <ele>779.5</ele>
        <time>2012-09-15T16:05:17.000Z</time>
      </trkpt>
      <trkpt lat="43.87337" lon="7.20827">
        <ele>778.8</ele>
        <time>2012-09-15T16:05:19.000Z</time>
      </trkpt>
      <trkpt lat="43.87331" lon="7.20831">
        <ele>775.7</ele>
        <time>2012-09-15T16:05:21.000Z</time>
      </trkpt>
      <trkpt lat="43.87326" lon="7.20829">
        <ele>773.4</ele>
        <time>2012-09-15T16:05:24.000Z</time>
      </trkpt>
      <trkpt lat="43.87323" lon="7.20823">
        <ele>771.1</ele>
        <time>2012-09-15T16:05:26.000Z</time>
      </trkpt>
      <trkpt lat="43.87315" lon="7.20822">
        <ele>771</ele>
        <time>2012-09-15T16:05:28.000Z</time>
      </trkpt>
      <trkpt lat="43.87306" lon="7.20825">
        <ele>771.5</ele>
        <time>2012-09-15T16:05:30.000Z</time>
      </trkpt>
      <trkpt lat="43.87298" lon="7.20835">
        <ele>767.6</ele>
        <time>2012-09-15T16:05:54.000Z</time>
      </trkpt>
      <trkpt lat="43.8729" lon="7.20839">
        <ele>766.4</ele>
        <time>2012-09-15T16:05:56.000Z</time>
      </trkpt>
      <trkpt lat="43.87285" lon="7.20842">
        <ele>767.5</ele>
        <time>2012-09-15T16:05:57.000Z</time>
      </trkpt>
      <trkpt lat="43.87278" lon="7.20846">
        <ele>766.5</ele>
        <time>2012-09-15T16:05:59.000Z</time>
      </trkpt>
      <trkpt lat="43.87274" lon="7.20841">
        <ele>761.4</ele>
        <time>2012-09-15T16:06:02.000Z</time>
      </trkpt>
      <trkpt lat="43.8727" lon="7.20836">
        <ele>758.2</ele>
        <time>2012-09-15T16:06:04.000Z</time>
      </trkpt>
      <trkpt lat="43.87264" lon="7.20837">
        <ele>756.5</ele>
        <time>2012-09-15T16:06:06.000Z</time>
      </trkpt>
      <trkpt lat="43.87259" lon="7.20839">
        <ele>758.3</ele>
        <time>2012-09-15T16:06:07.000Z</time>
      </trkpt>
      <trkpt lat="43.87251" lon="7.20841">
        <ele>759.5</ele>
        <time>2012-09-15T16:06:09.000Z</time>
      </trkpt>
      <trkpt lat="43.87243" lon="7.20841">
        <ele>760.3</ele>
        <time>2012-09-15T16:06:11.000Z</time>
      </trkpt>
      <trkpt lat="43.87238" lon="7.2084">
        <ele>760</ele>
        <time>2012-09-15T16:06:12.000Z</time>
      </trkpt>
      <trkpt lat="43.87234" lon="7.20839">
        <ele>759.3</ele>
        <time>2012-09-15T16:06:13.000Z</time>
      </trkpt>
      <trkpt lat="43.87229" lon="7.20839">
        <ele>758.8</ele>
        <time>2012-09-15T16:06:14.000Z</time>
      </trkpt>
      <trkpt lat="43.87223" lon="7.2084">
        <ele>757.8</ele>
        <time>2012-09-15T16:06:15.000Z</time>
      </trkpt>
      <trkpt lat="43.87218" lon="7.20842">
        <ele>756.7</ele>
        <time>2012-09-15T16:06:16.000Z</time>
      </trkpt>
      <trkpt lat="43.87211" lon="7.20846">
        <ele>755.4</ele>
        <time>2012-09-15T16:06:17.000Z</time>
      </trkpt>
      <trkpt lat="43.87206" lon="7.20847">
        <ele>756.2</ele>
        <time>2012-09-15T16:06:18.000Z</time>
      </trkpt>
      <trkpt lat="43.87202" lon="7.20844">
        <ele>755.8</ele>
        <time>2012-09-15T16:06:26.000Z</time>
      </trkpt>
      <trkpt lat="43.87206" lon="7.20838">
        <ele>753.4</ele>
        <time>2012-09-15T16:06:32.000Z</time>
      </trkpt>
      <trkpt lat="43.87202" lon="7.20832">
        <ele>746</ele>
        <time>2012-09-15T16:07:15.000Z</time>
      </trkpt>
      <trkpt lat="43.87197" lon="7.2083">
        <ele>744</ele>
        <time>2012-09-15T16:07:17.000Z</time>
      </trkpt>
      <trkpt lat="43.87191" lon="7.20824">
        <ele>741.8</ele>
        <time>2012-09-15T16:07:19.000Z</time>
      </trkpt>
      <trkpt lat="43.87186" lon="7.20819">
        <ele>740.6</ele>
        <time>2012-09-15T16:07:21.000Z</time>
      </trkpt>
      <trkpt lat="43.8718" lon="7.20819">
        <ele>737.7</ele>
        <time>2012-09-15T16:07:23.000Z</time>
      </trkpt>
      <trkpt lat="43.87175" lon="7.20822">
        <ele>736.6</ele>
        <time>2012-09-15T16:07:25.000Z</time>
      </trkpt>
      <trkpt lat="43.8717" lon="7.20824">
        <ele>735.3</ele>
        <time>2012-09-15T16:07:27.000Z</time>
      </trkpt>
      <trkpt lat="43.87166" lon="7.20828">
        <ele>738.4</ele>
        <time>2012-09-15T16:07:42.000Z</time>
      </trkpt>
      <trkpt lat="43.87165" lon="7.20834">
        <ele>739.2</ele>
        <time>2012-09-15T16:07:44.000Z</time>
      </trkpt>
      <trkpt lat="43.87166" lon="7.20842">
        <ele>739.9</ele>
        <time>2012-09-15T16:07:46.000Z</time>
      </trkpt>
      <trkpt lat="43.87171" lon="7.20846">
        <ele>740.1</ele>
        <time>2012-09-15T16:07:48.000Z</time>
      </trkpt>
      <trkpt lat="43.87173" lon="7.20853">
        <ele>740.6</ele>
        <time>2012-09-15T16:07:52.000Z</time>
      </trkpt>
      <trkpt lat="43.87175" lon="7.20859">
        <ele>740.4</ele>
        <time>2012-09-15T16:08:09.000Z</time>
      </trkpt>
      <trkpt lat="43.87177" lon="7.20867">
        <ele>738.8</ele>
        <time>2012-09-15T16:08:11.000Z</time>
      </trkpt>
      <trkpt lat="43.87182" lon="7.20874">
        <ele>739.1</ele>
        <time>2012-09-15T16:08:13.000Z</time>
      </trkpt>
      <trkpt lat="43.87189" lon="7.20877">
        <ele>738.8</ele>
        <time>2012-09-15T16:08:15.000Z</time>
      </trkpt>
      <trkpt lat="43.87194" lon="7.20879">
        <ele>738.2</ele>
        <time>2012-09-15T16:08:17.000Z</time>
      </trkpt>
      <trkpt lat="43.872" lon="7.2088">
        <ele>738.9</ele>
        <time>2012-09-15T16:08:20.000Z</time>
      </trkpt>
      <trkpt lat="43.87207" lon="7.20876">
        <ele>739.1</ele>
        <time>2012-09-15T16:08:24.000Z</time>
      </trkpt>
      <trkpt lat="43.87212" lon="7.20878">
        <ele>739.4</ele>
        <time>2012-09-15T16:08:26.000Z</time>
      </trkpt>
      <trkpt lat="43.87218" lon="7.20878">
        <ele>739.1</ele>
        <time>2012-09-15T16:08:28.000Z</time>
      </trkpt>
      <trkpt lat="43.87223" lon="7.20879">
        <ele>738.4</ele>
        <time>2012-09-15T16:08:30.000Z</time>
      </trkpt>
      <trkpt lat="43.87228" lon="7.2088">
        <ele>737.8</ele>
        <time>2012-09-15T16:08:32.000Z</time>
      </trkpt>
      <trkpt lat="43.87236" lon="7.20881">
        <ele>737.3</ele>
        <time>2012-09-15T16:08:34.000Z</time>
      </trkpt>
      <trkpt lat="43.87244" lon="7.20883">
        <ele>737.4</ele>
        <time>2012-09-15T16:08:36.000Z</time>
      </trkpt>
      <trkpt lat="43.87253" lon="7.20887">
        <ele>736.1</ele>
        <time>2012-09-15T16:08:38.000Z</time>
      </trkpt>
      <trkpt lat="43.87258" lon="7.20886">
        <ele>735.4</ele>
        <time>2012-09-15T16:08:39.000Z</time>
      </trkpt>
      <trkpt lat="43.87266" lon="7.20888">
        <ele>733.3</ele>
        <time>2012-09-15T16:08:41.000Z</time>
      </trkpt>
      <trkpt lat="43.87272" lon="7.20889">
        <ele>733.8</ele>
        <time>2012-09-15T16:08:42.000Z</time>
      </trkpt>
      <trkpt lat="43.87276" lon="7.20889">
        <ele>735</ele>
        <time>2012-09-15T16:08:43.000Z</time>
      </trkpt>
      <trkpt lat="43.87285" lon="7.20891">
        <ele>737.6</ele>
        <time>2012-09-15T16:08:45.000Z</time>
      </trkpt>
      <trkpt lat="43.87292" lon="7.20894">
        <ele>740</ele>
        <time>2012-09-15T16:08:47.000Z</time>
      </trkpt>
      <trkpt lat="43.87298" lon="7.20896">
        <ele>739.8</ele>
        <time>2012-09-15T16:08:49.000Z</time>
      </trkpt>
      <trkpt lat="43.87304" lon="7.20899">
        <ele>739.4</ele>
        <time>2012-09-15T16:08:51.000Z</time>
      </trkpt>
      <trkpt lat="43.87312" lon="7.209">
        <ele>739.5</ele>
        <time>2012-09-15T16:08:53.000Z</time>
      </trkpt>
      <trkpt lat="43.8732" lon="7.209">
        <ele>738.6</ele>
        <time>2012-09-15T16:08:55.000Z</time>
      </trkpt>
      <trkpt lat="43.87325" lon="7.20901">
        <ele>738.5</ele>
        <time>2012-09-15T16:08:56.000Z</time>
      </trkpt>
      <trkpt lat="43.87332" lon="7.20904">
        <ele>735.8</ele>
        <time>2012-09-15T16:08:58.000Z</time>
      </trkpt>
      <trkpt lat="43.87338" lon="7.20905">
        <ele>736.7</ele>
        <time>2012-09-15T16:08:59.000Z</time>
      </trkpt>
      <trkpt lat="43.87342" lon="7.20906">
        <ele>734.9</ele>
        <time>2012-09-15T16:09:00.000Z</time>
      </trkpt>
      <trkpt lat="43.87347" lon="7.20908">
        <ele>735</ele>
        <time>2012-09-15T16:09:01.000Z</time>
      </trkpt>
      <trkpt lat="43.87354" lon="7.20908">
        <ele>734.5</ele>
        <time>2012-09-15T16:09:02.000Z</time>
      </trkpt>
      <trkpt lat="43.8736" lon="7.20908">
        <ele>733.8</ele>
        <time>2012-09-15T16:09:03.000Z</time>
      </trkpt>
      <trkpt lat="43.87366" lon="7.20906">
        <ele>733.3</ele>
        <time>2012-09-15T16:09:04.000Z</time>
      </trkpt>
      <trkpt lat="43.87371" lon="7.20907">
        <ele>733.4</ele>
        <time>2012-09-15T16:09:05.000Z</time>
      </trkpt>
      <trkpt lat="43.87376" lon="7.20907">
        <ele>733.6</ele>
        <time>2012-09-15T16:09:06.000Z</time>
      </trkpt>
      <trkpt lat="43.87381" lon="7.20908">
        <ele>733.9</ele>
        <time>2012-09-15T16:09:07.000Z</time>
      </trkpt>
      <trkpt lat="43.87386" lon="7.2091">
        <ele>733.7</ele>
        <time>2012-09-15T16:09:08.000Z</time>
      </trkpt>
      <trkpt lat="43.87393" lon="7.20914">
        <ele>735</ele>
        <time>2012-09-15T16:09:10.000Z</time>
      </trkpt>
      <trkpt lat="43.87402" lon="7.20918">
        <ele>733.2</ele>
        <time>2012-09-15T16:09:12.000Z</time>
      </trkpt>
      <trkpt lat="43.87405" lon="7.20924">
        <ele>732.1</ele>
        <time>2012-09-15T16:09:13.000Z</time>
      </trkpt>
      <trkpt lat="43.87409" lon="7.20935">
        <ele>732.7</ele>
        <time>2012-09-15T16:09:15.000Z</time>
      </trkpt>
      <trkpt lat="43.87415" lon="7.20941">
        <ele>732.4</ele>
        <time>2012-09-15T16:09:17.000Z</time>
      </trkpt>
      <trkpt lat="43.87421" lon="7.20947">
        <ele>733.3</ele>
        <time>2012-09-15T16:09:19.000Z</time>
      </trkpt>
      <trkpt lat="43.87428" lon="7.20952">
        <ele>732</ele>
        <time>2012-09-15T16:09:21.000Z</time>
      </trkpt>
      <trkpt lat="43.87435" lon="7.20958">
        <ele>731</ele>
        <time>2012-09-15T16:09:23.000Z</time>
      </trkpt>
      <trkpt lat="43.8744" lon="7.20964">
        <ele>730.1</ele>
        <time>2012-09-15T16:09:25.000Z</time>
      </trkpt>
      <trkpt lat="43.87445" lon="7.20964">
        <ele>730.6</ele>
        <time>2012-09-15T16:09:26.000Z</time>
      </trkpt>
      <trkpt lat="43.87453" lon="7.20967">
        <ele>730.8</ele>
        <time>2012-09-15T16:09:28.000Z</time>
      </trkpt>
      <trkpt lat="43.87459" lon="7.20972">
        <ele>730.3</ele>
        <time>2012-09-15T16:09:30.000Z</time>
      </trkpt>
      <trkpt lat="43.87467" lon="7.20974">
        <ele>731.7</ele>
        <time>2012-09-15T16:09:32.000Z</time>
      </trkpt>
      <trkpt lat="43.87474" lon="7.20979">
        <ele>730.4</ele>
        <time>2012-09-15T16:09:34.000Z</time>
      </trkpt>
      <trkpt lat="43.87482" lon="7.20984">
        <ele>727.8</ele>
        <time>2012-09-15T16:09:36.000Z</time>
      </trkpt>
      <trkpt lat="43.87484" lon="7.20991">
        <ele>729.7</ele>
        <time>2012-09-15T16:09:37.000Z</time>
      </trkpt>
      <trkpt lat="43.8749" lon="7.20997">
        <ele>731.7</ele>
        <time>2012-09-15T16:09:39.000Z</time>
      </trkpt>
      <trkpt lat="43.87496" lon="7.21003">
        <ele>732.5</ele>
        <time>2012-09-15T16:09:41.000Z</time>
      </trkpt>
      <trkpt lat="43.87502" lon="7.21007">
        <ele>732</ele>
        <time>2012-09-15T16:09:43.000Z</time>
      </trkpt>
      <trkpt lat="43.87509" lon="7.21012">
        <ele>731.4</ele>
        <time>2012-09-15T16:09:45.000Z</time>
      </trkpt>
      <trkpt lat="43.87516" lon="7.21017">
        <ele>731.5</ele>
        <time>2012-09-15T16:09:47.000Z</time>
      </trkpt>
      <trkpt lat="43.87521" lon="7.21022">
        <ele>730.7</ele>
        <time>2012-09-15T16:09:49.000Z</time>
      </trkpt>
      <trkpt lat="43.87521" lon="7.21031">
        <ele>730.2</ele>
        <time>2012-09-15T16:09:51.000Z</time>
      </trkpt>
      <trkpt lat="43.8752" lon="7.2104">
        <ele>730.4</ele>
        <time>2012-09-15T16:09:53.000Z</time>
      </trkpt>
      <trkpt lat="43.87521" lon="7.21049">
        <ele>730.6</ele>
        <time>2012-09-15T16:09:55.000Z</time>
      </trkpt>
      <trkpt lat="43.87526" lon="7.21053">
        <ele>730.6</ele>
        <time>2012-09-15T16:09:58.000Z</time>
      </trkpt>
      <trkpt lat="43.87528" lon="7.2106">
        <ele>731.4</ele>
        <time>2012-09-15T16:10:01.000Z</time>
      </trkpt>
      <trkpt lat="43.87533" lon="7.21061">
        <ele>731.8</ele>
        <time>2012-09-15T16:10:04.000Z</time>
      </trkpt>
      <trkpt lat="43.87537" lon="7.21066">
        <ele>733.6</ele>
        <time>2012-09-15T16:12:08.000Z</time>
      </trkpt>
      <trkpt lat="43.87542" lon="7.21065">
        <ele>734.6</ele>
        <time>2012-09-15T16:12:12.000Z</time>
      </trkpt>
      <trkpt lat="43.87548" lon="7.21066">
        <ele>735.4</ele>
        <time>2012-09-15T16:12:21.000Z</time>
      </trkpt>
      <trkpt lat="43.87555" lon="7.21066">
        <ele>735.3</ele>
        <time>2012-09-15T16:12:24.000Z</time>
      </trkpt>
      <trkpt lat="43.8756" lon="7.21066">
        <ele>736.1</ele>
        <time>2012-09-15T16:12:28.000Z</time>
      </trkpt>
      <trkpt lat="43.87564" lon="7.21067">
        <ele>735.4</ele>
        <time>2012-09-15T16:12:32.000Z</time>
      </trkpt>
      <trkpt lat="43.8757" lon="7.21068">
        <ele>735.2</ele>
        <time>2012-09-15T16:12:35.000Z</time>
      </trkpt>
      <trkpt lat="43.87575" lon="7.21071">
        <ele>733.9</ele>
        <time>2012-09-15T16:12:38.000Z</time>
      </trkpt>
      <trkpt lat="43.8758" lon="7.21072">
        <ele>734.7</ele>
        <time>2012-09-15T16:12:40.000Z</time>
      </trkpt>
      <trkpt lat="43.87586" lon="7.21074">
        <ele>735.7</ele>
        <time>2012-09-15T16:12:42.000Z</time>
      </trkpt>
      <trkpt lat="43.87592" lon="7.21075">
        <ele>732.7</ele>
        <time>2012-09-15T16:12:44.000Z</time>
      </trkpt>
      <trkpt lat="43.87598" lon="7.21076">
        <ele>730.7</ele>
        <time>2012-09-15T16:12:46.000Z</time>
      </trkpt>
      <trkpt lat="43.87603" lon="7.2108">
        <ele>728.5</ele>
        <time>2012-09-15T16:12:50.000Z</time>
      </trkpt>
      <trkpt lat="43.87608" lon="7.2108">
        <ele>728.8</ele>
        <time>2012-09-15T16:12:52.000Z</time>
      </trkpt>
      <trkpt lat="43.87615" lon="7.21082">
        <ele>729.3</ele>
        <time>2012-09-15T16:12:55.000Z</time>
      </trkpt>
      <trkpt lat="43.87621" lon="7.21081">
        <ele>728.4</ele>
        <time>2012-09-15T16:12:57.000Z</time>
      </trkpt>
      <trkpt lat="43.87626" lon="7.21081">
        <ele>726.6</ele>
        <time>2012-09-15T16:13:00.000Z</time>
      </trkpt>
      <trkpt lat="43.87634" lon="7.21077">
        <ele>728.5</ele>
        <time>2012-09-15T16:13:03.000Z</time>
      </trkpt>
      <trkpt lat="43.87639" lon="7.21076">
        <ele>728.9</ele>
        <time>2012-09-15T16:13:05.000Z</time>
      </trkpt>
      <trkpt lat="43.87646" lon="7.21075">
        <ele>729.4</ele>
        <time>2012-09-15T16:13:07.000Z</time>
      </trkpt>
      <trkpt lat="43.87652" lon="7.21076">
        <ele>728.2</ele>
        <time>2012-09-15T16:13:09.000Z</time>
      </trkpt>
      <trkpt lat="43.87652" lon="7.21084">
        <ele>728.2</ele>
        <time>2012-09-15T16:13:10.000Z</time>
      </trkpt>
      <trkpt lat="43.87658" lon="7.2109">
        <ele>733.1</ele>
        <time>2012-09-15T16:13:12.000Z</time>
      </trkpt>
      <trkpt lat="43.87662" lon="7.21097">
        <ele>732.3</ele>
        <time>2012-09-15T16:13:14.000Z</time>
      </trkpt>
      <trkpt lat="43.87666" lon="7.211">
        <ele>730.7</ele>
        <time>2012-09-15T16:13:16.000Z</time>
      </trkpt>
      <trkpt lat="43.87672" lon="7.21106">
        <ele>734.1</ele>
        <time>2012-09-15T16:13:21.000Z</time>
      </trkpt>
      <trkpt lat="43.87673" lon="7.21113">
        <ele>735.3</ele>
        <time>2012-09-15T16:13:23.000Z</time>
      </trkpt>
      <trkpt lat="43.87675" lon="7.21119">
        <ele>738.8</ele>
        <time>2012-09-15T16:13:26.000Z</time>
      </trkpt>
      <trkpt lat="43.87675" lon="7.21128">
        <ele>741.6</ele>
        <time>2012-09-15T16:13:29.000Z</time>
      </trkpt>
      <trkpt lat="43.87676" lon="7.21134">
        <ele>743.5</ele>
        <time>2012-09-15T16:13:31.000Z</time>
      </trkpt>
      <trkpt lat="43.87677" lon="7.21142">
        <ele>742.5</ele>
        <time>2012-09-15T16:13:33.000Z</time>
      </trkpt>
      <trkpt lat="43.87679" lon="7.21148">
        <ele>743.2</ele>
        <time>2012-09-15T16:13:35.000Z</time>
      </trkpt>
      <trkpt lat="43.87682" lon="7.21152">
        <ele>742.8</ele>
        <time>2012-09-15T16:13:37.000Z</time>
      </trkpt>
      <trkpt lat="43.87686" lon="7.21156">
        <ele>744.6</ele>
        <time>2012-09-15T16:13:39.000Z</time>
      </trkpt>
      <trkpt lat="43.87691" lon="7.2116">
        <ele>742.6</ele>
        <time>2012-09-15T16:13:42.000Z</time>
      </trkpt>
      <trkpt lat="43.87695" lon="7.21165">
        <ele>741.1</ele>
        <time>2012-09-15T16:13:44.000Z</time>
      </trkpt>
      <trkpt lat="43.87701" lon="7.21168">
        <ele>740.3</ele>
        <time>2012-09-15T16:13:46.000Z</time>
      </trkpt>
      <trkpt lat="43.87708" lon="7.21171">
        <ele>739.6</ele>
        <time>2012-09-15T16:13:48.000Z</time>
      </trkpt>
      <trkpt lat="43.87715" lon="7.21173">
        <ele>739.9</ele>
        <time>2012-09-15T16:13:50.000Z</time>
      </trkpt>
      <trkpt lat="43.8772" lon="7.21176">
        <ele>739</ele>
        <time>2012-09-15T16:13:53.000Z</time>
      </trkpt>
      <trkpt lat="43.87724" lon="7.2118">
        <ele>739.1</ele>
        <time>2012-09-15T16:13:56.000Z</time>
      </trkpt>
      <trkpt lat="43.8773" lon="7.21184">
        <ele>738.5</ele>
        <time>2012-09-15T16:13:59.000Z</time>
      </trkpt>
      <trkpt lat="43.87733" lon="7.2119">
        <ele>739.6</ele>
        <time>2012-09-15T16:14:01.000Z</time>
      </trkpt>
      <trkpt lat="43.87737" lon="7.21198">
        <ele>741</ele>
        <time>2012-09-15T16:14:04.000Z</time>
      </trkpt>
      <trkpt lat="43.87738" lon="7.21204">
        <ele>742.4</ele>
        <time>2012-09-15T16:14:07.000Z</time>
      </trkpt>
      <trkpt lat="43.87741" lon="7.2121">
        <ele>744</ele>
        <time>2012-09-15T16:14:10.000Z</time>
      </trkpt>
      <trkpt lat="43.87743" lon="7.21215">
        <ele>744.7</ele>
        <time>2012-09-15T16:14:12.000Z</time>
      </trkpt>
      <trkpt lat="43.87744" lon="7.21224">
        <ele>745.1</ele>
        <time>2012-09-15T16:14:15.000Z</time>
      </trkpt>
      <trkpt lat="43.87747" lon="7.21229">
        <ele>745.4</ele>
        <time>2012-09-15T16:14:25.000Z</time>
      </trkpt>
      <trkpt lat="43.87749" lon="7.21235">
        <ele>746.7</ele>
        <time>2012-09-15T16:14:32.000Z</time>
      </trkpt>
      <trkpt lat="43.87752" lon="7.2124">
        <ele>747.8</ele>
        <time>2012-09-15T16:14:38.000Z</time>
      </trkpt>
      <trkpt lat="43.87756" lon="7.21243">
        <ele>750.5</ele>
        <time>2012-09-15T16:14:51.000Z</time>
      </trkpt>
      <trkpt lat="43.87761" lon="7.21244">
        <ele>751</ele>
        <time>2012-09-15T16:14:57.000Z</time>
      </trkpt>
      <trkpt lat="43.87766" lon="7.21245">
        <ele>751.2</ele>
        <time>2012-09-15T16:15:03.000Z</time>
      </trkpt>
      <trkpt lat="43.87771" lon="7.21245">
        <ele>750.6</ele>
        <time>2012-09-15T16:15:11.000Z</time>
      </trkpt>
      <trkpt lat="43.87777" lon="7.21247">
        <ele>749.9</ele>
        <time>2012-09-15T16:15:34.000Z</time>
      </trkpt>
      <trkpt lat="43.87782" lon="7.21246">
        <ele>748.1</ele>
        <time>2012-09-15T16:15:37.000Z</time>
      </trkpt>
      <trkpt lat="43.87788" lon="7.21244">
        <ele>745.3</ele>
        <time>2012-09-15T16:15:44.000Z</time>
      </trkpt>
      <trkpt lat="43.87792" lon="7.2124">
        <ele>745.3</ele>
        <time>2012-09-15T16:15:47.000Z</time>
      </trkpt>
      <trkpt lat="43.87797" lon="7.21238">
        <ele>741.1</ele>
        <time>2012-09-15T16:15:50.000Z</time>
      </trkpt>
      <trkpt lat="43.87802" lon="7.21234">
        <ele>739.4</ele>
        <time>2012-09-15T16:15:53.000Z</time>
      </trkpt>
      <trkpt lat="43.87806" lon="7.21231">
        <ele>741.7</ele>
        <time>2012-09-15T16:15:57.000Z</time>
      </trkpt>
      <trkpt lat="43.87811" lon="7.21226">
        <ele>739.2</ele>
        <time>2012-09-15T16:16:00.000Z</time>
      </trkpt>
      <trkpt lat="43.87814" lon="7.21218">
        <ele>738.2</ele>
        <time>2012-09-15T16:16:04.000Z</time>
      </trkpt>
      <trkpt lat="43.87818" lon="7.21214">
        <ele>735.6</ele>
        <time>2012-09-15T16:16:08.000Z</time>
      </trkpt>
      <trkpt lat="43.87823" lon="7.21208">
        <ele>736.6</ele>
        <time>2012-09-15T16:16:11.000Z</time>
      </trkpt>
      <trkpt lat="43.87826" lon="7.21202">
        <ele>736.2</ele>
        <time>2012-09-15T16:16:15.000Z</time>
      </trkpt>
      <trkpt lat="43.8783" lon="7.21196">
        <ele>734.5</ele>
        <time>2012-09-15T16:16:18.000Z</time>
      </trkpt>
      <trkpt lat="43.87832" lon="7.2119">
        <ele>732.4</ele>
        <time>2012-09-15T16:16:20.000Z</time>
      </trkpt>
      <trkpt lat="43.87835" lon="7.21184">
        <ele>731.3</ele>
        <time>2012-09-15T16:16:23.000Z</time>
      </trkpt>
      <trkpt lat="43.87839" lon="7.2118">
        <ele>729.7</ele>
        <time>2012-09-15T16:16:25.000Z</time>
      </trkpt>
      <trkpt lat="43.87842" lon="7.21174">
        <ele>731.6</ele>
        <time>2012-09-15T16:16:28.000Z</time>
      </trkpt>
      <trkpt lat="43.87846" lon="7.21169">
        <ele>730.9</ele>
        <time>2012-09-15T16:16:31.000Z</time>
      </trkpt>
      <trkpt lat="43.87851" lon="7.21165">
        <ele>733.2</ele>
        <time>2012-09-15T16:16:35.000Z</time>
      </trkpt>
      <trkpt lat="43.87856" lon="7.21164">
        <ele>732.6</ele>
        <time>2012-09-15T16:16:38.000Z</time>
      </trkpt>
      <trkpt lat="43.8786" lon="7.21159">
        <ele>732.2</ele>
        <time>2012-09-15T16:16:40.000Z</time>
      </trkpt>
      <trkpt lat="43.87866" lon="7.21151">
        <ele>730.3</ele>
        <time>2012-09-15T16:16:43.000Z</time>
      </trkpt>
      <trkpt lat="43.8787" lon="7.21143">
        <ele>729.7</ele>
        <time>2012-09-15T16:16:45.000Z</time>
      </trkpt>
      <trkpt lat="43.87872" lon="7.21136">
        <ele>727.4</ele>
        <time>2012-09-15T16:16:47.000Z</time>
      </trkpt>
      <trkpt lat="43.87877" lon="7.21134">
        <ele>728.3</ele>
        <time>2012-09-15T16:16:51.000Z</time>
      </trkpt>
      <trkpt lat="43.8788" lon="7.21127">
        <ele>726.4</ele>
        <time>2012-09-15T16:16:54.000Z</time>
      </trkpt>
      <trkpt lat="43.87886" lon="7.21123">
        <ele>723.1</ele>
        <time>2012-09-15T16:16:56.000Z</time>
      </trkpt>
      <trkpt lat="43.87889" lon="7.21117">
        <ele>721.9</ele>
        <time>2012-09-15T16:16:57.000Z</time>
      </trkpt>
      <trkpt lat="43.87893" lon="7.21109">
        <ele>721.2</ele>
        <time>2012-09-15T16:16:58.000Z</time>
      </trkpt>
      <trkpt lat="43.87899" lon="7.21107">
        <ele>720</ele>
        <time>2012-09-15T16:17:00.000Z</time>
      </trkpt>
      <trkpt lat="43.87904" lon="7.21104">
        <ele>721</ele>
        <time>2012-09-15T16:17:02.000Z</time>
      </trkpt>
      <trkpt lat="43.87909" lon="7.21102">
        <ele>721.1</ele>
        <time>2012-09-15T16:17:04.000Z</time>
      </trkpt>
      <trkpt lat="43.87915" lon="7.21105">
        <ele>721.4</ele>
        <time>2012-09-15T16:17:05.000Z</time>
      </trkpt>
      <trkpt lat="43.8792" lon="7.21105">
        <ele>721.2</ele>
        <time>2012-09-15T16:17:06.000Z</time>
      </trkpt>
      <trkpt lat="43.87923" lon="7.21098">
        <ele>718.1</ele>
        <time>2012-09-15T16:17:07.000Z</time>
      </trkpt>
      <trkpt lat="43.87928" lon="7.21093">
        <ele>717</ele>
        <time>2012-09-15T16:17:08.000Z</time>
      </trkpt>
      <trkpt lat="43.87932" lon="7.21091">
        <ele>716.5</ele>
        <time>2012-09-15T16:17:10.000Z</time>
      </trkpt>
      <trkpt lat="43.87936" lon="7.21088">
        <ele>718.1</ele>
        <time>2012-09-15T16:17:11.000Z</time>
      </trkpt>
      <trkpt lat="43.87942" lon="7.2109">
        <ele>718.7</ele>
        <time>2012-09-15T16:17:13.000Z</time>
      </trkpt>
      <trkpt lat="43.8795" lon="7.21093">
        <ele>721.6</ele>
        <time>2012-09-15T16:17:15.000Z</time>
      </trkpt>
      <trkpt lat="43.87956" lon="7.21099">
        <ele>724</ele>
        <time>2012-09-15T16:17:17.000Z</time>
      </trkpt>
      <trkpt lat="43.87961" lon="7.21099">
        <ele>725.6</ele>
        <time>2012-09-15T16:17:18.000Z</time>
      </trkpt>
      <trkpt lat="43.87965" lon="7.21103">
        <ele>728.6</ele>
        <time>2012-09-15T16:17:19.000Z</time>
      </trkpt>
      <trkpt lat="43.8797" lon="7.21106">
        <ele>731.8</ele>
        <time>2012-09-15T16:17:20.000Z</time>
      </trkpt>
      <trkpt lat="43.87978" lon="7.21114">
        <ele>735.3</ele>
        <time>2012-09-15T16:17:22.000Z</time>
      </trkpt>
      <trkpt lat="43.87988" lon="7.21118">
        <ele>733.8</ele>
        <time>2012-09-15T16:17:24.000Z</time>
      </trkpt>
      <trkpt lat="43.87995" lon="7.2112">
        <ele>734.2</ele>
        <time>2012-09-15T16:17:26.000Z</time>
      </trkpt>
      <trkpt lat="43.88" lon="7.21118">
        <ele>732.1</ele>
        <time>2012-09-15T16:17:28.000Z</time>
      </trkpt>
      <trkpt lat="43.88007" lon="7.21117">
        <ele>734.4</ele>
        <time>2012-09-15T16:17:30.000Z</time>
      </trkpt>
      <trkpt lat="43.88014" lon="7.21115">
        <ele>736.2</ele>
        <time>2012-09-15T16:17:33.000Z</time>
      </trkpt>
      <trkpt lat="43.8802" lon="7.21114">
        <ele>736.8</ele>
        <time>2012-09-15T16:17:35.000Z</time>
      </trkpt>
      <trkpt lat="43.88025" lon="7.21112">
        <ele>736.1</ele>
        <time>2012-09-15T16:17:37.000Z</time>
      </trkpt>
      <trkpt lat="43.88033" lon="7.21106">
        <ele>736.3</ele>
        <time>2012-09-15T16:17:39.000Z</time>
      </trkpt>
      <trkpt lat="43.88038" lon="7.21102">
        <ele>735.7</ele>
        <time>2012-09-15T16:17:40.000Z</time>
      </trkpt>
      <trkpt lat="43.88043" lon="7.211">
        <ele>734.9</ele>
        <time>2012-09-15T16:17:44.000Z</time>
      </trkpt>
      <trkpt lat="43.88046" lon="7.21095">
        <ele>735.1</ele>
        <time>2012-09-15T16:17:46.000Z</time>
      </trkpt>
      <trkpt lat="43.8805" lon="7.21092">
        <ele>734.8</ele>
        <time>2012-09-15T16:17:47.000Z</time>
      </trkpt>
      <trkpt lat="43.88056" lon="7.21082">
        <ele>733.6</ele>
        <time>2012-09-15T16:17:50.000Z</time>
      </trkpt>
      <trkpt lat="43.8806" lon="7.21078">
        <ele>733.2</ele>
        <time>2012-09-15T16:17:52.000Z</time>
      </trkpt>
      <trkpt lat="43.88066" lon="7.21073">
        <ele>732.2</ele>
        <time>2012-09-15T16:17:55.000Z</time>
      </trkpt>
      <trkpt lat="43.88071" lon="7.21075">
        <ele>733.7</ele>
        <time>2012-09-15T16:17:57.000Z</time>
      </trkpt>
      <trkpt lat="43.88076" lon="7.21071">
        <ele>732.7</ele>
        <time>2012-09-15T16:18:00.000Z</time>
      </trkpt>
      <trkpt lat="43.88081" lon="7.21068">
        <ele>732.7</ele>
        <time>2012-09-15T16:18:03.000Z</time>
      </trkpt>
      <trkpt lat="43.88086" lon="7.21067">
        <ele>734.8</ele>
        <time>2012-09-15T16:18:05.000Z</time>
      </trkpt>
      <trkpt lat="43.88092" lon="7.21067">
        <ele>733.3</ele>
        <time>2012-09-15T16:18:07.000Z</time>
      </trkpt>
      <trkpt lat="43.88095" lon="7.21062">
        <ele>732.6</ele>
        <time>2012-09-15T16:18:10.000Z</time>
      </trkpt>
      <trkpt lat="43.88099" lon="7.21059">
        <ele>732.9</ele>
        <time>2012-09-15T16:18:13.000Z</time>
      </trkpt>
      <trkpt lat="43.88104" lon="7.21057">
        <ele>732.3</ele>
        <time>2012-09-15T16:18:16.000Z</time>
      </trkpt>
      <trkpt lat="43.88111" lon="7.21061">
        <ele>732</ele>
        <time>2012-09-15T16:18:18.000Z</time>
      </trkpt>
      <trkpt lat="43.88118" lon="7.21062">
        <ele>732.7</ele>
        <time>2012-09-15T16:18:20.000Z</time>
      </trkpt>
      <trkpt lat="43.88123" lon="7.2106">
        <ele>732.8</ele>
        <time>2012-09-15T16:18:22.000Z</time>
      </trkpt>
      <trkpt lat="43.88127" lon="7.21056">
        <ele>732.9</ele>
        <time>2012-09-15T16:18:24.000Z</time>
      </trkpt>
      <trkpt lat="43.88132" lon="7.21052">
        <ele>732.6</ele>
        <time>2012-09-15T16:18:27.000Z</time>
      </trkpt>
      <trkpt lat="43.88133" lon="7.21058">
        <ele>739.1</ele>
        <time>2012-09-15T16:18:35.000Z</time>
      </trkpt>
      <trkpt lat="43.88138" lon="7.21058">
        <ele>738.4</ele>
        <time>2012-09-15T16:18:51.000Z</time>
      </trkpt>
      <trkpt lat="43.88145" lon="7.21055">
        <ele>737.5</ele>
        <time>2012-09-15T16:18:53.000Z</time>
      </trkpt>
      <trkpt lat="43.8815" lon="7.21054">
        <ele>736</ele>
        <time>2012-09-15T16:18:55.000Z</time>
      </trkpt>
      <trkpt lat="43.88155" lon="7.21052">
        <ele>736.5</ele>
        <time>2012-09-15T16:18:57.000Z</time>
      </trkpt>
      <trkpt lat="43.88161" lon="7.21052">
        <ele>736</ele>
        <time>2012-09-15T16:18:59.000Z</time>
      </trkpt>
      <trkpt lat="43.88167" lon="7.21056">
        <ele>738.2</ele>
        <time>2012-09-15T16:19:01.000Z</time>
      </trkpt>
      <trkpt lat="43.88172" lon="7.21054">
        <ele>738.4</ele>
        <time>2012-09-15T16:19:02.000Z</time>
      </trkpt>
      <trkpt lat="43.88176" lon="7.2105">
        <ele>737.2</ele>
        <time>2012-09-15T16:19:03.000Z</time>
      </trkpt>
      <trkpt lat="43.88184" lon="7.21046">
        <ele>736.7</ele>
        <time>2012-09-15T16:19:05.000Z</time>
      </trkpt>
      <trkpt lat="43.88191" lon="7.21044">
        <ele>737.7</ele>
        <time>2012-09-15T16:19:07.000Z</time>
      </trkpt>
      <trkpt lat="43.88196" lon="7.21042">
        <ele>738.9</ele>
        <time>2012-09-15T16:19:10.000Z</time>
      </trkpt>
      <trkpt lat="43.88199" lon="7.21038">
        <ele>741.3</ele>
        <time>2012-09-15T16:19:26.000Z</time>
      </trkpt>
      <trkpt lat="43.88204" lon="7.21035">
        <ele>742.5</ele>
        <time>2012-09-15T16:19:45.000Z</time>
      </trkpt>
      <trkpt lat="43.88209" lon="7.21032">
        <ele>741.7</ele>
        <time>2012-09-15T16:19:48.000Z</time>
      </trkpt>
      <trkpt lat="43.88215" lon="7.21029">
        <ele>741.5</ele>
        <time>2012-09-15T16:19:51.000Z</time>
      </trkpt>
      <trkpt lat="43.88221" lon="7.21026">
        <ele>742</ele>
        <time>2012-09-15T16:19:53.000Z</time>
      </trkpt>
      <trkpt lat="43.88227" lon="7.21024">
        <ele>742.2</ele>
        <time>2012-09-15T16:19:55.000Z</time>
      </trkpt>
      <trkpt lat="43.88232" lon="7.21023">
        <ele>741.3</ele>
        <time>2012-09-15T16:19:57.000Z</time>
      </trkpt>
      <trkpt lat="43.88237" lon="7.21021">
        <ele>739.9</ele>
        <time>2012-09-15T16:19:59.000Z</time>
      </trkpt>
      <trkpt lat="43.88243" lon="7.21022">
        <ele>741.5</ele>
        <time>2012-09-15T16:20:02.000Z</time>
      </trkpt>
      <trkpt lat="43.88248" lon="7.21023">
        <ele>739.9</ele>
        <time>2012-09-15T16:20:04.000Z</time>
      </trkpt>
      <trkpt lat="43.88254" lon="7.21026">
        <ele>739.1</ele>
        <time>2012-09-15T16:20:06.000Z</time>
      </trkpt>
      <trkpt lat="43.8826" lon="7.21026">
        <ele>741.1</ele>
        <time>2012-09-15T16:20:09.000Z</time>
      </trkpt>
      <trkpt lat="43.88266" lon="7.21028">
        <ele>743.6</ele>
        <time>2012-09-15T16:20:12.000Z</time>
      </trkpt>
      <trkpt lat="43.8827" lon="7.21029">
        <ele>744.4</ele>
        <time>2012-09-15T16:20:14.000Z</time>
      </trkpt>
      <trkpt lat="43.88275" lon="7.2103">
        <ele>743.4</ele>
        <time>2012-09-15T16:20:17.000Z</time>
      </trkpt>
      <trkpt lat="43.8828" lon="7.21032">
        <ele>742.1</ele>
        <time>2012-09-15T16:20:19.000Z</time>
      </trkpt>
      <trkpt lat="43.88284" lon="7.2103">
        <ele>741.2</ele>
        <time>2012-09-15T16:20:20.000Z</time>
      </trkpt>
      <trkpt lat="43.88291" lon="7.21029">
        <ele>738.8</ele>
        <time>2012-09-15T16:20:22.000Z</time>
      </trkpt>
      <trkpt lat="43.88296" lon="7.21025">
        <ele>739.2</ele>
        <time>2012-09-15T16:20:23.000Z</time>
      </trkpt>
      <trkpt lat="43.88301" lon="7.21022">
        <ele>739.2</ele>
        <time>2012-09-15T16:20:24.000Z</time>
      </trkpt>
      <trkpt lat="43.88306" lon="7.21018">
        <ele>737.3</ele>
        <time>2012-09-15T16:20:25.000Z</time>
      </trkpt>
      <trkpt lat="43.8831" lon="7.21014">
        <ele>736.2</ele>
        <time>2012-09-15T16:20:26.000Z</time>
      </trkpt>
      <trkpt lat="43.88314" lon="7.21006">
        <ele>737</ele>
        <time>2012-09-15T16:20:28.000Z</time>
      </trkpt>
      <trkpt lat="43.88317" lon="7.21001">
        <ele>735.7</ele>
        <time>2012-09-15T16:20:30.000Z</time>
      </trkpt>
      <trkpt lat="43.88322" lon="7.20997">
        <ele>734.5</ele>
        <time>2012-09-15T16:20:32.000Z</time>
      </trkpt>
      <trkpt lat="43.88326" lon="7.20993">
        <ele>733.2</ele>
        <time>2012-09-15T16:20:34.000Z</time>
      </trkpt>
      <trkpt lat="43.88332" lon="7.20989">
        <ele>730.8</ele>
        <time>2012-09-15T16:20:36.000Z</time>
      </trkpt>
      <trkpt lat="43.88336" lon="7.20986">
        <ele>729.9</ele>
        <time>2012-09-15T16:20:37.000Z</time>
      </trkpt>
      <trkpt lat="43.88344" lon="7.20977">
        <ele>730.3</ele>
        <time>2012-09-15T16:20:39.000Z</time>
      </trkpt>
      <trkpt lat="43.88351" lon="7.20972">
        <ele>730.3</ele>
        <time>2012-09-15T16:20:41.000Z</time>
      </trkpt>
      <trkpt lat="43.88357" lon="7.20965">
        <ele>729.5</ele>
        <time>2012-09-15T16:20:43.000Z</time>
      </trkpt>
      <trkpt lat="43.88362" lon="7.20964">
        <ele>728.6</ele>
        <time>2012-09-15T16:20:45.000Z</time>
      </trkpt>
      <trkpt lat="43.88366" lon="7.20964">
        <ele>728.9</ele>
        <time>2012-09-15T16:20:47.000Z</time>
      </trkpt>
      <trkpt lat="43.88372" lon="7.2096">
        <ele>729.2</ele>
        <time>2012-09-15T16:20:49.000Z</time>
      </trkpt>
      <trkpt lat="43.88376" lon="7.20959">
        <ele>730.5</ele>
        <time>2012-09-15T16:20:52.000Z</time>
      </trkpt>
      <trkpt lat="43.8838" lon="7.20962">
        <ele>732.4</ele>
        <time>2012-09-15T16:21:01.000Z</time>
      </trkpt>
      <trkpt lat="43.88385" lon="7.20962">
        <ele>734</ele>
        <time>2012-09-15T16:21:05.000Z</time>
      </trkpt>
      <trkpt lat="43.8839" lon="7.20963">
        <ele>734.1</ele>
        <time>2012-09-15T16:21:23.000Z</time>
      </trkpt>
      <trkpt lat="43.88395" lon="7.20967">
        <ele>733.3</ele>
        <time>2012-09-15T16:21:29.000Z</time>
      </trkpt>
      <trkpt lat="43.88398" lon="7.20972">
        <ele>732.4</ele>
        <time>2012-09-15T16:21:32.000Z</time>
      </trkpt>
      <trkpt lat="43.88395" lon="7.20981">
        <ele>740</ele>
        <time>2012-09-15T16:22:05.000Z</time>
      </trkpt>
      <trkpt lat="43.88392" lon="7.20986">
        <ele>739.7</ele>
        <time>2012-09-15T16:22:08.000Z</time>
      </trkpt>
      <trkpt lat="43.88388" lon="7.20992">
        <ele>740.2</ele>
        <time>2012-09-15T16:22:10.000Z</time>
      </trkpt>
      <trkpt lat="43.88385" lon="7.20998">
        <ele>739.8</ele>
        <time>2012-09-15T16:22:12.000Z</time>
      </trkpt>
      <trkpt lat="43.88382" lon="7.21007">
        <ele>739.1</ele>
        <time>2012-09-15T16:22:14.000Z</time>
      </trkpt>
      <trkpt lat="43.88381" lon="7.21018">
        <ele>739.6</ele>
        <time>2012-09-15T16:22:16.000Z</time>
      </trkpt>
      <trkpt lat="43.88382" lon="7.21028">
        <ele>738.1</ele>
        <time>2012-09-15T16:22:18.000Z</time>
      </trkpt>
      <trkpt lat="43.8838" lon="7.21035">
        <ele>738.6</ele>
        <time>2012-09-15T16:22:30.000Z</time>
      </trkpt>
      <trkpt lat="43.88381" lon="7.21043">
        <ele>737.9</ele>
        <time>2012-09-15T16:22:32.000Z</time>
      </trkpt>
      <trkpt lat="43.88381" lon="7.21051">
        <ele>737.6</ele>
        <time>2012-09-15T16:22:34.000Z</time>
      </trkpt>
      <trkpt lat="43.88384" lon="7.21059">
        <ele>735.4</ele>
        <time>2012-09-15T16:22:36.000Z</time>
      </trkpt>
      <trkpt lat="43.88387" lon="7.21069">
        <ele>733.5</ele>
        <time>2012-09-15T16:22:38.000Z</time>
      </trkpt>
      <trkpt lat="43.88392" lon="7.21074">
        <ele>732.4</ele>
        <time>2012-09-15T16:22:41.000Z</time>
      </trkpt>
      <trkpt lat="43.88394" lon="7.21084">
        <ele>732</ele>
        <time>2012-09-15T16:22:44.000Z</time>
      </trkpt>
      <trkpt lat="43.88393" lon="7.21091">
        <ele>732.2</ele>
        <time>2012-09-15T16:22:46.000Z</time>
      </trkpt>
      <trkpt lat="43.88393" lon="7.21098">
        <ele>732.3</ele>
        <time>2012-09-15T16:22:48.000Z</time>
      </trkpt>
      <trkpt lat="43.88391" lon="7.21105">
        <ele>730</ele>
        <time>2012-09-15T16:22:51.000Z</time>
      </trkpt>
      <trkpt lat="43.88391" lon="7.21113">
        <ele>729.4</ele>
        <time>2012-09-15T16:22:53.000Z</time>
      </trkpt>
      <trkpt lat="43.88391" lon="7.21124">
        <ele>728.2</ele>
        <time>2012-09-15T16:22:55.000Z</time>
      </trkpt>
      <trkpt lat="43.88391" lon="7.21134">
        <ele>727.6</ele>
        <time>2012-09-15T16:22:57.000Z</time>
      </trkpt>
      <trkpt lat="43.88395" lon="7.21146">
        <ele>726.8</ele>
        <time>2012-09-15T16:22:59.000Z</time>
      </trkpt>
      <trkpt lat="43.88397" lon="7.21153">
        <ele>726.6</ele>
        <time>2012-09-15T16:23:00.000Z</time>
      </trkpt>
      <trkpt lat="43.88399" lon="7.21159">
        <ele>724.8</ele>
        <time>2012-09-15T16:23:02.000Z</time>
      </trkpt>
      <trkpt lat="43.88402" lon="7.21166">
        <ele>724.3</ele>
        <time>2012-09-15T16:23:03.000Z</time>
      </trkpt>
      <trkpt lat="43.88397" lon="7.21168">
        <ele>724.5</ele>
        <time>2012-09-15T16:23:05.000Z</time>
      </trkpt>
      <trkpt lat="43.88394" lon="7.21175">
        <ele>723.6</ele>
        <time>2012-09-15T16:23:09.000Z</time>
      </trkpt>
      <trkpt lat="43.88391" lon="7.21181">
        <ele>720.3</ele>
        <time>2012-09-15T16:23:11.000Z</time>
      </trkpt>
      <trkpt lat="43.88386" lon="7.21186">
        <ele>720.9</ele>
        <time>2012-09-15T16:23:13.000Z</time>
      </trkpt>
      <trkpt lat="43.88382" lon="7.21189">
        <ele>721.2</ele>
        <time>2012-09-15T16:23:15.000Z</time>
      </trkpt>
      <trkpt lat="43.88376" lon="7.21192">
        <ele>722</ele>
        <time>2012-09-15T16:23:19.000Z</time>
      </trkpt>
      <trkpt lat="43.88371" lon="7.21195">
        <ele>726.8</ele>
        <time>2012-09-15T16:23:22.000Z</time>
      </trkpt>
      <trkpt lat="43.88367" lon="7.21198">
        <ele>728.4</ele>
        <time>2012-09-15T16:23:24.000Z</time>
      </trkpt>
      <trkpt lat="43.88364" lon="7.21204">
        <ele>729.3</ele>
        <time>2012-09-15T16:23:26.000Z</time>
      </trkpt>
      <trkpt lat="43.8836" lon="7.2121">
        <ele>728.6</ele>
        <time>2012-09-15T16:23:28.000Z</time>
      </trkpt>
      <trkpt lat="43.88357" lon="7.21217">
        <ele>729.7</ele>
        <time>2012-09-15T16:23:30.000Z</time>
      </trkpt>
      <trkpt lat="43.88352" lon="7.21225">
        <ele>730.7</ele>
        <time>2012-09-15T16:23:32.000Z</time>
      </trkpt>
      <trkpt lat="43.88351" lon="7.21233">
        <ele>731.3</ele>
        <time>2012-09-15T16:23:34.000Z</time>
      </trkpt>
      <trkpt lat="43.88351" lon="7.21241">
        <ele>732.8</ele>
        <time>2012-09-15T16:23:37.000Z</time>
      </trkpt>
      <trkpt lat="43.88351" lon="7.21249">
        <ele>732.5</ele>
        <time>2012-09-15T16:23:40.000Z</time>
      </trkpt>
      <trkpt lat="43.88352" lon="7.21257">
        <ele>733.5</ele>
        <time>2012-09-15T16:23:43.000Z</time>
      </trkpt>
      <trkpt lat="43.88354" lon="7.21264">
        <ele>728.9</ele>
        <time>2012-09-15T16:23:47.000Z</time>
      </trkpt>
      <trkpt lat="43.88351" lon="7.21272">
        <ele>728.1</ele>
        <time>2012-09-15T16:23:50.000Z</time>
      </trkpt>
      <trkpt lat="43.88346" lon="7.21274">
        <ele>728.9</ele>
        <time>2012-09-15T16:23:53.000Z</time>
      </trkpt>
      <trkpt lat="43.88345" lon="7.2128">
        <ele>728.4</ele>
        <time>2012-09-15T16:23:55.000Z</time>
      </trkpt>
      <trkpt lat="43.8834" lon="7.21289">
        <ele>728.3</ele>
        <time>2012-09-15T16:23:58.000Z</time>
      </trkpt>
      <trkpt lat="43.8834" lon="7.21296">
        <ele>727.5</ele>
        <time>2012-09-15T16:24:00.000Z</time>
      </trkpt>
      <trkpt lat="43.8834" lon="7.21306">
        <ele>726.1</ele>
        <time>2012-09-15T16:24:02.000Z</time>
      </trkpt>
      <trkpt lat="43.8834" lon="7.21316">
        <ele>726.8</ele>
        <time>2012-09-15T16:24:04.000Z</time>
      </trkpt>
      <trkpt lat="43.8834" lon="7.21325">
        <ele>727.7</ele>
        <time>2012-09-15T16:24:06.000Z</time>
      </trkpt>
      <trkpt lat="43.88341" lon="7.21334">
        <ele>728.7</ele>
        <time>2012-09-15T16:24:08.000Z</time>
      </trkpt>
      <trkpt lat="43.8834" lon="7.21341">
        <ele>729.7</ele>
        <time>2012-09-15T16:24:10.000Z</time>
      </trkpt>
      <trkpt lat="43.88341" lon="7.21347">
        <ele>729.3</ele>
        <time>2012-09-15T16:24:12.000Z</time>
      </trkpt>
      <trkpt lat="43.88339" lon="7.21353">
        <ele>729.6</ele>
        <time>2012-09-15T16:24:15.000Z</time>
      </trkpt>
      <trkpt lat="43.88338" lon="7.21359">
        <ele>729.8</ele>
        <time>2012-09-15T16:24:18.000Z</time>
      </trkpt>
      <trkpt lat="43.8834" lon="7.21365">
        <ele>728.1</ele>
        <time>2012-09-15T16:24:21.000Z</time>
      </trkpt>
      <trkpt lat="43.88342" lon="7.21372">
        <ele>726.7</ele>
        <time>2012-09-15T16:24:25.000Z</time>
      </trkpt>
      <trkpt lat="43.8834" lon="7.21378">
        <ele>723.3</ele>
        <time>2012-09-15T16:24:52.000Z</time>
      </trkpt>
      <trkpt lat="43.88341" lon="7.21384">
        <ele>720.8</ele>
        <time>2012-09-15T16:24:57.000Z</time>
      </trkpt>
      <trkpt lat="43.88344" lon="7.2139">
        <ele>720.1</ele>
        <time>2012-09-15T16:25:35.000Z</time>
      </trkpt>
      <trkpt lat="43.88348" lon="7.21393">
        <ele>720.8</ele>
        <time>2012-09-15T16:25:38.000Z</time>
      </trkpt>
      <trkpt lat="43.88353" lon="7.21395">
        <ele>717.8</ele>
        <time>2012-09-15T16:25:41.000Z</time>
      </trkpt>
      <trkpt lat="43.88359" lon="7.21403">
        <ele>714.5</ele>
        <time>2012-09-15T16:26:04.000Z</time>
      </trkpt>
      <trkpt lat="43.88362" lon="7.2141">
        <ele>714.6</ele>
        <time>2012-09-15T16:26:08.000Z</time>
      </trkpt>
      <trkpt lat="43.88363" lon="7.21417">
        <ele>713.9</ele>
        <time>2012-09-15T16:26:11.000Z</time>
      </trkpt>
      <trkpt lat="43.88363" lon="7.21424">
        <ele>713.3</ele>
        <time>2012-09-15T16:26:13.000Z</time>
      </trkpt>
      <trkpt lat="43.88362" lon="7.21432">
        <ele>713.1</ele>
        <time>2012-09-15T16:26:22.000Z</time>
      </trkpt>
      <trkpt lat="43.88363" lon="7.21424">
        <ele>712</ele>
        <time>2012-09-15T16:26:23.000Z</time>
      </trkpt>
      <trkpt lat="43.88364" lon="7.2143">
        <ele>714.9</ele>
        <time>2012-09-15T16:26:25.000Z</time>
      </trkpt>
      <trkpt lat="43.88361" lon="7.21437">
        <ele>712.4</ele>
        <time>2012-09-15T16:26:27.000Z</time>
      </trkpt>
      <trkpt lat="43.88366" lon="7.21444">
        <ele>707.8</ele>
        <time>2012-09-15T16:26:29.000Z</time>
      </trkpt>
      <trkpt lat="43.88368" lon="7.21453">
        <ele>702.9</ele>
        <time>2012-09-15T16:26:31.000Z</time>
      </trkpt>
      <trkpt lat="43.88371" lon="7.2146">
        <ele>703.7</ele>
        <time>2012-09-15T16:26:33.000Z</time>
      </trkpt>
      <trkpt lat="43.88372" lon="7.21468">
        <ele>700.6</ele>
        <time>2012-09-15T16:26:36.000Z</time>
      </trkpt>
      <trkpt lat="43.88374" lon="7.21474">
        <ele>697.1</ele>
        <time>2012-09-15T16:26:40.000Z</time>
      </trkpt>
      <trkpt lat="43.88371" lon="7.2148">
        <ele>697.9</ele>
        <time>2012-09-15T16:27:18.000Z</time>
      </trkpt>
      <trkpt lat="43.8837" lon="7.21486">
        <ele>699.9</ele>
        <time>2012-09-15T16:27:42.000Z</time>
      </trkpt>
      <trkpt lat="43.88371" lon="7.21493">
        <ele>698.5</ele>
        <time>2012-09-15T16:27:48.000Z</time>
      </trkpt>
      <trkpt lat="43.88373" lon="7.21501">
        <ele>696</ele>
        <time>2012-09-15T16:27:52.000Z</time>
      </trkpt>
      <trkpt lat="43.88376" lon="7.2151">
        <ele>693.3</ele>
        <time>2012-09-15T16:27:56.000Z</time>
      </trkpt>
      <trkpt lat="43.88377" lon="7.21516">
        <ele>692</ele>
        <time>2012-09-15T16:28:08.000Z</time>
      </trkpt>
      <trkpt lat="43.88378" lon="7.21523">
        <ele>688.7</ele>
        <time>2012-09-15T16:28:23.000Z</time>
      </trkpt>
      <trkpt lat="43.88381" lon="7.21528">
        <ele>687.4</ele>
        <time>2012-09-15T16:28:25.000Z</time>
      </trkpt>
      <trkpt lat="43.88386" lon="7.21537">
        <ele>685.1</ele>
        <time>2012-09-15T16:28:27.000Z</time>
      </trkpt>
      <trkpt lat="43.88392" lon="7.21545">
        <ele>685.1</ele>
        <time>2012-09-15T16:28:29.000Z</time>
      </trkpt>
      <trkpt lat="43.88399" lon="7.21554">
        <ele>682.4</ele>
        <time>2012-09-15T16:28:31.000Z</time>
      </trkpt>
      <trkpt lat="43.88406" lon="7.21564">
        <ele>679.6</ele>
        <time>2012-09-15T16:28:33.000Z</time>
      </trkpt>
      <trkpt lat="43.8841" lon="7.21569">
        <ele>679.6</ele>
        <time>2012-09-15T16:28:34.000Z</time>
      </trkpt>
      <trkpt lat="43.88414" lon="7.21576">
        <ele>678.3</ele>
        <time>2012-09-15T16:28:36.000Z</time>
      </trkpt>
      <trkpt lat="43.88416" lon="7.21582">
        <ele>678.4</ele>
        <time>2012-09-15T16:28:37.000Z</time>
      </trkpt>
      <trkpt lat="43.88423" lon="7.2159">
        <ele>676.3</ele>
        <time>2012-09-15T16:28:39.000Z</time>
      </trkpt>
      <trkpt lat="43.88427" lon="7.21594">
        <ele>675.8</ele>
        <time>2012-09-15T16:28:40.000Z</time>
      </trkpt>
      <trkpt lat="43.88433" lon="7.21601">
        <ele>675.5</ele>
        <time>2012-09-15T16:28:41.000Z</time>
      </trkpt>
      <trkpt lat="43.88437" lon="7.21606">
        <ele>675.4</ele>
        <time>2012-09-15T16:28:42.000Z</time>
      </trkpt>
      <trkpt lat="43.88444" lon="7.21613">
        <ele>672.6</ele>
        <time>2012-09-15T16:28:45.000Z</time>
      </trkpt>
      <trkpt lat="43.88449" lon="7.2162">
        <ele>671.6</ele>
        <time>2012-09-15T16:28:47.000Z</time>
      </trkpt>
      <trkpt lat="43.88454" lon="7.21628">
        <ele>668.7</ele>
        <time>2012-09-15T16:28:49.000Z</time>
      </trkpt>
      <trkpt lat="43.88459" lon="7.21635">
        <ele>667.4</ele>
        <time>2012-09-15T16:28:51.000Z</time>
      </trkpt>
      <trkpt lat="43.88464" lon="7.21642">
        <ele>665.8</ele>
        <time>2012-09-15T16:28:53.000Z</time>
      </trkpt>
      <trkpt lat="43.8847" lon="7.21647">
        <ele>667.2</ele>
        <time>2012-09-15T16:28:55.000Z</time>
      </trkpt>
      <trkpt lat="43.88475" lon="7.21653">
        <ele>668</ele>
        <time>2012-09-15T16:28:57.000Z</time>
      </trkpt>
      <trkpt lat="43.88479" lon="7.21661">
        <ele>668.1</ele>
        <time>2012-09-15T16:28:59.000Z</time>
      </trkpt>
      <trkpt lat="43.8848" lon="7.2167">
        <ele>670</ele>
        <time>2012-09-15T16:29:01.000Z</time>
      </trkpt>
      <trkpt lat="43.88481" lon="7.21678">
        <ele>672.8</ele>
        <time>2012-09-15T16:29:03.000Z</time>
      </trkpt>
      <trkpt lat="43.88482" lon="7.21688">
        <ele>672.4</ele>
        <time>2012-09-15T16:29:05.000Z</time>
      </trkpt>
      <trkpt lat="43.88486" lon="7.21695">
        <ele>668.5</ele>
        <time>2012-09-15T16:29:07.000Z</time>
      </trkpt>
      <trkpt lat="43.88489" lon="7.21702">
        <ele>667.9</ele>
        <time>2012-09-15T16:29:09.000Z</time>
      </trkpt>
      <trkpt lat="43.88492" lon="7.21708">
        <ele>668.2</ele>
        <time>2012-09-15T16:29:10.000Z</time>
      </trkpt>
      <trkpt lat="43.88495" lon="7.2172">
        <ele>668.4</ele>
        <time>2012-09-15T16:29:12.000Z</time>
      </trkpt>
      <trkpt lat="43.88492" lon="7.21727">
        <ele>669</ele>
        <time>2012-09-15T16:29:13.000Z</time>
      </trkpt>
      <trkpt lat="43.88492" lon="7.21734">
        <ele>669</ele>
        <time>2012-09-15T16:29:14.000Z</time>
      </trkpt>
      <trkpt lat="43.88492" lon="7.21747">
        <ele>668.9</ele>
        <time>2012-09-15T16:29:16.000Z</time>
      </trkpt>
      <trkpt lat="43.88491" lon="7.2176">
        <ele>670.9</ele>
        <time>2012-09-15T16:29:18.000Z</time>
      </trkpt>
      <trkpt lat="43.8849" lon="7.21767">
        <ele>671.1</ele>
        <time>2012-09-15T16:29:19.000Z</time>
      </trkpt>
      <trkpt lat="43.88488" lon="7.21774">
        <ele>672.7</ele>
        <time>2012-09-15T16:29:21.000Z</time>
      </trkpt>
      <trkpt lat="43.88485" lon="7.21779">
        <ele>670.7</ele>
        <time>2012-09-15T16:29:23.000Z</time>
      </trkpt>
      <trkpt lat="43.88481" lon="7.21785">
        <ele>670.4</ele>
        <time>2012-09-15T16:29:26.000Z</time>
      </trkpt>
      <trkpt lat="43.88478" lon="7.21791">
        <ele>669.7</ele>
        <time>2012-09-15T16:29:31.000Z</time>
      </trkpt>
      <trkpt lat="43.88476" lon="7.21796">
        <ele>669.2</ele>
        <time>2012-09-15T16:29:59.000Z</time>
      </trkpt>
      <trkpt lat="43.88473" lon="7.21802">
        <ele>669.9</ele>
        <time>2012-09-15T16:30:03.000Z</time>
      </trkpt>
      <trkpt lat="43.8847" lon="7.21809">
        <ele>672.8</ele>
        <time>2012-09-15T16:30:07.000Z</time>
      </trkpt>
      <trkpt lat="43.88469" lon="7.21817">
        <ele>670.9</ele>
        <time>2012-09-15T16:30:11.000Z</time>
      </trkpt>
      <trkpt lat="43.88468" lon="7.21826">
        <ele>671.3</ele>
        <time>2012-09-15T16:30:14.000Z</time>
      </trkpt>
      <trkpt lat="43.88468" lon="7.21832">
        <ele>672.8</ele>
        <time>2012-09-15T16:30:18.000Z</time>
      </trkpt>
      <trkpt lat="43.88468" lon="7.21839">
        <ele>673.1</ele>
        <time>2012-09-15T16:30:26.000Z</time>
      </trkpt>
      <trkpt lat="43.88466" lon="7.21846">
        <ele>672.1</ele>
        <time>2012-09-15T16:30:29.000Z</time>
      </trkpt>
      <trkpt lat="43.88465" lon="7.21854">
        <ele>671.8</ele>
        <time>2012-09-15T16:30:31.000Z</time>
      </trkpt>
      <trkpt lat="43.88464" lon="7.21862">
        <ele>671.6</ele>
        <time>2012-09-15T16:30:34.000Z</time>
      </trkpt>
      <trkpt lat="43.88462" lon="7.21868">
        <ele>671.4</ele>
        <time>2012-09-15T16:30:36.000Z</time>
      </trkpt>
      <trkpt lat="43.8846" lon="7.21874">
        <ele>671.2</ele>
        <time>2012-09-15T16:30:38.000Z</time>
      </trkpt>
      <trkpt lat="43.88458" lon="7.21883">
        <ele>673.1</ele>
        <time>2012-09-15T16:30:41.000Z</time>
      </trkpt>
      <trkpt lat="43.88456" lon="7.21895">
        <ele>673.2</ele>
        <time>2012-09-15T16:30:45.000Z</time>
      </trkpt>
      <trkpt lat="43.88457" lon="7.21901">
        <ele>673.4</ele>
        <time>2012-09-15T16:30:47.000Z</time>
      </trkpt>
      <trkpt lat="43.88456" lon="7.2191">
        <ele>673.8</ele>
        <time>2012-09-15T16:30:50.000Z</time>
      </trkpt>
      <trkpt lat="43.88458" lon="7.21918">
        <ele>674</ele>
        <time>2012-09-15T16:30:52.000Z</time>
      </trkpt>
      <trkpt lat="43.88459" lon="7.21926">
        <ele>670.9</ele>
        <time>2012-09-15T16:30:53.000Z</time>
      </trkpt>
      <trkpt lat="43.88457" lon="7.21932">
        <ele>669.8</ele>
        <time>2012-09-15T16:30:54.000Z</time>
      </trkpt>
      <trkpt lat="43.88457" lon="7.2194">
        <ele>670.1</ele>
        <time>2012-09-15T16:30:57.000Z</time>
      </trkpt>
      <trkpt lat="43.88457" lon="7.21947">
        <ele>671</ele>
        <time>2012-09-15T16:31:00.000Z</time>
      </trkpt>
      <trkpt lat="43.88458" lon="7.21954">
        <ele>674.5</ele>
        <time>2012-09-15T16:31:04.000Z</time>
      </trkpt>
      <trkpt lat="43.88459" lon="7.21961">
        <ele>676.7</ele>
        <time>2012-09-15T16:31:11.000Z</time>
      </trkpt>
      <trkpt lat="43.88459" lon="7.21967">
        <ele>678.5</ele>
        <time>2012-09-15T16:31:17.000Z</time>
      </trkpt>
      <trkpt lat="43.88462" lon="7.21972">
        <ele>679.9</ele>
        <time>2012-09-15T16:31:23.000Z</time>
      </trkpt>
      <trkpt lat="43.88464" lon="7.21978">
        <ele>682</ele>
        <time>2012-09-15T16:31:30.000Z</time>
      </trkpt>
      <trkpt lat="43.88466" lon="7.21984">
        <ele>686.1</ele>
        <time>2012-09-15T16:31:38.000Z</time>
      </trkpt>
      <trkpt lat="43.88468" lon="7.21991">
        <ele>684.6</ele>
        <time>2012-09-15T16:31:42.000Z</time>
      </trkpt>
      <trkpt lat="43.88468" lon="7.21997">
        <ele>685.6</ele>
        <time>2012-09-15T16:31:52.000Z</time>
      </trkpt>
      <trkpt lat="43.88471" lon="7.22002">
        <ele>688.9</ele>
        <time>2012-09-15T16:32:00.000Z</time>
      </trkpt>
      <trkpt lat="43.88473" lon="7.22008">
        <ele>690.5</ele>
        <time>2012-09-15T16:32:11.000Z</time>
      </trkpt>
      <trkpt lat="43.88478" lon="7.2201">
        <ele>690.3</ele>
        <time>2012-09-15T16:32:17.000Z</time>
      </trkpt>
      <trkpt lat="43.88482" lon="7.22014">
        <ele>689.9</ele>
        <time>2012-09-15T16:32:24.000Z</time>
      </trkpt>
      <trkpt lat="43.88486" lon="7.22016">
        <ele>689.6</ele>
        <time>2012-09-15T16:32:35.000Z</time>
      </trkpt>
      <trkpt lat="43.8849" lon="7.22018">
        <ele>688.7</ele>
        <time>2012-09-15T16:32:50.000Z</time>
      </trkpt>
      <trkpt lat="43.88494" lon="7.22022">
        <ele>689.9</ele>
        <time>2012-09-15T16:33:01.000Z</time>
      </trkpt>
      <trkpt lat="43.88497" lon="7.22027">
        <ele>689.7</ele>
        <time>2012-09-15T16:33:12.000Z</time>
      </trkpt>
      <trkpt lat="43.88499" lon="7.22032">
        <ele>692.8</ele>
        <time>2012-09-15T16:33:19.000Z</time>
      </trkpt>
      <trkpt lat="43.88501" lon="7.22039">
        <ele>694.2</ele>
        <time>2012-09-15T16:33:27.000Z</time>
      </trkpt>
      <trkpt lat="43.88503" lon="7.22044">
        <ele>696.1</ele>
        <time>2012-09-15T16:33:34.000Z</time>
      </trkpt>
      <trkpt lat="43.88504" lon="7.22051">
        <ele>696.5</ele>
        <time>2012-09-15T16:33:40.000Z</time>
      </trkpt>
      <trkpt lat="43.88508" lon="7.22055">
        <ele>697.4</ele>
        <time>2012-09-15T16:33:50.000Z</time>
      </trkpt>
      <trkpt lat="43.88511" lon="7.2206">
        <ele>696.9</ele>
        <time>2012-09-15T16:33:58.000Z</time>
      </trkpt>
      <trkpt lat="43.88513" lon="7.22065">
        <ele>695.4</ele>
        <time>2012-09-15T16:34:06.000Z</time>
      </trkpt>
      <trkpt lat="43.88516" lon="7.2207">
        <ele>696.6</ele>
        <time>2012-09-15T16:34:12.000Z</time>
      </trkpt>
      <trkpt lat="43.88519" lon="7.22076">
        <ele>698.7</ele>
        <time>2012-09-15T16:34:18.000Z</time>
      </trkpt>
      <trkpt lat="43.88522" lon="7.22079">
        <ele>700.8</ele>
        <time>2012-09-15T16:34:25.000Z</time>
      </trkpt>
      <trkpt lat="43.88527" lon="7.22081">
        <ele>704.1</ele>
        <time>2012-09-15T16:34:33.000Z</time>
      </trkpt>
      <trkpt lat="43.8853" lon="7.22087">
        <ele>705.2</ele>
        <time>2012-09-15T16:34:44.000Z</time>
      </trkpt>
      <trkpt lat="43.88532" lon="7.22094">
        <ele>706.1</ele>
        <time>2012-09-15T16:34:52.000Z</time>
      </trkpt>
      <trkpt lat="43.88534" lon="7.22099">
        <ele>707.7</ele>
        <time>2012-09-15T16:35:00.000Z</time>
      </trkpt>
      <trkpt lat="43.88537" lon="7.22106">
        <ele>707.6</ele>
        <time>2012-09-15T16:35:48.000Z</time>
      </trkpt>
      <trkpt lat="43.8854" lon="7.22113">
        <ele>705.8</ele>
        <time>2012-09-15T16:35:51.000Z</time>
      </trkpt>
      <trkpt lat="43.88544" lon="7.22119">
        <ele>705</ele>
        <time>2012-09-15T16:35:55.000Z</time>
      </trkpt>
      <trkpt lat="43.88547" lon="7.22123">
        <ele>705.9</ele>
        <time>2012-09-15T16:35:58.000Z</time>
      </trkpt>
      <trkpt lat="43.88552" lon="7.22128">
        <ele>706.8</ele>
        <time>2012-09-15T16:36:01.000Z</time>
      </trkpt>
      <trkpt lat="43.88556" lon="7.22132">
        <ele>706.5</ele>
        <time>2012-09-15T16:36:04.000Z</time>
      </trkpt>
      <trkpt lat="43.8856" lon="7.22137">
        <ele>706.3</ele>
        <time>2012-09-15T16:36:07.000Z</time>
      </trkpt>
      <trkpt lat="43.88564" lon="7.22142">
        <ele>707.4</ele>
        <time>2012-09-15T16:36:10.000Z</time>
      </trkpt>
      <trkpt lat="43.88569" lon="7.22142">
        <ele>706.8</ele>
        <time>2012-09-15T16:36:13.000Z</time>
      </trkpt>
      <trkpt lat="43.88573" lon="7.22144">
        <ele>707.9</ele>
        <time>2012-09-15T16:36:16.000Z</time>
      </trkpt>
      <trkpt lat="43.88578" lon="7.22147">
        <ele>709.7</ele>
        <time>2012-09-15T16:36:19.000Z</time>
      </trkpt>
      <trkpt lat="43.88583" lon="7.22149">
        <ele>710.1</ele>
        <time>2012-09-15T16:36:23.000Z</time>
      </trkpt>
      <trkpt lat="43.88587" lon="7.22152">
        <ele>710.5</ele>
        <time>2012-09-15T16:36:26.000Z</time>
      </trkpt>
      <trkpt lat="43.88591" lon="7.22157">
        <ele>710.1</ele>
        <time>2012-09-15T16:36:29.000Z</time>
      </trkpt>
      <trkpt lat="43.88593" lon="7.22163">
        <ele>710.2</ele>
        <time>2012-09-15T16:36:31.000Z</time>
      </trkpt>
      <trkpt lat="43.88596" lon="7.2217">
        <ele>709.3</ele>
        <time>2012-09-15T16:36:34.000Z</time>
      </trkpt>
      <trkpt lat="43.886" lon="7.22174">
        <ele>709.6</ele>
        <time>2012-09-15T16:36:38.000Z</time>
      </trkpt>
      <trkpt lat="43.88605" lon="7.22179">
        <ele>707.2</ele>
        <time>2012-09-15T16:36:42.000Z</time>
      </trkpt>
      <trkpt lat="43.88607" lon="7.22185">
        <ele>706.9</ele>
        <time>2012-09-15T16:36:47.000Z</time>
      </trkpt>
      <trkpt lat="43.8861" lon="7.22192">
        <ele>709.6</ele>
        <time>2012-09-15T16:36:49.000Z</time>
      </trkpt>
      <trkpt lat="43.88615" lon="7.22196">
        <ele>710.7</ele>
        <time>2012-09-15T16:36:53.000Z</time>
      </trkpt>
      <trkpt lat="43.8862" lon="7.22196">
        <ele>712.9</ele>
        <time>2012-09-15T16:36:57.000Z</time>
      </trkpt>
      <trkpt lat="43.88624" lon="7.22202">
        <ele>713.1</ele>
        <time>2012-09-15T16:37:01.000Z</time>
      </trkpt>
      <trkpt lat="43.88627" lon="7.22206">
        <ele>714.6</ele>
        <time>2012-09-15T16:37:08.000Z</time>
      </trkpt>
      <trkpt lat="43.8863" lon="7.22211">
        <ele>713.5</ele>
        <time>2012-09-15T16:37:42.000Z</time>
      </trkpt>
      <trkpt lat="43.88636" lon="7.22212">
        <ele>713.1</ele>
        <time>2012-09-15T16:37:44.000Z</time>
      </trkpt>
      <trkpt lat="43.88642" lon="7.22214">
        <ele>714</ele>
        <time>2012-09-15T16:37:46.000Z</time>
      </trkpt>
      <trkpt lat="43.88648" lon="7.22216">
        <ele>714.2</ele>
        <time>2012-09-15T16:37:48.000Z</time>
      </trkpt>
      <trkpt lat="43.88651" lon="7.22223">
        <ele>713.5</ele>
        <time>2012-09-15T16:37:51.000Z</time>
      </trkpt>
      <trkpt lat="43.88655" lon="7.22228">
        <ele>714.3</ele>
        <time>2012-09-15T16:37:54.000Z</time>
      </trkpt>
      <trkpt lat="43.88659" lon="7.2223">
        <ele>718.7</ele>
        <time>2012-09-15T16:37:57.000Z</time>
      </trkpt>
      <trkpt lat="43.88664" lon="7.22234">
        <ele>720</ele>
        <time>2012-09-15T16:38:22.000Z</time>
      </trkpt>
      <trkpt lat="43.88668" lon="7.22235">
        <ele>718.2</ele>
        <time>2012-09-15T16:38:27.000Z</time>
      </trkpt>
      <trkpt lat="43.88672" lon="7.22238">
        <ele>716.8</ele>
        <time>2012-09-15T16:38:34.000Z</time>
      </trkpt>
      <trkpt lat="43.88677" lon="7.22238">
        <ele>716</ele>
        <time>2012-09-15T16:38:38.000Z</time>
      </trkpt>
      <trkpt lat="43.88682" lon="7.22239">
        <ele>714.4</ele>
        <time>2012-09-15T16:38:43.000Z</time>
      </trkpt>
      <trkpt lat="43.88687" lon="7.22241">
        <ele>712.7</ele>
        <time>2012-09-15T16:38:50.000Z</time>
      </trkpt>
      <trkpt lat="43.88691" lon="7.22244">
        <ele>713.3</ele>
        <time>2012-09-15T16:38:55.000Z</time>
      </trkpt>
      <trkpt lat="43.88695" lon="7.22246">
        <ele>713.2</ele>
        <time>2012-09-15T16:39:11.000Z</time>
      </trkpt>
      <trkpt lat="43.88698" lon="7.22252">
        <ele>710.6</ele>
        <time>2012-09-15T16:39:20.000Z</time>
      </trkpt>
      <trkpt lat="43.88698" lon="7.22259">
        <ele>711.3</ele>
        <time>2012-09-15T16:39:24.000Z</time>
      </trkpt>
      <trkpt lat="43.88699" lon="7.22266">
        <ele>711.4</ele>
        <time>2012-09-15T16:39:26.000Z</time>
      </trkpt>
      <trkpt lat="43.88702" lon="7.22273">
        <ele>711.6</ele>
        <time>2012-09-15T16:39:28.000Z</time>
      </trkpt>
      <trkpt lat="43.88703" lon="7.2228">
        <ele>710.8</ele>
        <time>2012-09-15T16:39:30.000Z</time>
      </trkpt>
      <trkpt lat="43.88706" lon="7.22285">
        <ele>709.2</ele>
        <time>2012-09-15T16:39:34.000Z</time>
      </trkpt>
      <trkpt lat="43.88705" lon="7.22292">
        <ele>708.5</ele>
        <time>2012-09-15T16:39:43.000Z</time>
      </trkpt>
      <trkpt lat="43.88705" lon="7.22299">
        <ele>708.9</ele>
        <time>2012-09-15T16:39:46.000Z</time>
      </trkpt>
      <trkpt lat="43.88707" lon="7.22307">
        <ele>708.1</ele>
        <time>2012-09-15T16:39:48.000Z</time>
      </trkpt>
      <trkpt lat="43.88712" lon="7.22311">
        <ele>708.8</ele>
        <time>2012-09-15T16:39:50.000Z</time>
      </trkpt>
      <trkpt lat="43.88719" lon="7.22315">
        <ele>709.9</ele>
        <time>2012-09-15T16:39:52.000Z</time>
      </trkpt>
      <trkpt lat="43.88724" lon="7.22318">
        <ele>711</ele>
        <time>2012-09-15T16:39:54.000Z</time>
      </trkpt>
      <trkpt lat="43.88723" lon="7.22325">
        <ele>710.4</ele>
        <time>2012-09-15T16:39:56.000Z</time>
      </trkpt>
      <trkpt lat="43.88722" lon="7.22332">
        <ele>709.7</ele>
        <time>2012-09-15T16:39:59.000Z</time>
      </trkpt>
      <trkpt lat="43.88718" lon="7.22338">
        <ele>710.9</ele>
        <time>2012-09-15T16:40:02.000Z</time>
      </trkpt>
      <trkpt lat="43.88714" lon="7.22342">
        <ele>711.3</ele>
        <time>2012-09-15T16:40:04.000Z</time>
      </trkpt>
      <trkpt lat="43.88712" lon="7.22348">
        <ele>711</ele>
        <time>2012-09-15T16:40:06.000Z</time>
      </trkpt>
      <trkpt lat="43.8871" lon="7.22357">
        <ele>709.2</ele>
        <time>2012-09-15T16:40:09.000Z</time>
      </trkpt>
      <trkpt lat="43.88708" lon="7.22365">
        <ele>706</ele>
        <time>2012-09-15T16:40:12.000Z</time>
      </trkpt>
      <trkpt lat="43.88705" lon="7.22369">
        <ele>706.1</ele>
        <time>2012-09-15T16:40:14.000Z</time>
      </trkpt>
      <trkpt lat="43.88704" lon="7.22363">
        <ele>705.8</ele>
        <time>2012-09-15T16:40:17.000Z</time>
      </trkpt>
      <trkpt lat="43.88702" lon="7.22356">
        <ele>702.7</ele>
        <time>2012-09-15T16:40:34.000Z</time>
      </trkpt>
      <trkpt lat="43.88699" lon="7.22362">
        <ele>700.3</ele>
        <time>2012-09-15T16:40:52.000Z</time>
      </trkpt>
      <trkpt lat="43.88696" lon="7.22369">
        <ele>699.9</ele>
        <time>2012-09-15T16:40:55.000Z</time>
      </trkpt>
      <trkpt lat="43.88696" lon="7.22377">
        <ele>697</ele>
        <time>2012-09-15T16:40:58.000Z</time>
      </trkpt>
      <trkpt lat="43.88697" lon="7.22385">
        <ele>694.7</ele>
        <time>2012-09-15T16:41:01.000Z</time>
      </trkpt>
      <trkpt lat="43.88698" lon="7.22392">
        <ele>692.6</ele>
        <time>2012-09-15T16:41:04.000Z</time>
      </trkpt>
      <trkpt lat="43.88699" lon="7.22401">
        <ele>692.9</ele>
        <time>2012-09-15T16:41:07.000Z</time>
      </trkpt>
      <trkpt lat="43.88701" lon="7.22408">
        <ele>692.5</ele>
        <time>2012-09-15T16:41:09.000Z</time>
      </trkpt>
      <trkpt lat="43.88702" lon="7.22416">
        <ele>691.6</ele>
        <time>2012-09-15T16:41:11.000Z</time>
      </trkpt>
      <trkpt lat="43.88704" lon="7.22423">
        <ele>688.4</ele>
        <time>2012-09-15T16:41:15.000Z</time>
      </trkpt>
      <trkpt lat="43.88703" lon="7.22432">
        <ele>689.1</ele>
        <time>2012-09-15T16:41:18.000Z</time>
      </trkpt>
      <trkpt lat="43.88707" lon="7.22438">
        <ele>687</ele>
        <time>2012-09-15T16:41:20.000Z</time>
      </trkpt>
      <trkpt lat="43.88708" lon="7.22447">
        <ele>685</ele>
        <time>2012-09-15T16:41:23.000Z</time>
      </trkpt>
      <trkpt lat="43.88705" lon="7.22454">
        <ele>686.3</ele>
        <time>2012-09-15T16:41:25.000Z</time>
      </trkpt>
      <trkpt lat="43.88704" lon="7.22462">
        <ele>686.5</ele>
        <time>2012-09-15T16:41:27.000Z</time>
      </trkpt>
      <trkpt lat="43.88707" lon="7.22466">
        <ele>682.6</ele>
        <time>2012-09-15T16:41:29.000Z</time>
      </trkpt>
      <trkpt lat="43.88707" lon="7.22475">
        <ele>683.2</ele>
        <time>2012-09-15T16:41:32.000Z</time>
      </trkpt>
      <trkpt lat="43.88711" lon="7.22481">
        <ele>681.4</ele>
        <time>2012-09-15T16:41:34.000Z</time>
      </trkpt>
      <trkpt lat="43.88713" lon="7.22486">
        <ele>680.2</ele>
        <time>2012-09-15T16:41:36.000Z</time>
      </trkpt>
      <trkpt lat="43.88713" lon="7.22493">
        <ele>678.6</ele>
        <time>2012-09-15T16:41:38.000Z</time>
      </trkpt>
      <trkpt lat="43.88713" lon="7.22502">
        <ele>677</ele>
        <time>2012-09-15T16:41:41.000Z</time>
      </trkpt>
      <trkpt lat="43.88712" lon="7.22509">
        <ele>677.7</ele>
        <time>2012-09-15T16:41:44.000Z</time>
      </trkpt>
      <trkpt lat="43.88712" lon="7.22515">
        <ele>676.5</ele>
        <time>2012-09-15T16:41:47.000Z</time>
      </trkpt>
      <trkpt lat="43.88713" lon="7.22522">
        <ele>676.8</ele>
        <time>2012-09-15T16:41:51.000Z</time>
      </trkpt>
      <trkpt lat="43.88713" lon="7.22528">
        <ele>676.9</ele>
        <time>2012-09-15T16:42:02.000Z</time>
      </trkpt>
      <trkpt lat="43.88712" lon="7.22536">
        <ele>675.9</ele>
        <time>2012-09-15T16:42:11.000Z</time>
      </trkpt>
      <trkpt lat="43.88709" lon="7.22543">
        <ele>674.3</ele>
        <time>2012-09-15T16:42:14.000Z</time>
      </trkpt>
      <trkpt lat="43.8871" lon="7.2255">
        <ele>669.9</ele>
        <time>2012-09-15T16:42:18.000Z</time>
      </trkpt>
      <trkpt lat="43.88708" lon="7.22557">
        <ele>670.2</ele>
        <time>2012-09-15T16:42:21.000Z</time>
      </trkpt>
      <trkpt lat="43.88708" lon="7.22564">
        <ele>669.7</ele>
        <time>2012-09-15T16:42:23.000Z</time>
      </trkpt>
      <trkpt lat="43.8871" lon="7.2257">
        <ele>667.5</ele>
        <time>2012-09-15T16:42:25.000Z</time>
      </trkpt>
      <trkpt lat="43.88712" lon="7.22576">
        <ele>666</ele>
        <time>2012-09-15T16:42:27.000Z</time>
      </trkpt>
      <trkpt lat="43.88716" lon="7.2258">
        <ele>664.2</ele>
        <time>2012-09-15T16:42:29.000Z</time>
      </trkpt>
      <trkpt lat="43.8872" lon="7.22584">
        <ele>663.2</ele>
        <time>2012-09-15T16:42:32.000Z</time>
      </trkpt>
      <trkpt lat="43.88724" lon="7.22587">
        <ele>662.2</ele>
        <time>2012-09-15T16:42:35.000Z</time>
      </trkpt>
      <trkpt lat="43.88728" lon="7.22591">
        <ele>659.3</ele>
        <time>2012-09-15T16:42:37.000Z</time>
      </trkpt>
      <trkpt lat="43.88728" lon="7.22598">
        <ele>656.6</ele>
        <time>2012-09-15T16:42:41.000Z</time>
      </trkpt>
      <trkpt lat="43.88731" lon="7.22603">
        <ele>656</ele>
        <time>2012-09-15T16:42:44.000Z</time>
      </trkpt>
      <trkpt lat="43.88734" lon="7.22609">
        <ele>655.8</ele>
        <time>2012-09-15T16:42:48.000Z</time>
      </trkpt>
      <trkpt lat="43.88733" lon="7.22616">
        <ele>656.6</ele>
        <time>2012-09-15T16:43:07.000Z</time>
      </trkpt>
      <trkpt lat="43.88729" lon="7.22615">
        <ele>657.4</ele>
        <time>2012-09-15T16:43:14.000Z</time>
      </trkpt>
      <trkpt lat="43.88732" lon="7.22621">
        <ele>652.5</ele>
        <time>2012-09-15T16:43:24.000Z</time>
      </trkpt>
      <trkpt lat="43.88732" lon="7.22628">
        <ele>650.7</ele>
        <time>2012-09-15T16:43:34.000Z</time>
      </trkpt>
      <trkpt lat="43.88728" lon="7.22634">
        <ele>650.4</ele>
        <time>2012-09-15T16:43:46.000Z</time>
      </trkpt>
      <trkpt lat="43.88723" lon="7.22632">
        <ele>651.3</ele>
        <time>2012-09-15T16:43:51.000Z</time>
      </trkpt>
      <trkpt lat="43.88718" lon="7.22634">
        <ele>647.8</ele>
        <time>2012-09-15T16:44:05.000Z</time>
      </trkpt>
      <trkpt lat="43.8872" lon="7.22642">
        <ele>645.8</ele>
        <time>2012-09-15T16:44:08.000Z</time>
      </trkpt>
      <trkpt lat="43.88722" lon="7.2265">
        <ele>643.5</ele>
        <time>2012-09-15T16:44:11.000Z</time>
      </trkpt>
      <trkpt lat="43.88718" lon="7.22657">
        <ele>642.7</ele>
        <time>2012-09-15T16:44:14.000Z</time>
      </trkpt>
      <trkpt lat="43.88718" lon="7.22665">
        <ele>641.9</ele>
        <time>2012-09-15T16:44:17.000Z</time>
      </trkpt>
      <trkpt lat="43.88714" lon="7.22671">
        <ele>641.6</ele>
        <time>2012-09-15T16:44:21.000Z</time>
      </trkpt>
      <trkpt lat="43.88713" lon="7.2268">
        <ele>638.7</ele>
        <time>2012-09-15T16:44:24.000Z</time>
      </trkpt>
      <trkpt lat="43.88713" lon="7.22689">
        <ele>637.2</ele>
        <time>2012-09-15T16:44:28.000Z</time>
      </trkpt>
      <trkpt lat="43.88715" lon="7.22698">
        <ele>635.5</ele>
        <time>2012-09-15T16:44:31.000Z</time>
      </trkpt>
      <trkpt lat="43.88716" lon="7.22707">
        <ele>633</ele>
        <time>2012-09-15T16:44:34.000Z</time>
      </trkpt>
      <trkpt lat="43.88719" lon="7.22715">
        <ele>632.9</ele>
        <time>2012-09-15T16:45:00.000Z</time>
      </trkpt>
      <trkpt lat="43.88719" lon="7.22722">
        <ele>632</ele>
        <time>2012-09-15T16:45:02.000Z</time>
      </trkpt>
      <trkpt lat="43.88717" lon="7.22728">
        <ele>632</ele>
        <time>2012-09-15T16:45:04.000Z</time>
      </trkpt>
      <trkpt lat="43.88716" lon="7.22734">
        <ele>632</ele>
        <time>2012-09-15T16:45:06.000Z</time>
      </trkpt>
      <trkpt lat="43.88718" lon="7.2274">
        <ele>630.8</ele>
        <time>2012-09-15T16:45:09.000Z</time>
      </trkpt>
      <trkpt lat="43.88717" lon="7.22747">
        <ele>629</ele>
        <time>2012-09-15T16:45:12.000Z</time>
      </trkpt>
      <trkpt lat="43.88716" lon="7.22754">
        <ele>629.2</ele>
        <time>2012-09-15T16:45:15.000Z</time>
      </trkpt>
      <trkpt lat="43.88714" lon="7.22762">
        <ele>622.9</ele>
        <time>2012-09-15T16:45:18.000Z</time>
      </trkpt>
      <trkpt lat="43.8871" lon="7.22766">
        <ele>623.1</ele>
        <time>2012-09-15T16:45:23.000Z</time>
      </trkpt>
      <trkpt lat="43.88706" lon="7.22768">
        <ele>620.4</ele>
        <time>2012-09-15T16:45:57.000Z</time>
      </trkpt>
      <trkpt lat="43.88703" lon="7.22774">
        <ele>622.7</ele>
        <time>2012-09-15T16:46:11.000Z</time>
      </trkpt>
      <trkpt lat="43.88702" lon="7.2278">
        <ele>622.6</ele>
        <time>2012-09-15T16:46:34.000Z</time>
      </trkpt>
      <trkpt lat="43.88699" lon="7.22785">
        <ele>622.8</ele>
        <time>2012-09-15T16:46:51.000Z</time>
      </trkpt>
      <trkpt lat="43.88698" lon="7.22778">
        <ele>614.9</ele>
        <time>2012-09-15T16:47:09.000Z</time>
      </trkpt>
      <trkpt lat="43.88699" lon="7.22771">
        <ele>612.8</ele>
        <time>2012-09-15T16:47:13.000Z</time>
      </trkpt>
      <trkpt lat="43.88694" lon="7.22775">
        <ele>616</ele>
        <time>2012-09-15T16:47:25.000Z</time>
      </trkpt>
      <trkpt lat="43.88691" lon="7.22781">
        <ele>616</ele>
        <time>2012-09-15T16:47:29.000Z</time>
      </trkpt>
      <trkpt lat="43.88687" lon="7.22784">
        <ele>615.6</ele>
        <time>2012-09-15T16:47:36.000Z</time>
      </trkpt>
      <trkpt lat="43.88683" lon="7.2278">
        <ele>613.6</ele>
        <time>2012-09-15T16:47:43.000Z</time>
      </trkpt>
      <trkpt lat="43.88681" lon="7.22774">
        <ele>612.5</ele>
        <time>2012-09-15T16:47:46.000Z</time>
      </trkpt>
      <trkpt lat="43.88677" lon="7.2277">
        <ele>611.9</ele>
        <time>2012-09-15T16:47:48.000Z</time>
      </trkpt>
      <trkpt lat="43.88676" lon="7.22763">
        <ele>609.6</ele>
        <time>2012-09-15T16:48:02.000Z</time>
      </trkpt>
      <trkpt lat="43.88672" lon="7.22757">
        <ele>607.3</ele>
        <time>2012-09-15T16:48:05.000Z</time>
      </trkpt>
      <trkpt lat="43.88669" lon="7.22751">
        <ele>605.7</ele>
        <time>2012-09-15T16:48:07.000Z</time>
      </trkpt>
      <trkpt lat="43.88666" lon="7.22746">
        <ele>605.4</ele>
        <time>2012-09-15T16:48:09.000Z</time>
      </trkpt>
      <trkpt lat="43.8866" lon="7.22742">
        <ele>603.6</ele>
        <time>2012-09-15T16:48:13.000Z</time>
      </trkpt>
      <trkpt lat="43.88654" lon="7.2274">
        <ele>602.9</ele>
        <time>2012-09-15T16:48:15.000Z</time>
      </trkpt>
      <trkpt lat="43.88648" lon="7.22743">
        <ele>602.7</ele>
        <time>2012-09-15T16:48:17.000Z</time>
      </trkpt>
      <trkpt lat="43.88642" lon="7.22747">
        <ele>602.6</ele>
        <time>2012-09-15T16:48:19.000Z</time>
      </trkpt>
      <trkpt lat="43.88635" lon="7.22751">
        <ele>601.8</ele>
        <time>2012-09-15T16:48:21.000Z</time>
      </trkpt>
      <trkpt lat="43.8863" lon="7.22755">
        <ele>601.9</ele>
        <time>2012-09-15T16:48:22.000Z</time>
      </trkpt>
      <trkpt lat="43.88624" lon="7.2276">
        <ele>601.9</ele>
        <time>2012-09-15T16:48:24.000Z</time>
      </trkpt>
      <trkpt lat="43.88618" lon="7.2276">
        <ele>602.8</ele>
        <time>2012-09-15T16:48:26.000Z</time>
      </trkpt>
      <trkpt lat="43.88614" lon="7.22765">
        <ele>599.7</ele>
        <time>2012-09-15T16:48:58.000Z</time>
      </trkpt>
      <trkpt lat="43.88611" lon="7.2277">
        <ele>597.7</ele>
        <time>2012-09-15T16:49:00.000Z</time>
      </trkpt>
      <trkpt lat="43.88606" lon="7.2278">
        <ele>596.5</ele>
        <time>2012-09-15T16:49:02.000Z</time>
      </trkpt>
      <trkpt lat="43.88601" lon="7.22788">
        <ele>594.6</ele>
        <time>2012-09-15T16:49:04.000Z</time>
      </trkpt>
      <trkpt lat="43.88597" lon="7.22793">
        <ele>593.2</ele>
        <time>2012-09-15T16:49:05.000Z</time>
      </trkpt>
      <trkpt lat="43.88594" lon="7.22798">
        <ele>594</ele>
        <time>2012-09-15T16:49:06.000Z</time>
      </trkpt>
      <trkpt lat="43.88591" lon="7.22804">
        <ele>592.5</ele>
        <time>2012-09-15T16:49:08.000Z</time>
      </trkpt>
      <trkpt lat="43.88586" lon="7.2281">
        <ele>591.6</ele>
        <time>2012-09-15T16:49:11.000Z</time>
      </trkpt>
      <trkpt lat="43.88583" lon="7.22814">
        <ele>592</ele>
        <time>2012-09-15T16:49:17.000Z</time>
      </trkpt>
      <trkpt lat="43.88577" lon="7.22818">
        <ele>590.6</ele>
        <time>2012-09-15T16:49:27.000Z</time>
      </trkpt>
      <trkpt lat="43.88571" lon="7.2282">
        <ele>590.6</ele>
        <time>2012-09-15T16:49:30.000Z</time>
      </trkpt>
      <trkpt lat="43.88567" lon="7.22825">
        <ele>589.1</ele>
        <time>2012-09-15T16:49:32.000Z</time>
      </trkpt>
      <trkpt lat="43.88563" lon="7.22828">
        <ele>590.2</ele>
        <time>2012-09-15T16:49:35.000Z</time>
      </trkpt>
      <trkpt lat="43.88562" lon="7.22822">
        <ele>589.4</ele>
        <time>2012-09-15T16:49:57.000Z</time>
      </trkpt>
      <trkpt lat="43.88567" lon="7.22815">
        <ele>589.3</ele>
        <time>2012-09-15T16:50:00.000Z</time>
      </trkpt>
      <trkpt lat="43.88574" lon="7.22814">
        <ele>589.6</ele>
        <time>2012-09-15T16:50:03.000Z</time>
      </trkpt>
      <trkpt lat="43.88578" lon="7.22811">
        <ele>591.5</ele>
        <time>2012-09-15T16:50:06.000Z</time>
      </trkpt>
      <trkpt lat="43.88581" lon="7.22804">
        <ele>590.2</ele>
        <time>2012-09-15T16:50:11.000Z</time>
      </trkpt>
      <trkpt lat="43.88583" lon="7.22798">
        <ele>589.1</ele>
        <time>2012-09-15T16:50:13.000Z</time>
      </trkpt>
      <trkpt lat="43.88587" lon="7.22792">
        <ele>589.8</ele>
        <time>2012-09-15T16:50:15.000Z</time>
      </trkpt>
      <trkpt lat="43.8859" lon="7.22786">
        <ele>589.4</ele>
        <time>2012-09-15T16:50:17.000Z</time>
      </trkpt>
      <trkpt lat="43.88592" lon="7.22779">
        <ele>589.8</ele>
        <time>2012-09-15T16:50:19.000Z</time>
      </trkpt>
      <trkpt lat="43.88595" lon="7.22773">
        <ele>590.9</ele>
        <time>2012-09-15T16:50:22.000Z</time>
      </trkpt>
      <trkpt lat="43.88593" lon="7.22782">
        <ele>590.3</ele>
        <time>2012-09-15T16:51:10.000Z</time>
      </trkpt>
      <trkpt lat="43.8859" lon="7.22788">
        <ele>589.9</ele>
        <time>2012-09-15T16:51:12.000Z</time>
      </trkpt>
      <trkpt lat="43.88585" lon="7.22794">
        <ele>589.1</ele>
        <time>2012-09-15T16:51:14.000Z</time>
      </trkpt>
      <trkpt lat="43.88581" lon="7.22802">
        <ele>590.1</ele>
        <time>2012-09-15T16:51:16.000Z</time>
      </trkpt>
      <trkpt lat="43.88581" lon="7.22808">
        <ele>595</ele>
        <time>2012-09-15T16:51:23.000Z</time>
      </trkpt>
      <trkpt lat="43.88584" lon="7.22814">
        <ele>592.8</ele>
        <time>2012-09-15T16:51:37.000Z</time>
      </trkpt>
      <trkpt lat="43.88587" lon="7.22819">
        <ele>590.3</ele>
        <time>2012-09-15T16:51:40.000Z</time>
      </trkpt>
      <trkpt lat="43.88592" lon="7.22824">
        <ele>587.8</ele>
        <time>2012-09-15T16:51:43.000Z</time>
      </trkpt>
      <trkpt lat="43.88597" lon="7.22825">
        <ele>585.3</ele>
        <time>2012-09-15T16:51:47.000Z</time>
      </trkpt>
      <trkpt lat="43.88602" lon="7.22823">
        <ele>583.1</ele>
        <time>2012-09-15T16:51:50.000Z</time>
      </trkpt>
      <trkpt lat="43.88605" lon="7.2283">
        <ele>580.6</ele>
        <time>2012-09-15T16:51:53.000Z</time>
      </trkpt>
      <trkpt lat="43.88601" lon="7.22836">
        <ele>579.4</ele>
        <time>2012-09-15T16:51:57.000Z</time>
      </trkpt>
      <trkpt lat="43.88605" lon="7.2284">
        <ele>579.7</ele>
        <time>2012-09-15T16:52:00.000Z</time>
      </trkpt>
      <trkpt lat="43.88611" lon="7.22838">
        <ele>577.3</ele>
        <time>2012-09-15T16:52:04.000Z</time>
      </trkpt>
      <trkpt lat="43.88613" lon="7.22845">
        <ele>577</ele>
        <time>2012-09-15T16:52:07.000Z</time>
      </trkpt>
      <trkpt lat="43.88618" lon="7.22852">
        <ele>575.9</ele>
        <time>2012-09-15T16:52:09.000Z</time>
      </trkpt>
      <trkpt lat="43.88616" lon="7.2286">
        <ele>572.4</ele>
        <time>2012-09-15T16:52:13.000Z</time>
      </trkpt>
      <trkpt lat="43.88616" lon="7.22868">
        <ele>567.3</ele>
        <time>2012-09-15T16:52:17.000Z</time>
      </trkpt>
      <trkpt lat="43.88617" lon="7.22876">
        <ele>575.7</ele>
        <time>2012-09-15T16:52:19.000Z</time>
      </trkpt>
      <trkpt lat="43.88622" lon="7.2288">
        <ele>576</ele>
        <time>2012-09-15T16:52:21.000Z</time>
      </trkpt>
      <trkpt lat="43.8862" lon="7.22886">
        <ele>574.1</ele>
        <time>2012-09-15T16:52:26.000Z</time>
      </trkpt>
      <trkpt lat="43.88626" lon="7.22891">
        <ele>568.4</ele>
        <time>2012-09-15T16:52:29.000Z</time>
      </trkpt>
      <trkpt lat="43.88629" lon="7.22897">
        <ele>567.7</ele>
        <time>2012-09-15T16:52:31.000Z</time>
      </trkpt>
      <trkpt lat="43.8863" lon="7.22904">
        <ele>563.3</ele>
        <time>2012-09-15T16:52:35.000Z</time>
      </trkpt>
      <trkpt lat="43.88628" lon="7.22912">
        <ele>562.1</ele>
        <time>2012-09-15T16:52:38.000Z</time>
      </trkpt>
      <trkpt lat="43.88626" lon="7.22919">
        <ele>562.2</ele>
        <time>2012-09-15T16:52:41.000Z</time>
      </trkpt>
      <trkpt lat="43.88623" lon="7.22926">
        <ele>559.5</ele>
        <time>2012-09-15T16:52:43.000Z</time>
      </trkpt>
      <trkpt lat="43.88617" lon="7.22934">
        <ele>560</ele>
        <time>2012-09-15T16:52:46.000Z</time>
      </trkpt>
      <trkpt lat="43.88619" lon="7.2294">
        <ele>555.3</ele>
        <time>2012-09-15T16:52:48.000Z</time>
      </trkpt>
      <trkpt lat="43.8862" lon="7.22948">
        <ele>551.8</ele>
        <time>2012-09-15T16:52:50.000Z</time>
      </trkpt>
      <trkpt lat="43.8862" lon="7.22955">
        <ele>551.8</ele>
        <time>2012-09-15T16:52:52.000Z</time>
      </trkpt>
      <trkpt lat="43.88623" lon="7.22963">
        <ele>552.1</ele>
        <time>2012-09-15T16:52:54.000Z</time>
      </trkpt>
      <trkpt lat="43.88626" lon="7.22969">
        <ele>550.9</ele>
        <time>2012-09-15T16:52:56.000Z</time>
      </trkpt>
      <trkpt lat="43.88627" lon="7.22976">
        <ele>546.7</ele>
        <time>2012-09-15T16:52:58.000Z</time>
      </trkpt>
      <trkpt lat="43.88627" lon="7.22982">
        <ele>544.4</ele>
        <time>2012-09-15T16:53:00.000Z</time>
      </trkpt>
      <trkpt lat="43.88624" lon="7.22992">
        <ele>545.2</ele>
        <time>2012-09-15T16:53:03.000Z</time>
      </trkpt>
      <trkpt lat="43.88624" lon="7.22998">
        <ele>544.5</ele>
        <time>2012-09-15T16:53:05.000Z</time>
      </trkpt>
      <trkpt lat="43.88623" lon="7.23005">
        <ele>545.2</ele>
        <time>2012-09-15T16:53:08.000Z</time>
      </trkpt>
      <trkpt lat="43.88624" lon="7.23013">
        <ele>542.2</ele>
        <time>2012-09-15T16:53:23.000Z</time>
      </trkpt>
      <trkpt lat="43.88629" lon="7.23018">
        <ele>538.8</ele>
        <time>2012-09-15T16:53:26.000Z</time>
      </trkpt>
      <trkpt lat="43.88633" lon="7.23025">
        <ele>536.6</ele>
        <time>2012-09-15T16:53:29.000Z</time>
      </trkpt>
      <trkpt lat="43.88632" lon="7.23033">
        <ele>533.6</ele>
        <time>2012-09-15T16:53:31.000Z</time>
      </trkpt>
      <trkpt lat="43.88628" lon="7.23038">
        <ele>536.3</ele>
        <time>2012-09-15T16:53:51.000Z</time>
      </trkpt>
      <trkpt lat="43.88626" lon="7.23044">
        <ele>534.1</ele>
        <time>2012-09-15T16:54:04.000Z</time>
      </trkpt>
      <trkpt lat="43.88623" lon="7.2305">
        <ele>538.7</ele>
        <time>2012-09-15T16:54:06.000Z</time>
      </trkpt>
      <trkpt lat="43.88619" lon="7.23055">
        <ele>539</ele>
        <time>2012-09-15T16:54:10.000Z</time>
      </trkpt>
      <trkpt lat="43.88619" lon="7.23062">
        <ele>535.2</ele>
        <time>2012-09-15T16:54:17.000Z</time>
      </trkpt>
      <trkpt lat="43.88615" lon="7.23067">
        <ele>531</ele>
        <time>2012-09-15T16:54:29.000Z</time>
      </trkpt>
      <trkpt lat="43.88614" lon="7.23073">
        <ele>530.5</ele>
        <time>2012-09-15T16:54:32.000Z</time>
      </trkpt>
      <trkpt lat="43.8862" lon="7.23078">
        <ele>532.5</ele>
        <time>2012-09-15T16:54:49.000Z</time>
      </trkpt>
      <trkpt lat="43.88624" lon="7.23076">
        <ele>531.3</ele>
        <time>2012-09-15T16:55:18.000Z</time>
      </trkpt>
      <trkpt lat="43.88632" lon="7.23075">
        <ele>524.5</ele>
        <time>2012-09-15T16:55:27.000Z</time>
      </trkpt>
      <trkpt lat="43.88637" lon="7.23074">
        <ele>520.2</ele>
        <time>2012-09-15T16:55:29.000Z</time>
      </trkpt>
      <trkpt lat="43.88642" lon="7.23077">
        <ele>518.6</ele>
        <time>2012-09-15T16:55:31.000Z</time>
      </trkpt>
      <trkpt lat="43.88647" lon="7.2308">
        <ele>518.1</ele>
        <time>2012-09-15T16:55:33.000Z</time>
      </trkpt>
      <trkpt lat="43.88652" lon="7.23083">
        <ele>516.9</ele>
        <time>2012-09-15T16:55:36.000Z</time>
      </trkpt>
      <trkpt lat="43.88661" lon="7.23084">
        <ele>514.4</ele>
        <time>2012-09-15T16:55:38.000Z</time>
      </trkpt>
      <trkpt lat="43.88668" lon="7.23085">
        <ele>513.4</ele>
        <time>2012-09-15T16:55:39.000Z</time>
      </trkpt>
      <trkpt lat="43.88675" lon="7.23085">
        <ele>513.6</ele>
        <time>2012-09-15T16:55:43.000Z</time>
      </trkpt>
      <trkpt lat="43.88677" lon="7.23093">
        <ele>507</ele>
        <time>2012-09-15T16:55:48.000Z</time>
      </trkpt>
      <trkpt lat="43.8868" lon="7.23101">
        <ele>504.5</ele>
        <time>2012-09-15T16:55:51.000Z</time>
      </trkpt>
      <trkpt lat="43.88679" lon="7.23108">
        <ele>503.1</ele>
        <time>2012-09-15T16:55:56.000Z</time>
      </trkpt>
      <trkpt lat="43.88677" lon="7.23115">
        <ele>504.4</ele>
        <time>2012-09-15T16:55:59.000Z</time>
      </trkpt>
      <trkpt lat="43.8868" lon="7.23123">
        <ele>498.1</ele>
        <time>2012-09-15T16:56:02.000Z</time>
      </trkpt>
      <trkpt lat="43.88683" lon="7.23129">
        <ele>501.7</ele>
        <time>2012-09-15T16:56:06.000Z</time>
      </trkpt>
      <trkpt lat="43.88688" lon="7.23134">
        <ele>503.2</ele>
        <time>2012-09-15T16:56:08.000Z</time>
      </trkpt>
      <trkpt lat="43.88693" lon="7.23142">
        <ele>505.2</ele>
        <time>2012-09-15T16:56:10.000Z</time>
      </trkpt>
      <trkpt lat="43.887" lon="7.23145">
        <ele>503.4</ele>
        <time>2012-09-15T16:56:12.000Z</time>
      </trkpt>
      <trkpt lat="43.88707" lon="7.23151">
        <ele>504.1</ele>
        <time>2012-09-15T16:56:14.000Z</time>
      </trkpt>
      <trkpt lat="43.88711" lon="7.23155">
        <ele>505.3</ele>
        <time>2012-09-15T16:56:15.000Z</time>
      </trkpt>
      <trkpt lat="43.88715" lon="7.23162">
        <ele>505.1</ele>
        <time>2012-09-15T16:56:17.000Z</time>
      </trkpt>
      <trkpt lat="43.88718" lon="7.2317">
        <ele>505.4</ele>
        <time>2012-09-15T16:56:19.000Z</time>
      </trkpt>
      <trkpt lat="43.88721" lon="7.23175">
        <ele>506.6</ele>
        <time>2012-09-15T16:56:21.000Z</time>
      </trkpt>
      <trkpt lat="43.88724" lon="7.2318">
        <ele>504.3</ele>
        <time>2012-09-15T16:56:23.000Z</time>
      </trkpt>
      <trkpt lat="43.88726" lon="7.23185">
        <ele>502.9</ele>
        <time>2012-09-15T16:56:25.000Z</time>
      </trkpt>
      <trkpt lat="43.8873" lon="7.23191">
        <ele>502.8</ele>
        <time>2012-09-15T16:56:27.000Z</time>
      </trkpt>
      <trkpt lat="43.88737" lon="7.23194">
        <ele>501.1</ele>
        <time>2012-09-15T16:56:29.000Z</time>
      </trkpt>
      <trkpt lat="43.88742" lon="7.23201">
        <ele>500.1</ele>
        <time>2012-09-15T16:56:30.000Z</time>
      </trkpt>
      <trkpt lat="43.88745" lon="7.23204">
        <ele>499.5</ele>
        <time>2012-09-15T16:56:31.000Z</time>
      </trkpt>
      <trkpt lat="43.8875" lon="7.23206">
        <ele>498.3</ele>
        <time>2012-09-15T16:56:32.000Z</time>
      </trkpt>
      <trkpt lat="43.88754" lon="7.23208">
        <ele>496.7</ele>
        <time>2012-09-15T16:56:33.000Z</time>
      </trkpt>
      <trkpt lat="43.8876" lon="7.23212">
        <ele>494.6</ele>
        <time>2012-09-15T16:56:35.000Z</time>
      </trkpt>
      <trkpt lat="43.88757" lon="7.23217">
        <ele>496.9</ele>
        <time>2012-09-15T16:56:39.000Z</time>
      </trkpt>
      <trkpt lat="43.8876" lon="7.23224">
        <ele>495.6</ele>
        <time>2012-09-15T16:56:41.000Z</time>
      </trkpt>
      <trkpt lat="43.88759" lon="7.23231">
        <ele>494.8</ele>
        <time>2012-09-15T16:56:46.000Z</time>
      </trkpt>
      <trkpt lat="43.88759" lon="7.23238">
        <ele>493.6</ele>
        <time>2012-09-15T16:56:50.000Z</time>
      </trkpt>
      <trkpt lat="43.8876" lon="7.23245">
        <ele>492.1</ele>
        <time>2012-09-15T16:56:52.000Z</time>
      </trkpt>
      <trkpt lat="43.88763" lon="7.2325">
        <ele>491.3</ele>
        <time>2012-09-15T16:56:54.000Z</time>
      </trkpt>
      <trkpt lat="43.88769" lon="7.2325">
        <ele>484.5</ele>
        <time>2012-09-15T16:56:56.000Z</time>
      </trkpt>
      <trkpt lat="43.88773" lon="7.23257">
        <ele>479.4</ele>
        <time>2012-09-15T16:56:59.000Z</time>
      </trkpt>
      <trkpt lat="43.88776" lon="7.23262">
        <ele>478.5</ele>
        <time>2012-09-15T16:57:02.000Z</time>
      </trkpt>
      <trkpt lat="43.88771" lon="7.23262">
        <ele>479.5</ele>
        <time>2012-09-15T16:57:04.000Z</time>
      </trkpt>
      <trkpt lat="43.88766" lon="7.2326">
        <ele>476.7</ele>
        <time>2012-09-15T16:57:07.000Z</time>
      </trkpt>
      <trkpt lat="43.88762" lon="7.23264">
        <ele>477.3</ele>
        <time>2012-09-15T16:57:33.000Z</time>
      </trkpt>
      <trkpt lat="43.88767" lon="7.23268">
        <ele>474.9</ele>
        <time>2012-09-15T16:57:39.000Z</time>
      </trkpt>
      <trkpt lat="43.88772" lon="7.23273">
        <ele>474.4</ele>
        <time>2012-09-15T16:57:42.000Z</time>
      </trkpt>
      <trkpt lat="43.88771" lon="7.2328">
        <ele>471.9</ele>
        <time>2012-09-15T16:58:39.000Z</time>
      </trkpt>
      <trkpt lat="43.88771" lon="7.23286">
        <ele>471</ele>
        <time>2012-09-15T16:58:44.000Z</time>
      </trkpt>
      <trkpt lat="43.88772" lon="7.23293">
        <ele>471</ele>
        <time>2012-09-15T16:58:47.000Z</time>
      </trkpt>
      <trkpt lat="43.88769" lon="7.23287">
        <ele>470</ele>
        <time>2012-09-15T16:59:14.000Z</time>
      </trkpt>
      <trkpt lat="43.88763" lon="7.2329">
        <ele>467.6</ele>
        <time>2012-09-15T16:59:18.000Z</time>
      </trkpt>
      <trkpt lat="43.88758" lon="7.23291">
        <ele>471.1</ele>
        <time>2012-09-15T16:59:22.000Z</time>
      </trkpt>
      <trkpt lat="43.88752" lon="7.23293">
        <ele>468</ele>
        <time>2012-09-15T16:59:32.000Z</time>
      </trkpt>
      <trkpt lat="43.88749" lon="7.23297">
        <ele>468.3</ele>
        <time>2012-09-15T16:59:46.000Z</time>
      </trkpt>
      <trkpt lat="43.88744" lon="7.23298">
        <ele>471.2</ele>
        <time>2012-09-15T16:59:54.000Z</time>
      </trkpt>
      <trkpt lat="43.88742" lon="7.23304">
        <ele>466.4</ele>
        <time>2012-09-15T16:59:58.000Z</time>
      </trkpt>
      <trkpt lat="43.88737" lon="7.23302">
        <ele>462.6</ele>
        <time>2012-09-15T17:00:09.000Z</time>
      </trkpt>
      <trkpt lat="43.8873" lon="7.23302">
        <ele>465</ele>
        <time>2012-09-15T17:00:12.000Z</time>
      </trkpt>
      <trkpt lat="43.88725" lon="7.23303">
        <ele>462.6</ele>
        <time>2012-09-15T17:00:19.000Z</time>
      </trkpt>
      <trkpt lat="43.8872" lon="7.23302">
        <ele>459.8</ele>
        <time>2012-09-15T17:00:26.000Z</time>
      </trkpt>
      <trkpt lat="43.88716" lon="7.23298">
        <ele>442.5</ele>
        <time>2012-09-15T17:00:33.000Z</time>
      </trkpt>
      <trkpt lat="43.88711" lon="7.23298">
        <ele>442</ele>
        <time>2012-09-15T17:00:36.000Z</time>
      </trkpt>
      <trkpt lat="43.88706" lon="7.23298">
        <ele>441.5</ele>
        <time>2012-09-15T17:00:38.000Z</time>
      </trkpt>
      <trkpt lat="43.88701" lon="7.23298">
        <ele>434</ele>
        <time>2012-09-15T17:00:42.000Z</time>
      </trkpt>
      <trkpt lat="43.88696" lon="7.23297">
        <ele>434.2</ele>
        <time>2012-09-15T17:00:44.000Z</time>
      </trkpt>
      <trkpt lat="43.88691" lon="7.23302">
        <ele>436</ele>
        <time>2012-09-15T17:00:47.000Z</time>
      </trkpt>
      <trkpt lat="43.88686" lon="7.23306">
        <ele>437.3</ele>
        <time>2012-09-15T17:00:50.000Z</time>
      </trkpt>
      <trkpt lat="43.88681" lon="7.23315">
        <ele>435.6</ele>
        <time>2012-09-15T17:00:53.000Z</time>
      </trkpt>
      <trkpt lat="43.8868" lon="7.23322">
        <ele>435.8</ele>
        <time>2012-09-15T17:00:54.000Z</time>
      </trkpt>
      <trkpt lat="43.88674" lon="7.2332">
        <ele>435.2</ele>
        <time>2012-09-15T17:00:56.000Z</time>
      </trkpt>
      <trkpt lat="43.88666" lon="7.2332">
        <ele>433.2</ele>
        <time>2012-09-15T17:00:58.000Z</time>
      </trkpt>
      <trkpt lat="43.88661" lon="7.23324">
        <ele>432.8</ele>
        <time>2012-09-15T17:01:00.000Z</time>
      </trkpt>
      <trkpt lat="43.88654" lon="7.23328">
        <ele>431.6</ele>
        <time>2012-09-15T17:01:02.000Z</time>
      </trkpt>
      <trkpt lat="43.88648" lon="7.23332">
        <ele>430.4</ele>
        <time>2012-09-15T17:01:04.000Z</time>
      </trkpt>
      <trkpt lat="43.88643" lon="7.23336">
        <ele>429.3</ele>
        <time>2012-09-15T17:01:06.000Z</time>
      </trkpt>
      <trkpt lat="43.88635" lon="7.23341">
        <ele>430.1</ele>
        <time>2012-09-15T17:01:08.000Z</time>
      </trkpt>
      <trkpt lat="43.88631" lon="7.23346">
        <ele>431</ele>
        <time>2012-09-15T17:01:09.000Z</time>
      </trkpt>
      <trkpt lat="43.88624" lon="7.2335">
        <ele>431.8</ele>
        <time>2012-09-15T17:01:11.000Z</time>
      </trkpt>
      <trkpt lat="43.88618" lon="7.23356">
        <ele>431.9</ele>
        <time>2012-09-15T17:01:13.000Z</time>
      </trkpt>
      <trkpt lat="43.88613" lon="7.23355">
        <ele>427.1</ele>
        <time>2012-09-15T17:01:18.000Z</time>
      </trkpt>
      <trkpt lat="43.88608" lon="7.2336">
        <ele>426.8</ele>
        <time>2012-09-15T17:01:22.000Z</time>
      </trkpt>
      <trkpt lat="43.8861" lon="7.2337">
        <ele>425.5</ele>
        <time>2012-09-15T17:01:26.000Z</time>
      </trkpt>
      <trkpt lat="43.88609" lon="7.2338">
        <ele>424.2</ele>
        <time>2012-09-15T17:01:28.000Z</time>
      </trkpt>
      <trkpt lat="43.88606" lon="7.23386">
        <ele>419.3</ele>
        <time>2012-09-15T17:01:33.000Z</time>
      </trkpt>
      <trkpt lat="43.88605" lon="7.23396">
        <ele>423.4</ele>
        <time>2012-09-15T17:02:12.000Z</time>
      </trkpt>
      <trkpt lat="43.88602" lon="7.23401">
        <ele>424.1</ele>
        <time>2012-09-15T17:02:14.000Z</time>
      </trkpt>
      <trkpt lat="43.886" lon="7.23406">
        <ele>426.6</ele>
        <time>2012-09-15T17:02:22.000Z</time>
      </trkpt>
      <trkpt lat="43.88594" lon="7.2341">
        <ele>422.5</ele>
        <time>2012-09-15T17:02:31.000Z</time>
      </trkpt>
      <trkpt lat="43.88589" lon="7.23412">
        <ele>418.4</ele>
        <time>2012-09-15T17:02:53.000Z</time>
      </trkpt>
      <trkpt lat="43.88585" lon="7.23419">
        <ele>417.6</ele>
        <time>2012-09-15T17:02:55.000Z</time>
      </trkpt>
      <trkpt lat="43.88582" lon="7.23425">
        <ele>418</ele>
        <time>2012-09-15T17:02:57.000Z</time>
      </trkpt>
      <trkpt lat="43.88577" lon="7.23429">
        <ele>416</ele>
        <time>2012-09-15T17:03:01.000Z</time>
      </trkpt>
      <trkpt lat="43.88573" lon="7.23434">
        <ele>420.3</ele>
        <time>2012-09-15T17:03:05.000Z</time>
      </trkpt>
      <trkpt lat="43.88574" lon="7.23442">
        <ele>420.7</ele>
        <time>2012-09-15T17:03:16.000Z</time>
      </trkpt>
      <trkpt lat="43.8857" lon="7.2344">
        <ele>421.2</ele>
        <time>2012-09-15T17:03:26.000Z</time>
      </trkpt>
      <trkpt lat="43.88575" lon="7.23438">
        <ele>417.6</ele>
        <time>2012-09-15T17:03:36.000Z</time>
      </trkpt>
      <trkpt lat="43.8858" lon="7.23434">
        <ele>415.9</ele>
        <time>2012-09-15T17:03:49.000Z</time>
      </trkpt>
      <trkpt lat="43.88585" lon="7.23433">
        <ele>414.6</ele>
        <time>2012-09-15T17:03:53.000Z</time>
      </trkpt>
      <trkpt lat="43.88587" lon="7.23427">
        <ele>413.8</ele>
        <time>2012-09-15T17:03:56.000Z</time>
      </trkpt>
      <trkpt lat="43.88591" lon="7.23422">
        <ele>415.6</ele>
        <time>2012-09-15T17:04:00.000Z</time>
      </trkpt>
      <trkpt lat="43.88591" lon="7.23415">
        <ele>414.8</ele>
        <time>2012-09-15T17:04:03.000Z</time>
      </trkpt>
      <trkpt lat="43.88595" lon="7.23415">
        <ele>417.1</ele>
        <time>2012-09-15T17:04:07.000Z</time>
      </trkpt>
      <trkpt lat="43.88598" lon="7.23409">
        <ele>420.2</ele>
        <time>2012-09-15T17:04:20.000Z</time>
      </trkpt>
      <trkpt lat="43.88604" lon="7.23406">
        <ele>420.8</ele>
        <time>2012-09-15T17:04:27.000Z</time>
      </trkpt>
      <trkpt lat="43.88609" lon="7.23402">
        <ele>421.7</ele>
        <time>2012-09-15T17:04:38.000Z</time>
      </trkpt>
      <trkpt lat="43.88612" lon="7.23396">
        <ele>423.8</ele>
        <time>2012-09-15T17:04:46.000Z</time>
      </trkpt>
      <trkpt lat="43.88616" lon="7.23393">
        <ele>424</ele>
        <time>2012-09-15T17:04:55.000Z</time>
      </trkpt>
      <trkpt lat="43.88616" lon="7.234">
        <ele>425.5</ele>
        <time>2012-09-15T17:05:02.000Z</time>
      </trkpt>
      <trkpt lat="43.88611" lon="7.234">
        <ele>422.2</ele>
        <time>2012-09-15T17:05:11.000Z</time>
      </trkpt>
      <trkpt lat="43.88606" lon="7.23405">
        <ele>423.7</ele>
        <time>2012-09-15T17:05:14.000Z</time>
      </trkpt>
      <trkpt lat="43.88602" lon="7.23412">
        <ele>424.7</ele>
        <time>2012-09-15T17:05:16.000Z</time>
      </trkpt>
      <trkpt lat="43.88598" lon="7.2342">
        <ele>425.3</ele>
        <time>2012-09-15T17:05:18.000Z</time>
      </trkpt>
      <trkpt lat="43.88592" lon="7.23428">
        <ele>425.8</ele>
        <time>2012-09-15T17:05:20.000Z</time>
      </trkpt>
      <trkpt lat="43.88589" lon="7.23433">
        <ele>426.1</ele>
        <time>2012-09-15T17:05:21.000Z</time>
      </trkpt>
      <trkpt lat="43.88586" lon="7.23438">
        <ele>425.6</ele>
        <time>2012-09-15T17:05:22.000Z</time>
      </trkpt>
      <trkpt lat="43.88582" lon="7.23443">
        <ele>425.8</ele>
        <time>2012-09-15T17:05:23.000Z</time>
      </trkpt>
      <trkpt lat="43.8858" lon="7.23448">
        <ele>425.2</ele>
        <time>2012-09-15T17:05:24.000Z</time>
      </trkpt>
      <trkpt lat="43.88577" lon="7.23454">
        <ele>425.8</ele>
        <time>2012-09-15T17:05:25.000Z</time>
      </trkpt>
      <trkpt lat="43.88574" lon="7.2346">
        <ele>425.5</ele>
        <time>2012-09-15T17:05:26.000Z</time>
      </trkpt>
      <trkpt lat="43.88569" lon="7.23463">
        <ele>424.8</ele>
        <time>2012-09-15T17:05:27.000Z</time>
      </trkpt>
      <trkpt lat="43.88563" lon="7.2347">
        <ele>425.2</ele>
        <time>2012-09-15T17:05:29.000Z</time>
      </trkpt>
      <trkpt lat="43.88559" lon="7.23476">
        <ele>425.9</ele>
        <time>2012-09-15T17:05:31.000Z</time>
      </trkpt>
      <trkpt lat="43.88553" lon="7.23483">
        <ele>426.1</ele>
        <time>2012-09-15T17:05:33.000Z</time>
      </trkpt>
      <trkpt lat="43.88549" lon="7.23486">
        <ele>420.1</ele>
        <time>2012-09-15T17:05:46.000Z</time>
      </trkpt>
      <trkpt lat="43.88544" lon="7.23488">
        <ele>418.7</ele>
        <time>2012-09-15T17:05:48.000Z</time>
      </trkpt>
      <trkpt lat="43.88537" lon="7.23493">
        <ele>418.1</ele>
        <time>2012-09-15T17:05:50.000Z</time>
      </trkpt>
      <trkpt lat="43.88532" lon="7.23496">
        <ele>417.3</ele>
        <time>2012-09-15T17:05:51.000Z</time>
      </trkpt>
      <trkpt lat="43.88528" lon="7.23502">
        <ele>416.4</ele>
        <time>2012-09-15T17:05:52.000Z</time>
      </trkpt>
      <trkpt lat="43.8852" lon="7.23506">
        <ele>416</ele>
        <time>2012-09-15T17:05:53.000Z</time>
      </trkpt>
      <trkpt lat="43.88511" lon="7.2351">
        <ele>415.9</ele>
        <time>2012-09-15T17:05:54.000Z</time>
      </trkpt>
      <trkpt lat="43.88503" lon="7.23515">
        <ele>415.5</ele>
        <time>2012-09-15T17:05:55.000Z</time>
      </trkpt>
      <trkpt lat="43.88493" lon="7.23513">
        <ele>413.1</ele>
        <time>2012-09-15T17:05:56.000Z</time>
      </trkpt>
      <trkpt lat="43.88485" lon="7.23513">
        <ele>413.4</ele>
        <time>2012-09-15T17:05:57.000Z</time>
      </trkpt>
      <trkpt lat="43.88474" lon="7.23512">
        <ele>413.1</ele>
        <time>2012-09-15T17:05:58.000Z</time>
      </trkpt>
      <trkpt lat="43.88462" lon="7.23511">
        <ele>412.3</ele>
        <time>2012-09-15T17:05:59.000Z</time>
      </trkpt>
      <trkpt lat="43.88453" lon="7.23514">
        <ele>410.2</ele>
        <time>2012-09-15T17:06:00.000Z</time>
      </trkpt>
      <trkpt lat="43.88443" lon="7.23515">
        <ele>409.5</ele>
        <time>2012-09-15T17:06:01.000Z</time>
      </trkpt>
      <trkpt lat="43.88433" lon="7.23517">
        <ele>410</ele>
        <time>2012-09-15T17:06:02.000Z</time>
      </trkpt>
      <trkpt lat="43.88423" lon="7.2352">
        <ele>408</ele>
        <time>2012-09-15T17:06:03.000Z</time>
      </trkpt>
      <trkpt lat="43.88414" lon="7.23521">
        <ele>408.3</ele>
        <time>2012-09-15T17:06:04.000Z</time>
      </trkpt>
      <trkpt lat="43.88406" lon="7.23523">
        <ele>406.2</ele>
        <time>2012-09-15T17:06:05.000Z</time>
      </trkpt>
      <trkpt lat="43.88395" lon="7.23525">
        <ele>409</ele>
        <time>2012-09-15T17:06:06.000Z</time>
      </trkpt>
      <trkpt lat="43.88386" lon="7.23529">
        <ele>411.4</ele>
        <time>2012-09-15T17:06:07.000Z</time>
      </trkpt>
      <trkpt lat="43.88378" lon="7.23534">
        <ele>413.8</ele>
        <time>2012-09-15T17:06:08.000Z</time>
      </trkpt>
      <trkpt lat="43.88372" lon="7.23539">
        <ele>417</ele>
        <time>2012-09-15T17:06:09.000Z</time>
      </trkpt>
      <trkpt lat="43.88366" lon="7.23546">
        <ele>416.1</ele>
        <time>2012-09-15T17:06:10.000Z</time>
      </trkpt>
      <trkpt lat="43.88362" lon="7.23552">
        <ele>415.7</ele>
        <time>2012-09-15T17:06:11.000Z</time>
      </trkpt>
      <trkpt lat="43.88356" lon="7.23558">
        <ele>416</ele>
        <time>2012-09-15T17:06:12.000Z</time>
      </trkpt>
      <trkpt lat="43.8835" lon="7.23563">
        <ele>416.6</ele>
        <time>2012-09-15T17:06:13.000Z</time>
      </trkpt>
      <trkpt lat="43.88349" lon="7.2357">
        <ele>415.5</ele>
        <time>2012-09-15T17:06:14.000Z</time>
      </trkpt>
      <trkpt lat="43.88347" lon="7.23579">
        <ele>414.8</ele>
        <time>2012-09-15T17:06:15.000Z</time>
      </trkpt>
      <trkpt lat="43.88347" lon="7.23588">
        <ele>413.6</ele>
        <time>2012-09-15T17:06:16.000Z</time>
      </trkpt>
      <trkpt lat="43.88346" lon="7.23598">
        <ele>413.3</ele>
        <time>2012-09-15T17:06:17.000Z</time>
      </trkpt>
      <trkpt lat="43.88345" lon="7.23606">
        <ele>413.4</ele>
        <time>2012-09-15T17:06:18.000Z</time>
      </trkpt>
      <trkpt lat="43.88342" lon="7.23618">
        <ele>412.6</ele>
        <time>2012-09-15T17:06:19.000Z</time>
      </trkpt>
      <trkpt lat="43.8834" lon="7.23629">
        <ele>411.8</ele>
        <time>2012-09-15T17:06:20.000Z</time>
      </trkpt>
      <trkpt lat="43.88339" lon="7.23641">
        <ele>412.1</ele>
        <time>2012-09-15T17:06:21.000Z</time>
      </trkpt>
      <trkpt lat="43.88338" lon="7.23651">
        <ele>412.2</ele>
        <time>2012-09-15T17:06:22.000Z</time>
      </trkpt>
      <trkpt lat="43.88338" lon="7.2366">
        <ele>412.7</ele>
        <time>2012-09-15T17:06:23.000Z</time>
      </trkpt>
      <trkpt lat="43.88338" lon="7.23675">
        <ele>413.1</ele>
        <time>2012-09-15T17:06:25.000Z</time>
      </trkpt>
      <trkpt lat="43.88337" lon="7.23681">
        <ele>410.6</ele>
        <time>2012-09-15T17:06:31.000Z</time>
      </trkpt>
      <trkpt lat="43.88342" lon="7.23684">
        <ele>410.6</ele>
        <time>2012-09-15T17:06:35.000Z</time>
      </trkpt>
    </trkseg>
  </trk>
</gpx>